# Wetter Temperatur Luftdruck Luftfeuchtigkeit Sichtweite Windgeschwindigkeit Windrichtung Zeit
1 Drizzle 21 1015 88 10000 2.6 140 19:40 12.07.2020
2 Drizzle 21 1015 88 10000 2.6 140 19:21 12.07.2020
3 Rain 21 1015 88 10000 1.5 90 18:55 12.07.2020
4 Rain 21 1016 88 5000 2.6 140 18:37 12.07.2020
5 Rain 21 1016 88 5000 2.6 140 18:18 12.07.2020
6 Haze 21 1015 94 5000 2.6 130 17:38 12.07.2020
7 Rain 21 1015 94 10000 2.1 140 17:20 12.07.2020
8 Rain 21 1014 88 10000 2.6 110 16:48 12.07.2020
9 Rain 21 1014 94 7000 4.6 90 16:23 12.07.2020
10 Rain 21 1014 88 10000 4.6 100 15:51 12.07.2020
11 Rain 22 1015 83 10000 4.6 110 15:31 12.07.2020
12 Rain 22 1015 83 10000 4.1 110 14:58 12.07.2020
13 Rain 22 1015 83 10000 4.1 110 14:40 12.07.2020
14 Drizzle 22 1016 88 10000 4.1 120 14:22 12.07.2020
15 Rain 22 1016 88 10000 1.5 50 13:40 12.07.2020
16 Rain 22 1016 88 10000 3.6 100 13:21 12.07.2020
17 Rain 22 1016 88 10000 3.6 110 12:57 12.07.2020
18 Rain 22 1016 88 10000 4.1 120 12:38 12.07.2020
19 Rain 22 1016 88 10000 4.1 120 12:38 12.07.2020
20 Rain 22 1016 88 10000 4.1 120 12:38 12.07.2020
21 Rain 22 1016 88 10000 4.1 120 12:18 12.07.2020
22 Rain 22 1016 88 10000 3.6 120 11:44 12.07.2020
23 Rain 22 1017 88 10000 3.6 110 11:21 12.07.2020
24 Rain 22 1017 88 10000 2.6 110 10:45 12.07.2020
25 Rain 22 1017 88 10000 3.1 120 10:23 12.07.2020
26 Rain 22 1017 88 10000 1.5 130 09:59 12.07.2020
27 Rain 22 1017 88 10000 1.5 130 09:40 12.07.2020
28 Rain 22 1017 88 10000 2.1 120 09:21 12.07.2020
29 Rain 22 1017 88 10000 2.6 100 08:55 12.07.2020
30 Rain 22 1017 88 10000 1.5 90 08:37 12.07.2020
31 Rain 22 1017 88 10000 1.5 90 08:18 12.07.2020
32 Drizzle 22 1016 88 10000 1.5 140 07:45 12.07.2020
33 Drizzle 22 1016 88 10000 1.5 140 07:22 12.07.2020
34 Rain 23 1016 83 10000 1.5 130 06:51 12.07.2020
35 Rain 23 1015 88 10000 2.1 130 06:22 12.07.2020
36 Rain 23 1015 88 10000 2.6 110 05:42 12.07.2020
37 Rain 23 1015 94 10000 0.5 230 04:56 12.07.2020
38 Rain 23 1015 88 10000 0.5 110 04:26 12.07.2020
39 Rain 24 1015 83 10000 2.1 110 03:34 12.07.2020
40 Rain 24 1016 83 10000 3.1 100 02:55 12.07.2020
41 Rain 24 1016 83 10000 3.1 100 01:46 12.07.2020
42 Rain 24 1016 83 10000 3.6 90 00:54 12.07.2020
43 Rain 25 1017 78 10000 3.6 100 00:23 12.07.2020
44 Rain 25 1017 78 10000 3.6 110 23:57 11.07.2020
45 Rain 25 1017 78 10000 3.6 110 23:39 11.07.2020
46 Clouds 25 1017 78 10000 3.6 100 23:20 11.07.2020
47 Clouds 24 1017 83 10000 3.6 100 22:55 11.07.2020
48 Clouds 24 1017 83 10000 3.6 100 22:37 11.07.2020
49 Clouds 24 1017 83 10000 1.5 90 22:18 11.07.2020
50 Clouds 24 1017 78 10000 2.6 90 21:41 11.07.2020
51 Rain 23 1017 88 10000 1.5 100 21:23 11.07.2020
52 Rain 23 1017 83 10000 1 140 20:56 11.07.2020
53 Rain 23 1017 83 10000 1 140 20:38 11.07.2020
54 Rain 23 1016 83 10000 2.1 130 20:20 11.07.2020
55 Rain 23 1016 78 10000 1.5 110 19:56 11.07.2020
56 Rain 23 1016 78 10000 1.5 110 19:56 11.07.2020
57 Rain 23 1016 78 10000 2.1 100 19:38 11.07.2020
58 Rain 23 1016 78 10000 2.1 100 19:20 11.07.2020
59 Rain 23 1015 78 10000 4.1 100 18:55 11.07.2020
60 Rain 23 1015 83 10000 2.1 110 18:36 11.07.2020
61 Rain 23 1015 83 10000 2.1 110 18:18 11.07.2020
62 Rain 23 1015 83 10000 2.1 110 17:41 11.07.2020
63 Drizzle 22 1015 88 10000 1 100 17:21 11.07.2020
64 Rain 22 1015 88 10000 0.5 300 16:59 11.07.2020
65 Rain 22 1015 88 10000 0.5 300 16:38 11.07.2020
66 Rain 22 1015 88 10000 1.5 110 16:19 11.07.2020
67 Rain 22 1015 88 10000 1.5 110 16:19 11.07.2020
68 Rain 22 1015 94 10000 0.5 190 15:57 11.07.2020
69 Rain 22 1015 94 10000 0.5 190 15:37 11.07.2020
70 Rain 22 1015 94 10000 1.5 110 15:18 11.07.2020
71 Rain 22 1015 94 10000 2.6 130 14:43 11.07.2020
72 Rain 22 1015 94 10000 2.6 120 14:23 11.07.2020
73 Rain 23 1015 83 10000 1.5 130 13:44 11.07.2020
74 Clouds 22 1015 88 10000 1 190 13:23 11.07.2020
75 Clouds 22 1015 88 10000 2.6 110 13:00 11.07.2020
76 Clouds 22 1015 88 10000 3.1 90 12:41 11.07.2020
77 Clouds 22 1015 88 10000 3.1 90 12:23 11.07.2020
78 Clouds 22 1016 88 10000 2.6 90 11:58 11.07.2020
79 Clouds 22 1016 88 10000 2.6 90 11:40 11.07.2020
80 Rain 22 1016 94 10000 1.5 100 11:19 11.07.2020
81 Rain 22 1016 94 10000 2.6 130 10:45 11.07.2020
82 Rain 22 1016 94 10000 1 150 10:26 11.07.2020
83 Rain 22 1016 94 7000 1 130 09:56 11.07.2020
84 Rain 22 1016 94 10000 1 360 09:36 11.07.2020
85 Rain 22 1016 94 10000 1 360 09:18 11.07.2020
86 Rain 22 1016 94 6000 0.5 150 08:37 11.07.2020
87 Rain 22 1016 94 10000 1.5 190 08:19 11.07.2020
88 Clouds 22 1015 94 10000 1 180 07:46 11.07.2020
89 Clouds 23 1015 88 10000 1 330 07:27 11.07.2020
90 Rain 23 1015 88 10000 2.6 100 06:56 11.07.2020
91 Rain 24 1015 78 10000 2.1 150 06:22 11.07.2020
92 Clouds 24 1014 78 10000 1 130 05:36 11.07.2020
93 Clouds 24 1014 78 10000 2.1 100 04:56 11.07.2020
94 Clouds 24 1014 78 10000 1.5 130 04:33 11.07.2020
95 Clouds 24 1015 78 10000 2.1 70 03:32 11.07.2020
96 Clouds 24 1014 78 10000 2.6 90 02:40 11.07.2020
97 Clouds 24 1015 83 10000 4.6 70 01:49 11.07.2020
98 Clouds 25 1015 78 10000 1.5 260 01:18 11.07.2020
99 Clouds 25 1015 78 10000 3.6 130 00:41 11.07.2020
100 Clouds 26 1015 74 10000 1.5 120 00:22 11.07.2020
101 Clouds 26 1016 74 10000 3.6 70 23:58 10.07.2020
102 Clouds 26 1016 74 10000 3.6 70 23:39 10.07.2020
103 Clouds 25 1016 83 10000 4.6 80 23:19 10.07.2020
104 Clouds 25 1016 78 10000 2.6 80 22:46 10.07.2020
105 Clouds 25 1016 78 10000 2.6 80 22:21 10.07.2020
106 Clouds 24 1016 83 10000 1.5 100 21:58 10.07.2020
107 Clouds 24 1016 83 10000 1.5 100 21:37 10.07.2020
108 Haze 24 1016 83 4100 1.5 130 21:19 10.07.2020
109 Clear 22 1015 94 10000 1.5 120 20:43 10.07.2020
110 Clouds 21 1015 94 10000 1 110 20:23 10.07.2020
111 Clouds 21 1015 94 10000 1 110 20:23 10.07.2020
112 Clouds 20 1015 100 10000 1 110 19:58 10.07.2020
113 Clouds 20 1015 94 10000 1 90 19:40 10.07.2020
114 Clouds 20 1015 94 10000 1 90 19:21 10.07.2020
115 Clouds 20 1015 100 10000 1 120 18:42 10.07.2020
116 Clouds 20 1015 100 10000 1 120 18:22 10.07.2020
117 Clouds 20 1015 94 10000 0.5 190 17:58 10.07.2020
118 Clouds 20 1015 94 10000 0.5 190 17:39 10.07.2020
119 Clouds 21 1015 94 10000 0.5 80 17:21 10.07.2020
120 Clouds 21 1015 94 10000 1 100 16:43 10.07.2020
121 Clouds 22 1015 94 10000 1.5 110 16:21 10.07.2020
122 Clouds 22 1015 94 10000 1.5 110 15:49 10.07.2020
123 Clouds 20 1015 94 10000 1 80 15:27 10.07.2020
124 Clouds 21 1016 88 10000 0.5 140 15:00 10.07.2020
125 Clouds 21 1016 88 10000 0.5 140 14:40 10.07.2020
126 Clouds 21 1016 88 10000 0.5 50 14:20 10.07.2020
127 Clouds 21 1016 88 10000 0.5 50 14:20 10.07.2020
128 Clouds 22 1016 88 10000 1 100 13:57 10.07.2020
129 Clouds 23 1016 83 10000 1.5 120 13:38 10.07.2020
130 Clouds 23 1016 83 10000 1.5 120 13:20 10.07.2020
131 Clouds 23 1016 83 10000 2.6 90 12:56 10.07.2020
132 Clouds 23 1016 83 10000 3.1 100 12:37 10.07.2020
133 Clouds 23 1016 83 10000 3.1 100 12:19 10.07.2020
134 Clouds 23 1015 83 10000 4.1 90 11:41 10.07.2020
135 Clouds 23 1015 83 10000 4.1 90 11:20 10.07.2020
136 Clouds 23 1016 83 10000 3.6 90 10:56 10.07.2020
137 Clouds 23 1016 83 10000 3.6 90 10:38 10.07.2020
138 Clouds 23 1016 83 10000 2.6 100 10:18 10.07.2020
139 Clouds 23 1016 83 10000 2.6 100 09:40 10.07.2020
140 Clouds 22 1016 88 10000 1.5 100 09:22 10.07.2020
141 Clouds 22 1016 88 10000 1 130 08:58 10.07.2020
142 Clouds 22 1016 88 10000 1 130 08:40 10.07.2020
143 Clouds 23 1016 83 10000 1.5 100 08:21 10.07.2020
144 Clouds 23 1016 83 10000 2.1 100 07:44 10.07.2020
145 Clouds 23 1016 83 10000 1.5 100 07:23 10.07.2020
146 Clouds 23 1016 83 10000 2.1 100 06:52 10.07.2020
147 Clouds 23 1016 83 10000 2.1 100 06:52 10.07.2020
148 Clouds 23 1015 78 10000 3.1 100 06:27 10.07.2020
149 Clouds 24 1015 78 10000 3.6 90 05:19 10.07.2020
150 Clouds 26 1015 69 10000 5.7 60 03:42 10.07.2020
151 Clouds 25 1015 73 10000 6.7 60 02:53 10.07.2020
152 Clouds 25 1016 69 10000 6.2 60 01:53 10.07.2020
153 Clouds 26 1017 69 10000 6.2 60 00:49 10.07.2020
154 Clouds 26 1017 65 10000 6.2 60 00:21 10.07.2020
155 Clouds 25 1017 69 10000 6.7 60 23:55 09.07.2020
156 Clouds 26 1017 69 10000 6.7 60 23:36 09.07.2020
157 Clouds 26 1017 69 10000 6.7 60 23:18 09.07.2020
158 Clouds 25 1017 69 10000 5.7 70 22:41 09.07.2020
159 Clouds 24 1018 69 10000 3.6 90 22:21 09.07.2020
160 Clouds 24 1018 73 10000 7.2 70 21:59 09.07.2020
161 Clouds 24 1018 73 10000 7.2 70 21:39 09.07.2020
162 Clouds 24 1017 73 10000 6.7 70 21:19 09.07.2020
163 Clouds 24 1017 73 10000 4.6 60 20:45 09.07.2020
164 Clouds 24 1017 69 10000 5.7 50 20:26 09.07.2020
165 Clouds 23 1017 78 10000 6.2 60 19:59 09.07.2020
166 Clouds 23 1017 78 10000 6.2 60 19:41 09.07.2020
167 Clouds 24 1017 73 10000 6.2 60 19:21 09.07.2020
168 Clouds 24 1017 73 10000 6.2 70 18:43 09.07.2020
169 Clouds 24 1016 69 10000 6.2 70 18:22 09.07.2020
170 Clouds 24 1016 69 10000 6.7 70 17:56 09.07.2020
171 Clouds 24 1016 69 10000 6.7 70 17:38 09.07.2020
172 Clouds 24 1016 73 10000 6.2 70 17:19 09.07.2020
173 Clouds 24 1016 69 10000 6.2 70 16:55 09.07.2020
174 Clouds 24 1016 69 10000 6.2 70 16:37 09.07.2020
175 Clouds 24 1017 69 10000 6.7 70 16:19 09.07.2020
176 Rain 23 1017 73 10000 6.2 60 15:54 09.07.2020
177 Clouds 24 1017 69 10000 7.2 70 15:36 09.07.2020
178 Clouds 24 1017 69 10000 7.2 70 15:18 09.07.2020
179 Clouds 23 1017 78 10000 7.2 70 14:54 09.07.2020
180 Clouds 23 1018 78 10000 6.2 70 14:36 09.07.2020
181 Clouds 23 1018 78 10000 6.2 70 14:18 09.07.2020
182 Clouds 23 1018 73 10000 6.2 80 13:41 09.07.2020
183 Clouds 24 1018 69 10000 7.2 70 13:20 09.07.2020
184 Clouds 23 1018 73 10000 7.7 70 12:57 09.07.2020
185 Clouds 23 1018 73 10000 7.7 70 12:39 09.07.2020
186 Clouds 23 1018 73 10000 7.7 70 12:20 09.07.2020
187 Clouds 23 1018 73 10000 8.2 70 11:44 09.07.2020
188 Clouds 23 1018 73 10000 7.7 70 11:26 09.07.2020
189 Clouds 23 1018 78 10000 7.7 70 10:59 09.07.2020
190 Clouds 23 1018 78 10000 7.7 70 10:41 09.07.2020
191 Clouds 24 1018 69 10000 8.2 70 10:23 09.07.2020
192 Clouds 23 1018 73 10000 7.7 70 09:58 09.07.2020
193 Clouds 23 1018 73 10000 7.7 70 09:39 09.07.2020
194 Clouds 24 1018 73 10000 7.7 70 09:21 09.07.2020
195 Clouds 24 1018 69 10000 7.7 60 08:43 09.07.2020
196 Clouds 23 1018 73 10000 7.7 70 08:24 09.07.2020
197 Clouds 23 1018 73 10000 7.2 70 07:47 09.07.2020
198 Clouds 22 1017 78 10000 5.7 70 07:22 09.07.2020
199 Clouds 23 1017 73 10000 5.7 90 06:50 09.07.2020
200 Clouds 23 1017 73 10000 7.7 80 06:19 09.07.2020
201 Clouds 25 1017 65 10000 8.7 70 04:29 09.07.2020
202 Clouds 26 1017 65 10000 8.2 60 03:32 09.07.2020
203 Clouds 25 1017 65 10000 10.3 70 02:19 09.07.2020
204 Clouds 25 1018 65 10000 8.7 70 01:32 09.07.2020
205 Clouds 25 1019 65 10000 7.2 70 00:46 09.07.2020
206 Clouds 25 1019 65 10000 7.2 70 00:23 09.07.2020
207 Clouds 25 1019 69 10000 7.2 80 23:46 08.07.2020
208 Clouds 25 1019 65 10000 9.3 70 23:27 08.07.2020
209 Clouds 25 1019 65 10000 8.7 70 22:57 08.07.2020
210 Clouds 25 1019 65 10000 8.7 70 22:38 08.07.2020
211 Clouds 24 1019 69 10000 7.2 70 22:20 08.07.2020
212 Clouds 24 1019 64 10000 9.3 70 21:57 08.07.2020
213 Clouds 24 1019 69 10000 10.3 80 21:38 08.07.2020
214 Clouds 24 1019 69 10000 10.3 80 21:20 08.07.2020
215 Clouds 23 1019 69 10000 7.7 80 20:43 08.07.2020
216 Clouds 23 1018 64 10000 7.2 80 20:25 08.07.2020
217 Clouds 22 1019 68 10000 4.6 90 19:58 08.07.2020
218 Clouds 22 1019 68 10000 4.6 90 19:39 08.07.2020
219 Clouds 22 1018 68 10000 6.2 80 19:21 08.07.2020
220 Clouds 23 1018 64 10000 7.2 80 18:42 08.07.2020
221 Clouds 23 1018 69 10000 4.1 100 18:21 08.07.2020
222 Clouds 22 1018 68 10000 3.6 90 17:59 08.07.2020
223 Clouds 22 1018 68 10000 3.6 90 17:40 08.07.2020
224 Clouds 22 1018 68 10000 4.6 80 17:21 08.07.2020
225 Clouds 22 1018 64 10000 4.1 90 16:58 08.07.2020
226 Clouds 22 1018 64 10000 4.1 90 16:38 08.07.2020
227 Clouds 22 1018 68 10000 5.1 80 16:19 08.07.2020
228 Clouds 22 1018 64 10000 4.6 80 15:58 08.07.2020
229 Clouds 22 1018 64 10000 4.6 80 15:38 08.07.2020
230 Clouds 23 1019 56 10000 4.6 90 15:19 08.07.2020
231 Clouds 22 1019 68 10000 4.1 100 14:44 08.07.2020
232 Clouds 23 1019 60 10000 5.7 90 14:25 08.07.2020
233 Clouds 22 1019 68 10000 4.1 90 13:57 08.07.2020
234 Clouds 22 1019 64 10000 4.1 90 13:38 08.07.2020
235 Clouds 22 1019 64 10000 4.1 90 13:18 08.07.2020
236 Clouds 23 1019 60 10000 6.2 90 12:41 08.07.2020
237 Clouds 23 1019 60 10000 6.2 90 12:20 08.07.2020
238 Clouds 23 1019 64 10000 7.2 90 11:55 08.07.2020
239 Clouds 23 1019 69 10000 6.7 80 11:37 08.07.2020
240 Clouds 23 1019 69 10000 6.7 80 11:19 08.07.2020
241 Clouds 23 1019 69 10000 6.2 90 10:42 08.07.2020
242 Clouds 23 1019 69 10000 7.2 80 10:23 08.07.2020
243 Clouds 23 1019 69 10000 7.7 80 09:45 08.07.2020
244 Clouds 23 1019 69 10000 6.2 80 09:25 08.07.2020
245 Clouds 23 1019 69 10000 7.2 80 08:44 08.07.2020
246 Clouds 23 1019 69 10000 5.7 90 08:25 08.07.2020
247 Clouds 23 1018 69 10000 5.1 90 07:51 08.07.2020
248 Clouds 23 1018 69 10000 5.7 90 07:25 08.07.2020
249 Clouds 23 1018 69 10000 5.1 90 06:59 08.07.2020
250 Clouds 23 1018 69 10000 5.1 90 06:59 08.07.2020
251 Clouds 23 1018 69 10000 5.1 90 06:39 08.07.2020
252 Clouds 23 1018 69 10000 5.7 90 06:20 08.07.2020
253 Clouds 23 1018 69 10000 7.2 90 05:44 08.07.2020
254 Clouds 24 1017 64 10000 7.7 90 04:39 08.07.2020
255 Clouds 24 1017 64 10000 7.2 90 03:25 08.07.2020
256 Rain 25 1018 65 10000 8.7 90 01:57 08.07.2020
257 Rain 25 1018 65 10000 8.2 90 01:37 08.07.2020
258 Clouds 24 1019 69 10000 9.3 80 00:39 08.07.2020
259 Clouds 24 1019 69 10000 9.3 80 00:19 08.07.2020
260 Clouds 25 1019 65 10000 8.7 90 23:41 07.07.2020
261 Clouds 24 1019 69 10000 9.3 80 23:20 07.07.2020
262 Clouds 24 1019 69 10000 7.2 90 22:45 07.07.2020
263 Clouds 24 1019 69 10000 8.2 90 22:24 07.07.2020
264 Clouds 24 1019 69 10000 8.2 90 21:59 07.07.2020
265 Clouds 24 1019 69 10000 8.2 90 21:41 07.07.2020
266 Clouds 23 1019 73 10000 7.2 100 21:21 07.07.2020
267 Clouds 23 1019 73 10000 6.2 90 20:58 07.07.2020
268 Clouds 23 1019 73 10000 6.2 90 20:39 07.07.2020
269 Clouds 23 1019 73 10000 6.2 90 20:39 07.07.2020
270 Clouds 22 1018 78 10000 4.6 90 20:21 07.07.2020
271 Clouds 22 1018 78 10000 5.1 100 19:43 07.07.2020
272 Rain 23 1018 73 10000 3.6 100 19:21 07.07.2020
273 Rain 23 1018 73 10000 4.1 100 18:59 07.07.2020
274 Rain 23 1018 73 10000 4.1 100 18:40 07.07.2020
275 Rain 22 1017 78 10000 5.7 90 18:22 07.07.2020
276 Rain 23 1018 73 10000 5.7 100 17:58 07.07.2020
277 Rain 23 1018 73 10000 5.7 100 17:39 07.07.2020
278 Clouds 22 1017 78 10000 5.1 100 17:21 07.07.2020
279 Clouds 23 1017 78 10000 4.6 110 16:58 07.07.2020
280 Clouds 23 1017 78 10000 4.6 110 16:38 07.07.2020
281 Clouds 23 1017 78 10000 4.6 100 16:20 07.07.2020
282 Clouds 23 1017 73 10000 5.7 100 15:42 07.07.2020
283 Clouds 23 1018 73 10000 4.1 100 15:20 07.07.2020
284 Clouds 23 1018 78 10000 4.6 110 14:47 07.07.2020
285 Rain 23 1018 78 10000 6.2 100 14:27 07.07.2020
286 Rain 23 1018 78 10000 5.7 100 13:59 07.07.2020
287 Rain 23 1018 78 10000 5.7 100 13:38 07.07.2020
288 Rain 23 1018 78 10000 5.7 100 13:38 07.07.2020
289 Clouds 23 1018 78 10000 5.7 100 13:18 07.07.2020
290 Clouds 22 1018 83 10000 5.7 90 12:40 07.07.2020
291 Rain 22 1018 83 10000 5.7 90 12:22 07.07.2020
292 Rain 22 1018 83 10000 5.7 90 12:22 07.07.2020
293 Rain 22 1018 83 10000 5.1 90 11:50 07.07.2020
294 Clouds 22 1018 83 10000 6.7 90 11:26 07.07.2020
295 Clouds 23 1018 78 10000 6.2 100 10:59 07.07.2020
296 Clouds 23 1018 78 10000 6.2 100 10:41 07.07.2020
297 Clouds 23 1018 78 10000 6.2 100 10:22 07.07.2020
298 Clouds 23 1018 78 10000 6.2 90 09:56 07.07.2020
299 Clouds 23 1018 78 10000 6.2 90 09:37 07.07.2020
300 Rain 22 1018 83 10000 6.7 100 09:18 07.07.2020
301 Rain 22 1018 83 10000 6.2 90 08:41 07.07.2020
302 Rain 22 1018 83 10000 6.2 90 08:22 07.07.2020
303 Rain 22 1017 83 10000 6.2 90 07:42 07.07.2020
304 Clouds 22 1017 83 10000 6.2 90 07:22 07.07.2020
305 Clouds 22 1017 83 10000 6.7 90 06:49 07.07.2020
306 Clouds 23 1016 78 10000 5.7 90 06:28 07.07.2020
307 Clouds 23 1016 78 10000 5.7 80 05:51 07.07.2020
308 Clouds 23 1016 78 10000 6.7 90 05:21 07.07.2020
309 Clouds 23 1016 83 10000 7.2 90 04:38 07.07.2020
310 Rain 23 1016 83 5000 9.3 80 03:35 07.07.2020
311 Clouds 24 1017 73 10000 6.7 90 02:21 07.07.2020
312 Clouds 24 1018 73 10000 7.2 90 01:22 07.07.2020
313 Clouds 24 1019 73 10000 5.1 100 00:42 07.07.2020
314 Clouds 24 1019 73 10000 5.1 100 00:23 07.07.2020
315 Clouds 24 1019 69 10000 6.2 90 23:45 06.07.2020
316 Clouds 24 1019 73 10000 6.2 90 23:26 06.07.2020
317 Clouds 24 1019 69 10000 5.1 90 22:59 06.07.2020
318 Clouds 24 1019 69 10000 5.1 90 22:40 06.07.2020
319 Clouds 23 1019 73 10000 7.2 90 22:19 06.07.2020
320 Clouds 23 1019 69 10000 6.2 100 21:57 06.07.2020
321 Clouds 23 1019 69 10000 6.2 100 21:37 06.07.2020
322 Clouds 22 1019 73 10000 5.1 100 21:19 06.07.2020
323 Clouds 22 1019 73 10000 5.1 100 21:19 06.07.2020
324 Clouds 22 1019 73 10000 4.6 100 20:55 06.07.2020
325 Clouds 22 1018 73 10000 3.6 110 20:36 06.07.2020
326 Clouds 22 1018 73 10000 3.6 110 20:18 06.07.2020
327 Clouds 21 1018 77 10000 4.1 90 19:42 06.07.2020
328 Clouds 21 1018 77 10000 4.1 90 19:23 06.07.2020
329 Clouds 22 1018 73 10000 3.1 100 18:59 06.07.2020
330 Clouds 22 1018 73 10000 3.6 100 18:41 06.07.2020
331 Clouds 22 1018 73 10000 3.6 100 18:41 06.07.2020
332 Clouds 22 1018 73 10000 3.6 100 18:23 06.07.2020
333 Clouds 22 1017 73 10000 3.6 100 17:57 06.07.2020
334 Clouds 22 1017 73 10000 3.6 100 17:38 06.07.2020
335 Clouds 22 1017 73 10000 4.6 100 17:19 06.07.2020
336 Clouds 21 1017 77 10000 3.1 100 16:43 06.07.2020
337 Clouds 21 1018 77 10000 2.6 110 16:24 06.07.2020
338 Clouds 21 1018 77 10000 2.1 100 15:57 06.07.2020
339 Clouds 21 1018 77 10000 2.1 100 15:38 06.07.2020
340 Clouds 22 1018 73 10000 3.6 100 15:19 06.07.2020
341 Clouds 21 1018 77 10000 3.6 100 14:41 06.07.2020
342 Clouds 21 1019 77 10000 2.6 110 14:23 06.07.2020
343 Clouds 21 1019 77 10000 3.1 100 13:59 06.07.2020
344 Clouds 21 1019 77 10000 3.1 110 13:40 06.07.2020
345 Clouds 21 1019 77 10000 3.1 110 13:21 06.07.2020
346 Clouds 21 1019 77 10000 4.1 110 12:44 06.07.2020
347 Rain 21 1019 77 10000 3.6 100 12:20 06.07.2020
348 Rain 21 1019 77 10000 4.1 120 11:59 06.07.2020
349 Rain 21 1019 77 10000 3.6 100 11:40 06.07.2020
350 Clouds 21 1019 77 10000 3.6 100 11:22 06.07.2020
351 Rain 21 1019 77 10000 5.1 100 10:58 06.07.2020
352 Rain 21 1019 77 10000 5.1 100 10:39 06.07.2020
353 Drizzle 21 1019 77 10000 5.1 100 10:18 06.07.2020
354 Rain 21 1019 77 10000 3.6 100 09:45 06.07.2020
355 Clouds 21 1019 77 10000 2.6 100 09:22 06.07.2020
356 Clouds 21 1019 73 10000 4.1 120 08:58 06.07.2020
357 Clouds 21 1019 73 10000 4.1 120 08:39 06.07.2020
358 Clouds 21 1019 77 10000 4.1 120 08:20 06.07.2020
359 Rain 21 1018 77 10000 3.6 90 07:47 06.07.2020
360 Rain 21 1018 77 10000 3.6 90 07:47 06.07.2020
361 Clouds 21 1018 77 10000 2.6 100 07:28 06.07.2020
362 Drizzle 21 1017 77 10000 2.1 100 06:42 06.07.2020
363 Drizzle 21 1017 77 10000 2.1 100 06:24 06.07.2020
364 Clouds 21 1017 77 10000 2.6 110 05:42 06.07.2020
365 Clouds 21 1017 77 10000 2.6 140 05:19 06.07.2020
366 Rain 21 1017 83 10000 3.6 110 03:44 06.07.2020
367 Drizzle 21 1018 88 10000 2.6 10 02:24 06.07.2020
368 Drizzle 21 1018 88 8000 3.1 80 01:39 06.07.2020
369 Rain 22 1019 88 9000 2.6 130 00:38 06.07.2020
370 Rain 22 1019 88 9000 2.6 130 00:19 06.07.2020
371 Drizzle 22 1019 88 10000 4.1 120 23:42 05.07.2020
372 Drizzle 22 1019 88 10000 4.1 110 23:23 05.07.2020
373 Haze 22 1019 88 4400 3.6 110 22:59 05.07.2020
374 Drizzle 22 1019 88 4400 3.6 110 22:40 05.07.2020
375 Drizzle 22 1019 88 6000 4.6 110 22:20 05.07.2020
376 Rain 22 1019 88 8000 3.6 110 21:57 05.07.2020
377 Rain 22 1019 88 8000 3.6 110 21:38 05.07.2020
378 Rain 22 1019 88 10000 2.1 100 21:18 05.07.2020
379 Rain 22 1018 88 10000 3.6 100 20:57 05.07.2020
380 Rain 22 1018 88 10000 3.6 100 20:38 05.07.2020
381 Rain 22 1018 88 10000 3.6 100 20:20 05.07.2020
382 Rain 21 1018 94 10000 3.1 90 19:42 05.07.2020
383 Rain 21 1018 94 10000 3.1 90 19:21 05.07.2020
384 Rain 22 1017 83 10000 3.1 100 18:56 05.07.2020
385 Rain 22 1017 88 10000 4.1 110 18:37 05.07.2020
386 Rain 22 1017 88 10000 4.1 110 18:19 05.07.2020
387 Rain 22 1017 88 10000 4.1 90 17:43 05.07.2020
388 Rain 22 1017 88 10000 4.1 110 17:19 05.07.2020
389 Rain 22 1017 88 8000 3.6 100 16:59 05.07.2020
390 Rain 22 1017 88 8000 3.6 100 16:40 05.07.2020
391 Rain 22 1017 88 10000 3.6 100 16:21 05.07.2020
392 Rain 21 1017 94 7000 5.1 100 15:40 05.07.2020
393 Clouds 21 1017 94 7000 4.1 110 15:20 05.07.2020
394 Clouds 21 1017 94 7000 4.1 110 15:20 05.07.2020
395 Haze 22 1017 88 5000 4.1 110 14:55 05.07.2020
396 Haze 22 1018 88 3800 3.6 110 14:36 05.07.2020
397 Haze 22 1018 88 3800 3.6 110 14:36 05.07.2020
398 Haze 22 1018 88 3800 3.6 110 14:18 05.07.2020
399 Clouds 22 1018 88 7000 4.6 90 13:40 05.07.2020
400 Clouds 22 1018 88 7000 3.1 90 13:22 05.07.2020
401 Clouds 22 1018 94 10000 2.1 130 12:44 05.07.2020
402 Clouds 22 1019 94 10000 2.1 80 12:20 05.07.2020
403 Clouds 22 1019 94 10000 2.1 90 11:55 05.07.2020
404 Clouds 22 1019 94 10000 1.5 100 11:37 05.07.2020
405 Clouds 22 1019 94 10000 1.5 100 11:18 05.07.2020
406 Clouds 22 1019 94 6000 3.6 90 10:42 05.07.2020
407 Clouds 22 1019 94 7000 2.1 90 10:21 05.07.2020
408 Clouds 22 1019 94 10000 2.6 100 09:59 05.07.2020
409 Clouds 22 1019 94 10000 2.6 100 09:41 05.07.2020
410 Clouds 22 1018 94 10000 2.6 120 09:20 05.07.2020
411 Clouds 22 1018 94 10000 2.1 90 08:55 05.07.2020
412 Clouds 22 1018 94 10000 2.6 80 08:36 05.07.2020
413 Clouds 22 1018 94 10000 3.1 80 07:51 05.07.2020
414 Clouds 22 1017 94 10000 1.5 90 07:30 05.07.2020
415 Rain 22 1017 94 10000 2.1 100 06:54 05.07.2020
416 Rain 22 1017 94 10000 3.6 90 06:20 05.07.2020
417 Rain 23 1016 88 10000 3.6 110 03:54 05.07.2020
418 Rain 23 1016 94 9000 3.6 100 02:47 05.07.2020
419 Rain 24 1016 88 10000 3.6 100 02:29 05.07.2020
420 Clouds 23 1017 88 10000 3.6 100 01:42 05.07.2020
421 Rain 23 1017 94 10000 4.6 90 01:20 05.07.2020
422 Rain 24 1017 83 10000 4.1 100 00:42 05.07.2020
423 Clouds 24 1017 83 10000 4.6 100 00:23 05.07.2020
424 Clouds 24 1017 83 10000 4.6 100 00:23 05.07.2020
425 Clouds 23 1017 88 10000 5.7 100 23:48 04.07.2020
426 Drizzle 23 1017 94 6000 4.6 80 23:30 04.07.2020
427 Clouds 23 1017 94 8000 4.1 90 22:57 04.07.2020
428 Clouds 23 1017 94 8000 4.1 90 22:38 04.07.2020
429 Clouds 23 1018 94 10000 4.1 90 22:20 04.07.2020
430 Clouds 23 1017 94 10000 3.6 100 21:43 04.07.2020
431 Clouds 23 1017 94 10000 2.6 110 21:24 04.07.2020
432 Clouds 23 1017 88 10000 2.1 90 20:59 04.07.2020
433 Clouds 23 1017 88 10000 2.1 90 20:41 04.07.2020
434 Clouds 22 1016 100 10000 0.5 230 20:20 04.07.2020
435 Clouds 22 1016 100 10000 1 150 19:45 04.07.2020
436 Clouds 22 1016 100 10000 1 200 19:22 04.07.2020
437 Clouds 22 1016 100 10000 1 200 18:57 04.07.2020
438 Clouds 22 1015 94 10000 1.5 50 18:39 04.07.2020
439 Clouds 22 1015 94 10000 1.5 50 18:21 04.07.2020
440 Clouds 22 1015 94 10000 1 170 17:42 04.07.2020
441 Clouds 22 1015 94 10000 2.1 90 17:24 04.07.2020
442 Clouds 22 1015 94 10000 1 160 16:58 04.07.2020
443 Clouds 22 1015 94 10000 1 160 16:38 04.07.2020
444 Clouds 22 1015 94 10000 1 80 16:20 04.07.2020
445 Clouds 22 1016 94 10000 1.5 110 15:46 04.07.2020
446 Clouds 22 1016 94 10000 1 130 15:28 04.07.2020
447 Clouds 22 1016 94 10000 2.1 90 14:59 04.07.2020
448 Clouds 22 1016 94 10000 2.1 90 14:38 04.07.2020
449 Clouds 22 1016 94 10000 3.6 80 14:19 04.07.2020
450 Clouds 22 1016 94 10000 3.1 110 13:58 04.07.2020
451 Clouds 22 1016 94 10000 3.1 110 13:39 04.07.2020
452 Clouds 22 1016 94 10000 1.5 190 13:18 04.07.2020
453 Rain 22 1016 94 10000 2.6 120 12:42 04.07.2020
454 Rain 23 1016 88 7000 4.1 140 12:20 04.07.2020
455 Rain 23 1017 94 10000 1.5 130 11:46 04.07.2020
456 Rain 22 1017 100 7000 1 80 11:25 04.07.2020
457 Rain 22 1017 100 4200 0.5 280 11:00 04.07.2020
458 Rain 22 1017 100 4200 0.5 280 10:41 04.07.2020
459 Rain 22 1017 100 5000 0.5 90 10:21 04.07.2020
460 Fog 22 1016 100 1300 0.5 180 09:56 04.07.2020
461 Fog 22 1016 100 2500 2.1 90 09:36 04.07.2020
462 Rain 22 1016 100 2500 2.1 90 09:18 04.07.2020
463 Rain 23 1016 94 900 0.5 190 08:46 04.07.2020
464 Fog 23 1015 94 800 1 140 08:27 04.07.2020
465 Rain 23 1015 94 2800 1.5 50 07:44 04.07.2020
466 Rain 23 1015 100 7000 1 230 07:26 04.07.2020
467 Rain 23 1015 94 10000 1 50 06:51 04.07.2020
468 Drizzle 23 1014 94 5000 2.1 110 06:20 04.07.2020
469 Rain 25 1013 83 10000 2.6 100 05:34 04.07.2020
470 Rain 25 1013 83 10000 3.1 80 04:31 04.07.2020
471 Rain 26 1014 78 10000 1.5 190 02:49 04.07.2020
472 Clouds 26 1014 78 10000 1.5 320 02:18 04.07.2020
473 Clouds 26 1015 78 10000 2.1 30 01:24 04.07.2020
474 Clouds 26 1015 78 10000 2.6 50 00:40 04.07.2020
475 Clouds 26 1015 78 10000 2.6 50 00:40 04.07.2020
476 Clear 26 1016 78 10000 2.1 190 00:21 04.07.2020
477 Clear 26 1016 78 10000 2.1 340 23:39 03.07.2020
478 Clear 26 1016 83 10000 2.6 30 23:19 03.07.2020
479 Clear 26 1016 83 10000 2.6 30 23:19 03.07.2020
480 Clear 26 1016 78 10000 2.6 40 22:54 03.07.2020
481 Clear 26 1016 74 10000 0.5 180 22:36 03.07.2020
482 Clear 26 1016 74 10000 0.5 180 22:18 03.07.2020
483 Clear 25 1016 83 10000 1.5 200 21:39 03.07.2020
484 Clear 24 1015 94 10000 0.5 200 21:19 03.07.2020
485 Clear 23 1015 100 10000 0.5 70 20:46 03.07.2020
486 Clear 23 1015 100 10000 0.5 70 20:46 03.07.2020
487 Clear 22 1015 100 10000 1 200 20:27 03.07.2020
488 Clear 21 1015 100 10000 0.5 190 19:59 03.07.2020
489 Clear 21 1014 100 6000 1 160 19:40 03.07.2020
490 Clear 21 1014 100 6000 1 160 19:18 03.07.2020
491 Clear 21 1014 100 6000 1 160 18:45 03.07.2020
492 Fog 20 1014 100 1600 1 180 18:24 03.07.2020
493 Clear 20 1014 100 10000 1 180 17:56 03.07.2020
494 Clear 20 1014 100 10000 1 180 17:38 03.07.2020
495 Clear 21 1014 100 10000 0.5 160 17:20 03.07.2020
496 Mist 21 1013 100 5000 1 180 16:40 03.07.2020
497 Fog 21 1014 100 1800 0.5 150 16:20 03.07.2020
498 Fog 20 1014 100 3900 0.5 160 15:44 03.07.2020
499 Clear 21 1014 100 10000 0.5 90 15:23 03.07.2020
500 Clear 21 1014 100 10000 0.5 110 14:56 03.07.2020
501 Clear 21 1014 100 10000 0.5 110 14:37 03.07.2020
502 Mist 21 1015 100 4300 0.5 80 14:19 03.07.2020
503 Clear 21 1015 100 10000 0.5 120 13:43 03.07.2020
504 Clear 21 1015 100 10000 1.5 100 13:24 03.07.2020
505 Clear 21 1015 100 10000 1 120 12:45 03.07.2020
506 Clouds 21 1015 100 10000 0.5 100 12:24 03.07.2020
507 Clouds 22 1015 94 10000 0.5 110 11:58 03.07.2020
508 Clouds 22 1015 94 10000 0.5 110 11:40 03.07.2020
509 Clouds 22 1015 94 10000 1 180 11:21 03.07.2020
510 Clouds 22 1015 94 10000 1 180 10:55 03.07.2020
511 Clouds 22 1015 100 10000 1 160 10:36 03.07.2020
512 Clouds 22 1015 100 10000 1 160 10:18 03.07.2020
513 Clouds 22 1015 100 10000 0.5 190 09:40 03.07.2020
514 Clouds 22 1015 100 10000 1 180 09:22 03.07.2020
515 Clouds 23 1014 94 10000 1 180 08:58 03.07.2020
516 Clouds 23 1014 94 10000 1 180 08:38 03.07.2020
517 Clouds 23 1014 94 10000 0.5 160 08:18 03.07.2020
518 Clouds 23 1014 94 10000 0.5 160 08:18 03.07.2020
519 Clouds 23 1014 94 10000 1 170 07:47 03.07.2020
520 Clouds 24 1013 88 10000 1.5 40 07:22 03.07.2020
521 Clouds 25 1013 83 10000 2.6 40 06:38 03.07.2020
522 Clouds 25 1013 88 10000 2.1 30 05:55 03.07.2020
523 Clouds 25 1013 88 10000 2.1 30 05:55 03.07.2020
524 Clouds 25 1013 88 10000 2.1 30 05:55 03.07.2020
525 Clouds 26 1013 78 10000 2.1 20 04:26 03.07.2020
526 Clouds 27 1014 78 10000 2.1 20 02:57 03.07.2020
527 Clouds 26 1014 78 10000 2.6 20 02:32 03.07.2020
528 Clouds 27 1014 78 10000 2.6 20 01:43 03.07.2020
529 Clouds 27 1015 78 10000 2.6 20 01:20 03.07.2020
530 Clouds 27 1015 78 10000 2.6 20 01:20 03.07.2020
531 Clouds 27 1015 74 10000 3.1 20 00:41 03.07.2020
532 Clouds 26 1016 83 10000 2.1 30 23:58 02.07.2020
533 Clouds 26 1016 83 10000 2.1 30 23:39 02.07.2020
534 Clouds 26 1016 78 10000 2.6 40 23:19 02.07.2020
535 Clouds 26 1016 78 10000 2.1 30 22:55 02.07.2020
536 Clouds 26 1016 78 10000 2.1 30 22:37 02.07.2020
537 Clouds 26 1016 78 10000 2.1 30 22:19 02.07.2020
538 Clouds 25 1016 83 10000 1.5 20 21:42 02.07.2020
539 Clouds 25 1016 83 10000 2.1 10 21:20 02.07.2020
540 Clouds 25 1016 83 10000 2.6 20 20:58 02.07.2020
541 Clouds 25 1016 83 10000 2.6 20 20:40 02.07.2020
542 Clouds 25 1015 83 10000 2.6 20 20:20 02.07.2020
543 Clouds 24 1014 88 10000 3.6 40 19:43 02.07.2020
544 Clouds 24 1014 88 10000 3.6 40 19:24 02.07.2020
545 Clouds 24 1014 88 10000 3.6 40 18:59 02.07.2020
546 Clouds 24 1014 88 10000 4.1 50 18:40 02.07.2020
547 Clouds 24 1014 88 10000 4.1 50 18:21 02.07.2020
548 Clouds 25 1014 83 10000 2.6 40 17:57 02.07.2020
549 Clouds 25 1014 83 10000 2.6 40 17:38 02.07.2020
550 Clouds 24 1014 88 10000 3.1 50 17:18 02.07.2020
551 Clouds 25 1014 78 10000 3.6 50 16:42 02.07.2020
552 Clouds 25 1014 83 10000 4.1 50 16:20 02.07.2020
553 Clouds 24 1014 88 10000 3.6 60 15:57 02.07.2020
554 Clouds 24 1014 88 10000 3.6 60 15:38 02.07.2020
555 Clouds 25 1014 83 10000 4.6 50 15:38 02.07.2020
556 Clouds 25 1014 83 10000 4.6 50 15:19 02.07.2020
557 Clouds 24 1014 88 10000 5.1 60 14:45 02.07.2020
558 Clouds 25 1014 83 10000 5.7 50 14:22 02.07.2020
559 Clouds 24 1015 88 10000 6.2 50 13:57 02.07.2020
560 Clouds 25 1015 83 10000 5.7 60 13:38 02.07.2020
561 Clouds 25 1015 83 10000 5.7 60 13:18 02.07.2020
562 Clouds 25 1015 83 10000 5.1 60 12:41 02.07.2020
563 Clouds 25 1016 88 10000 4.6 60 12:22 02.07.2020
564 Clouds 25 1016 83 10000 5.1 60 11:57 02.07.2020
565 Clouds 25 1016 83 10000 5.1 60 11:39 02.07.2020
566 Clouds 25 1016 88 10000 5.1 60 11:21 02.07.2020
567 Clouds 25 1016 88 10000 5.1 60 10:42 02.07.2020
568 Clouds 25 1016 88 10000 5.1 60 10:42 02.07.2020
569 Clouds 25 1016 88 10000 5.1 60 10:24 02.07.2020
570 Clouds 25 1016 83 10000 5.1 70 09:45 02.07.2020
571 Clouds 25 1016 88 10000 5.1 60 09:23 02.07.2020
572 Clouds 25 1016 83 10000 5.1 70 08:59 02.07.2020
573 Clouds 25 1016 83 10000 5.1 70 08:40 02.07.2020
574 Clouds 25 1016 83 10000 4.6 60 08:20 02.07.2020
575 Clouds 25 1015 83 10000 5.1 60 07:42 02.07.2020
576 Clouds 25 1015 83 10000 4.6 60 07:22 02.07.2020
577 Clouds 25 1015 83 10000 4.6 60 06:50 02.07.2020
578 Clouds 25 1015 83 10000 4.1 60 06:27 02.07.2020
579 Clouds 25 1015 83 10000 4.6 60 05:50 02.07.2020
580 Clear 26 1015 83 10000 5.1 50 04:58 02.07.2020
581 Clear 26 1015 83 10000 4.6 50 03:34 02.07.2020
582 Clouds 27 1016 78 10000 5.1 50 01:51 02.07.2020
583 Clouds 27 1017 83 10000 5.1 50 00:45 02.07.2020
584 Clouds 27 1017 83 10000 5.1 50 00:19 02.07.2020
585 Clouds 26 1017 83 10000 5.1 50 23:43 01.07.2020
586 Clouds 26 1018 83 10000 5.1 50 23:23 01.07.2020
587 Clouds 27 1017 83 10000 4.6 50 22:55 01.07.2020
588 Clouds 27 1017 83 10000 4.6 50 22:37 01.07.2020
589 Clouds 26 1017 83 10000 4.6 50 22:18 01.07.2020
590 Clouds 26 1017 83 10000 5.1 50 21:56 01.07.2020
591 Clouds 26 1017 83 10000 5.1 50 21:38 01.07.2020
592 Clouds 25 1017 88 10000 5.7 60 21:19 01.07.2020
593 Clouds 26 1016 83 10000 5.7 60 20:46 01.07.2020
594 Rain 25 1016 88 10000 5.7 60 20:26 01.07.2020
595 Rain 25 1016 88 10000 5.7 50 19:57 01.07.2020
596 Rain 25 1015 88 10000 6.2 60 19:39 01.07.2020
597 Rain 25 1015 88 10000 6.2 60 19:20 01.07.2020
598 Rain 25 1015 88 10000 5.1 60 18:54 01.07.2020
599 Rain 25 1014 88 10000 5.7 60 18:36 01.07.2020
600 Rain 25 1014 88 10000 5.7 60 18:18 01.07.2020
601 Rain 25 1015 88 10000 6.2 60 17:41 01.07.2020
602 Clouds 25 1014 88 10000 6.2 70 17:20 01.07.2020
603 Clouds 25 1014 88 10000 6.2 70 16:48 01.07.2020
604 Clouds 25 1015 88 10000 5.1 60 16:29 01.07.2020
605 Clouds 25 1015 88 10000 5.1 60 15:58 01.07.2020
606 Clouds 25 1015 88 10000 5.1 60 15:39 01.07.2020
607 Clouds 25 1015 83 10000 5.7 60 15:21 01.07.2020
608 Clouds 25 1015 83 10000 6.7 60 14:45 01.07.2020
609 Clouds 25 1015 88 10000 5.1 60 14:22 01.07.2020
610 Clouds 25 1016 83 10000 5.1 60 13:59 01.07.2020
611 Clouds 25 1016 83 10000 5.1 60 13:39 01.07.2020
612 Clouds 25 1016 83 10000 6.2 60 13:20 01.07.2020
613 Clouds 25 1016 83 10000 6.2 60 12:58 01.07.2020
614 Clouds 25 1016 83 10000 6.7 60 12:39 01.07.2020
615 Clouds 25 1016 83 10000 6.7 60 12:20 01.07.2020
616 Clouds 25 1016 83 10000 6.7 60 11:44 01.07.2020
617 Clouds 25 1016 83 10000 6.7 60 11:44 01.07.2020
618 Clouds 25 1016 83 10000 6.7 60 11:44 01.07.2020
619 Clouds 25 1016 83 10000 6.7 60 11:44 01.07.2020
620 Clouds 25 1016 83 10000 6.7 60 11:44 01.07.2020
621 Clouds 25 1016 83 10000 6.7 60 11:44 01.07.2020
622 Clouds 25 1016 83 10000 6.7 60 11:25 01.07.2020
623 Clouds 25 1016 83 10000 7.2 60 10:59 01.07.2020
624 Clouds 25 1016 83 10000 7.2 60 10:41 01.07.2020
625 Clouds 25 1016 83 10000 7.2 60 10:22 01.07.2020
626 Clouds 25 1015 83 10000 6.7 60 09:54 01.07.2020
627 Clouds 25 1015 78 10000 7.7 60 09:36 01.07.2020
628 Clouds 25 1015 78 10000 7.7 60 09:18 01.07.2020
629 Clouds 25 1015 78 10000 7.7 60 08:41 01.07.2020
630 Clouds 25 1014 78 10000 7.2 60 08:22 01.07.2020
631 Clouds 25 1014 78 10000 7.7 60 07:57 01.07.2020
632 Clouds 25 1014 78 10000 7.7 60 07:36 01.07.2020
633 Clouds 25 1014 78 10000 7.7 60 07:18 01.07.2020
634 Clouds 25 1013 78 10000 7.2 60 06:48 01.07.2020
635 Clouds 25 1013 73 10000 8.2 60 06:27 01.07.2020
636 Clouds 26 1013 74 10000 7.2 60 04:31 01.07.2020
637 Clouds 26 1013 74 10000 7.7 60 03:46 01.07.2020
638 Clouds 26 1013 74 10000 7.7 60 03:26 01.07.2020
639 Clouds 27 1014 65 10000 7.2 60 02:36 01.07.2020
640 Clouds 26 1015 69 10000 6.7 60 01:45 01.07.2020
641 Clouds 26 1016 69 10000 7.7 60 00:41 01.07.2020
642 Clouds 26 1016 69 10000 7.7 60 00:23 01.07.2020
643 Clouds 26 1016 69 10000 8.2 60 23:41 30.06.2020
644 Clouds 26 1016 69 10000 8.2 70 23:21 30.06.2020
645 Clouds 26 1016 69 10000 6.7 60 22:43 30.06.2020
646 Clouds 26 1017 69 10000 6.7 60 22:20 30.06.2020
647 Clouds 26 1017 69 10000 5.7 60 21:55 30.06.2020
648 Clouds 26 1017 69 10000 5.7 60 21:37 30.06.2020
649 Clouds 25 1016 73 10000 6.7 60 21:18 30.06.2020
650 Clouds 25 1016 73 10000 6.2 60 20:43 30.06.2020
651 Clouds 24 1016 78 10000 6.7 60 20:21 30.06.2020
652 Clouds 24 1016 78 10000 6.2 60 19:44 30.06.2020
653 Clouds 24 1016 78 10000 6.2 60 19:22 30.06.2020
654 Clouds 24 1015 78 10000 5.7 60 18:58 30.06.2020
655 Clouds 23 1015 83 10000 3.6 80 18:40 30.06.2020
656 Clouds 23 1015 83 10000 3.6 80 18:20 30.06.2020
657 Rain 23 1015 83 10000 5.7 70 17:39 30.06.2020
658 Clouds 23 1015 83 10000 5.1 70 17:20 30.06.2020
659 Clouds 24 1015 78 10000 5.1 60 16:57 30.06.2020
660 Clouds 24 1015 78 10000 5.1 60 16:39 30.06.2020
661 Clouds 24 1015 73 10000 5.7 60 16:19 30.06.2020
662 Clouds 24 1015 73 10000 5.7 60 15:54 30.06.2020
663 Clouds 24 1015 73 10000 6.2 60 15:36 30.06.2020
664 Clouds 24 1015 73 10000 6.2 60 15:18 30.06.2020
665 Clouds 24 1015 73 10000 5.7 60 14:42 30.06.2020
666 Clouds 24 1016 73 10000 6.2 60 14:21 30.06.2020
667 Clouds 24 1016 73 10000 5.1 50 13:42 30.06.2020
668 Clouds 24 1016 73 10000 5.1 60 13:21 30.06.2020
669 Clouds 24 1016 73 10000 5.1 60 13:21 30.06.2020
670 Clouds 24 1016 69 10000 6.7 60 12:59 30.06.2020
671 Clouds 24 1015 69 10000 7.7 60 12:41 30.06.2020
672 Clouds 24 1015 69 10000 7.7 60 12:23 30.06.2020
673 Clouds 24 1016 64 10000 8.7 70 11:59 30.06.2020
674 Clouds 24 1016 64 10000 8.7 70 11:39 30.06.2020
675 Clouds 24 1016 73 10000 6.2 70 11:20 30.06.2020
676 Clouds 24 1016 73 10000 6.2 70 11:20 30.06.2020
677 Clouds 24 1016 73 10000 7.7 70 10:59 30.06.2020
678 Clouds 22 1017 73 10000 3.1 100 16:45 28.06.2020
679 Clouds 22 1017 73 10000 4.6 100 16:26 28.06.2020
680 Drizzle 23 1017 69 10000 4.1 100 15:58 28.06.2020
681 Drizzle 23 1017 69 10000 4.1 100 15:39 28.06.2020
682 Clouds 23 1017 69 10000 4.6 100 15:20 28.06.2020
683 Clouds 23 1017 69 10000 4.6 100 14:47 28.06.2020
684 Clouds 23 1017 69 10000 4.6 100 14:47 28.06.2020
685 Clouds 22 1018 73 10000 3.6 100 14:28 28.06.2020
686 Clouds 22 1018 73 10000 4.1 100 13:59 28.06.2020
687 Clouds 22 1018 73 10000 4.1 100 13:38 28.06.2020
688 Clouds 22 1018 73 10000 4.1 100 13:38 28.06.2020
689 Clouds 22 1018 73 10000 4.1 100 13:20 28.06.2020
690 Clouds 22 1018 73 10000 5.1 100 12:56 28.06.2020
691 Clouds 23 1019 69 10000 5.7 90 12:37 28.06.2020
692 Clouds 23 1019 69 10000 5.7 90 12:37 28.06.2020
693 Clouds 23 1019 69 10000 5.7 90 12:19 28.06.2020
694 Clouds 23 1019 69 10000 5.1 100 11:56 28.06.2020
695 Clouds 23 1019 69 10000 5.1 100 11:56 28.06.2020
696 Clouds 23 1019 69 10000 5.1 100 11:38 28.06.2020
697 Clouds 22 1019 73 10000 4.1 90 11:19 28.06.2020
698 Rain 22 1019 73 10000 3.6 100 10:55 28.06.2020
699 Clouds 22 1019 73 10000 5.1 90 10:36 28.06.2020
700 Clouds 22 1019 73 10000 5.1 90 10:36 28.06.2020
701 Clouds 22 1019 73 10000 5.1 90 10:18 28.06.2020
702 Clouds 22 1019 73 10000 5.7 90 09:39 28.06.2020
703 Rain 23 1019 73 10000 6.7 90 09:20 28.06.2020
704 Rain 22 1019 78 10000 2.6 120 08:47 28.06.2020
705 Rain 22 1018 73 10000 4.6 100 08:25 28.06.2020
706 Rain 22 1018 73 10000 5.1 100 07:47 28.06.2020
707 Rain 22 1018 73 10000 5.1 100 07:47 28.06.2020
708 Clear 22 1017 73 10000 4.6 100 07:28 28.06.2020
709 Clear 23 1017 64 10000 4.6 100 06:41 28.06.2020
710 Clear 23 1017 64 10000 4.6 100 06:22 28.06.2020
711 Clear 24 1017 60 10000 5.1 90 05:26 28.06.2020
712 Clear 25 1016 61 10000 6.7 90 03:32 28.06.2020
713 Clear 24 1016 64 10000 8.2 80 02:39 28.06.2020
714 Clouds 24 1017 64 10000 7.7 80 01:52 28.06.2020
715 Clouds 24 1018 60 10000 7.2 90 01:25 28.06.2020
716 Clouds 24 1018 60 10000 7.2 90 00:44 28.06.2020
717 Clouds 24 1019 60 10000 7.2 80 00:24 28.06.2020
718 Clouds 24 1019 60 10000 6.2 80 23:41 27.06.2020
719 Clouds 24 1019 60 10000 5.1 100 23:22 27.06.2020
720 Clouds 24 1019 57 10000 6.2 90 22:58 27.06.2020
721 Clouds 24 1019 57 10000 6.2 90 22:39 27.06.2020
722 Clouds 23 1019 64 10000 3.6 110 22:19 27.06.2020
723 Clouds 22 1019 64 10000 3.6 110 21:42 27.06.2020
724 Clouds 22 1019 64 10000 4.6 110 21:20 27.06.2020
725 Clouds 22 1019 64 10000 3.1 120 20:56 27.06.2020
726 Clouds 22 1018 64 10000 3.1 120 20:37 27.06.2020
727 Clouds 22 1018 64 10000 3.1 120 20:18 27.06.2020
728 Clouds 21 1018 73 10000 3.6 120 19:39 27.06.2020
729 Clouds 21 1018 73 10000 3.6 120 19:20 27.06.2020
730 Clouds 21 1018 73 10000 2.1 120 18:59 27.06.2020
731 Rain 21 1018 73 10000 4.1 120 18:40 27.06.2020
732 Rain 21 1018 73 10000 4.1 120 18:20 27.06.2020
733 Clouds 22 1018 68 10000 3.6 130 17:41 27.06.2020
734 Clear 21 1017 73 10000 3.6 110 17:21 27.06.2020
735 Clear 21 1018 73 10000 3.1 110 16:57 27.06.2020
736 Clear 21 1018 73 10000 3.1 110 16:39 27.06.2020
737 Clear 22 1018 68 10000 3.1 120 16:20 27.06.2020
738 Clear 22 1018 68 10000 3.1 110 15:45 27.06.2020
739 Clear 22 1018 68 10000 3.1 120 15:24 27.06.2020
740 Clear 21 1018 77 10000 2.1 120 14:58 27.06.2020
741 Clear 21 1018 77 10000 2.1 120 14:39 27.06.2020
742 Rain 21 1018 83 10000 3.1 90 14:20 27.06.2020
743 Clouds 21 1018 83 10000 3.1 100 13:54 27.06.2020
744 Rain 20 1018 88 10000 3.6 80 13:36 27.06.2020
745 Rain 20 1018 88 10000 3.6 80 13:18 27.06.2020
746 Clouds 21 1018 77 10000 2.1 130 12:40 27.06.2020
747 Rain 21 1018 77 10000 2.1 130 12:22 27.06.2020
748 Rain 21 1018 83 10000 4.1 110 11:58 27.06.2020
749 Rain 21 1018 83 10000 3.1 110 11:38 27.06.2020
750 Rain 21 1018 83 10000 3.1 110 11:19 27.06.2020
751 Rain 21 1018 83 10000 2.1 110 10:41 27.06.2020
752 Clear 22 1018 68 10000 2.6 100 10:19 27.06.2020
753 Clear 22 1018 73 10000 2.1 110 09:57 27.06.2020
754 Clear 22 1018 73 10000 2.1 110 09:37 27.06.2020
755 Clear 22 1017 73 10000 1.5 120 09:19 27.06.2020
756 Clear 22 1017 73 10000 2.6 110 08:41 27.06.2020
757 Clear 21 1017 77 10000 1.5 120 08:22 27.06.2020
758 Clear 22 1017 73 10000 1.5 110 07:46 27.06.2020
759 Clear 22 1016 73 10000 2.1 120 07:24 27.06.2020
760 Clear 22 1016 73 10000 2.6 110 06:50 27.06.2020
761 Clear 22 1016 73 10000 4.1 100 06:29 27.06.2020
762 Rain 22 1016 78 10000 3.6 110 04:24 27.06.2020
763 Clear 24 1015 64 10000 3.1 120 03:53 27.06.2020
764 Clear 24 1015 64 10000 3.6 100 03:23 27.06.2020
765 Clear 24 1016 60 10000 2.1 130 02:36 27.06.2020
766 Clouds 24 1016 60 10000 2.6 110 01:45 27.06.2020
767 Clouds 24 1016 64 10000 2.6 100 01:22 27.06.2020
768 Clouds 23 1017 69 10000 2.6 160 00:36 27.06.2020
769 Clouds 24 1017 64 10000 1.5 150 23:45 26.06.2020
770 Clouds 23 1017 69 10000 2.6 130 23:25 26.06.2020
771 Clouds 23 1017 69 10000 2.1 130 22:56 26.06.2020
772 Clouds 23 1017 69 10000 2.1 130 22:38 26.06.2020
773 Clouds 24 1017 60 10000 3.6 140 22:19 26.06.2020
774 Clouds 24 1017 60 10000 3.1 130 21:57 26.06.2020
775 Clouds 24 1017 60 10000 3.1 130 21:37 26.06.2020
776 Clouds 23 1017 64 10000 1.5 130 21:19 26.06.2020
777 Clouds 22 1017 73 10000 1.5 130 20:43 26.06.2020
778 Clouds 22 1016 73 10000 1.5 150 20:20 26.06.2020
779 Clouds 21 1016 73 10000 2.1 150 19:44 26.06.2020
780 Clouds 21 1016 73 10000 2.1 140 19:23 26.06.2020
781 Clouds 21 1016 77 10000 1.5 140 18:57 26.06.2020
782 Clouds 21 1016 77 10000 2.1 120 18:37 26.06.2020
783 Clouds 21 1016 77 10000 2.1 120 18:18 26.06.2020
784 Clouds 22 1016 73 10000 2.1 140 17:43 26.06.2020
785 Clouds 22 1016 68 10000 2.6 140 17:24 26.06.2020
786 Clouds 21 1015 73 10000 2.6 140 16:49 26.06.2020
787 Clouds 22 1016 68 10000 2.6 150 16:26 26.06.2020
788 Clouds 21 1016 73 10000 2.1 140 15:55 26.06.2020
789 Clouds 21 1016 73 10000 2.1 140 15:37 26.06.2020
790 Clouds 21 1016 73 10000 1.5 140 15:18 26.06.2020
791 Clouds 21 1016 73 10000 1.5 140 14:56 26.06.2020
792 Clouds 21 1016 73 10000 1.5 140 14:37 26.06.2020
793 Clouds 20 1016 77 10000 1.5 160 14:19 26.06.2020
794 Clouds 20 1016 77 10000 1.5 140 13:43 26.06.2020
795 Clouds 21 1016 73 10000 1.5 140 13:18 26.06.2020
796 Clouds 19 1015 82 10000 1 130 12:41 26.06.2020
797 Clouds 19 1015 82 10000 1 130 12:23 26.06.2020
798 Clouds 19 1016 82 10000 1 140 11:59 26.06.2020
799 Clouds 19 1016 82 10000 1 140 11:40 26.06.2020
800 Clouds 21 1016 68 10000 1 130 11:22 26.06.2020
801 Clouds 22 1016 64 10000 2.1 140 10:58 26.06.2020
802 Clouds 22 1016 64 10000 2.1 140 10:39 26.06.2020
803 Clouds 22 1016 68 10000 1 140 10:19 26.06.2020
804 Clouds 22 1016 68 10000 1.5 140 09:44 26.06.2020
805 Clouds 21 1016 77 10000 1 130 09:25 26.06.2020
806 Clouds 21 1016 77 10000 1 140 08:57 26.06.2020
807 Clouds 21 1015 77 10000 1.5 140 08:29 26.06.2020
808 Clouds 22 1015 73 10000 1 120 07:53 26.06.2020
809 Clouds 22 1015 73 0 1.5 130 07:25 26.06.2020
810 Clouds 22 1014 73 10000 1.5 120 06:59 26.06.2020
811 Clouds 23 1014 64 10000 2.1 100 06:41 26.06.2020
812 Clouds 23 1014 64 10000 2.1 100 06:18 26.06.2020
813 Clouds 24 1014 64 10000 1.5 140 05:41 26.06.2020
814 Clear 24 1014 60 10000 3.1 170 03:52 26.06.2020
815 Clouds 24 1014 57 10000 2.6 150 02:22 26.06.2020
816 Clouds 24 1015 60 10000 2.6 180 01:19 26.06.2020
817 Clouds 25 1015 57 10000 3.1 180 00:40 26.06.2020
818 Clouds 25 1015 57 10000 3.1 180 00:19 26.06.2020
819 Clouds 24 1016 60 10000 2.6 170 23:41 25.06.2020
820 Clouds 24 1016 64 10000 2.6 200 23:18 25.06.2020
821 Clouds 24 1016 64 10000 2.6 190 22:56 25.06.2020
822 Clouds 24 1016 60 10000 2.1 170 22:36 25.06.2020
823 Clouds 24 1016 60 10000 2.1 170 22:36 25.06.2020
824 Clouds 24 1016 60 10000 2.1 170 22:18 25.06.2020
825 Clouds 24 1015 64 10000 2.1 180 21:54 25.06.2020
826 Clouds 24 1015 64 10000 2.1 180 21:36 25.06.2020
827 Clouds 23 1015 69 10000 3.1 170 21:18 25.06.2020
828 Clouds 22 1015 78 10000 2.1 170 20:44 25.06.2020
829 Clouds 22 1015 78 10000 2.1 170 20:23 25.06.2020
830 Clouds 21 1015 83 10000 2.1 160 19:57 25.06.2020
831 Clouds 20 1014 82 10000 1.5 170 19:38 25.06.2020
832 Clouds 20 1014 82 10000 1.5 160 19:18 25.06.2020
833 Clouds 20 1014 82 10000 1.5 160 18:55 25.06.2020
834 Clouds 21 1014 77 10000 1.5 150 18:36 25.06.2020
835 Clouds 21 1014 77 10000 1.5 150 18:36 25.06.2020
836 Clouds 21 1014 77 10000 1.5 150 18:18 25.06.2020
837 Clouds 21 1014 83 0 4.82 181 17:39 25.06.2020
838 Clouds 18 1014 93 10000 1 170 17:19 25.06.2020
839 Clouds 17 1014 93 10000 1 180 16:41 25.06.2020
840 Clouds 17 1014 93 10000 1 170 16:21 25.06.2020
841 Clouds 17 1014 93 10000 0.5 150 15:45 25.06.2020
842 Clouds 18 1014 88 10000 1 160 15:27 25.06.2020
843 Clouds 18 1014 88 10000 1 160 14:58 25.06.2020
844 Clouds 18 1014 88 10000 1 160 14:40 25.06.2020
845 Clouds 19 1014 82 10000 1 150 14:22 25.06.2020
846 Clouds 19 1015 82 10000 1 170 13:55 25.06.2020
847 Clouds 20 1014 77 10000 1 180 13:37 25.06.2020
848 Clouds 20 1014 77 10000 1 180 13:19 25.06.2020
849 Clouds 21 1014 73 10000 1 170 12:43 25.06.2020
850 Clouds 21 1015 73 10000 1.5 170 12:20 25.06.2020
851 Clouds 22 1015 73 10000 1.5 190 11:43 25.06.2020
852 Clouds 22 1015 73 10000 2.1 180 11:25 25.06.2020
853 Clouds 23 1015 73 10000 2.1 210 10:57 25.06.2020
854 Clouds 23 1015 73 10000 2.1 210 10:39 25.06.2020
855 Clouds 23 1015 69 10000 2.6 200 10:20 25.06.2020
856 Clouds 23 1015 73 10000 3.1 190 09:40 25.06.2020
857 Clouds 23 1015 73 10000 2.1 180 09:20 25.06.2020
858 Clouds 23 1014 73 10000 2.1 180 08:45 25.06.2020
859 Clouds 23 1014 78 10000 2.1 180 08:20 25.06.2020
860 Clouds 23 1014 78 10000 2.6 180 07:45 25.06.2020
861 Clouds 23 1014 78 10000 2.6 180 07:26 25.06.2020
862 Clouds 23 1013 78 10000 2.6 180 06:48 25.06.2020
863 Clouds 23 1013 83 10000 2.1 170 06:26 25.06.2020
864 Clouds 24 1013 73 10000 2.6 200 05:51 25.06.2020
865 Rain 23 1012 88 6000 3.1 180 03:56 25.06.2020
866 Clouds 24 1012 88 10000 3.6 210 03:26 25.06.2020
867 Rain 23 1012 94 10000 3.6 200 02:41 25.06.2020
868 Clouds 25 1013 78 10000 3.1 190 01:46 25.06.2020
869 Clouds 25 1013 83 10000 3.6 200 01:19 25.06.2020
870 Clouds 25 1014 83 10000 4.6 220 00:40 25.06.2020
871 Clouds 25 1014 83 10000 4.6 220 00:18 25.06.2020
872 Clouds 26 1014 78 10000 4.1 240 23:42 24.06.2020
873 Clouds 26 1014 78 10000 4.1 240 23:42 24.06.2020
874 Clouds 26 1014 78 10000 3.1 240 23:23 24.06.2020
875 Clouds 26 1014 78 10000 3.6 240 22:57 24.06.2020
876 Clouds 26 1014 78 10000 3.6 240 22:38 24.06.2020
877 Clouds 25 1014 83 10000 3.1 250 22:19 24.06.2020
878 Clouds 24 1014 88 10000 2.6 230 21:55 24.06.2020
879 Rain 24 1014 88 10000 2.6 230 21:36 24.06.2020
880 Rain 24 1014 88 10000 2.6 230 21:18 24.06.2020
881 Rain 24 1014 88 10000 2.6 230 20:56 24.06.2020
882 Rain 24 1014 88 10000 2.6 230 20:37 24.06.2020
883 Clouds 23 1013 100 10000 1.5 190 20:19 24.06.2020
884 Mist 23 1013 94 2800 1 160 19:39 24.06.2020
885 Mist 23 1013 94 2800 1 160 19:21 24.06.2020
886 Clouds 23 1013 94 10000 0.5 170 18:59 24.06.2020
887 Rain 23 1013 94 2400 1.5 230 18:41 24.06.2020
888 Mist 23 1013 94 2400 1.5 230 18:23 24.06.2020
889 Clouds 24 1013 88 7000 5.1 270 17:58 24.06.2020
890 Clouds 24 1013 88 7000 5.1 270 17:40 24.06.2020
891 Clouds 24 1013 88 10000 2.1 330 17:19 24.06.2020
892 Clouds 22 1013 94 10000 1 90 16:56 24.06.2020
893 Clouds 22 1013 94 10000 1 90 16:56 24.06.2020
894 Clouds 22 1013 94 10000 1 90 16:38 24.06.2020
895 Clouds 22 1013 94 10000 1 90 16:38 24.06.2020
896 Clouds 24 1013 83 10000 1.5 10 16:20 24.06.2020
897 Clouds 24 1013 83 10000 1.5 10 16:20 24.06.2020
898 Clouds 24 1013 83 10000 2.1 360 15:56 24.06.2020
899 Clouds 23 1013 88 10000 1 310 15:37 24.06.2020
900 Clouds 23 1013 88 10000 1 310 15:19 24.06.2020
901 Clouds 25 1013 78 10000 2.1 310 14:42 24.06.2020
902 Clouds 24 1014 83 10000 2.1 300 14:24 24.06.2020
903 Clouds 25 1014 83 10000 2.6 290 13:43 24.06.2020
904 Clouds 25 1014 78 10000 3.1 310 13:22 24.06.2020
905 Clouds 23 1014 94 10000 0.5 210 12:56 24.06.2020
906 Clouds 22 1014 94 10000 0.5 170 12:37 24.06.2020
907 Clouds 22 1014 94 10000 0.5 170 12:18 24.06.2020
908 Clouds 22 1014 94 10000 0.5 120 11:54 24.06.2020
909 Clouds 22 1014 94 10000 0.5 160 11:36 24.06.2020
910 Clouds 22 1014 94 10000 0.5 160 11:36 24.06.2020
911 Clouds 22 1014 94 10000 0.5 160 11:18 24.06.2020
912 Clouds 21 1014 100 10000 0.5 130 10:41 24.06.2020
913 Clouds 22 1014 94 10000 1 160 10:18 24.06.2020
914 Clouds 22 1015 94 10000 0.5 150 09:42 24.06.2020
915 Clouds 22 1014 94 10000 0.5 180 09:21 24.06.2020
916 Clouds 23 1014 88 10000 1.5 250 08:42 24.06.2020
917 Clouds 24 1014 83 10000 2.6 290 08:21 24.06.2020
918 Clouds 25 1014 78 10000 2.6 310 07:50 24.06.2020
919 Clouds 25 1013 78 10000 3.1 300 07:31 24.06.2020
920 Clouds 25 1013 78 10000 3.1 340 06:50 24.06.2020
921 Clouds 25 1013 78 10000 3.1 340 06:25 24.06.2020
922 Clouds 26 1013 74 10000 3.1 350 05:54 24.06.2020
923 Clouds 26 1013 74 10000 3.1 350 04:42 24.06.2020
924 Clouds 26 1013 74 10000 2.6 10 04:18 24.06.2020
925 Clouds 26 1013 74 10000 3.6 20 03:34 24.06.2020
926 Clouds 26 1013 74 10000 3.6 20 02:43 24.06.2020
927 Clouds 26 1014 74 10000 4.1 20 01:29 24.06.2020
928 Clouds 26 1015 74 10000 5.1 20 00:47 24.06.2020
929 Clouds 27 1015 74 10000 4.6 30 00:27 24.06.2020
930 Clouds 27 1016 69 10000 4.6 20 23:44 23.06.2020
931 Clouds 27 1016 69 10000 4.6 20 23:19 23.06.2020
932 Clouds 26 1016 74 10000 4.1 30 22:42 23.06.2020
933 Clouds 26 1016 74 10000 4.6 20 22:19 23.06.2020
934 Clouds 26 1016 69 10000 4.1 20 21:59 23.06.2020
935 Clouds 25 1016 73 10000 3.1 30 21:39 23.06.2020
936 Clouds 25 1016 73 10000 3.1 30 21:19 23.06.2020
937 Clouds 23 1016 88 10000 2.1 70 20:55 23.06.2020
938 Clouds 23 1015 83 10000 2.1 90 20:37 23.06.2020
939 Clouds 23 1015 83 10000 2.1 90 20:18 23.06.2020
940 Clouds 24 1015 78 10000 4.1 60 19:44 23.06.2020
941 Clouds 24 1015 78 10000 4.1 60 19:24 23.06.2020
942 Clouds 24 1015 73 10000 4.1 60 18:40 23.06.2020
943 Clouds 24 1015 73 10000 4.1 60 18:19 23.06.2020
944 Clouds 24 1015 73 10000 4.1 60 18:19 23.06.2020
945 Clouds 24 1015 78 10000 5.7 50 17:56 23.06.2020
946 Clouds 24 1015 78 10000 5.7 50 17:56 23.06.2020
947 Clouds 24 1015 78 10000 4.6 60 17:38 23.06.2020
948 Clouds 24 1015 78 10000 4.6 60 17:18 23.06.2020
949 Clouds 23 1015 83 10000 3.1 80 16:54 23.06.2020
950 Clouds 23 1015 83 10000 3.1 70 16:36 23.06.2020
951 Clouds 23 1015 83 10000 3.1 70 16:18 23.06.2020
952 Clouds 23 1015 83 10000 2.6 100 15:42 23.06.2020
953 Clouds 24 1015 78 10000 4.6 50 15:23 23.06.2020
954 Clouds 23 1016 78 10000 3.1 100 14:54 23.06.2020
955 Clouds 23 1016 83 10000 3.6 80 14:36 23.06.2020
956 Clouds 23 1016 83 10000 3.6 80 14:18 23.06.2020
957 Clouds 24 1016 73 10000 5.1 60 13:44 23.06.2020
958 Clouds 24 1016 73 10000 5.1 60 13:23 23.06.2020
959 Clouds 24 1016 73 10000 5.1 60 13:23 23.06.2020
960 Clouds 24 1016 73 10000 5.7 60 12:46 23.06.2020
961 Clouds 24 1016 78 10000 4.6 60 12:46 23.06.2020
962 Clear 24 1016 73 10000 5.7 60 12:23 23.06.2020
963 Clear 24 1016 73 10000 5.7 70 11:59 23.06.2020
964 Clear 24 1016 73 10000 6.2 60 11:40 23.06.2020
965 Clear 24 1016 73 10000 6.2 60 11:20 23.06.2020
966 Clear 24 1016 73 10000 6.7 70 10:58 23.06.2020
967 Clear 24 1016 73 10000 6.2 60 10:39 23.06.2020
968 Clear 24 1016 73 10000 6.2 60 10:21 23.06.2020
969 Clear 24 1016 73 10000 6.2 60 10:21 23.06.2020
970 Clear 24 1016 73 10000 6.2 60 09:43 23.06.2020
971 Clouds 24 1016 73 10000 6.2 60 09:21 23.06.2020
972 Clouds 24 1016 69 10000 5.7 50 08:59 23.06.2020
973 Clouds 24 1016 69 10000 5.7 50 08:59 23.06.2020
974 Clouds 24 1016 69 10000 5.7 50 08:41 23.06.2020
975 Clouds 24 1016 69 10000 5.7 60 08:21 23.06.2020
976 Clouds 24 1016 69 10000 5.1 60 07:41 23.06.2020
977 Clouds 24 1016 69 10000 5.1 60 07:22 23.06.2020
978 Clouds 25 1015 65 10000 5.1 70 06:49 23.06.2020
979 Clouds 25 1015 65 10000 5.1 70 06:31 23.06.2020
980 Clouds 25 1015 65 10000 6.2 60 05:42 23.06.2020
981 Clouds 24 1015 78 10000 6.2 80 03:39 23.06.2020
982 Clouds 25 1015 73 10000 6.7 70 02:56 23.06.2020
983 Clouds 25 1016 69 10000 6.7 60 02:37 23.06.2020
984 -273 0 0 0 0 0 02:19 23.06.2020
985 Clouds 25 1016 69 10000 7.7 70 01:37 23.06.2020
986 Clouds 25 1016 73 10000 8.2 80 01:18 23.06.2020
987 Clouds 25 1017 69 10000 8.7 70 00:24 23.06.2020
988 Clouds 25 1018 69 10000 7.2 70 23:57 22.06.2020
989 Clouds 25 1018 69 10000 6.7 80 23:38 22.06.2020
990 Clouds 25 1018 69 10000 6.7 80 23:19 22.06.2020
991 Clouds 25 1018 69 10000 7.2 70 22:56 22.06.2020
992 Clouds 24 1018 69 10000 7.2 80 22:37 22.06.2020
993 Clouds 24 1018 69 10000 7.2 80 22:19 22.06.2020
994 Clouds 24 1018 69 10000 5.1 80 21:57 22.06.2020
995 Clouds 24 1018 64 10000 6.7 80 21:38 22.06.2020
996 Clear 24 1018 64 10000 6.7 80 21:20 22.06.2020
997 Clear 23 1018 69 10000 6.7 80 20:41 22.06.2020
998 Clear 23 1018 69 10000 6.2 90 20:22 22.06.2020
999 Clear 23 1017 69 10000 5.7 90 19:45 22.06.2020
1000 Clear 23 1017 69 10000 5.7 90 19:21 22.06.2020
1001 Clear 23 1017 69 10000 5.7 90 18:59 22.06.2020
1002 Clear 23 1017 69 10000 4.6 80 18:59 22.06.2020
1003 Clear 23 1017 69 10000 5.7 90 18:59 22.06.2020
1004 Clear 23 1017 69 10000 4.6 80 18:39 22.06.2020
1005 Clear 23 1017 69 10000 4.6 80 18:21 22.06.2020
1006 Clear 23 1017 69 10000 6.2 80 17:56 22.06.2020
1007 Clear 22 1017 73 10000 2.6 100 17:38 22.06.2020
1008 Clear 22 1017 73 10000 2.6 100 17:38 22.06.2020
1009 Clear 22 1017 73 10000 3.1 100 17:19 22.06.2020
1010 Clear 22 1017 73 10000 2.6 100 17:19 22.06.2020
1011 Clear 22 1017 73 10000 3.1 100 16:55 22.06.2020
1012 Clear 22 1017 68 10000 2.6 100 16:37 22.06.2020
1013 Clear 22 1017 68 10000 2.6 100 16:18 22.06.2020
1014 Clear 22 1018 64 10000 2.6 100 15:42 22.06.2020
1015 Clear 22 1018 64 10000 2.6 100 15:23 22.06.2020
1016 Clear 22 1018 64 10000 4.1 90 14:54 22.06.2020
1017 Clear 22 1018 68 10000 5.1 90 14:36 22.06.2020
1018 Clouds 22 1018 68 10000 5.1 90 14:18 22.06.2020
1019 Clouds 23 1019 60 10000 5.1 90 13:39 22.06.2020
1020 Clouds 23 1019 60 10000 5.1 90 13:21 22.06.2020
1021 Clouds 23 1019 64 10000 5.7 90 12:56 22.06.2020
1022 Clouds 23 1019 64 10000 5.7 90 12:37 22.06.2020
1023 Clouds 23 1019 64 10000 5.7 90 12:19 22.06.2020
1024 Rain 23 1019 69 10000 6.2 90 11:37 22.06.2020
1025 Rain 23 1019 69 10000 6.2 90 11:19 22.06.2020
1026 Clouds 23 1019 69 10000 6.7 90 10:56 22.06.2020
1027 Clouds 23 1019 69 10000 5.7 90 10:37 22.06.2020
1028 Clouds 23 1019 69 10000 5.7 90 10:18 22.06.2020
1029 Clouds 23 1019 69 10000 5.7 90 09:56 22.06.2020
1030 Clouds 23 1019 69 10000 6.2 90 09:37 22.06.2020
1031 Clouds 23 1019 69 10000 6.2 90 09:18 22.06.2020
1032 Clouds 22 1018 73 10000 7.7 90 08:40 22.06.2020
1033 Clouds 22 1018 73 10000 7.7 90 08:21 22.06.2020
1034 Clouds 22 1018 73 10000 5.7 90 07:53 22.06.2020
1035 Rain 22 1018 78 10000 4.6 90 07:34 22.06.2020
1036 Clouds 22 1017 78 10000 4.1 110 06:56 22.06.2020
1037 Clouds 23 1017 73 10000 5.1 90 06:36 22.06.2020
1038 Clouds 23 1017 73 10000 5.1 90 06:18 22.06.2020
1039 Clouds 24 1017 64 10000 6.7 90 05:33 22.06.2020
1040 Clouds 25 1018 57 10000 6.7 90 02:58 22.06.2020
1041 Clouds 25 1019 61 10000 6.2 90 01:37 22.06.2020
1042 Clouds 25 1020 61 10000 6.7 90 00:41 22.06.2020
1043 Clouds 25 1020 61 10000 6.7 90 00:18 22.06.2020
1044 Clouds 24 1020 64 10000 4.1 100 23:40 21.06.2020
1045 Clouds 24 1020 64 10000 4.1 100 23:22 21.06.2020
1046 Clouds 23 1020 64 10000 5.1 100 22:57 21.06.2020
1047 Clouds 24 1020 60 10000 5.1 90 22:38 21.06.2020
1048 Clouds 24 1020 60 10000 5.1 90 22:38 21.06.2020
1049 Clouds 24 1020 60 10000 5.1 90 22:19 21.06.2020
1050 Clouds 23 1019 64 10000 4.6 110 21:59 21.06.2020
1051 Clouds 23 1019 64 10000 4.6 100 21:41 21.06.2020
1052 Clouds 23 1019 64 10000 4.6 100 21:21 21.06.2020
1053 Clouds 23 1019 64 10000 3.6 110 20:59 21.06.2020
1054 Clouds 23 1018 64 10000 5.1 110 20:38 21.06.2020
1055 Clouds 23 1018 64 10000 5.1 110 20:19 21.06.2020
1056 Clouds 23 1018 64 10000 3.6 120 19:56 21.06.2020
1057 Clouds 22 1018 68 10000 3.6 120 19:38 21.06.2020
1058 Rain 22 1018 68 10000 3.6 120 19:19 21.06.2020
1059 Rain 22 1018 68 10000 4.1 110 18:54 21.06.2020
1060 Rain 22 1018 68 10000 4.6 110 18:36 21.06.2020
1061 Clouds 22 1018 68 10000 4.6 110 18:18 21.06.2020
1062 Clouds 22 1017 68 10000 4.1 110 17:40 21.06.2020
1063 Clouds 22 1017 68 10000 4.1 110 17:40 21.06.2020
1064 Clouds 22 1017 68 10000 4.1 110 17:20 21.06.2020
1065 Clouds 22 1017 68 10000 3.6 110 16:43 21.06.2020
1066 Clouds 22 1017 68 10000 3.6 110 16:24 21.06.2020
1067 Clouds 23 1018 64 10000 3.6 110 15:59 21.06.2020
1068 Clouds 23 1017 64 10000 3.6 100 15:37 21.06.2020
1069 Clouds 23 1017 64 10000 3.6 100 15:19 21.06.2020
1070 Clouds 23 1018 64 10000 4.1 110 14:39 21.06.2020
1071 Clouds 23 1018 64 10000 4.1 110 14:21 21.06.2020
1072 Clouds 23 1018 64 10000 6.2 90 13:59 21.06.2020
1073 Clouds 23 1018 64 10000 6.2 90 13:59 21.06.2020
1074 Clouds 23 1018 64 10000 5.7 90 13:41 21.06.2020
1075 Clouds 23 1018 64 10000 5.7 90 13:22 21.06.2020
1076 Clouds 23 1018 64 10000 6.2 100 12:54 21.06.2020
1077 Clouds 23 1018 64 10000 7.2 90 12:36 21.06.2020
1078 Clouds 23 1018 64 10000 7.2 90 12:18 21.06.2020
1079 Clouds 23 1018 64 10000 6.2 100 11:41 21.06.2020
1080 Clouds 23 1018 64 10000 6.2 100 11:23 21.06.2020
1081 Clouds 23 1018 64 10000 5.1 100 10:58 21.06.2020
1082 Clouds 23 1018 64 10000 4.1 100 10:39 21.06.2020
1083 Clouds 23 1018 64 10000 4.1 100 10:20 21.06.2020
1084 Clouds 23 1018 64 10000 5.7 90 09:43 21.06.2020
1085 Clouds 23 1018 64 10000 5.7 90 09:22 21.06.2020
1086 Clouds 23 1018 64 10000 4.1 100 08:57 21.06.2020
1087 Clouds 23 1018 60 10000 4.1 100 08:39 21.06.2020
1088 Clouds 23 1018 60 10000 4.1 100 08:19 21.06.2020
1089 Clouds 23 1017 60 10000 4.1 110 07:41 21.06.2020
1090 Clouds 23 1017 60 10000 4.1 110 07:23 21.06.2020
1091 Clouds 23 1017 64 10000 4.6 110 06:50 21.06.2020
1092 Clouds 23 1017 64 10000 4.6 100 06:18 21.06.2020
1093 Clouds 23 1017 64 10000 4.1 110 05:56 21.06.2020
1094 Clouds 24 1017 60 10000 5.7 90 03:53 21.06.2020
1095 Clouds 24 1017 60 10000 5.1 100 03:18 21.06.2020
1096 Clouds 24 1017 60 10000 3.6 110 02:20 21.06.2020
1097 Clouds 24 1017 64 10000 6.7 100 01:34 21.06.2020
1098 Clouds 24 1018 64 10000 4.1 100 00:57 21.06.2020
1099 Rain 24 1018 64 10000 5.1 110 00:38 21.06.2020
1100 Rain 24 1018 64 10000 5.1 110 00:19 21.06.2020
1101 Rain 24 1019 64 10000 3.1 110 23:45 20.06.2020
1102 Rain 24 1019 64 10000 3.1 110 23:22 20.06.2020
1103 Clouds 23 1019 73 10000 3.6 110 22:56 20.06.2020
1104 Clouds 23 1018 69 10000 5.1 110 22:38 20.06.2020
1105 Clouds 23 1018 69 10000 5.1 110 22:18 20.06.2020
1106 Clouds 23 1018 69 10000 3.1 110 21:56 20.06.2020
1107 Clouds 23 1017 64 10000 3.1 110 21:38 20.06.2020
1108 Rain 23 1017 64 10000 3.1 110 21:19 20.06.2020
1109 Rain 22 1017 68 10000 3.1 120 20:56 20.06.2020
1110 Rain 22 1017 68 10000 3.1 130 20:38 20.06.2020
1111 Clouds 22 1017 68 10000 3.1 130 20:19 20.06.2020
1112 Clouds 21 1016 68 10000 2.1 120 19:43 20.06.2020
1113 Clouds 21 1016 68 10000 2.1 120 19:23 20.06.2020
1114 Clouds 20 1016 72 10000 1.5 150 18:55 20.06.2020
1115 Clouds 21 1015 68 10000 2.6 110 18:37 20.06.2020
1116 Clouds 21 1015 68 10000 2.1 120 18:18 20.06.2020
1117 Clouds 21 1015 68 10000 2.1 120 17:55 20.06.2020
1118 Clouds 21 1015 68 10000 2.6 120 17:37 20.06.2020
1119 Clouds 21 1015 68 10000 2.6 120 17:18 20.06.2020
1120 Clouds 21 1015 73 10000 2.6 120 16:39 20.06.2020
1121 Clouds 21 1015 73 10000 2.6 120 16:18 20.06.2020
1122 Clouds 21 1015 73 10000 2.6 120 16:18 20.06.2020
1123 Clouds 21 1016 73 10000 1.5 130 15:42 20.06.2020
1124 Clouds 22 1015 68 10000 3.1 120 15:18 20.06.2020
1125 Clouds 22 1015 68 10000 3.1 120 14:56 20.06.2020
1126 Clouds 22 1016 68 10000 2.1 130 14:38 20.06.2020
1127 Clouds 22 1016 68 10000 2.1 130 14:18 20.06.2020
1128 Clouds 22 1016 68 10000 2.1 120 13:41 20.06.2020
1129 Clouds 22 1016 68 10000 2.1 120 13:19 20.06.2020
1130 Clouds 22 1016 68 10000 2.1 130 12:43 20.06.2020
1131 Clouds 22 1016 68 10000 2.1 130 12:22 20.06.2020
1132 Clouds 22 1016 68 10000 2.6 120 11:58 20.06.2020
1133 Clouds 22 1016 64 10000 2.6 120 11:38 20.06.2020
1134 Clouds 22 1016 64 10000 2.6 120 11:20 20.06.2020
1135 Clouds 21 1016 68 10000 2.1 120 10:55 20.06.2020
1136 Clouds 22 1017 64 10000 2.1 120 10:37 20.06.2020
1137 Clear 22 1017 64 10000 2.1 120 10:18 20.06.2020
1138 Clear 22 1016 64 10000 2.1 130 09:40 20.06.2020
1139 Clouds 22 1016 64 10000 2.1 130 09:22 20.06.2020
1140 Clouds 21 1015 68 10000 2.6 120 08:56 20.06.2020
1141 Clouds 22 1015 64 10000 2.6 130 08:37 20.06.2020
1142 Clouds 22 1015 64 10000 3.6 120 08:18 20.06.2020
1143 Clouds 22 1015 64 10000 3.1 110 07:44 20.06.2020
1144 Clouds 22 1015 64 10000 3.1 110 07:25 20.06.2020
1145 Clouds 22 1014 64 10000 2.6 90 06:24 20.06.2020
1146 Clouds 23 1014 60 10000 3.6 110 05:55 20.06.2020
1147 Clouds 23 1014 60 10000 3.6 110 05:30 20.06.2020
1148 Clouds 25 1015 53 10000 3.1 110 02:56 20.06.2020
1149 Clear 24 1015 57 10000 5.1 110 01:50 20.06.2020
1150 Clear 24 1015 57 10000 4.1 140 01:27 20.06.2020
1151 Clear 24 1016 57 10000 3.1 130 00:22 20.06.2020
1152 Clear 24 1017 53 10000 4.1 120 23:58 19.06.2020
1153 Clear 23 1017 60 10000 4.6 120 23:39 19.06.2020
1154 Clear 23 1017 60 10000 4.6 120 23:18 19.06.2020
1155 Clear 23 1017 60 10000 4.6 120 23:18 19.06.2020
1156 Clear 23 1016 60 10000 4.6 90 22:42 19.06.2020
1157 Clear 23 1016 60 10000 4.6 90 22:23 19.06.2020
1158 Clear 23 1016 60 10000 5.7 110 21:59 19.06.2020
1159 Clear 23 1016 60 10000 4.1 110 21:39 19.06.2020
1160 Clear 23 1016 60 10000 4.1 110 21:18 19.06.2020
1161 Clear 22 1016 64 10000 3.6 80 20:59 19.06.2020
1162 Clear 22 1016 60 10000 3.1 120 20:40 19.06.2020
1163 Clear 22 1016 60 10000 3.1 120 20:40 19.06.2020
1164 Clouds 22 1016 60 10000 3.1 120 20:21 19.06.2020
1165 Clouds 22 1015 60 10000 2.6 120 19:57 19.06.2020
1166 Clouds 21 1015 68 10000 2.6 110 19:39 19.06.2020
1167 Clouds 21 1015 68 10000 2.6 110 19:21 19.06.2020
1168 Clouds 22 1014 64 10000 2.6 120 18:42 19.06.2020
1169 Clear 22 1014 64 10000 2.6 120 18:22 19.06.2020
1170 Clear 22 1014 68 10000 3.1 110 17:59 19.06.2020
1171 Clear 22 1014 68 10000 3.1 120 17:40 19.06.2020
1172 Clear 22 1014 68 10000 3.1 120 17:22 19.06.2020
1173 Clear 22 1014 68 10000 3.1 120 16:55 19.06.2020
1174 Clear 22 1014 73 10000 3.1 110 16:37 19.06.2020
1175 Clear 22 1014 73 10000 3.1 110 16:18 19.06.2020
1176 Clear 22 1014 73 10000 2.6 110 15:42 19.06.2020
1177 Clear 22 1014 73 10000 2.6 110 15:21 19.06.2020
1178 Clear 22 1015 68 10000 3.1 120 14:56 19.06.2020
1179 Clear 22 1015 73 10000 3.1 120 14:38 19.06.2020
1180 Clouds 22 1015 73 10000 3.1 120 14:18 19.06.2020
1181 Clouds 22 1015 64 10000 2.1 130 13:43 19.06.2020
1182 Clouds 22 1015 64 10000 2.1 130 13:25 19.06.2020
1183 Clouds 22 1015 68 10000 3.1 120 12:48 19.06.2020
1184 Clouds 22 1015 68 10000 2.6 120 12:23 19.06.2020
1185 Clouds 22 1016 68 10000 2.1 110 11:58 19.06.2020
1186 Clouds 22 1016 68 10000 2.6 90 11:39 19.06.2020
1187 Clouds 22 1016 68 10000 2.6 90 11:18 19.06.2020
1188 Clouds 22 1016 68 10000 2.6 90 11:18 19.06.2020
1189 Clouds 22 1016 64 10000 4.1 100 10:46 19.06.2020
1190 Clouds 22 1016 64 10000 4.1 100 10:26 19.06.2020
1191 Clouds 22 1015 68 10000 4.6 100 09:59 19.06.2020
1192 Clouds 22 1015 68 10000 3.6 110 09:41 19.06.2020
1193 Clear 22 1015 68 10000 3.6 110 09:20 19.06.2020
1194 Clear 22 1015 68 10000 4.6 120 08:44 19.06.2020
1195 Clouds 22 1015 68 10000 4.6 120 08:26 19.06.2020
1196 Clouds 22 1015 68 10000 4.1 120 07:56 19.06.2020
1197 Clouds 22 1014 68 10000 3.6 120 07:38 19.06.2020
1198 Clouds 22 1014 68 10000 3.6 120 07:19 19.06.2020
1199 Clouds 22 1014 68 10000 4.6 140 06:25 19.06.2020
1200 Clouds 23 1014 69 10000 4.1 130 05:43 19.06.2020
1201 Clouds 24 1014 60 10000 5.1 120 04:23 19.06.2020
1202 Rain 25 1014 61 10000 4.1 130 02:51 19.06.2020
1203 Clouds 25 1015 61 10000 3.1 120 00:49 19.06.2020
1204 Clouds 24 1016 64 10000 4.6 120 00:22 19.06.2020
1205 Clouds 24 1016 64 10000 4.6 120 23:59 18.06.2020
1206 Clouds 24 1016 64 10000 4.6 110 23:41 18.06.2020
1207 Clouds 24 1016 64 10000 4.6 110 23:23 18.06.2020
1208 Clouds 24 1016 64 10000 4.1 120 22:58 18.06.2020
1209 Clouds 23 1016 69 10000 3.6 120 22:36 18.06.2020
1210 Clouds 23 1016 69 10000 4.6 110 22:18 18.06.2020
1211 Clouds 23 1016 69 10000 4.6 110 21:38 18.06.2020
1212 Clouds 23 1016 69 10000 4.6 110 21:19 18.06.2020
1213 Clouds 22 1016 73 10000 3.6 120 20:55 18.06.2020
1214 Clouds 21 1015 77 10000 3.6 130 20:36 18.06.2020
1215 Rain 21 1015 83 10000 3.1 130 20:18 18.06.2020
1216 Rain 21 1015 83 10000 4.1 140 19:42 18.06.2020
1217 Rain 21 1015 83 10000 4.1 140 19:20 18.06.2020
1218 Rain 21 1015 77 10000 3.1 100 18:57 18.06.2020
1219 Rain 21 1015 77 10000 4.1 140 18:36 18.06.2020
1220 Clouds 21 1015 77 10000 4.1 140 18:18 18.06.2020
1221 Rain 20 1015 88 10000 2.6 110 17:43 18.06.2020
1222 Rain 20 1015 88 10000 2.6 110 17:24 18.06.2020
1223 Clouds 21 1015 83 10000 3.1 110 16:44 18.06.2020
1224 Rain 21 1015 83 10000 3.1 110 16:26 18.06.2020
1225 Rain 21 1015 77 10000 3.1 130 15:59 18.06.2020
1226 Rain 20 1015 88 9000 2.6 100 15:40 18.06.2020
1227 Rain 20 1015 88 9000 2.6 100 15:20 18.06.2020
1228 Rain 21 1016 83 10000 3.6 130 14:57 18.06.2020
1229 Rain 20 1016 88 9000 3.1 140 14:39 18.06.2020
1230 Rain 20 1016 88 9000 3.1 140 14:20 18.06.2020
1231 Rain 21 1016 83 10000 3.6 120 13:48 18.06.2020
1232 Rain 21 1016 77 10000 3.1 130 13:29 18.06.2020
1233 Drizzle 22 1016 73 10000 2.6 110 12:58 18.06.2020
1234 Drizzle 22 1016 73 10000 2.6 110 12:58 18.06.2020
1235 Clouds 22 1017 68 10000 3.1 120 12:40 18.06.2020
1236 Clouds 22 1017 68 10000 3.1 120 12:20 18.06.2020
1237 Clouds 22 1017 64 10000 3.1 130 11:58 18.06.2020
1238 Clouds 22 1017 64 10000 2.1 120 11:38 18.06.2020
1239 Clear 22 1017 64 10000 2.1 120 11:19 18.06.2020
1240 Clear 22 1017 64 10000 4.1 120 10:40 18.06.2020
1241 Clouds 22 1017 64 10000 4.1 120 10:19 18.06.2020
1242 Clouds 22 1017 64 10000 4.1 120 10:19 18.06.2020
1243 Clouds 22 1016 64 10000 4.6 120 09:47 18.06.2020
1244 Clear 22 1016 64 10000 4.6 120 09:27 18.06.2020
1245 Clear 22 1016 64 10000 3.1 120 08:58 18.06.2020
1246 Clear 22 1016 64 10000 4.6 110 08:38 18.06.2020
1247 Clear 22 1016 64 10000 4.6 110 08:20 18.06.2020
1248 Clear 22 1016 68 10000 4.6 120 07:45 18.06.2020
1249 Clear 22 1016 68 10000 4.6 120 07:26 18.06.2020
1250 Clear 22 1016 68 10000 4.6 110 06:42 18.06.2020
1251 Clear 23 1015 64 10000 4.1 130 05:34 18.06.2020
1252 Clear 24 1016 64 10000 3.6 130 04:21 18.06.2020
1253 Rain 22 1017 78 10000 3.1 140 01:49 18.06.2020
1254 Clouds 24 1017 69 10000 3.1 130 01:27 18.06.2020
1255 Clouds 23 1017 73 10000 3.6 150 00:52 18.06.2020
1256 Rain 22 1018 78 10000 3.6 140 00:31 18.06.2020
1257 Clouds 25 1018 61 10000 4.1 140 23:56 17.06.2020
1258 Clouds 24 1018 60 10000 4.6 130 23:37 17.06.2020
1259 Clouds 24 1018 60 10000 4.6 130 23:19 17.06.2020
1260 Clouds 23 1018 64 10000 4.6 130 22:55 17.06.2020
1261 Clouds 23 1018 64 10000 4.1 130 22:37 17.06.2020
1262 Clouds 23 1018 64 10000 4.1 130 22:19 17.06.2020
1263 Clouds 22 1018 68 10000 3.1 140 21:40 17.06.2020
1264 Clouds 22 1018 68 10000 3.1 140 21:21 17.06.2020
1265 Clouds 22 1018 68 10000 4.1 130 20:56 17.06.2020
1266 Clouds 22 1018 64 10000 2.6 130 20:37 17.06.2020
1267 Clouds 22 1018 64 10000 2.6 130 20:19 17.06.2020
1268 Clouds 22 1017 64 10000 3.6 150 19:43 17.06.2020
1269 Clouds 22 1017 64 10000 3.6 150 19:21 17.06.2020
1270 Clouds 22 1017 64 10000 2.6 130 18:56 17.06.2020
1271 Clouds 22 1017 64 10000 3.1 140 18:37 17.06.2020
1272 Clouds 22 1017 64 10000 3.1 140 18:37 17.06.2020
1273 Clouds 22 1017 64 10000 3.1 140 18:19 17.06.2020
1274 Clouds 22 1017 64 10000 3.6 130 17:42 17.06.2020
1275 Clouds 22 1017 64 10000 3.6 130 17:21 17.06.2020
1276 Clouds 22 1017 64 10000 3.6 130 17:21 17.06.2020
1277 Clouds 22 1017 64 10000 3.6 120 16:56 17.06.2020
1278 Clouds 22 1017 64 10000 5.1 120 16:37 17.06.2020
1279 Clouds 22 1017 64 10000 5.1 120 16:19 17.06.2020
1280 Clouds 22 1017 64 10000 3.1 130 15:40 17.06.2020
1281 Clouds 22 1017 64 10000 3.1 130 15:21 17.06.2020
1282 Clouds 22 1017 64 10000 4.6 120 14:58 17.06.2020
1283 Clouds 22 1017 64 10000 4.1 120 14:40 17.06.2020
1284 Clear 22 1017 64 10000 4.1 120 14:19 17.06.2020
1285 Clear 22 1017 64 10000 5.1 120 13:58 17.06.2020
1286 Clear 22 1017 64 10000 5.1 120 13:39 17.06.2020
1287 Clear 22 1017 64 10000 5.1 120 13:21 17.06.2020
1288 Clear 22 1018 64 10000 5.1 110 12:43 17.06.2020
1289 Clear 22 1018 64 10000 5.1 110 12:23 17.06.2020
1290 Clear 22 1018 64 10000 4.6 110 11:58 17.06.2020
1291 Clear 22 1018 64 10000 5.7 120 11:40 17.06.2020
1292 Clear 22 1018 64 10000 5.7 120 11:21 17.06.2020
1293 Clear 22 1018 64 10000 5.7 120 10:39 17.06.2020
1294 Clear 22 1018 64 10000 5.7 120 10:19 17.06.2020
1295 Clear 22 1018 64 10000 5.7 120 10:19 17.06.2020
1296 Clear 22 1018 64 10000 4.6 120 09:58 17.06.2020
1297 Clear 22 1018 68 10000 4.6 120 09:40 17.06.2020
1298 Rain 22 1018 68 10000 4.6 120 09:20 17.06.2020
1299 Rain 23 1018 64 10000 4.6 130 08:45 17.06.2020
1300 Rain 23 1018 64 10000 4.6 130 08:21 17.06.2020
1301 Rain 22 1018 68 10000 5.1 120 07:56 17.06.2020
1302 Rain 23 1017 64 10000 3.6 100 07:37 17.06.2020
1303 Rain 23 1017 64 10000 3.6 100 07:19 17.06.2020
1304 Rain 22 1017 68 10000 4.6 120 06:55 17.06.2020
1305 Rain 22 1017 68 10000 4.1 120 06:36 17.06.2020
1306 Rain 22 1017 68 10000 4.1 120 06:18 17.06.2020
1307 Clear 24 1017 57 10000 3.1 130 04:39 17.06.2020
1308 Clear 24 1017 57 10000 4.1 130 02:48 17.06.2020
1309 Clear 23 1018 60 10000 4.6 140 01:28 17.06.2020
1310 Clear 23 1018 64 10000 5.7 130 00:37 17.06.2020
1311 Clear 23 1018 64 10000 5.7 130 00:19 17.06.2020
1312 Clear 24 1018 60 10000 5.1 120 23:55 16.06.2020
1313 Clear 23 1019 60 10000 5.1 120 23:37 16.06.2020
1314 Clear 23 1019 64 10000 5.1 120 23:18 16.06.2020
1315 Clear 23 1019 60 10000 5.7 120 22:39 16.06.2020
1316 Clear 23 1019 60 10000 5.7 120 22:19 16.06.2020
1317 Clear 23 1019 60 10000 5.7 130 21:58 16.06.2020
1318 Clear 23 1019 60 10000 4.6 130 21:40 16.06.2020
1319 Clouds 23 1019 60 10000 4.6 130 21:21 16.06.2020
1320 Clouds 22 1018 68 10000 4.1 130 20:44 16.06.2020
1321 Clear 22 1018 68 10000 4.1 130 20:25 16.06.2020
1322 Clear 22 1018 68 10000 3.6 130 19:59 16.06.2020
1323 Clear 22 1018 68 10000 3.6 130 19:40 16.06.2020
1324 Clear 22 1018 68 10000 3.6 130 19:22 16.06.2020
1325 Rain 21 1017 77 10000 3.1 120 18:59 16.06.2020
1326 Rain 21 1017 77 10000 3.1 120 18:59 16.06.2020
1327 Rain 21 1018 77 10000 4.1 130 18:40 16.06.2020
1328 Rain 21 1018 77 10000 4.1 130 18:21 16.06.2020
1329 Clear 22 1017 64 10000 3.6 140 17:56 16.06.2020
1330 Clear 21 1017 68 10000 1.5 140 17:37 16.06.2020
1331 Clear 21 1017 68 10000 1.5 140 17:19 16.06.2020
1332 Clear 22 1017 64 10000 2.1 120 16:55 16.06.2020
1333 Clear 22 1017 64 10000 2.6 120 16:37 16.06.2020
1334 Clear 22 1017 64 10000 2.6 120 16:18 16.06.2020
1335 Clear 22 1017 64 10000 2.6 130 15:56 16.06.2020
1336 Clear 22 1017 64 10000 2.6 130 15:56 16.06.2020
1337 Clear 22 1017 64 10000 2.6 140 15:37 16.06.2020
1338 Clear 22 1017 64 10000 2.6 140 15:19 16.06.2020
1339 Clear 22 1017 64 10000 4.1 110 14:42 16.06.2020
1340 Clouds 22 1017 64 10000 4.1 110 14:23 16.06.2020
1341 Clouds 22 1018 64 10000 3.1 110 13:50 16.06.2020
1342 Clouds 22 1018 60 10000 1.5 120 13:27 16.06.2020
1343 Clouds 22 1018 60 10000 2.6 120 12:57 16.06.2020
1344 Clouds 22 1018 56 10000 4.1 110 12:39 16.06.2020
1345 Clouds 22 1018 56 10000 4.1 110 12:21 16.06.2020
1346 Clouds 22 1018 60 10000 3.6 100 11:55 16.06.2020
1347 Clouds 22 1018 60 10000 3.6 100 11:37 16.06.2020
1348 Clouds 22 1018 60 10000 3.6 100 11:19 16.06.2020
1349 Clouds 22 1019 60 10000 2.6 130 10:43 16.06.2020
1350 Clouds 22 1019 60 10000 2.6 130 10:21 16.06.2020
1351 Rain 22 1019 60 10000 2.6 120 09:58 16.06.2020
1352 Clouds 22 1019 56 10000 2.1 130 09:40 16.06.2020
1353 Clouds 22 1019 56 10000 2.1 130 09:21 16.06.2020
1354 Clouds 22 1019 56 10000 2.1 130 09:21 16.06.2020
1355 Clouds 22 1018 60 10000 2.1 120 08:44 16.06.2020
1356 Clouds 22 1018 60 10000 2.1 120 08:25 16.06.2020
1357 Clouds 22 1018 60 10000 2.6 110 07:50 16.06.2020
1358 Clouds 22 1017 60 10000 2.6 100 07:27 16.06.2020
1359 Clouds 22 1017 60 10000 2.6 100 07:27 16.06.2020
1360 Clouds 22 1017 60 10000 2.1 130 06:48 16.06.2020
1361 Clouds 22 1017 60 10000 2.6 130 06:27 16.06.2020
1362 Clouds 22 1016 60 10000 3.6 130 05:38 16.06.2020
1363 Clouds 23 1015 56 10000 5.1 120 04:31 16.06.2020
1364 Clouds 24 1016 57 10000 3.1 100 02:58 16.06.2020
1365 Clouds 24 1016 53 10000 3.6 110 01:58 16.06.2020
1366 Clouds 24 1017 53 10000 5.1 110 01:23 16.06.2020
1367 Clouds 24 1017 64 10000 4.1 130 00:43 16.06.2020
1368 Clouds 24 1017 64 10000 4.1 130 00:19 16.06.2020
1369 Clouds 24 1018 64 10000 3.6 120 23:41 15.06.2020
1370 Clouds 24 1018 64 10000 3.6 120 23:22 15.06.2020
1371 Clouds 23 1019 78 10000 5.7 130 22:55 15.06.2020
1372 Clouds 23 1019 78 10000 5.7 130 22:36 15.06.2020
1373 Clouds 23 1019 78 10000 5.7 130 22:18 15.06.2020
1374 Clouds 23 1018 78 10000 4.6 130 21:55 15.06.2020
1375 Clouds 23 1018 78 10000 4.6 130 21:36 15.06.2020
1376 Clouds 21 1018 64 10000 4.6 130 21:18 15.06.2020
1377 Clouds 23 1018 78 10000 4.6 130 21:18 15.06.2020
1378 Clouds 21 1018 64 10000 4.6 130 20:54 15.06.2020
1379 Clouds 21 1018 64 10000 4.6 130 20:36 15.06.2020
1380 Clouds 21 1018 64 10000 4.6 130 20:36 15.06.2020
1381 Clouds 21 1018 64 10000 4.6 130 20:18 15.06.2020
1382 Clouds 21 1017 68 10000 4.6 140 19:41 15.06.2020
1383 Clouds 21 1017 68 10000 4.6 140 19:22 15.06.2020
1384 Clouds 21 1016 68 10000 5.1 120 18:58 15.06.2020
1385 Clouds 21 1016 68 10000 5.1 120 18:40 15.06.2020
1386 Clouds 21 1016 68 10000 5.1 120 18:21 15.06.2020
1387 Clouds 21 1016 73 10000 6.2 120 17:58 15.06.2020
1388 Clouds 21 1016 73 10000 6.2 120 17:40 15.06.2020
1389 Clouds 21 1016 73 10000 6.2 120 17:19 15.06.2020
1390 Drizzle 21 1015 77 10000 5.1 130 16:54 15.06.2020
1391 Drizzle 21 1015 77 10000 5.1 130 16:36 15.06.2020
1392 Clouds 21 1016 77 10000 6.2 130 16:18 15.06.2020
1393 Clouds 21 1016 77 10000 6.2 130 15:40 15.06.2020
1394 Clouds 21 1016 77 10000 6.2 130 15:20 15.06.2020
1395 Drizzle 21 1016 77 10000 5.1 140 14:57 15.06.2020
1396 Drizzle 20 1016 82 10000 4.1 130 14:39 15.06.2020
1397 Drizzle 20 1016 82 10000 4.1 130 14:18 15.06.2020
1398 Drizzle 20 1016 82 10000 4.1 130 13:43 15.06.2020
1399 Drizzle 20 1016 82 10000 4.1 130 13:24 15.06.2020
1400 Drizzle 20 1016 82 10000 6.2 120 12:59 15.06.2020
1401 Drizzle 20 1016 82 10000 6.2 120 12:41 15.06.2020
1402 Drizzle 20 1016 82 10000 6.2 120 12:21 15.06.2020
1403 Drizzle 20 1017 82 10000 2.6 120 11:46 15.06.2020
1404 Drizzle 20 1017 82 10000 2.6 120 11:26 15.06.2020
1405 Drizzle 20 1017 88 10000 5.1 110 10:57 15.06.2020
1406 Drizzle 20 1017 88 10000 5.1 110 10:38 15.06.2020
1407 Drizzle 20 1017 88 10000 5.1 110 10:19 15.06.2020
1408 Drizzle 20 1017 88 10000 5.1 110 10:19 15.06.2020
1409 Rain 20 1018 88 10000 4.1 110 09:42 15.06.2020
1410 Rain 20 1018 88 10000 4.1 110 09:22 15.06.2020
1411 Rain 20 1017 88 10000 3.6 130 08:43 15.06.2020
1412 Rain 20 1017 88 10000 3.6 130 08:25 15.06.2020
1413 Clouds 21 1016 73 10000 5.1 100 07:51 15.06.2020
1414 Clouds 21 1016 73 10000 5.1 100 07:33 15.06.2020
1415 Clouds 21 1015 77 10000 4.6 120 06:53 15.06.2020
1416 Clouds 21 1015 77 10000 4.6 120 06:26 15.06.2020
1417 Rain 21 1015 77 10000 4.6 130 05:48 15.06.2020
1418 Rain 21 1015 77 10000 4.6 130 05:27 15.06.2020
1419 Rain 23 1014 69 10000 3.6 120 04:21 15.06.2020
1420 Clouds 23 1014 64 10000 5.1 120 03:48 15.06.2020
1421 Clouds 23 1014 64 10000 3.1 140 02:55 15.06.2020
1422 Clouds 24 1015 60 10000 3.6 90 01:59 15.06.2020
1423 Clouds 24 1015 60 10000 3.6 90 01:39 15.06.2020
1424 Clouds 24 1015 60 10000 3.6 90 01:21 15.06.2020
1425 Clouds 24 1015 57 10000 3.6 90 00:40 15.06.2020
1426 Clouds 24 1015 57 10000 3.6 90 00:20 15.06.2020
1427 Clouds 24 1016 50 10000 3.6 110 23:47 14.06.2020
1428 Clouds 24 1016 50 10000 3.6 110 23:26 14.06.2020
1429 Clouds 24 1015 50 10000 4.1 120 22:58 14.06.2020
1430 Clouds 24 1015 50 10000 4.1 120 22:39 14.06.2020
1431 Clouds 24 1015 50 10000 4.1 120 22:20 14.06.2020
1432 Clouds 21 1015 56 10000 2.1 140 21:58 14.06.2020
1433 Clouds 21 1015 56 10000 2.1 140 21:40 14.06.2020
1434 Clouds 21 1015 56 10000 2.1 140 21:19 14.06.2020
1435 Clouds 21 1015 56 10000 2.1 140 20:59 14.06.2020
1436 Clouds 21 1015 56 10000 2.1 140 20:39 14.06.2020
1437 Clouds 21 1015 56 10000 2.1 140 20:20 14.06.2020
1438 Clouds 21 1015 60 10000 4.6 110 19:59 14.06.2020
1439 Clouds 21 1015 60 10000 4.6 110 19:38 14.06.2020
1440 Clouds 21 1015 60 10000 4.6 110 19:19 14.06.2020
1441 Clouds 21 1015 60 10000 5.7 130 18:57 14.06.2020
1442 Clouds 21 1015 60 10000 5.7 130 18:39 14.06.2020
1443 Clouds 21 1015 60 10000 5.7 130 18:20 14.06.2020
1444 Clouds 21 1014 60 10000 4.6 130 17:58 14.06.2020
1445 Clouds 21 1014 60 10000 4.6 130 17:39 14.06.2020
1446 Clouds 21 1014 60 10000 4.6 130 17:19 14.06.2020
1447 Clouds 21 1015 64 10000 3.6 150 16:41 14.06.2020
1448 Clouds 21 1015 64 10000 3.6 150 16:22 14.06.2020
1449 Clouds 22 1015 60 10000 7.2 150 15:59 14.06.2020
1450 Clouds 22 1015 60 10000 7.2 150 15:40 14.06.2020
1451 Clouds 22 1015 60 10000 7.2 150 15:18 14.06.2020
1452 Drizzle 22 1015 64 10000 8.7 150 14:59 14.06.2020
1453 Drizzle 22 1015 64 10000 8.7 150 14:40 14.06.2020
1454 Drizzle 22 1015 64 10000 8.7 150 14:21 14.06.2020
1455 Clouds 22 1015 68 10000 9.8 140 13:55 14.06.2020
1456 Clouds 22 1015 68 10000 9.8 140 13:37 14.06.2020
1457 Clouds 22 1015 68 10000 9.8 140 13:19 14.06.2020
1458 Clouds 21 1015 73 10000 6.7 130 12:55 14.06.2020
1459 Rain 22 1016 74 0 11.57 148 12:37 14.06.2020
1460 Rain 22 1017 74 0 11.02 143 12:18 14.06.2020
1461 Rain 22 1017 74 0 11.02 143 11:55 14.06.2020
1462 Rain 22 1017 74 0 11.02 143 11:37 14.06.2020
1463 Rain 22 1017 77 0 10.83 142 11:18 14.06.2020
1464 Rain 21 1016 77 10000 3.6 140 10:41 14.06.2020
1465 Rain 21 1016 77 10000 3.6 140 10:19 14.06.2020
1466 Rain 21 1016 83 10000 3.1 130 09:45 14.06.2020
1467 Rain 21 1016 83 10000 3.1 130 09:24 14.06.2020
1468 Rain 21 1016 77 10000 3.1 140 08:44 14.06.2020
1469 Clouds 21 1016 77 10000 3.1 140 08:22 14.06.2020
1470 Rain 20 1015 88 10000 2.1 120 07:58 14.06.2020
1471 Rain 21 1015 77 10000 2.6 130 07:37 14.06.2020
1472 Rain 21 1015 77 10000 2.6 130 07:19 14.06.2020
1473 Clouds 23 1015 60 10000 2.6 120 05:58 14.06.2020
1474 Clouds 24 1014 53 10000 3.1 120 05:39 14.06.2020
1475 Clouds 24 1014 57 10000 3.1 130 04:43 14.06.2020
1476 Clouds 24 1013 57 10000 3.6 140 03:57 14.06.2020
1477 Clouds 24 1014 57 10000 3.6 120 02:44 14.06.2020
1478 Clouds 24 1014 57 10000 3.6 120 02:23 14.06.2020
1479 Clouds 24 1014 53 10000 3.6 120 01:36 14.06.2020
1480 Clouds 24 1015 53 10000 3.6 140 00:50 14.06.2020
1481 Clouds 24 1015 57 10000 3.6 130 00:30 14.06.2020
1482 Clear 24 1016 53 10000 2.6 120 23:49 13.06.2020
1483 Clear 25 1016 57 10000 3.1 110 23:31 13.06.2020
1484 Clear 24 1016 57 10000 2.6 120 22:59 13.06.2020
1485 Clear 24 1016 60 10000 2.6 130 22:39 13.06.2020
1486 Clouds 24 1016 60 10000 2.6 130 22:20 13.06.2020
1487 Clouds 23 1017 60 10000 3.1 120 21:58 13.06.2020
1488 Clouds 23 1017 56 10000 1.5 110 21:40 13.06.2020
1489 Clouds 23 1017 56 10000 1.5 110 21:21 13.06.2020
1490 Clouds 22 1016 60 10000 2.1 110 20:54 13.06.2020
1491 Clouds 20 1016 64 10000 1 120 20:36 13.06.2020
1492 Clear 20 1016 64 10000 1 120 20:18 13.06.2020
1493 Clear 18 1016 72 10000 1 140 19:39 13.06.2020
1494 Clear 18 1016 72 10000 1 140 19:20 13.06.2020
1495 Clear 19 1016 68 10000 1.5 150 18:58 13.06.2020
1496 Clear 19 1015 68 10000 1.5 130 18:39 13.06.2020
1497 Clear 19 1015 68 10000 1.5 130 18:20 13.06.2020
1498 Clear 22 1015 53 10000 2.1 150 17:56 13.06.2020
1499 Clear 21 1015 56 10000 2.6 140 17:37 13.06.2020
1500 Clear 21 1015 56 10000 2.6 140 17:19 13.06.2020
1501 Clear 21 1015 60 10000 2.1 130 16:41 13.06.2020
1502 Clear 21 1015 60 10000 2.1 130 16:20 13.06.2020
1503 Clear 21 1015 60 10000 2.1 140 15:59 13.06.2020
1504 Clear 22 1015 53 10000 2.1 140 15:41 13.06.2020
1505 Clouds 22 1015 53 10000 2.1 140 15:21 13.06.2020
1506 Clouds 20 1016 64 10000 1.5 140 14:43 13.06.2020
1507 Clouds 20 1016 64 10000 1.5 140 14:23 13.06.2020
1508 Clouds 17 1016 77 10000 1 140 13:57 13.06.2020
1509 Clouds 17 1016 77 10000 1 110 13:37 13.06.2020
1510 Clouds 17 1016 77 10000 1 110 13:37 13.06.2020
1511 Clouds 17 1016 77 10000 1 110 13:18 13.06.2020
1512 Clouds 20 1016 60 10000 1 120 12:43 13.06.2020
1513 Clouds 20 1016 60 10000 1 120 12:25 13.06.2020
1514 Clouds 20 1016 56 10000 1.5 130 11:55 13.06.2020
1515 Clouds 20 1016 56 10000 1.5 130 11:55 13.06.2020
1516 Clouds 22 1016 53 10000 2.1 150 11:37 13.06.2020
1517 Clouds 22 1016 53 10000 2.1 150 11:18 13.06.2020
1518 Clouds 22 1016 56 10000 2.6 150 10:49 13.06.2020
1519 Clouds 22 1016 56 10000 2.1 140 10:27 13.06.2020
1520 Clouds 23 1016 53 10000 2.6 150 09:56 13.06.2020
1521 Clouds 22 1016 60 10000 2.1 150 09:38 13.06.2020
1522 Clouds 23 1016 60 10000 3.6 150 09:19 13.06.2020
1523 Clouds 23 1016 60 10000 2.1 130 08:44 13.06.2020
1524 Clouds 23 1016 60 10000 2.1 130 08:44 13.06.2020
1525 Clouds 23 1016 60 10000 2.1 130 08:26 13.06.2020
1526 Clouds 23 1015 56 10000 2.6 140 07:44 13.06.2020
1527 Clouds 23 1015 56 10000 2.6 140 07:25 13.06.2020
1528 Clouds 23 1015 64 10000 3.6 160 06:44 13.06.2020
1529 Clouds 23 1015 64 10000 3.6 160 06:25 13.06.2020
1530 Clouds 24 1015 60 10000 2.6 160 05:29 13.06.2020
1531 Clouds 24 1015 60 10000 2.6 160 05:29 13.06.2020
1532 Clouds 24 1014 64 10000 3.6 150 04:38 13.06.2020
1533 Clouds 25 1015 61 10000 2.6 200 03:43 13.06.2020
1534 Clouds 25 1015 65 10000 2.6 180 02:45 13.06.2020
1535 Clouds 25 1015 61 10000 3.6 190 01:49 13.06.2020
1536 Clouds 25 1016 65 10000 3.6 190 01:23 13.06.2020
1537 Clouds 25 1016 61 10000 3.6 160 00:54 13.06.2020
1538 Clouds 25 1016 65 10000 3.6 150 00:27 13.06.2020
1539 Clouds 25 1016 65 10000 3.1 180 23:58 12.06.2020
1540 Clouds 24 1016 69 10000 3.6 180 23:38 12.06.2020
1541 Clouds 24 1016 69 10000 3.6 180 23:18 12.06.2020
1542 Clouds 24 1016 64 10000 2.1 160 22:42 12.06.2020
1543 Clouds 24 1016 64 10000 2.1 160 22:19 12.06.2020
1544 Clouds 24 1016 64 10000 3.1 180 21:56 12.06.2020
1545 Clouds 24 1016 64 10000 3.1 180 21:37 12.06.2020
1546 Clouds 24 1016 64 10000 3.1 180 21:19 12.06.2020
1547 Clouds 23 1015 69 10000 3.6 170 20:55 12.06.2020
1548 Clouds 23 1015 69 10000 3.6 170 20:36 12.06.2020
1549 Clouds 23 1015 69 10000 3.6 170 20:18 12.06.2020
1550 Clouds 23 1014 69 10000 2.6 180 19:39 12.06.2020
1551 Clouds 23 1014 69 10000 2.6 180 19:20 12.06.2020
1552 Clouds 23 1014 73 10000 1.5 170 18:39 12.06.2020
1553 Clouds 23 1014 73 10000 1.5 190 18:19 12.06.2020
1554 Clouds 23 1014 73 10000 1.5 190 17:59 12.06.2020
1555 Clouds 23 1014 73 10000 3.1 170 17:39 12.06.2020
1556 Clouds 23 1014 73 10000 3.1 170 17:21 12.06.2020
1557 Clouds 24 1014 69 10000 4.1 170 16:45 12.06.2020
1558 Clouds 24 1014 69 10000 4.1 170 16:21 12.06.2020
1559 Clouds 24 1014 69 10000 2.6 170 15:49 12.06.2020
1560 Clouds 24 1014 69 10000 2.1 160 15:27 12.06.2020
1561 Clouds 23 1014 73 10000 1 100 14:58 12.06.2020
1562 Clouds 23 1014 78 10000 2.6 180 14:39 12.06.2020
1563 Clouds 23 1014 78 10000 2.6 180 14:21 12.06.2020
1564 Clouds 24 1014 73 10000 3.6 180 13:42 12.06.2020
1565 Clouds 24 1014 73 10000 3.6 180 13:22 12.06.2020
1566 Clouds 24 1015 78 10000 2.1 190 12:41 12.06.2020
1567 Clouds 24 1015 78 10000 2.1 190 12:20 12.06.2020
1568 Clouds 24 1015 83 10000 2.6 180 11:58 12.06.2020
1569 Clouds 24 1015 83 10000 2.6 180 11:40 12.06.2020
1570 Clouds 24 1015 83 10000 2.6 180 11:21 12.06.2020
1571 Clouds 24 1015 88 10000 2.6 160 10:46 12.06.2020
1572 Clouds 24 1015 88 10000 2.6 160 10:25 12.06.2020
1573 Clouds 24 1015 88 10000 1.5 170 09:47 12.06.2020
1574 Clouds 24 1015 88 10000 1.5 170 09:22 12.06.2020
1575 Clouds 24 1014 94 10000 1.5 180 08:45 12.06.2020
1576 Clouds 24 1014 94 10000 1.5 180 08:25 12.06.2020
1577 Clouds 24 1013 88 10000 1.5 190 07:44 12.06.2020
1578 Clouds 24 1013 88 10000 1.5 190 07:26 12.06.2020
1579 Clouds 24 1013 88 10000 2.1 210 06:56 12.06.2020
1580 Clouds 24 1013 94 10000 1.5 220 06:30 12.06.2020
1581 Rain 24 1013 94 10000 1.5 210 05:55 12.06.2020
1582 Rain 24 1012 94 2200 2.1 220 05:37 12.06.2020
1583 Rain 24 1012 94 2200 2.1 220 05:19 12.06.2020
1584 Rain 26 1012 83 10000 6.7 270 03:24 12.06.2020
1585 Clouds 27 1012 83 10000 3.6 260 01:56 12.06.2020
1586 Clouds 27 1012 83 10000 3.1 270 01:27 12.06.2020
1587 Clouds 27 1013 78 10000 2.1 280 00:47 12.06.2020
1588 Rain 27 1013 78 10000 2.1 280 00:26 12.06.2020
1589 Rain 27 1013 83 10000 1.5 260 23:59 11.06.2020
1590 Rain 27 1014 83 10000 1 250 23:41 11.06.2020
1591 Rain 27 1014 83 10000 1 250 23:21 11.06.2020
1592 Rain 27 1014 83 10000 1.5 280 22:59 11.06.2020
1593 Rain 27 1014 83 10000 1 270 22:39 11.06.2020
1594 Clouds 27 1014 83 10000 1 270 22:20 11.06.2020
1595 Clouds 26 1014 88 10000 2.1 240 21:56 11.06.2020
1596 Clouds 26 1014 83 10000 1.5 240 21:37 11.06.2020
1597 Rain 26 1013 83 10000 1.5 220 21:19 11.06.2020
1598 Clouds 26 1013 88 0 4.1 310 20:43 11.06.2020
1599 Clouds 26 1013 88 0 4.1 310 20:21 11.06.2020
1600 Rain 26 1013 83 10000 2.6 310 19:55 11.06.2020
1601 Rain 25 1012 88 10000 2.6 310 19:36 11.06.2020
1602 Rain 25 1012 88 10000 2.6 310 19:18 11.06.2020
1603 Rain 26 1012 83 10000 2.6 320 18:41 11.06.2020
1604 Clouds 26 1012 83 10000 2.6 320 18:20 11.06.2020
1605 Clouds 26 1012 83 10000 2.6 320 17:56 11.06.2020
1606 Clouds 26 1011 83 10000 2.6 330 17:37 11.06.2020
1607 Rain 26 1011 83 10000 2.6 330 17:19 11.06.2020
1608 Rain 26 1011 83 10000 2.6 340 16:46 11.06.2020
1609 Clear 26 1011 83 10000 2.6 350 16:28 11.06.2020
1610 Clear 26 1012 83 10000 3.1 360 15:59 11.06.2020
1611 Clear 26 1012 83 10000 3.1 360 15:41 11.06.2020
1612 Clear 26 1012 83 10000 2.6 360 15:23 11.06.2020
1613 Clear 26 1012 83 10000 2.6 350 14:55 11.06.2020
1614 Clear 26 1012 83 10000 2.1 10 14:36 11.06.2020
1615 Clouds 26 1012 83 10000 2.1 10 14:18 11.06.2020
1616 Clouds 26 1013 83 10000 3.1 350 13:54 11.06.2020
1617 Clouds 26 1013 83 10000 2.1 10 13:36 11.06.2020
1618 Clouds 26 1013 83 10000 2.1 10 13:18 11.06.2020
1619 Clouds 26 1013 83 10000 1.5 20 12:39 11.06.2020
1620 Clouds 26 1013 83 10000 1.5 20 12:20 11.06.2020
1621 Clouds 26 1013 83 10000 2.1 40 11:59 11.06.2020
1622 Clouds 26 1013 83 10000 1.5 30 11:40 11.06.2020
1623 Clouds 26 1013 83 10000 1.5 30 11:22 11.06.2020
1624 Clouds 26 1013 83 10000 2.1 40 10:57 11.06.2020
1625 Clouds 26 1013 83 10000 2.1 40 10:38 11.06.2020
1626 Clouds 26 1013 83 10000 2.1 40 10:18 11.06.2020
1627 Clouds 26 1013 83 10000 2.1 40 09:42 11.06.2020
1628 Clear 26 1013 83 10000 2.1 40 09:23 11.06.2020
1629 Clear 26 1013 83 10000 2.1 40 08:44 11.06.2020
1630 Clouds 26 1013 83 10000 2.6 40 08:20 11.06.2020
1631 Clouds 26 1013 83 10000 2.6 40 07:58 11.06.2020
1632 Clouds 26 1012 83 10000 2.6 40 07:40 11.06.2020
1633 Clouds 26 1012 83 10000 2.6 40 07:20 11.06.2020
1634 Clouds 26 1012 83 10000 3.1 40 06:28 11.06.2020
1635 Clouds 27 1012 74 10000 3.6 20 05:36 11.06.2020
1636 Clouds 27 1012 78 10000 4.1 20 03:50 11.06.2020
1637 Clouds 27 1012 74 10000 4.1 30 03:23 11.06.2020
1638 Clouds 26 1012 83 10000 4.6 50 02:32 11.06.2020
1639 Clouds 27 1013 78 10000 4.6 40 01:50 11.06.2020
1640 Clouds 27 1013 74 10000 4.6 40 01:24 11.06.2020
1641 Clouds 27 1013 74 10000 4.6 40 00:49 11.06.2020
1642 Clouds 27 1013 74 10000 4.6 40 00:27 11.06.2020
1643 Clouds 27 1013 74 10000 5.1 40 23:46 10.06.2020
1644 Clouds 27 1014 74 10000 5.1 40 23:27 10.06.2020
1645 Clouds 27 1014 74 10000 4.6 50 22:56 10.06.2020
1646 Clouds 26 1014 74 10000 4.6 50 22:37 10.06.2020
1647 Clouds 26 1014 74 10000 4.6 50 22:19 10.06.2020
1648 Clouds 26 1014 74 10000 4.6 50 21:55 10.06.2020
1649 Clouds 26 1014 74 10000 4.6 50 21:37 10.06.2020
1650 Clouds 26 1014 74 10000 4.6 50 21:18 10.06.2020
1651 Clouds 26 1014 74 10000 4.6 50 21:18 10.06.2020
1652 Clouds 26 1014 74 10000 4.6 50 21:18 10.06.2020
1653 Clouds 26 1014 74 10000 4.6 50 20:56 10.06.2020
1654 Clouds 26 1014 74 10000 5.1 50 20:38 10.06.2020
1655 Clouds 26 1014 74 10000 5.1 50 20:19 10.06.2020
1656 Clouds 25 1013 73 10000 5.1 50 19:40 10.06.2020
1657 Rain 25 1013 73 10000 3.1 50 19:19 10.06.2020
1658 Rain 25 1013 73 10000 3.1 50 18:58 10.06.2020
1659 Rain 25 1013 73 10000 3.1 40 18:40 10.06.2020
1660 Rain 25 1013 73 10000 5.1 50 18:19 10.06.2020
1661 Rain 25 1013 73 10000 5.1 50 17:55 10.06.2020
1662 Rain 25 1013 73 10000 4.1 40 17:37 10.06.2020
1663 Rain 25 1013 73 10000 4.1 40 17:18 10.06.2020
1664 Rain 25 1013 73 10000 4.1 50 16:56 10.06.2020
1665 Rain 25 1013 73 10000 4.1 50 16:38 10.06.2020
1666 Clouds 25 1013 73 10000 4.1 50 16:18 10.06.2020
1667 Clouds 25 1013 69 10000 4.1 40 15:39 10.06.2020
1668 Clouds 25 1013 69 10000 4.1 40 15:21 10.06.2020
1669 Clouds 25 1014 69 10000 4.1 30 14:55 10.06.2020
1670 Clouds 25 1014 69 10000 5.1 40 14:37 10.06.2020
1671 Clouds 25 1014 69 10000 5.1 40 14:19 10.06.2020
1672 Clouds 25 1013 69 10000 7.2 50 13:39 10.06.2020
1673 Clouds 25 1013 69 10000 7.2 50 13:21 10.06.2020
1674 Clouds 25 1014 73 10000 7.2 50 12:42 10.06.2020
1675 Clouds 25 1014 73 10000 7.2 50 12:20 10.06.2020
1676 Clouds 25 1014 69 10000 6.7 50 11:56 10.06.2020
1677 Clouds 25 1014 69 10000 7.7 60 11:38 10.06.2020
1678 Clouds 25 1014 69 10000 7.7 60 11:19 10.06.2020
1679 Clouds 25 1014 69 10000 7.7 50 10:44 10.06.2020
1680 Clouds 25 1014 69 10000 7.7 50 10:25 10.06.2020
1681 Clouds 25 1014 69 10000 7.2 50 09:59 10.06.2020
1682 Clouds 25 1014 69 10000 7.2 60 09:39 10.06.2020
1683 Clouds 25 1014 69 10000 7.2 60 09:20 10.06.2020
1684 Clouds 25 1014 73 10000 6.2 60 08:42 10.06.2020
1685 Clouds 25 1014 73 10000 6.2 60 08:23 10.06.2020
1686 Clouds 25 1014 69 10000 6.2 60 07:43 10.06.2020
1687 Clouds 25 1014 69 10000 6.2 60 07:23 10.06.2020
1688 Clouds 25 1014 69 10000 6.7 60 06:59 10.06.2020
1689 Clouds 25 1014 69 10000 6.2 60 06:38 10.06.2020
1690 Clouds 25 1014 69 10000 6.2 60 06:18 10.06.2020
1691 Clouds 25 1014 69 10000 5.7 60 05:49 10.06.2020
1692 Clouds 25 1014 69 10000 5.7 60 05:18 10.06.2020
1693 Clouds 26 1014 65 10000 5.7 60 04:29 10.06.2020
1694 Rain 24 1015 83 10000 3.6 40 02:34 10.06.2020
1695 Clouds 26 1015 74 10000 6.2 60 01:47 10.06.2020
1696 Clouds 26 1015 74 10000 6.2 60 01:21 10.06.2020
1697 Clouds 26 1016 74 10000 6.7 70 00:38 10.06.2020
1698 Clouds 26 1016 74 10000 6.7 70 00:20 10.06.2020
1699 Clouds 26 1016 69 10000 6.7 60 23:41 09.06.2020
1700 Clouds 26 1017 69 10000 6.7 60 23:23 09.06.2020
1701 Clouds 26 1017 74 10000 6.7 60 22:57 09.06.2020
1702 Clouds 25 1016 73 10000 6.2 70 22:39 09.06.2020
1703 Clouds 25 1016 73 10000 6.2 70 22:20 09.06.2020
1704 Clouds 24 1016 83 10000 6.7 70 21:57 09.06.2020
1705 Clouds 24 1016 78 10000 5.7 60 21:39 09.06.2020
1706 Clouds 24 1016 78 10000 5.7 60 21:21 09.06.2020
1707 Rain 22 1016 94 6000 3.6 100 20:57 09.06.2020
1708 Rain 22 1016 94 6000 3.6 100 20:57 09.06.2020
1709 Clouds 23 1016 88 10000 4.6 40 20:38 09.06.2020
1710 Clouds 23 1016 88 10000 4.6 40 20:20 09.06.2020
1711 Rain 23 1016 83 10000 4.6 70 19:57 09.06.2020
1712 Clouds 23 1016 83 10000 4.1 80 19:39 09.06.2020
1713 Clouds 23 1016 83 10000 4.1 80 19:39 09.06.2020
1714 Clouds 23 1016 83 10000 4.1 80 19:20 09.06.2020
1715 Rain 23 1015 83 10000 5.1 70 18:56 09.06.2020
1716 Clouds 23 1015 83 10000 3.6 80 18:38 09.06.2020
1717 Clouds 23 1015 83 10000 3.6 80 18:18 09.06.2020
1718 Clouds 22 1015 88 10000 1.5 80 17:55 09.06.2020
1719 Clouds 22 1015 88 10000 2.1 100 17:36 09.06.2020
1720 Clouds 22 1015 88 10000 2.1 100 17:18 09.06.2020
1721 Clouds 24 1015 78 10000 5.1 70 16:42 09.06.2020
1722 Clouds 23 1015 78 10000 5.1 70 16:22 09.06.2020
1723 Clouds 23 1015 78 10000 2.6 90 15:55 09.06.2020
1724 Clouds 23 1016 83 10000 2.1 90 15:36 09.06.2020
1725 Clouds 23 1016 83 10000 2.1 90 15:18 09.06.2020
1726 Clouds 23 1016 78 10000 1.5 120 14:40 09.06.2020
1727 Clouds 23 1016 78 10000 1.5 120 14:20 09.06.2020
1728 Clouds 23 1016 78 10000 2.6 90 13:57 09.06.2020
1729 Clouds 23 1016 78 10000 2.6 90 13:57 09.06.2020
1730 Clouds 23 1016 78 10000 1.5 110 13:38 09.06.2020
1731 Clouds 23 1016 78 10000 1.5 110 13:20 09.06.2020
1732 Clouds 23 1016 78 10000 1 130 12:42 09.06.2020
1733 Clouds 23 1016 78 10000 1 130 12:21 09.06.2020
1734 Clouds 22 1017 83 10000 1 160 11:58 09.06.2020
1735 Clouds 23 1017 78 10000 1 150 11:40 09.06.2020
1736 Clouds 23 1017 78 10000 1 150 11:40 09.06.2020
1737 Clouds 23 1017 78 10000 1 150 11:20 09.06.2020
1738 Clouds 23 1017 78 10000 1 150 11:20 09.06.2020
1739 Clouds 22 1017 83 10000 0.5 180 10:55 09.06.2020
1740 Clouds 22 1017 83 10000 0.5 180 10:55 09.06.2020
1741 Clouds 22 1017 83 10000 1 170 10:36 09.06.2020
1742 Clouds 22 1017 83 10000 1 170 10:18 09.06.2020
1743 Clouds 22 1017 83 10000 1 160 09:41 09.06.2020
1744 Clouds 21 1017 88 10000 1 150 09:22 09.06.2020
1745 Clouds 22 1017 83 10000 1 170 08:56 09.06.2020
1746 Clouds 22 1017 78 10000 1 170 08:37 09.06.2020
1747 Clouds 22 1017 78 10000 1 170 08:18 09.06.2020
1748 Rain 22 1016 78 4100 1 150 07:37 09.06.2020
1749 Haze 22 1016 78 4100 1 150 07:18 09.06.2020
1750 Clouds 22 1016 78 10000 1 160 06:52 09.06.2020
1751 Clouds 23 1016 73 10000 1.5 130 06:28 09.06.2020
1752 Clouds 25 1015 65 10000 1.5 110 04:39 09.06.2020
1753 Clouds 25 1016 61 10000 2.1 100 02:52 09.06.2020
1754 Clouds 25 1017 65 10000 3.6 80 01:40 09.06.2020
1755 Clouds 25 1017 65 10000 3.6 80 01:19 09.06.2020
1756 Clouds 25 1017 61 10000 3.6 60 00:44 09.06.2020
1757 Clouds 25 1017 61 10000 3.6 60 00:20 09.06.2020
1758 Clouds 25 1018 61 10000 3.1 60 23:54 08.06.2020
1759 Clouds 26 1018 61 10000 3.6 60 23:36 08.06.2020
1760 Clouds 26 1018 61 10000 3.6 60 23:18 08.06.2020
1761 Clouds 25 1019 61 10000 1 70 22:39 08.06.2020
1762 Clouds 25 1019 61 10000 1 70 22:20 08.06.2020
1763 Clouds 24 1018 69 10000 1.5 110 21:56 08.06.2020
1764 Clouds 23 1018 73 10000 0.5 130 21:38 08.06.2020
1765 Clouds 23 1018 73 10000 0.5 130 21:19 08.06.2020
1766 Clouds 22 1018 88 10000 1 110 20:55 08.06.2020
1767 Clouds 19 1018 100 10000 1 170 20:37 08.06.2020
1768 Clouds 19 1018 100 10000 1 170 20:18 08.06.2020
1769 Clouds 17 1017 100 10000 1 160 19:43 08.06.2020
1770 Clouds 17 1017 100 10000 0.5 100 19:21 08.06.2020
1771 Clouds 17 1017 100 10000 1 140 18:44 08.06.2020
1772 Clouds 17 1017 100 10000 1 140 18:22 08.06.2020
1773 Clouds 17 1017 100 10000 1 140 17:58 08.06.2020
1774 Clouds 17 1016 100 10000 1 160 17:40 08.06.2020
1775 Clouds 17 1016 100 10000 1 160 17:22 08.06.2020
1776 Clouds 17 1017 100 10000 1 180 16:58 08.06.2020
1777 Clouds 17 1017 100 10000 1 180 16:58 08.06.2020
1778 Clouds 17 1017 100 10000 1 180 16:40 08.06.2020
1779 Clouds 17 1017 100 10000 1 180 16:21 08.06.2020
1780 Clouds 17 1017 100 10000 0.5 180 15:44 08.06.2020
1781 Clouds 17 1017 100 10000 1 170 15:22 08.06.2020
1782 Clouds 17 1017 100 10000 1 170 14:58 08.06.2020
1783 Clouds 17 1017 100 10000 1 170 14:39 08.06.2020
1784 Clouds 17 1017 100 10000 1 170 14:19 08.06.2020
1785 Clouds 18 1018 93 10000 1.5 180 13:43 08.06.2020
1786 Clouds 17 1017 100 10000 0.5 170 13:23 08.06.2020
1787 Clouds 18 1017 93 10000 1 180 12:43 08.06.2020
1788 Clouds 18 1017 93 10000 1 180 12:20 08.06.2020
1789 Clouds 18 1017 93 10000 1 180 12:20 08.06.2020
1790 Clouds 18 1018 93 10000 1 190 11:59 08.06.2020
1791 Clouds 18 1018 93 10000 1 180 11:40 08.06.2020
1792 Clear 18 1018 93 10000 1 180 11:21 08.06.2020
1793 Clear 18 1018 93 10000 1 180 11:21 08.06.2020
1794 Clear 18 1018 93 10000 1 190 10:58 08.06.2020
1795 Clear 18 1018 93 10000 1 180 10:38 08.06.2020
1796 Clear 18 1018 93 10000 1 180 10:20 08.06.2020
1797 Clear 18 1017 93 10000 1.5 180 09:48 08.06.2020
1798 Clear 19 1017 88 10000 1 180 09:23 08.06.2020
1799 Clouds 19 1017 88 10000 1 190 08:57 08.06.2020
1800 Clouds 19 1017 88 10000 1.5 190 08:39 08.06.2020
1801 Clear 19 1017 88 10000 1.5 190 08:19 08.06.2020
1802 Clear 20 1016 82 10000 1.5 180 07:40 08.06.2020
1803 Clear 20 1016 82 10000 1.5 180 07:21 08.06.2020
1804 Clear 20 1016 82 10000 1.5 180 07:21 08.06.2020
1805 Clear 23 1016 69 10000 1 120 06:41 08.06.2020
1806 Clear 23 1016 69 10000 1 120 06:21 08.06.2020
1807 Clear 24 1015 60 10000 1.5 70 05:42 08.06.2020
1808 Clear 25 1015 61 10000 2.6 30 03:29 08.06.2020
1809 Clouds 25 1016 57 10000 1.5 50 02:26 08.06.2020
1810 Clouds 25 1016 57 10000 2.6 50 01:44 08.06.2020
1811 Clouds 25 1017 57 10000 2.6 10 00:58 08.06.2020
1812 Clouds 25 1017 61 10000 2.6 60 00:25 08.06.2020
1813 Clouds 25 1017 57 10000 3.6 70 23:40 07.06.2020
1814 Clouds 25 1017 57 10000 3.6 70 23:19 07.06.2020
1815 Clouds 25 1017 57 10000 2.6 80 22:58 07.06.2020
1816 Clouds 24 1017 60 10000 3.1 90 22:38 07.06.2020
1817 Clouds 24 1017 60 10000 3.1 90 22:18 07.06.2020
1818 Clouds 23 1017 69 10000 1.5 110 21:58 07.06.2020
1819 Clouds 22 1017 73 10000 1.5 100 21:37 07.06.2020
1820 Clouds 22 1017 73 10000 1.5 100 21:19 07.06.2020
1821 Clouds 19 1016 82 10000 2.55 103 20:40 07.06.2020
1822 Clouds 19 1016 82 10000 2.12 137 20:21 07.06.2020
1823 Clouds 18 1016 88 10000 1 110 19:58 07.06.2020
1824 Clouds 18 1015 88 10000 1 130 19:39 07.06.2020
1825 Clouds 18 1015 88 10000 1 130 19:21 07.06.2020
1826 Clouds 17 1015 93 10000 1 110 18:59 07.06.2020
1827 Clouds 17 1015 93 10000 0.5 130 18:38 07.06.2020
1828 Clouds 17 1015 93 10000 0.5 130 18:38 07.06.2020
1829 Clouds 17 1015 93 10000 0.5 130 18:20 07.06.2020
1830 Clouds 17 1015 93 10000 1 100 17:57 07.06.2020
1831 Clouds 17 1015 93 10000 1 180 17:38 07.06.2020
1832 Clouds 17 1015 93 10000 1 180 17:20 07.06.2020
1833 Clouds 17 1015 93 10000 0.5 130 16:43 07.06.2020
1834 Clouds 17 1015 93 10000 1 180 16:21 07.06.2020
1835 Clouds 17 1015 93 10000 1 130 15:42 07.06.2020
1836 Clouds 17 1015 93 10000 1 80 15:22 07.06.2020
1837 Clouds 17 1016 93 10000 1 180 14:41 07.06.2020
1838 Clouds 17 1016 93 10000 1 180 14:41 07.06.2020
1839 Clouds 18 1016 88 10000 0.5 150 14:22 07.06.2020
1840 Clouds 17 1016 93 10000 0.5 120 13:49 07.06.2020
1841 Clouds 17 1016 93 10000 1 180 13:22 07.06.2020
1842 Clouds 18 1016 88 10000 0.5 170 12:57 07.06.2020
1843 Clouds 18 1016 88 10000 1 180 12:39 07.06.2020
1844 Clear 18 1016 88 10000 0.5 180 12:19 07.06.2020
1845 Clear 18 1016 88 10000 0.5 180 11:55 07.06.2020
1846 Clear 18 1016 88 10000 0.5 150 11:36 07.06.2020
1847 Clear 18 1016 88 10000 0.5 150 11:18 07.06.2020
1848 Clear 18 1016 88 10000 1 150 10:45 07.06.2020
1849 Clear 18 1016 88 10000 0.5 150 10:20 07.06.2020
1850 Clear 18 1016 88 10000 0.5 150 10:20 07.06.2020
1851 Clear 19 1017 82 10000 0.5 170 09:58 07.06.2020
1852 Clear 19 1017 82 10000 0.5 170 09:39 07.06.2020
1853 Clouds 19 1017 82 10000 1 180 09:20 07.06.2020
1854 Clouds 18 1016 88 10000 1 180 08:57 07.06.2020
1855 Clouds 19 1016 82 10000 1 190 08:39 07.06.2020
1856 Clouds 19 1016 82 10000 1 190 08:20 07.06.2020
1857 Clouds 22 1016 68 10000 1 140 07:32 07.06.2020
1858 Clouds 22 1015 64 10000 1 150 06:52 07.06.2020
1859 Clouds 23 1015 64 10000 1.5 100 05:52 07.06.2020
1860 Clear 24 1014 57 10000 1.5 80 04:21 07.06.2020
1861 Clouds 24 1014 57 10000 2.1 50 02:57 07.06.2020
1862 Clouds 24 1014 57 10000 2.6 50 01:58 07.06.2020
1863 Clouds 24 1015 53 10000 2.1 30 01:25 07.06.2020
1864 Clouds 25 1015 53 10000 2.6 30 00:47 07.06.2020
1865 Clouds 24 1015 53 10000 3.6 50 00:19 07.06.2020
1866 Clouds 24 1015 57 10000 2.6 30 23:58 06.06.2020
1867 Clouds 24 1015 53 10000 3.6 60 23:37 06.06.2020
1868 Clouds 24 1015 53 10000 3.6 60 23:19 06.06.2020
1869 Clouds 24 1015 53 10000 3.6 50 22:56 06.06.2020
1870 Clouds 24 1015 57 10000 4.1 80 22:38 06.06.2020
1871 Clouds 24 1015 57 10000 4.1 80 22:18 06.06.2020
1872 Clouds 23 1015 64 10000 2.1 100 21:45 06.06.2020
1873 Clouds 22 1015 68 10000 1.5 110 21:22 06.06.2020
1874 Clouds 20 1015 82 10000 0.5 130 20:57 06.06.2020
1875 Clouds 18 1014 88 10000 0.5 120 20:38 06.06.2020
1876 Clouds 18 1014 88 10000 0.5 120 20:18 06.06.2020
1877 Clouds 17 1014 88 10000 1 190 19:57 06.06.2020
1878 Clouds 17 1014 82 10000 0.5 150 19:37 06.06.2020
1879 Clouds 17 1014 82 10000 0.5 150 19:19 06.06.2020
1880 Clouds 21 1013 64 10000 2.6 110 18:43 06.06.2020
1881 Clouds 21 1013 64 10000 2.6 110 18:24 06.06.2020
1882 Clouds 19 1013 77 10000 1.5 160 17:58 06.06.2020
1883 Clouds 18 1013 82 10000 1 150 17:39 06.06.2020
1884 Clouds 18 1013 82 10000 1 150 17:39 06.06.2020
1885 Clouds 18 1013 82 10000 1 150 17:18 06.06.2020
1886 Clouds 20 1012 68 10000 1.5 140 16:41 06.06.2020
1887 Clouds 20 1013 72 10000 1.5 130 16:22 06.06.2020
1888 Clouds 21 1013 68 10000 1.5 140 15:56 06.06.2020
1889 Clouds 20 1013 77 10000 1.5 140 15:37 06.06.2020
1890 Clear 20 1013 77 10000 1.5 140 15:19 06.06.2020
1891 Clear 21 1013 73 10000 1.5 140 14:43 06.06.2020
1892 Clouds 19 1013 82 10000 1 130 14:24 06.06.2020
1893 Clouds 19 1014 77 10000 1.5 140 13:55 06.06.2020
1894 Clouds 18 1014 82 10000 0.5 180 13:37 06.06.2020
1895 Clouds 18 1014 82 10000 1 150 13:18 06.06.2020
1896 Clouds 18 1014 77 10000 1.5 160 12:42 06.06.2020
1897 Clouds 18 1014 77 10000 1.5 160 12:23 06.06.2020
1898 Clouds 20 1014 68 10000 1.5 140 11:58 06.06.2020
1899 Clouds 21 1014 68 10000 1.5 130 11:38 06.06.2020
1900 Clouds 21 1014 68 10000 1.5 130 11:20 06.06.2020
1901 Clouds 20 1014 72 10000 1 130 10:57 06.06.2020
1902 Clouds 20 1014 72 10000 1 140 10:39 06.06.2020
1903 Clouds 20 1014 72 10000 1 140 10:39 06.06.2020
1904 Clouds 20 1014 72 10000 1 140 10:20 06.06.2020
1905 Clouds 21 1015 68 10000 1 120 09:45 06.06.2020
1906 Clouds 21 1015 68 10000 1 120 09:45 06.06.2020
1907 Clouds 22 1014 64 10000 1 160 09:27 06.06.2020
1908 Clouds 22 1015 60 10000 2.1 170 08:56 06.06.2020
1909 Clouds 21 1014 64 10000 1.5 160 08:38 06.06.2020
1910 Clouds 21 1014 64 10000 1.5 160 08:18 06.06.2020
1911 Clouds 21 1014 60 10000 1.5 140 07:45 06.06.2020
1912 Clouds 22 1013 60 10000 2.1 150 07:20 06.06.2020
1913 Clouds 22 1013 64 10000 1.5 130 06:46 06.06.2020
1914 Clouds 22 1013 64 10000 1.5 130 06:27 06.06.2020
1915 Clouds 23 1013 56 10000 2.1 140 05:50 06.06.2020
1916 Clouds 24 1013 50 10000 2.1 130 05:25 06.06.2020
1917 Clouds 24 1012 50 10000 3.6 100 04:38 06.06.2020
1918 Clouds 24 1013 57 10000 3.1 140 02:36 06.06.2020
1919 Clear 24 1013 57 10000 3.1 100 01:41 06.06.2020
1920 Clear 24 1014 53 10000 3.6 130 01:18 06.06.2020
1921 Clear 25 1015 44 10000 1.5 150 00:41 06.06.2020
1922 Clear 25 1015 44 10000 1.5 150 00:22 06.06.2020
1923 Clear 24 1015 50 10000 3.1 160 23:40 05.06.2020
1924 Clear 24 1015 53 10000 2.6 140 23:21 05.06.2020
1925 Clear 24 1015 57 10000 2.6 110 22:58 05.06.2020
1926 Clear 24 1015 57 10000 2.6 110 22:39 05.06.2020
1927 Clear 23 1015 60 10000 1.5 140 22:21 05.06.2020
1928 Clear 23 1015 60 10000 2.6 120 21:55 05.06.2020
1929 Clear 22 1015 64 10000 1.5 130 21:37 05.06.2020
1930 Clear 22 1015 64 10000 1.5 130 21:18 05.06.2020
1931 Clear 21 1015 68 10000 1 150 20:44 05.06.2020
1932 Clear 20 1015 68 10000 1.5 170 20:22 05.06.2020
1933 Clear 19 1015 68 10000 1.5 160 19:57 05.06.2020
1934 Clear 19 1014 72 10000 1.5 140 19:39 05.06.2020
1935 Clear 19 1014 72 10000 1.5 140 19:20 05.06.2020
1936 Clear 21 1014 64 10000 1.5 150 18:40 05.06.2020
1937 Clear 21 1014 64 10000 1.5 150 18:21 05.06.2020
1938 Clear 22 1014 60 10000 2.6 140 17:59 05.06.2020
1939 Clear 22 1014 60 10000 2.6 140 17:40 05.06.2020
1940 Clear 21 1014 68 10000 2.1 140 17:20 05.06.2020
1941 Clear 22 1014 64 10000 2.6 140 16:43 05.06.2020
1942 Clear 21 1014 64 10000 1.5 150 16:24 05.06.2020
1943 Clear 21 1014 60 10000 1.5 140 15:58 05.06.2020
1944 Clear 22 1014 56 10000 3.1 120 15:38 05.06.2020
1945 Clear 22 1014 56 10000 3.1 120 15:20 05.06.2020
1946 Clear 22 1014 60 10000 2.6 110 14:56 05.06.2020
1947 Clear 22 1015 60 10000 3.6 110 14:38 05.06.2020
1948 Clear 22 1015 60 10000 3.6 110 14:19 05.06.2020
1949 Clear 22 1014 64 10000 2.6 110 13:43 05.06.2020
1950 Clear 23 1015 64 10000 3.6 100 13:24 05.06.2020
1951 Clear 22 1015 64 10000 3.1 120 12:55 05.06.2020
1952 Clear 22 1015 60 10000 3.6 110 12:36 05.06.2020
1953 Clear 22 1015 60 10000 3.6 110 12:18 05.06.2020
1954 Rain 23 1015 60 10000 5.7 100 11:42 05.06.2020
1955 Clear 23 1015 60 10000 4.1 110 11:22 05.06.2020
1956 Clear 22 1015 64 10000 3.1 110 10:55 05.06.2020
1957 Clear 22 1015 73 10000 3.1 120 10:36 05.06.2020
1958 Rain 22 1015 73 10000 3.1 120 10:18 05.06.2020
1959 Rain 21 1015 77 10000 4.1 130 09:55 05.06.2020
1960 Rain 21 1015 77 10000 2.1 130 09:36 05.06.2020
1961 Clear 21 1015 77 10000 2.1 130 09:18 05.06.2020
1962 Clouds 21 1015 77 10000 2.1 130 09:18 05.06.2020
1963 Clear 21 1015 83 10000 2.6 130 08:41 05.06.2020
1964 Rain 21 1015 83 10000 2.6 160 08:20 05.06.2020
1965 Rain 21 1015 88 10000 3.1 140 07:56 05.06.2020
1966 Rain 21 1015 83 10000 4.1 130 07:38 05.06.2020
1967 Rain 21 1015 83 10000 3.1 100 06:56 05.06.2020
1968 Rain 23 1014 73 10000 3.6 140 05:41 05.06.2020
1969 Rain 23 1014 73 10000 2.6 130 05:18 05.06.2020
1970 Rain 25 1014 61 10000 4.6 120 03:53 05.06.2020
1971 Clear 25 1015 61 10000 3.6 110 02:44 05.06.2020
1972 Clear 26 1015 57 10000 3.1 120 02:18 05.06.2020
1973 Clear 26 1015 57 10000 5.1 90 01:49 05.06.2020
1974 Clouds 25 1016 53 10000 5.7 90 00:58 05.06.2020
1975 Clouds 25 1016 61 10000 3.6 120 00:39 05.06.2020
1976 Clouds 25 1016 61 10000 3.6 120 00:19 05.06.2020
1977 Clouds 25 1016 57 10000 5.1 100 23:46 04.06.2020
1978 Clouds 25 1016 57 10000 5.1 100 23:46 04.06.2020
1979 Clouds 25 1017 53 10000 4.6 120 23:24 04.06.2020
1980 Clouds 25 1017 57 10000 6.2 100 22:44 04.06.2020
1981 Clouds 25 1017 57 10000 5.1 100 22:22 04.06.2020
1982 Clouds 24 1017 60 10000 6.2 100 21:59 04.06.2020
1983 Clouds 24 1016 57 10000 3.6 110 21:40 04.06.2020
1984 Clouds 24 1016 57 10000 3.6 110 21:21 04.06.2020
1985 Clouds 24 1016 57 10000 3.1 100 20:57 04.06.2020
1986 Clouds 23 1016 64 10000 3.1 120 20:39 04.06.2020
1987 Clear 23 1016 64 10000 3.1 120 20:20 04.06.2020
1988 Clear 23 1015 60 10000 3.1 110 19:55 04.06.2020
1989 Clear 23 1015 60 10000 3.1 110 19:37 04.06.2020
1990 Clouds 23 1015 60 10000 3.1 110 19:19 04.06.2020
1991 Clouds 23 1015 64 10000 4.6 110 18:39 04.06.2020
1992 Clouds 23 1015 64 10000 4.6 110 18:20 04.06.2020
1993 Clouds 24 1015 64 10000 5.1 110 17:56 04.06.2020
1994 Clouds 23 1015 64 10000 6.2 100 17:38 04.06.2020
1995 Clear 23 1015 64 10000 6.2 100 17:19 04.06.2020
1996 Clear 23 1015 69 10000 6.2 100 16:40 04.06.2020
1997 Clear 23 1015 69 10000 6.2 100 16:20 04.06.2020
1998 Clear 23 1015 69 10000 6.2 100 16:20 04.06.2020
1999 Clear 24 1015 64 10000 5.7 100 15:45 04.06.2020
2000 Clear 23 1015 69 10000 5.7 110 15:26 04.06.2020
2001 Clear 23 1016 69 10000 4.6 100 14:42 04.06.2020
2002 Rain 23 1016 69 10000 5.7 100 14:23 04.06.2020
2003 Rain 24 1016 64 10000 5.7 90 13:58 04.06.2020
2004 Rain 23 1016 73 10000 6.2 100 13:40 04.06.2020
2005 Rain 23 1016 73 10000 6.2 100 13:20 04.06.2020
2006 Rain 24 1016 64 10000 5.7 100 12:59 04.06.2020
2007 Rain 24 1016 69 10000 4.1 110 12:40 04.06.2020
2008 Rain 24 1016 69 10000 4.1 110 12:22 04.06.2020
2009 Rain 24 1016 69 10000 5.1 100 11:54 04.06.2020
2010 Clear 24 1016 69 10000 5.7 100 11:36 04.06.2020
2011 Clear 24 1016 69 10000 5.7 100 11:18 04.06.2020
2012 Clear 24 1017 64 10000 2.6 120 10:40 04.06.2020
2013 Clear 24 1017 64 10000 2.6 120 10:22 04.06.2020
2014 Clear 24 1017 64 10000 3.1 110 09:57 04.06.2020
2015 Clear 24 1017 69 10000 2.6 120 09:38 04.06.2020
2016 Clear 24 1017 69 10000 2.6 120 09:19 04.06.2020
2017 Clear 24 1017 69 10000 2.6 120 09:19 04.06.2020
2018 Clear 24 1016 64 10000 2.6 120 08:41 04.06.2020
2019 Clouds 24 1016 64 10000 2.6 120 08:22 04.06.2020
2020 Clouds 24 1016 69 10000 3.6 110 07:33 04.06.2020
2021 Clouds 24 1015 69 10000 4.1 110 06:58 04.06.2020
2022 Clouds 24 1015 69 10000 4.1 110 06:58 04.06.2020
2023 Clouds 24 1015 69 10000 4.1 110 06:39 04.06.2020
2024 Clouds 24 1015 69 10000 4.1 130 06:20 04.06.2020
2025 Clouds 25 1015 65 10000 2.6 120 05:33 04.06.2020
2026 Clouds 25 1015 65 10000 2.6 120 05:33 04.06.2020
2027 Clouds 25 1015 69 10000 3.6 90 03:50 04.06.2020
2028 Clouds 25 1015 69 10000 4.6 110 02:21 04.06.2020
2029 Clouds 25 1015 69 10000 4.6 110 02:21 04.06.2020
2030 Clouds 25 1017 69 10000 4.6 120 01:22 04.06.2020
2031 Clouds 25 1017 69 10000 4.6 120 01:22 04.06.2020
2032 Clouds 25 1017 69 10000 4.6 120 01:00 04.06.2020
2033 Rain 25 1017 69 10000 7.2 90 00:18 04.06.2020
2034 Rain 25 1017 69 10000 7.2 90 00:18 04.06.2020
2035 Clouds 25 1017 69 10000 5.7 100 23:37 03.06.2020
2036 Clouds 25 1017 69 10000 5.7 100 23:19 03.06.2020
2037 Clouds 25 1017 69 10000 5.7 100 23:19 03.06.2020
2038 Clouds 25 1017 69 10000 4.1 110 22:40 03.06.2020
2039 Clouds 25 1017 69 10000 4.1 110 22:19 03.06.2020
2040 Clouds 24 1017 78 10000 5.7 100 21:59 03.06.2020
2041 Clouds 24 1017 78 10000 5.7 100 21:41 03.06.2020
2042 Clouds 24 1017 73 10000 4.6 100 21:22 03.06.2020
2043 Rain 23 1017 83 10000 4.6 120 20:58 03.06.2020
2044 Clouds 23 1016 83 10000 5.1 100 20:40 03.06.2020
2045 Clouds 23 1016 83 10000 5.1 100 20:20 03.06.2020
2046 Clouds 23 1016 83 10000 3.1 120 19:57 03.06.2020
2047 Rain 22 1016 88 10000 3.6 120 19:38 03.06.2020
2048 Rain 22 1016 88 10000 3.6 120 19:19 03.06.2020
2049 Rain 22 1016 83 0 11.83 118 18:57 03.06.2020
2050 Rain 23 1015 78 10000 5.1 100 18:38 03.06.2020
2051 Rain 23 1015 78 10000 5.1 100 18:18 03.06.2020
2052 Rain 24 1015 73 10000 5.7 100 17:44 03.06.2020
2053 Rain 24 1015 78 10000 5.1 100 17:22 03.06.2020
2054 Rain 24 1015 78 10000 5.1 100 16:57 03.06.2020
2055 Rain 24 1015 78 10000 4.1 110 16:39 03.06.2020
2056 Rain 24 1015 78 10000 4.1 110 16:19 03.06.2020
2057 Rain 24 1015 78 10000 4.1 110 16:19 03.06.2020
2058 Rain 24 1015 78 10000 4.6 100 15:41 03.06.2020
2059 Rain 24 1015 78 10000 4.6 100 15:21 03.06.2020
2060 Rain 24 1016 78 10000 4.1 110 14:59 03.06.2020
2061 Rain 24 1016 78 10000 4.1 110 14:40 03.06.2020
2062 Rain 24 1016 78 10000 5.7 110 14:21 03.06.2020
2063 Rain 23 1016 83 0 9.4 119 13:39 03.06.2020
2064 Rain 23 1016 83 0 9.73 121 13:20 03.06.2020
2065 Rain 23 1016 83 10000 5.1 100 12:43 03.06.2020
2066 Clear 23 1016 78 10000 3.1 110 12:23 03.06.2020
2067 Clear 24 1016 73 10000 4.6 110 11:57 03.06.2020
2068 Clear 24 1016 78 10000 4.6 110 11:39 03.06.2020
2069 Clear 24 1016 78 10000 4.6 110 11:21 03.06.2020
2070 Rain 23 1017 83 10000 3.6 110 10:42 03.06.2020
2071 Rain 22 1017 83 10000 4.1 90 10:24 03.06.2020
2072 Rain 24 1017 73 10000 4.1 110 09:45 03.06.2020
2073 Rain 24 1017 78 10000 2.6 120 09:21 03.06.2020
2074 Rain 24 1016 73 10000 3.6 110 08:58 03.06.2020
2075 Rain 24 1016 73 10000 3.6 110 08:58 03.06.2020
2076 Rain 24 1016 73 10000 3.6 110 08:58 03.06.2020
2077 -273 0 0 0 0 0 08:58 03.06.2020
2078 -273 0 0 0 0 0 08:58 03.06.2020
2079 Rain 24 1016 73 10000 3.6 110 08:40 03.06.2020
2080 Rain 24 1016 73 10000 3.6 120 08:19 03.06.2020
2081 Rain 24 1016 73 10000 3.6 120 07:42 03.06.2020
2082 Rain 23 1015 83 10000 3.1 120 07:20 03.06.2020
2083 Rain 23 1015 83 10000 3.1 120 06:52 03.06.2020
2084 Rain 23 1015 83 10000 3.6 120 06:30 03.06.2020
2085 Rain 23 1015 83 8000 2.6 130 05:47 03.06.2020
2086 Clear 25 1015 69 10000 2.6 110 04:56 03.06.2020
2087 Clear 26 1015 65 10000 4.1 100 03:50 03.06.2020
2088 Clear 26 1015 69 10000 4.1 120 02:57 03.06.2020
2089 Clouds 27 1016 65 10000 3.6 110 01:52 03.06.2020
2090 Rain 26 1018 65 10000 3.1 120 00:43 03.06.2020
2091 Rain 26 1018 65 10000 3.1 120 00:25 03.06.2020
2092 Rain 26 1018 65 10000 4.1 110 23:51 02.06.2020
2093 Rain 25 1019 73 7000 2.6 120 23:28 02.06.2020
2094 Rain 25 1019 69 10000 3.6 110 22:57 02.06.2020
2095 Rain 25 1019 69 10000 3.1 130 22:38 02.06.2020
2096 Rain 25 1019 69 10000 3.1 130 22:19 02.06.2020
2097 Rain 24 1018 73 10000 3.6 100 21:56 02.06.2020
2098 Rain 24 1018 73 10000 3.6 110 21:37 02.06.2020
2099 Rain 24 1018 73 10000 3.6 110 21:19 02.06.2020
2100 Rain 24 1018 73 10000 3.1 120 20:55 02.06.2020
2101 Rain 24 1018 73 10000 3.6 110 20:36 02.06.2020
2102 Rain 24 1018 73 10000 3.6 110 20:18 02.06.2020
2103 Rain 23 1017 73 10000 2.1 130 19:41 02.06.2020
2104 Rain 23 1017 73 10000 2.1 130 19:41 02.06.2020
2105 Clouds 23 1017 73 10000 2.1 130 19:23 02.06.2020
2106 Clouds 23 1017 73 10000 2.6 130 18:56 02.06.2020
2107 Clouds 23 1017 73 10000 2.6 130 18:38 02.06.2020
2108 Rain 23 1017 73 10000 2.6 130 18:19 02.06.2020
2109 Drizzle 23 1017 73 10000 2.1 140 17:42 02.06.2020
2110 Clouds 23 1017 73 10000 1.5 130 17:23 02.06.2020
2111 Clouds 23 1017 73 10000 1.5 130 17:23 02.06.2020
2112 Clouds 23 1017 73 10000 2.1 130 16:57 02.06.2020
2113 Clouds 23 1017 73 10000 2.1 120 16:38 02.06.2020
2114 Rain 23 1017 73 10000 2.1 120 16:20 02.06.2020
2115 Rain 23 1017 73 10000 2.6 120 15:46 02.06.2020
2116 Rain 23 1017 69 10000 3.6 130 15:24 02.06.2020
2117 Rain 23 1018 73 10000 2.6 110 14:56 02.06.2020
2118 Rain 24 1018 64 10000 3.1 120 14:37 02.06.2020
2119 Rain 24 1018 64 10000 3.1 120 14:19 02.06.2020
2120 Rain 24 1018 64 10000 3.1 120 13:39 02.06.2020
2121 Clouds 24 1018 64 10000 3.1 120 13:19 02.06.2020
2122 Clouds 24 1018 64 10000 3.1 130 12:58 02.06.2020
2123 Clouds 24 1019 64 10000 2.6 110 12:40 02.06.2020
2124 Clouds 24 1019 64 10000 2.6 110 12:21 02.06.2020
2125 Clouds 24 1019 64 10000 3.1 110 11:56 02.06.2020
2126 Clouds 23 1019 73 10000 3.1 110 11:38 02.06.2020
2127 Clouds 23 1019 73 10000 3.1 110 11:38 02.06.2020
2128 Clouds 23 1019 73 10000 3.1 110 11:20 02.06.2020
2129 Clouds 23 1019 73 10000 3.1 110 11:20 02.06.2020
2130 Clouds 24 1019 69 10000 3.6 130 10:47 02.06.2020
2131 Clouds 24 1019 69 10000 2.6 120 10:28 02.06.2020
2132 Clouds 24 1019 69 10000 3.1 120 09:56 02.06.2020
2133 Clouds 23 1019 73 10000 2.1 130 09:37 02.06.2020
2134 Clouds 23 1019 73 10000 2.1 130 09:19 02.06.2020
2135 Clouds 23 1019 73 10000 2.6 110 08:46 02.06.2020
2136 Clouds 24 1019 69 10000 4.1 130 08:20 02.06.2020
2137 Clouds 24 1018 69 10000 3.6 120 07:44 02.06.2020
2138 Clouds 24 1018 69 10000 3.6 120 07:25 02.06.2020
2139 Clouds 24 1018 69 10000 3.1 110 06:43 02.06.2020
2140 Clouds 24 1018 69 10000 3.1 110 06:43 02.06.2020
2141 Rain 24 1017 73 10000 2.6 140 05:54 02.06.2020
2142 Clouds 25 1017 69 10000 2.6 120 04:57 02.06.2020
2143 Clouds 25 1017 69 10000 4.6 110 03:20 02.06.2020
2144 Clouds 25 1018 69 10000 5.7 100 02:20 02.06.2020
2145 Clouds 26 1019 65 10000 3.6 110 00:57 02.06.2020
2146 Rain 25 1019 65 10000 6.7 100 00:23 02.06.2020
2147 Rain 25 1019 69 10000 5.1 120 23:39 01.06.2020
2148 Clouds 26 1020 61 10000 4.6 100 23:21 01.06.2020
2149 Clouds 26 1020 61 10000 4.1 90 22:59 01.06.2020
2150 Clouds 26 1020 61 10000 4.1 90 22:40 01.06.2020
2151 Clouds 26 1020 61 10000 5.1 90 22:20 01.06.2020
2152 Clouds 26 1020 61 10000 5.1 90 22:20 01.06.2020
2153 Clouds 25 1020 65 10000 5.1 100 21:57 01.06.2020
2154 Clouds 25 1020 65 10000 3.6 100 21:37 01.06.2020
2155 Clear 25 1020 65 10000 3.6 100 21:18 01.06.2020
2156 Clear 24 1020 69 10000 3.1 120 20:54 01.06.2020
2157 Clear 23 1019 73 10000 3.1 120 20:36 01.06.2020
2158 Clouds 23 1019 73 10000 3.1 120 20:18 01.06.2020
2159 Clouds 23 1019 73 10000 2.1 110 19:42 01.06.2020
2160 Clouds 23 1019 73 10000 2.1 110 19:20 01.06.2020
2161 Clouds 23 1019 73 10000 2.1 120 18:58 01.06.2020
2162 Clouds 23 1018 73 10000 2.1 120 18:39 01.06.2020
2163 Clouds 23 1018 73 10000 2.1 120 18:19 01.06.2020
2164 Clouds 23 1018 73 10000 1.5 120 17:54 01.06.2020
2165 Clouds 24 1018 69 10000 4.1 100 17:36 01.06.2020
2166 Clouds 24 1018 69 10000 4.1 100 17:18 01.06.2020
2167 Clouds 24 1018 64 10000 4.1 110 16:39 01.06.2020
2168 Clouds 24 1018 64 10000 4.1 110 16:20 01.06.2020
2169 Clouds 23 1018 69 10000 2.6 110 15:55 01.06.2020
2170 Clouds 24 1018 69 10000 3.1 120 15:36 01.06.2020
2171 Clouds 24 1018 69 10000 3.1 120 15:18 01.06.2020
2172 Clouds 24 1019 69 10000 4.6 100 14:54 01.06.2020
2173 Clouds 24 1019 69 10000 5.1 100 14:36 01.06.2020
2174 Clouds 24 1019 69 10000 5.1 100 14:18 01.06.2020
2175 Clouds 24 1019 69 10000 3.1 100 13:41 01.06.2020
2176 Clouds 24 1019 69 10000 3.1 100 13:21 01.06.2020
2177 Clouds 24 1020 73 10000 3.6 120 12:58 01.06.2020
2178 Clouds 24 1020 73 10000 3.1 110 12:39 01.06.2020
2179 Clouds 24 1020 73 10000 3.1 110 12:39 01.06.2020
2180 Clouds 24 1020 73 10000 3.1 110 12:20 01.06.2020
2181 Clouds 24 1020 73 10000 3.6 120 11:42 01.06.2020
2182 Clouds 24 1020 73 10000 3.6 120 11:23 01.06.2020
2183 Clouds 24 1020 73 10000 3.6 120 10:59 01.06.2020
2184 Clouds 24 1020 73 10000 3.1 110 10:39 01.06.2020
2185 Clouds 24 1020 73 10000 3.1 110 10:20 01.06.2020
2186 Clouds 24 1020 73 10000 3.1 110 09:57 01.06.2020
2187 Clouds 24 1020 73 10000 3.6 120 09:39 01.06.2020
2188 Clouds 24 1020 73 10000 3.6 120 09:20 01.06.2020
2189 Clouds 24 1020 73 10000 3.6 100 08:50 01.06.2020
2190 Rain 24 1020 73 10000 3.1 130 08:25 01.06.2020
2191 Rain 24 1019 73 10000 3.1 120 07:45 01.06.2020
2192 Clouds 24 1019 73 10000 3.1 120 07:27 01.06.2020
2193 Clouds 24 1019 78 10000 3.6 120 06:58 01.06.2020
2194 Clouds 24 1018 78 10000 4.6 120 06:24 01.06.2020
2195 Clouds 24 1018 78 10000 2.6 120 05:53 01.06.2020
2196 Clouds 25 1018 78 10000 4.1 120 04:25 01.06.2020
2197 Clouds 25 1018 78 10000 4.1 130 03:47 01.06.2020
2198 Clouds 24 1018 83 10000 3.6 130 03:24 01.06.2020
2199 Clouds 25 1019 83 10000 3.1 120 01:50 01.06.2020
2200 Clouds 26 1019 78 10000 2.6 140 01:30 01.06.2020
2201 Rain 25 1019 83 10000 2.1 120 00:57 01.06.2020
2202 Clouds 25 1019 78 10000 3.1 120 00:39 01.06.2020
2203 Clouds 25 1019 78 10000 3.1 120 00:21 01.06.2020
2204 Clouds 25 1020 78 10000 2.6 130 23:55 31.05.2020
2205 Clouds 26 1020 78 10000 2.1 120 23:37 31.05.2020
2206 Clouds 26 1020 78 10000 2.1 120 23:19 31.05.2020
2207 Clouds 26 1021 78 10000 3.1 140 22:43 31.05.2020
2208 Clouds 26 1021 78 10000 3.1 140 22:43 31.05.2020
2209 Clouds 26 1021 78 10000 3.1 140 22:25 31.05.2020
2210 Rain 25 1021 83 10000 2.1 110 21:58 31.05.2020
2211 Clouds 24 1021 88 10000 1.5 140 21:39 31.05.2020
2212 Clouds 24 1021 88 10000 1.5 140 21:21 31.05.2020
2213 Clouds 24 1021 88 10000 1.5 140 21:21 31.05.2020
2214 Rain 24 1020 88 10000 2.1 130 20:48 31.05.2020
2215 Rain 24 1020 88 10000 2.1 130 20:25 31.05.2020
2216 Drizzle 23 1020 94 10000 2.1 150 19:58 31.05.2020
2217 Rain 23 1020 94 10000 1.5 130 19:39 31.05.2020
2218 Rain 23 1020 94 10000 1.5 130 19:21 31.05.2020
2219 Rain 24 1020 88 10000 1 140 18:58 31.05.2020
2220 Clouds 24 1019 88 10000 2.1 140 18:40 31.05.2020
2221 Clouds 24 1019 88 10000 2.1 140 18:21 31.05.2020
2222 Clouds 24 1019 88 10000 2.1 140 18:21 31.05.2020
2223 Clouds 24 1020 88 10000 1.5 140 17:42 31.05.2020
2224 Clouds 24 1020 88 10000 1.5 140 17:24 31.05.2020
2225 Rain 24 1020 88 10000 2.1 150 16:42 31.05.2020
2226 Rain 24 1020 88 10000 2.1 150 16:22 31.05.2020
2227 Clouds 24 1020 88 10000 1.5 150 15:57 31.05.2020
2228 Clouds 24 1020 88 10000 2.6 140 15:37 31.05.2020
2229 Clouds 24 1020 88 10000 2.6 140 15:19 31.05.2020
2230 Rain 24 1020 88 10000 2.1 130 14:42 31.05.2020
2231 Rain 24 1020 88 10000 2.1 130 14:19 31.05.2020
2232 Rain 24 1020 88 10000 2.1 130 14:19 31.05.2020
2233 Rain 24 1020 94 10000 2.1 140 13:56 31.05.2020
2234 Rain 24 1020 88 10000 2.1 150 13:37 31.05.2020
2235 Rain 24 1020 88 10000 2.1 150 13:19 31.05.2020
2236 Rain 24 1021 94 10000 2.6 130 12:46 31.05.2020
2237 Rain 24 1021 94 10000 2.6 130 12:24 31.05.2020
2238 Rain 24 1021 94 10000 2.1 150 11:59 31.05.2020
2239 Rain 24 1021 94 10000 1.5 110 11:39 31.05.2020
2240 Rain 24 1021 94 10000 1.5 110 11:21 31.05.2020
2241 Rain 24 1021 94 10000 1.5 120 10:45 31.05.2020
2242 Rain 24 1021 94 10000 1.5 120 10:27 31.05.2020
2243 Drizzle 24 1021 94 10000 1 120 09:59 31.05.2020
2244 Rain 25 1021 88 10000 2.6 120 09:41 31.05.2020
2245 Rain 25 1021 88 10000 2.6 120 09:21 31.05.2020
2246 Clouds 25 1020 88 10000 1 110 08:43 31.05.2020
2247 Clouds 25 1020 88 10000 1 110 08:24 31.05.2020
2248 Rain 25 1020 94 10000 1 130 07:52 31.05.2020
2249 Rain 25 1020 94 7000 1 120 07:22 31.05.2020
2250 Rain 26 1019 83 10000 1.5 140 06:57 31.05.2020
2251 Clouds 26 1019 83 10000 1.5 80 06:36 31.05.2020
2252 Clouds 27 1019 78 10000 1 140 05:51 31.05.2020
2253 Clouds 26 1019 83 10000 2.6 140 05:32 31.05.2020
2254 Clouds 28 1019 78 10000 2.6 130 04:18 31.05.2020
2255 Clouds 28 1019 74 10000 2.6 120 03:39 31.05.2020
2256 Clouds 28 1019 74 10000 2.6 110 02:47 31.05.2020
2257 Clear 28 1020 83 10000 1.5 10 01:46 31.05.2020
2258 Clear 28 1021 83 10000 2.6 30 00:41 31.05.2020
2259 Clear 28 1021 83 10000 2.6 30 00:23 31.05.2020
2260 Clear 28 1021 83 10000 2.1 40 23:42 30.05.2020
2261 Clear 28 1021 83 10000 2.1 40 23:23 30.05.2020
2262 Clear 28 1021 83 10000 1.5 100 22:56 30.05.2020
2263 Clear 27 1021 83 10000 1 210 22:37 30.05.2020
2264 Clear 27 1021 83 10000 1 210 22:19 30.05.2020
2265 Clear 26 1021 94 10000 1 20 21:42 30.05.2020
2266 Clear 26 1021 94 10000 1 20 21:22 30.05.2020
2267 Clear 26 1021 100 10000 0.5 200 20:57 30.05.2020
2268 Clear 24 1021 100 10000 0.5 230 20:39 30.05.2020
2269 Clear 24 1021 100 10000 0.5 230 20:21 30.05.2020
2270 Clear 23 1021 100 10000 1.5 190 19:55 30.05.2020
2271 Mist 22 1020 100 4800 1 180 19:37 30.05.2020
2272 Mist 22 1020 100 4800 1 180 19:37 30.05.2020
2273 Mist 22 1020 100 4800 1 180 19:18 30.05.2020
2274 Fog 23 1020 100 1600 0.5 180 18:42 30.05.2020
2275 Fog 23 1020 100 1600 0.5 180 18:18 30.05.2020
2276 Clear 23 1019 100 10000 1 190 17:41 30.05.2020
2277 Clear 23 1019 100 10000 1 190 17:23 30.05.2020
2278 Fog 23 1019 100 550 0.5 110 16:57 30.05.2020
2279 Mist 23 1019 100 5000 0.5 70 16:37 30.05.2020
2280 Mist 23 1019 100 5000 0.5 70 16:18 30.05.2020
2281 Clear 23 1020 100 6000 0.5 110 15:42 30.05.2020
2282 Clear 23 1020 100 6000 0.5 110 15:42 30.05.2020
2283 Clear 23 1020 100 6000 0.5 110 15:23 30.05.2020
2284 Clear 25 1020 100 10000 1.5 110 14:43 30.05.2020
2285 Clear 25 1020 100 10000 1.5 110 14:24 30.05.2020
2286 Clear 23 1020 100 10000 1.5 90 13:43 30.05.2020
2287 Clear 23 1020 100 10000 1.5 90 13:23 30.05.2020
2288 Fog 23 1020 100 1300 0.5 110 12:42 30.05.2020
2289 Fog 23 1020 100 1300 0.5 110 12:20 30.05.2020
2290 Fog 24 1021 100 1100 1 120 11:57 30.05.2020
2291 Clear 24 1021 100 10000 0.5 130 11:39 30.05.2020
2292 Clear 24 1021 100 10000 0.5 130 11:21 30.05.2020
2293 Clear 24 1020 100 10000 1 110 10:41 30.05.2020
2294 Clear 24 1020 100 10000 1 110 10:21 30.05.2020
2295 Clear 24 1020 100 10000 0.5 120 09:49 30.05.2020
2296 Clouds 25 1020 100 10000 0.5 110 09:31 30.05.2020
2297 Clouds 25 1020 100 10000 1 100 08:51 30.05.2020
2298 Clouds 25 1020 100 10000 1.5 90 08:32 30.05.2020
2299 Clear 25 1019 100 10000 2.1 90 07:45 30.05.2020
2300 Clear 25 1019 100 10000 2.1 90 07:24 30.05.2020
2301 Clear 26 1019 94 10000 1.5 80 06:51 30.05.2020
2302 Clear 26 1020 100 0 2.1 90 06:23 30.05.2020
2303 Rain 26 1019 100 0 3.1 80 05:49 30.05.2020
2304 Clear 27 1018 94 10000 5.7 60 03:39 30.05.2020
2305 Clouds 28 1018 88 10000 4.1 50 02:30 30.05.2020
2306 Clouds 28 1019 88 10000 3.6 50 01:48 30.05.2020
2307 Clouds 28 1020 88 0 3.1 50 00:38 30.05.2020
2308 Clouds 28 1020 88 0 3.1 50 00:19 30.05.2020
2309 Clouds 28 1020 88 10000 3.1 50 23:57 29.05.2020
2310 Clouds 28 1020 88 10000 3.1 50 23:37 29.05.2020
2311 Clouds 28 1020 88 10000 3.1 50 23:18 29.05.2020
2312 Clouds 28 1020 88 10000 4.1 40 22:40 29.05.2020
2313 Clouds 28 1020 88 10000 4.1 40 22:19 29.05.2020
2314 Clouds 28 1020 88 10000 3.6 50 21:58 29.05.2020
2315 Clouds 27 1020 94 10000 3.6 60 21:37 29.05.2020
2316 Clouds 27 1020 94 10000 3.6 60 21:18 29.05.2020
2317 Clouds 27 1019 88 10000 3.6 50 20:44 29.05.2020
2318 Clouds 27 1019 88 10000 3.6 50 20:20 29.05.2020
2319 Clouds 26 1019 94 10000 3.6 60 19:58 29.05.2020
2320 Clouds 26 1019 94 10000 3.6 60 19:38 29.05.2020
2321 Clouds 26 1019 94 10000 3.6 60 19:19 29.05.2020
2322 Clouds 25 1019 100 10000 3.1 80 18:46 29.05.2020
2323 Clouds 25 1019 100 10000 3.1 80 18:19 29.05.2020
2324 Clouds 25 1019 100 10000 3.1 80 18:19 29.05.2020
2325 Clouds 26 1018 94 10000 2.1 90 17:56 29.05.2020
2326 Clouds 26 1018 94 10000 2.1 90 17:56 29.05.2020
2327 Clouds 26 1018 94 10000 3.6 60 17:37 29.05.2020
2328 Clouds 26 1018 94 10000 3.6 60 17:19 29.05.2020
2329 Clouds 26 1018 94 10000 3.1 60 16:42 29.05.2020
2330 Clouds 26 1018 94 10000 3.1 60 16:23 29.05.2020
2331 Clouds 26 1018 94 10000 3.6 70 15:55 29.05.2020
2332 Rain 26 1018 94 10000 4.1 70 15:37 29.05.2020
2333 Rain 26 1018 94 10000 4.1 70 15:18 29.05.2020
2334 Rain 26 1018 94 10000 4.6 60 14:39 29.05.2020
2335 Rain 26 1018 94 10000 4.6 60 14:21 29.05.2020
2336 Clouds 26 1018 94 10000 4.1 60 13:43 29.05.2020
2337 Rain 26 1018 94 10000 4.1 60 13:24 29.05.2020
2338 Rain 26 1018 94 10000 3.6 60 12:58 29.05.2020
2339 Rain 26 1018 94 10000 4.1 60 12:40 29.05.2020
2340 Rain 26 1018 94 10000 4.1 60 12:21 29.05.2020
2341 Rain 26 1018 94 10000 5.1 60 11:44 29.05.2020
2342 Rain 26 1018 94 10000 5.1 60 11:25 29.05.2020
2343 Rain 26 1018 94 10000 4.1 50 10:55 29.05.2020
2344 Rain 26 1018 94 10000 4.6 60 10:36 29.05.2020
2345 Rain 26 1018 94 10000 4.6 60 10:36 29.05.2020
2346 Clouds 26 1018 94 10000 4.6 60 10:18 29.05.2020
2347 Clouds 26 1018 94 10000 4.1 60 09:41 29.05.2020
2348 Clouds 26 1018 94 10000 4.1 60 09:19 29.05.2020
2349 Clouds 26 1018 94 10000 4.6 60 08:48 29.05.2020
2350 Rain 26 1018 94 10000 4.1 50 08:26 29.05.2020
2351 Rain 26 1018 94 10000 4.1 70 07:48 29.05.2020
2352 Rain 26 1018 94 10000 4.6 60 07:30 29.05.2020
2353 Rain 26 1017 94 10000 5.1 60 06:58 29.05.2020
2354 Rain 26 1017 94 10000 5.1 70 06:39 29.05.2020
2355 Rain 26 1017 94 10000 5.1 70 06:21 29.05.2020
2356 Rain 27 1016 88 10000 5.1 60 05:40 29.05.2020
2357 Clouds 27 1016 88 10000 6.2 60 02:18 29.05.2020
2358 Clouds 27 1017 88 10000 6.7 70 01:27 29.05.2020
2359 Clouds 28 1017 88 10000 6.7 80 00:51 29.05.2020
2360 Clouds 26 1017 94 10000 6.7 80 00:29 29.05.2020
2361 Rain 26 1018 94 10000 6.7 60 23:56 28.05.2020
2362 Rain 26 1018 94 10000 6.2 80 23:38 28.05.2020
2363 Clouds 26 1018 94 10000 6.7 80 23:18 28.05.2020
2364 Rain 26 1018 94 10000 6.2 80 22:41 28.05.2020
2365 Rain 26 1018 94 10000 6.2 80 22:41 28.05.2020
2366 Rain 26 1018 94 10000 6.2 80 22:21 28.05.2020
2367 Rain 25 1018 94 2300 3.6 90 21:55 28.05.2020
2368 Clouds 26 1017 88 10000 5.7 90 21:37 28.05.2020
2369 Clouds 26 1017 88 10000 5.7 90 21:18 28.05.2020
2370 Clouds 25 1017 94 10000 5.7 90 20:55 28.05.2020
2371 Clouds 25 1017 94 10000 5.7 90 20:55 28.05.2020
2372 Clouds 25 1017 94 10000 6.2 80 20:36 28.05.2020
2373 Clouds 25 1017 94 10000 6.2 80 20:18 28.05.2020
2374 Clouds 25 1016 88 10000 5.1 90 19:43 28.05.2020
2375 Clouds 25 1016 88 10000 5.1 90 19:20 28.05.2020
2376 Clouds 25 1016 88 10000 5.1 90 19:20 28.05.2020
2377 Clouds 25 1016 88 10000 4.6 90 18:57 28.05.2020
2378 Clouds 25 1016 88 10000 4.1 90 18:38 28.05.2020
2379 Clouds 25 1016 88 10000 4.1 90 18:20 28.05.2020
2380 Clouds 24 1016 88 10000 3.1 90 17:40 28.05.2020
2381 Clouds 24 1016 88 10000 3.1 90 17:21 28.05.2020
2382 Clouds 25 1016 83 10000 3.6 90 16:47 28.05.2020
2383 Clouds 25 1016 83 10000 3.1 90 16:21 28.05.2020
2384 Clouds 24 1016 88 10000 3.6 80 15:59 28.05.2020
2385 Clouds 24 1016 88 10000 3.6 90 15:40 28.05.2020
2386 Clouds 24 1016 88 10000 3.6 90 15:22 28.05.2020
2387 Clouds 24 1016 88 10000 3.1 90 14:42 28.05.2020
2388 Clear 24 1016 88 10000 3.1 90 14:23 28.05.2020
2389 Clear 24 1017 83 10000 3.1 90 13:46 28.05.2020
2390 Clear 25 1017 83 10000 5.1 70 13:28 28.05.2020
2391 Clear 24 1017 83 10000 3.6 80 12:56 28.05.2020
2392 Clear 24 1017 83 10000 4.1 90 12:37 28.05.2020
2393 Clear 24 1017 83 10000 4.1 90 12:18 28.05.2020
2394 Clear 24 1017 83 10000 3.6 90 11:40 28.05.2020
2395 Clear 24 1017 83 10000 3.6 90 11:22 28.05.2020
2396 Clear 23 1017 83 10000 3.1 90 10:50 28.05.2020
2397 Clear 23 1017 83 10000 3.1 90 10:28 28.05.2020
2398 Clear 23 1017 83 10000 3.1 90 10:28 28.05.2020
2399 Clear 24 1017 78 10000 3.1 90 09:59 28.05.2020
2400 Clear 23 1017 83 10000 3.1 100 09:38 28.05.2020
2401 Clear 23 1017 83 10000 3.1 100 09:38 28.05.2020
2402 Clear 23 1017 83 10000 3.1 100 09:18 28.05.2020
2403 Clear 23 1017 83 10000 2.6 100 08:44 28.05.2020
2404 Clear 23 1017 83 10000 2.6 100 08:25 28.05.2020
2405 Clear 24 1017 78 10000 3.1 90 07:45 28.05.2020
2406 Clear 24 1017 78 10000 3.1 90 07:23 28.05.2020
2407 Clear 24 1016 78 10000 4.1 90 06:45 28.05.2020
2408 Clear 24 1016 78 10000 4.1 90 06:27 28.05.2020
2409 Clear 25 1016 73 10000 2.1 120 05:40 28.05.2020
2410 Clear 26 1016 69 10000 3.1 110 04:39 28.05.2020
2411 Clear 26 1016 69 10000 3.1 110 04:20 28.05.2020
2412 Clear 27 1016 69 0 3.1 270 02:59 28.05.2020
2413 Clear 27 1016 69 10000 2.6 260 02:38 28.05.2020
2414 Clear 26 1016 69 10000 4.1 50 01:45 28.05.2020
2415 Clouds 26 1017 69 10000 3.6 40 00:50 28.05.2020
2416 Clouds 26 1017 74 10000 3.6 60 00:21 28.05.2020
2417 Clouds 26 1018 69 10000 3.6 50 23:56 27.05.2020
2418 Clouds 26 1018 69 10000 3.6 50 23:38 27.05.2020
2419 Clouds 26 1018 69 10000 3.6 50 23:19 27.05.2020
2420 Clouds 26 1017 69 10000 3.6 60 22:42 27.05.2020
2421 Clouds 26 1017 69 10000 3.6 60 22:23 27.05.2020
2422 Clouds 25 1017 73 10000 2.1 90 21:56 27.05.2020
2423 Clouds 25 1017 73 10000 1.5 90 21:38 27.05.2020
2424 Clouds 25 1017 73 10000 1.5 90 21:20 27.05.2020
2425 Clouds 24 1017 83 10000 0.5 160 20:58 27.05.2020
2426 Clouds 24 1017 83 10000 0.5 160 20:58 27.05.2020
2427 Clouds 21 1017 94 10000 1 160 20:39 27.05.2020
2428 Clouds 21 1017 94 10000 1 160 20:19 27.05.2020
2429 Clouds 21 1016 88 10000 1 90 19:45 27.05.2020
2430 Clouds 21 1016 88 10000 1 90 19:21 27.05.2020
2431 Clouds 21 1016 94 10000 0.5 140 18:45 27.05.2020
2432 Clouds 21 1016 94 10000 0.5 140 18:21 27.05.2020
2433 Clouds 21 1016 88 10000 1.5 140 17:59 27.05.2020
2434 Clouds 21 1016 88 10000 1 110 17:40 27.05.2020
2435 Clouds 21 1016 88 10000 1 110 17:21 27.05.2020
2436 Clouds 20 1016 100 10000 1 160 16:56 27.05.2020
2437 Clouds 19 1016 100 10000 1 110 16:38 27.05.2020
2438 Clear 19 1016 100 10000 1 110 16:19 27.05.2020
2439 Clear 19 1017 93 10000 0.5 130 15:47 27.05.2020
2440 Clear 18 1017 100 10000 1 170 15:22 27.05.2020
2441 Clear 19 1017 93 10000 0.5 160 14:46 27.05.2020
2442 Clear 19 1017 93 10000 0.5 160 14:46 27.05.2020
2443 Clear 19 1017 93 10000 0.5 160 14:46 27.05.2020
2444 Clear 19 1017 93 10000 0.5 160 14:22 27.05.2020
2445 Clear 19 1017 93 10000 0.5 160 13:58 27.05.2020
2446 Clear 21 1017 83 10000 1 140 13:39 27.05.2020
2447 Clear 21 1017 83 10000 1 140 13:21 27.05.2020
2448 Clear 19 1018 93 10000 1 150 12:42 27.05.2020
2449 Clear 19 1018 93 10000 1 150 12:23 27.05.2020
2450 Clear 19 1018 93 10000 1 150 12:23 27.05.2020
2451 Clear 19 1018 93 10000 0.5 120 11:55 27.05.2020
2452 Clear 19 1018 93 10000 0.5 120 11:55 27.05.2020
2453 Clear 19 1017 93 10000 1 170 11:36 27.05.2020
2454 Clear 19 1017 93 10000 1 170 11:36 27.05.2020
2455 Clear 19 1017 93 10000 1 170 11:18 27.05.2020
2456 Clear 19 1017 93 10000 0.5 170 10:42 27.05.2020
2457 Clear 19 1017 93 10000 0.5 170 10:23 27.05.2020
2458 Clear 19 1017 93 10000 0.5 170 09:56 27.05.2020
2459 Clear 20 1017 88 10000 0.5 100 09:37 27.05.2020
2460 Clear 20 1017 88 10000 0.5 100 09:19 27.05.2020
2461 Clear 23 1017 73 10000 1 180 08:42 27.05.2020
2462 Clouds 23 1017 73 10000 1 180 08:23 27.05.2020
2463 Clouds 23 1016 73 10000 1.5 140 07:52 27.05.2020
2464 Clouds 23 1016 73 10000 1.5 140 07:52 27.05.2020
2465 Clouds 23 1016 73 10000 2.6 110 07:34 27.05.2020
2466 Clouds 24 1016 69 10000 2.1 130 06:55 27.05.2020
2467 Clouds 24 1016 69 10000 1.5 120 06:24 27.05.2020
2468 Clouds 25 1015 69 10000 2.6 110 05:50 27.05.2020
2469 Clouds 25 1015 69 10000 2.6 120 05:23 27.05.2020
2470 Clouds 26 1015 65 10000 2.1 150 02:46 27.05.2020
2471 Clouds 26 1016 61 10000 2.1 130 02:25 27.05.2020
2472 Clouds 26 1017 65 10000 2.6 130 01:31 27.05.2020
2473 Clouds 26 1017 65 10000 2.6 130 01:31 27.05.2020
2474 Clouds 26 1017 65 10000 2.6 110 00:47 27.05.2020
2475 Clouds 26 1017 65 10000 2.6 110 00:21 27.05.2020
2476 Clouds 26 1018 61 10000 2.1 110 23:58 26.05.2020
2477 Clouds 26 1018 65 10000 2.1 130 23:39 26.05.2020
2478 Clouds 26 1018 65 10000 2.1 130 23:39 26.05.2020
2479 Clouds 26 1018 65 10000 2.1 130 23:20 26.05.2020
2480 Clouds 26 1018 61 10000 1.5 190 22:42 26.05.2020
2481 Clouds 26 1018 61 10000 1.5 190 22:23 26.05.2020
2482 Clouds 26 1018 61 10000 1.5 190 22:23 26.05.2020
2483 Clouds 25 1018 61 10000 1 160 21:59 26.05.2020
2484 Clouds 24 1018 69 10000 1.5 170 21:40 26.05.2020
2485 Clouds 24 1018 69 10000 1.5 170 21:22 26.05.2020
2486 Clouds 23 1017 78 10000 1 210 20:57 26.05.2020
2487 Clouds 20 1017 94 10000 0.5 190 20:39 26.05.2020
2488 Clouds 20 1017 94 10000 0.5 190 20:19 26.05.2020
2489 Clouds 20 1017 94 10000 1 70 19:40 26.05.2020
2490 Clouds 20 1017 94 10000 1 70 19:20 26.05.2020
2491 Clouds 21 1016 88 10000 1.5 140 18:57 26.05.2020
2492 Clouds 18 1016 100 10000 0.5 170 18:39 26.05.2020
2493 Clouds 18 1016 100 10000 0.5 140 18:20 26.05.2020
2494 Clouds 19 1016 93 10000 0.5 170 17:39 26.05.2020
2495 Clear 19 1016 93 10000 0.5 170 17:21 26.05.2020
2496 Clear 18 1016 100 10000 1 70 16:48 26.05.2020
2497 Clear 19 1016 93 10000 0.5 70 16:22 26.05.2020
2498 Clear 19 1016 93 10000 1 110 15:58 26.05.2020
2499 Clear 19 1016 93 10000 0.5 220 15:39 26.05.2020
2500 Clear 19 1016 93 10000 0.5 220 15:19 26.05.2020
2501 Clear 19 1016 93 10000 0.5 220 15:19 26.05.2020
2502 Clear 20 1016 88 10000 0.5 330 14:43 26.05.2020
2503 Clear 20 1016 88 10000 0.5 330 14:24 26.05.2020
2504 Clear 19 1016 93 10000 1 220 13:57 26.05.2020
2505 Clear 20 1016 88 10000 0.5 70 13:38 26.05.2020
2506 Clear 20 1016 88 10000 0.5 70 13:20 26.05.2020
2507 Clear 21 1016 83 10000 1.5 140 12:43 26.05.2020
2508 Clear 21 1016 83 10000 1.5 140 12:22 26.05.2020
2509 Clear 20 1016 88 10000 1 150 11:58 26.05.2020
2510 Clear 20 1016 88 10000 1 150 11:58 26.05.2020
2511 Clear 20 1016 88 10000 1 160 11:40 26.05.2020
2512 Clear 20 1016 88 10000 1 160 11:18 26.05.2020
2513 Clear 24 1016 69 10000 2.1 120 10:43 26.05.2020
2514 Clear 24 1016 69 10000 2.1 120 10:19 26.05.2020
2515 Clear 24 1016 69 10000 1 150 09:40 26.05.2020
2516 Clear 24 1016 69 10000 1 150 09:20 26.05.2020
2517 Clear 24 1016 73 10000 3.6 160 08:43 26.05.2020
2518 Clear 24 1016 73 10000 3.6 160 08:43 26.05.2020
2519 Clear 24 1016 73 10000 3.6 160 08:22 26.05.2020
2520 Clear 24 1016 69 10000 3.6 150 07:57 26.05.2020
2521 Clear 24 1016 69 10000 2.6 170 07:37 26.05.2020
2522 Clear 24 1016 69 10000 2.6 170 07:18 26.05.2020
2523 Clear 25 1015 69 10000 2.1 150 06:45 26.05.2020
2524 Clear 25 1015 69 10000 2.6 140 05:55 26.05.2020
2525 Clear 25 1015 73 10000 2.1 140 05:35 26.05.2020
2526 Clear 25 1015 73 10000 2.6 120 04:55 26.05.2020
2527 Clear 25 1015 73 10000 2.6 130 04:34 26.05.2020
2528 Clear 25 1015 73 10000 2.1 120 03:59 26.05.2020
2529 Clear 27 1015 69 10000 3.1 70 02:45 26.05.2020
2530 Clouds 27 1015 69 10000 3.6 40 01:49 26.05.2020
2531 Clouds 27 1016 65 10000 2.6 30 01:27 26.05.2020
2532 Clouds 26 1016 69 10000 2.6 300 00:39 26.05.2020
2533 Clouds 26 1016 69 10000 2.6 300 00:19 26.05.2020
2534 Clouds 26 1017 69 10000 2.1 100 23:56 25.05.2020
2535 Haze 26 1017 69 3900 2.6 110 23:37 25.05.2020
2536 Haze 26 1017 69 3900 2.6 110 23:18 25.05.2020
2537 Clouds 26 1017 69 6000 1.5 110 22:55 25.05.2020
2538 Clouds 25 1017 78 10000 2.1 90 22:36 25.05.2020
2539 Clouds 25 1017 78 10000 2.1 90 22:36 25.05.2020
2540 Clouds 25 1017 78 10000 2.1 90 22:18 25.05.2020
2541 Clouds 25 1017 78 10000 3.1 70 21:55 25.05.2020
2542 Clouds 25 1017 73 10000 2.1 40 21:36 25.05.2020
2543 Clouds 25 1017 73 10000 2.1 40 21:18 25.05.2020
2544 Clouds 24 1016 78 10000 2.1 140 20:42 25.05.2020
2545 Clouds 24 1016 78 10000 2.1 140 20:21 25.05.2020
2546 Clouds 24 1016 78 10000 1 130 19:59 25.05.2020
2547 Clouds 24 1016 78 10000 1 130 19:59 25.05.2020
2548 Clouds 24 1016 78 10000 1 30 19:39 25.05.2020
2549 Clouds 24 1016 78 10000 1 30 19:18 25.05.2020
2550 Clouds 24 1015 78 10000 1 120 18:45 25.05.2020
2551 Clouds 24 1015 78 10000 1 120 18:22 25.05.2020
2552 Clouds 23 1014 83 10000 1 130 17:59 25.05.2020
2553 Clouds 23 1014 83 10000 0.5 270 17:40 25.05.2020
2554 Clouds 23 1014 83 10000 0.5 270 17:22 25.05.2020
2555 Clouds 23 1014 83 10000 0.5 220 16:56 25.05.2020
2556 Clouds 23 1014 83 10000 1.5 160 16:38 25.05.2020
2557 Clouds 24 1014 78 10000 1.5 130 16:19 25.05.2020
2558 Clouds 24 1014 78 10000 1.5 170 15:42 25.05.2020
2559 Clouds 24 1014 78 10000 1.5 170 15:19 25.05.2020
2560 Clouds 24 1014 78 10000 1.5 170 15:19 25.05.2020
2561 Clouds 24 1015 83 10000 2.6 200 14:56 25.05.2020
2562 Clouds 23 1015 88 10000 1 190 14:38 25.05.2020
2563 Clouds 23 1015 88 10000 1 190 14:18 25.05.2020
2564 Clouds 23 1015 88 10000 1.5 230 13:39 25.05.2020
2565 Clouds 23 1015 88 10000 1.5 230 13:20 25.05.2020
2566 Clouds 24 1015 88 10000 2.1 300 12:57 25.05.2020
2567 Clouds 24 1015 88 10000 2.1 300 12:57 25.05.2020
2568 Clouds 24 1015 83 10000 1.5 200 12:37 25.05.2020
2569 Clouds 24 1015 83 10000 1.5 200 12:19 25.05.2020
2570 Clouds 25 1016 83 10000 2.6 190 11:39 25.05.2020
2571 Clear 25 1016 83 10000 2.6 190 11:19 25.05.2020
2572 Clear 25 1016 83 10000 2.1 190 10:54 25.05.2020
2573 Clear 25 1016 83 10000 2.1 190 10:54 25.05.2020
2574 Clear 25 1016 83 10000 2.6 180 10:36 25.05.2020
2575 Clear 25 1016 83 10000 2.6 180 10:36 25.05.2020
2576 Clear 25 1016 83 10000 2.6 180 10:18 25.05.2020
2577 Clear 24 1016 94 10000 3.6 190 09:41 25.05.2020
2578 Rain 24 1016 94 10000 3.6 190 09:20 25.05.2020
2579 Rain 24 1016 94 10000 2.6 180 08:59 25.05.2020
2580 Rain 24 1015 94 10000 4.1 180 08:38 25.05.2020
2581 Clear 24 1015 94 10000 4.1 180 08:19 25.05.2020
2582 Clear 25 1015 94 10000 3.1 220 07:46 25.05.2020
2583 Rain 25 1015 94 10000 3.1 220 07:21 25.05.2020
2584 Rain 25 1015 88 10000 2.6 220 06:54 25.05.2020
2585 Rain 25 1014 94 10000 5.68 279 06:33 25.05.2020
2586 Rain 27 1014 94 10000 4.1 280 04:19 25.05.2020
2587 Clear 27 1014 94 10000 5.1 300 03:23 25.05.2020
2588 Rain 26 1014 94 10000 3.1 10 02:45 25.05.2020
2589 Rain 26 1014 94 10000 4.1 340 01:57 25.05.2020
2590 Rain 26 1015 94 10000 2.6 10 01:29 25.05.2020
2591 Rain 26 1015 94 10000 3.1 350 00:42 25.05.2020
2592 Rain 26 1015 94 10000 3.1 350 00:20 25.05.2020
2593 Rain 26 1015 94 9000 3.1 20 23:56 24.05.2020
2594 Rain 26 1016 94 9000 2.6 360 23:37 24.05.2020
2595 Rain 26 1016 94 9000 2.6 360 23:37 24.05.2020
2596 Rain 26 1016 94 9000 2.6 360 23:18 24.05.2020
2597 Rain 27 1015 88 10000 4.1 40 22:41 24.05.2020
2598 Rain 27 1015 88 10000 4.1 40 22:19 24.05.2020
2599 Rain 27 1016 88 10000 3.1 40 21:56 24.05.2020
2600 Rain 27 1016 88 10000 4.1 30 21:38 24.05.2020
2601 Rain 27 1016 88 10000 4.1 30 21:20 24.05.2020
2602 Rain 26 1015 94 10000 5.1 30 20:44 24.05.2020
2603 Rain 26 1015 94 10000 5.1 30 20:23 24.05.2020
2604 Rain 26 1016 86 0 8.02 11 19:59 24.05.2020
2605 Rain 26 1016 86 0 8.02 11 19:41 24.05.2020
2606 Rain 26 1015 86 0 7.33 9 19:20 24.05.2020
2607 Rain 26 1015 86 0 7.33 9 18:59 24.05.2020
2608 Rain 26 1015 86 0 7.33 9 18:40 24.05.2020
2609 Rain 26 1014 86 0 7.32 11 18:22 24.05.2020
2610 Rain 26 1014 86 0 7.32 11 17:55 24.05.2020
2611 Rain 26 1014 86 0 7.32 11 17:36 24.05.2020
2612 Rain 26 1014 86 0 7.32 11 17:36 24.05.2020
2613 Rain 26 1014 85 0 7.83 13 17:18 24.05.2020
2614 Rain 26 1014 85 0 7.83 13 16:39 24.05.2020
2615 Clouds 26 1014 85 0 6.9 21 16:21 24.05.2020
2616 Clouds 26 1014 85 0 6.9 21 15:57 24.05.2020
2617 Clouds 26 1014 85 0 6.9 21 15:39 24.05.2020
2618 Clouds 26 1016 94 10000 3.6 60 15:19 24.05.2020
2619 Clouds 26 1016 94 10000 3.6 60 14:55 24.05.2020
2620 Clouds 26 1016 94 10000 3.6 60 14:37 24.05.2020
2621 Rain 26 1016 94 10000 3.6 60 14:18 24.05.2020
2622 Rain 25 1016 100 10000 2.1 70 13:43 24.05.2020
2623 Rain 25 1016 100 10000 2.1 70 13:23 24.05.2020
2624 Rain 26 1016 88 10000 2.6 90 12:59 24.05.2020
2625 Rain 26 1016 88 10000 2.6 90 12:59 24.05.2020
2626 Rain 26 1016 88 10000 3.1 100 12:41 24.05.2020
2627 Rain 26 1016 88 10000 3.1 100 12:22 24.05.2020
2628 Rain 26 1016 88 10000 3.6 80 11:59 24.05.2020
2629 Rain 26 1015 88 10000 3.1 80 11:41 24.05.2020
2630 Rain 26 1015 88 10000 3.1 80 11:23 24.05.2020
2631 Rain 26 1015 88 10000 3.6 90 10:59 24.05.2020
2632 Rain 26 1016 88 10000 3.6 100 10:39 24.05.2020
2633 Rain 26 1016 88 10000 3.6 100 10:21 24.05.2020
2634 Rain 26 1017 88 10000 1 100 09:41 24.05.2020
2635 Rain 26 1017 88 10000 1 100 09:19 24.05.2020
2636 Rain 26 1016 88 10000 3.1 60 08:57 24.05.2020
2637 Rain 26 1015 88 10000 4.6 60 08:39 24.05.2020
2638 Clouds 26 1015 88 10000 4.6 60 08:21 24.05.2020
2639 Clouds 26 1015 88 10000 4.1 60 07:51 24.05.2020
2640 Clouds 26 1015 88 10000 3.6 90 07:26 24.05.2020
2641 Clouds 26 1013 88 10000 5.1 70 06:57 24.05.2020
2642 Clouds 26 1014 88 10000 3.6 90 06:36 24.05.2020
2643 Clouds 26 1013 88 8000 4.1 70 05:20 24.05.2020
2644 Clouds 26 1016 88 10000 2.6 210 03:42 24.05.2020
2645 Clouds 27 1016 83 10000 2.1 40 02:46 24.05.2020
2646 Haze 27 1016 83 5000 2.6 50 01:50 24.05.2020
2647 Clouds 28 1016 78 10000 3.6 60 00:41 24.05.2020
2648 Rain 28 1016 78 10000 3.6 60 00:22 24.05.2020
2649 Rain 28 1017 78 10000 4.1 60 23:46 23.05.2020
2650 Clouds 28 1017 78 10000 4.1 60 23:25 23.05.2020
2651 Clouds 28 1017 78 10000 4.1 60 23:25 23.05.2020
2652 Clouds 27 1017 83 10000 4.1 60 22:59 23.05.2020
2653 Clouds 27 1016 83 10000 4.1 60 22:39 23.05.2020
2654 Clouds 27 1016 83 10000 4.1 60 22:20 23.05.2020
2655 Clouds 27 1016 83 10000 5.1 60 21:58 23.05.2020
2656 Clouds 27 1016 78 10000 5.1 50 21:40 23.05.2020
2657 Clear 27 1015 78 10000 6.2 60 21:20 23.05.2020
2658 Clear 27 1015 78 10000 6.2 60 21:20 23.05.2020
2659 Clouds 27 1016 78 10000 5.1 50 21:20 23.05.2020
2660 Clouds 27 1016 78 10000 5.1 50 21:20 23.05.2020
2661 Clouds 27 1016 78 10000 5.1 50 21:20 23.05.2020
2662 Clear 27 1015 78 10000 6.2 60 20:58 23.05.2020
2663 Clear 27 1015 78 10000 6.2 60 20:38 23.05.2020
2664 Rain 27 1015 78 10000 6.2 60 20:19 23.05.2020
2665 Rain 26 1015 83 10000 6.7 60 19:42 23.05.2020
2666 Rain 26 1015 83 10000 6.7 60 19:20 23.05.2020
2667 Rain 26 1014 83 10000 6.7 60 18:58 23.05.2020
2668 Rain 26 1014 83 10000 6.7 60 18:40 23.05.2020
2669 Rain 26 1014 83 10000 6.7 60 18:21 23.05.2020
2670 Rain 26 1013 83 10000 6.7 60 17:55 23.05.2020
2671 Rain 26 1013 83 10000 6.7 60 17:55 23.05.2020
2672 Rain 26 1014 83 10000 6.7 50 17:37 23.05.2020
2673 Rain 26 1014 83 10000 6.7 50 17:19 23.05.2020
2674 Rain 26 1013 83 10000 7.7 60 16:56 23.05.2020
2675 Rain 26 1013 83 10000 7.2 60 16:37 23.05.2020
2676 Rain 26 1013 83 10000 7.2 60 16:19 23.05.2020
2677 Rain 26 1013 83 10000 7.2 60 15:42 23.05.2020
2678 Rain 26 1013 83 10000 7.2 60 15:23 23.05.2020
2679 Rain 26 1014 83 10000 7.7 60 14:55 23.05.2020
2680 Rain 26 1014 83 10000 7.7 60 14:37 23.05.2020
2681 Clouds 26 1014 83 10000 8.2 60 14:19 23.05.2020
2682 Clouds 26 1014 83 10000 9.3 60 13:40 23.05.2020
2683 Clouds 26 1014 83 10000 9.3 60 13:19 23.05.2020
2684 Clouds 26 1014 83 10000 9.3 60 12:55 23.05.2020
2685 Clouds 26 1014 83 10000 7.7 60 12:36 23.05.2020
2686 Clouds 26 1014 83 10000 7.7 60 12:18 23.05.2020
2687 Clouds 26 1015 83 10000 8.2 60 11:42 23.05.2020
2688 Clouds 26 1015 83 10000 8.2 60 11:20 23.05.2020
2689 Clouds 26 1015 78 10000 8.7 60 10:56 23.05.2020
2690 Clouds 26 1015 83 10000 7.2 60 10:38 23.05.2020
2691 Clouds 26 1015 83 10000 7.2 60 10:19 23.05.2020
2692 Clouds 26 1015 78 10000 7.2 60 09:55 23.05.2020
2693 Clouds 26 1015 78 10000 6.7 60 09:37 23.05.2020
2694 Clouds 26 1015 78 10000 6.7 60 09:18 23.05.2020
2695 Clouds 26 1015 78 10000 7.2 60 08:41 23.05.2020
2696 Clouds 26 1015 78 10000 7.2 60 08:19 23.05.2020
2697 Clouds 26 1015 78 10000 7.2 60 07:45 23.05.2020
2698 Clouds 26 1015 78 10000 7.2 60 07:27 23.05.2020
2699 Clouds 26 1013 83 10000 8.2 60 06:44 23.05.2020
2700 Clouds 26 1013 83 10000 7.7 60 05:59 23.05.2020
2701 Clouds 27 1012 74 10000 10.3 60 04:25 23.05.2020
2702 Clouds 27 1013 74 10000 9.3 60 03:26 23.05.2020
2703 Clouds 27 1013 74 10000 9.8 60 02:40 23.05.2020
2704 Clouds 27 1014 74 10000 9.8 60 01:50 23.05.2020
2705 Clouds 27 1014 74 10000 9.8 60 01:18 23.05.2020
2706 Clouds 27 1015 74 10000 9.3 60 00:42 23.05.2020
2707 Clouds 27 1015 74 10000 9.3 60 00:19 23.05.2020
2708 Clouds 27 1017 74 10000 8.2 60 23:44 22.05.2020
2709 Clouds 27 1017 74 10000 8.2 60 23:22 22.05.2020
2710 Clouds 27 1017 78 10000 7.2 50 22:58 22.05.2020
2711 Clouds 27 1017 78 10000 7.2 50 22:58 22.05.2020
2712 Clouds 27 1018 74 10000 7.7 60 22:40 22.05.2020
2713 Clouds 27 1018 74 10000 7.7 60 22:20 22.05.2020
2714 Clouds 26 1018 74 10000 6.7 60 21:47 22.05.2020
2715 Clouds 26 1017 74 10000 6.2 60 21:23 22.05.2020
2716 Rain 26 1017 74 10000 6.2 60 21:23 22.05.2020
2717 Rain 26 1017 74 10000 6.2 60 20:59 22.05.2020
2718 Rain 26 1017 74 10000 6.2 60 20:59 22.05.2020
2719 Rain 26 1017 74 10000 6.2 60 20:40 22.05.2020
2720 Clouds 26 1017 74 10000 6.2 60 20:20 22.05.2020
2721 Clouds 26 1017 74 10000 6.2 60 19:44 22.05.2020
2722 Clouds 26 1017 74 10000 6.2 60 19:25 22.05.2020
2723 Clouds 26 1016 78 10000 5.7 60 18:54 22.05.2020
2724 Clouds 25 1016 83 10000 6.2 70 18:36 22.05.2020
2725 Rain 25 1016 83 10000 6.2 70 18:18 22.05.2020
2726 Rain 25 1016 78 10000 7.7 60 17:40 22.05.2020
2727 Rain 25 1016 78 10000 7.7 60 17:19 22.05.2020
2728 Rain 24 1016 88 10000 8.2 70 16:56 22.05.2020
2729 Rain 24 1016 88 10000 8.2 80 16:37 22.05.2020
2730 Clouds 24 1016 88 10000 6.2 80 16:19 22.05.2020
2731 Clouds 25 1016 83 10000 6.2 80 15:42 22.05.2020
2732 Clouds 25 1016 83 10000 6.2 80 15:22 22.05.2020
2733 Clouds 25 1016 73 10000 6.7 60 14:45 22.05.2020
2734 Clouds 25 1016 73 10000 6.7 60 14:45 22.05.2020
2735 Clouds 25 1016 73 10000 6.7 60 14:26 22.05.2020
2736 Clouds 24 1017 88 10000 3.6 80 13:50 22.05.2020
2737 Clouds 24 1017 88 10000 2.6 100 13:22 22.05.2020
2738 Clouds 24 1017 88 10000 2.6 100 13:22 22.05.2020
2739 Clouds 25 1017 83 10000 5.1 60 12:59 22.05.2020
2740 Rain 23 1018 94 5000 7.2 60 12:39 22.05.2020
2741 Clouds 24 1017 88 10000 8.2 80 12:21 22.05.2020
2742 Clouds 24 1018 88 10000 4.6 30 11:44 22.05.2020
2743 Rain 24 1018 88 10000 4.6 30 11:22 22.05.2020
2744 Rain 25 1017 78 10000 8.7 80 10:56 22.05.2020
2745 Rain 25 1017 83 10000 9.3 80 10:38 22.05.2020
2746 Clouds 25 1017 83 10000 9.3 80 10:19 22.05.2020
2747 Clouds 25 1017 83 10000 9.3 80 10:19 22.05.2020
2748 Rain 24 1017 88 10000 4.6 90 09:46 22.05.2020
2749 Rain 24 1017 88 10000 4.6 90 09:21 22.05.2020
2750 Clouds 24 1016 83 10000 9.8 70 08:55 22.05.2020
2751 Clouds 24 1016 83 10000 9.8 60 08:37 22.05.2020
2752 Clouds 24 1016 83 10000 9.8 60 08:18 22.05.2020
2753 Clouds 26 1015 74 10000 8.7 60 07:46 22.05.2020
2754 Clouds 26 1015 74 10000 8.7 60 07:22 22.05.2020
2755 Clouds 26 1014 69 10000 10.3 70 06:43 22.05.2020
2756 Clouds 26 1014 69 10000 10.3 70 06:25 22.05.2020
2757 Clouds 26 1014 69 10000 10.8 70 05:35 22.05.2020
2758 Clouds 27 1014 65 10000 10.8 70 04:47 22.05.2020
2759 Clouds 27 1014 65 10000 11.8 70 03:49 22.05.2020
2760 Clouds 27 1014 78 10000 5.7 60 03:29 22.05.2020
2761 Clouds 27 1016 61 10000 5.7 70 01:58 22.05.2020
2762 Clouds 27 1016 61 10000 5.7 70 01:31 22.05.2020
2763 Clouds 27 1016 61 10000 5.7 70 00:50 22.05.2020
2764 Clouds 27 1016 61 10000 5.7 70 00:29 22.05.2020
2765 Rain 27 1016 65 10000 5.7 60 23:55 21.05.2020
2766 Rain 27 1016 65 10000 5.7 60 23:37 21.05.2020
2767 Clouds 27 1016 65 10000 5.7 60 23:19 21.05.2020
2768 Clouds 27 1016 65 10000 5.7 60 22:56 21.05.2020
2769 Clouds 27 1016 65 10000 5.7 60 22:36 21.05.2020
2770 Clouds 27 1016 65 10000 5.7 60 22:18 21.05.2020
2771 Clouds 27 1016 65 10000 5.7 60 22:18 21.05.2020
2772 Rain 26 1016 65 10000 5.7 60 21:43 21.05.2020
2773 Rain 26 1016 65 10000 5.7 60 21:25 21.05.2020
2774 Clouds 25 1015 69 10000 6.2 60 20:46 21.05.2020
2775 Clouds 25 1015 69 10000 6.2 60 20:22 21.05.2020
2776 Clouds 25 1014 73 10000 6.7 50 19:57 21.05.2020
2777 Clouds 25 1014 73 10000 6.7 50 19:38 21.05.2020
2778 Clouds 25 1014 73 10000 6.7 50 19:19 21.05.2020
2779 Clouds 25 1014 73 10000 7.2 60 18:40 21.05.2020
2780 Clouds 25 1014 73 10000 7.2 60 18:20 21.05.2020
2781 Clouds 25 1014 73 10000 6.2 60 17:58 21.05.2020
2782 Clouds 25 1014 73 10000 6.2 60 17:40 21.05.2020
2783 Clouds 25 1014 73 10000 6.2 60 17:22 21.05.2020
2784 Clouds 25 1015 73 10000 6.7 60 16:46 21.05.2020
2785 Clouds 25 1015 73 10000 6.7 60 16:24 21.05.2020
2786 Clouds 25 1015 69 10000 6.2 60 15:47 21.05.2020
2787 Clouds 25 1015 69 10000 6.2 60 15:24 21.05.2020
2788 Clouds 25 1016 69 10000 6.7 60 14:57 21.05.2020
2789 Clouds 25 1016 69 10000 6.7 60 14:38 21.05.2020
2790 Clouds 25 1016 69 10000 6.7 60 14:18 21.05.2020
2791 Rain 25 1017 69 10000 5.7 80 13:41 21.05.2020
2792 Rain 25 1017 69 10000 5.7 80 13:22 21.05.2020
2793 Clouds 25 1019 69 10000 5.7 80 12:57 21.05.2020
2794 Clouds 25 1019 69 10000 5.7 80 12:37 21.05.2020
2795 Clouds 25 1019 69 10000 5.7 80 12:18 21.05.2020
2796 Clouds 25 1019 69 10000 5.1 90 11:42 21.05.2020
2797 Clouds 25 1019 69 10000 5.1 90 11:23 21.05.2020
2798 Clouds 25 1019 69 10000 5.1 90 10:57 21.05.2020
2799 Clouds 25 1019 69 10000 5.1 90 10:39 21.05.2020
2800 Clouds 25 1019 69 10000 5.1 90 10:19 21.05.2020
2801 Clouds 25 1019 69 10000 5.1 90 09:43 21.05.2020
2802 Clouds 25 1019 69 10000 5.1 90 09:25 21.05.2020
2803 Clouds 25 1018 65 10000 4.6 90 08:59 21.05.2020
2804 Clouds 25 1018 65 10000 4.6 90 08:40 21.05.2020
2805 Clouds 25 1018 65 10000 4.6 90 08:22 21.05.2020
2806 Clouds 25 1017 69 10000 5.7 100 07:44 21.05.2020
2807 Clouds 25 1017 69 10000 5.7 100 07:25 21.05.2020
2808 Clouds 25 1017 69 10000 4.6 90 06:48 21.05.2020
2809 Clouds 26 1016 65 10000 4.1 90 05:54 21.05.2020
2810 Clouds 26 1015 61 10000 4.6 90 04:56 21.05.2020
2811 Clouds 27 1016 61 10000 4.1 80 03:21 21.05.2020
2812 Clouds 29 1016 51 10000 4.6 80 02:37 21.05.2020
2813 Clouds 29 1016 51 10000 4.6 80 02:18 21.05.2020
2814 Clouds 27 1016 57 10000 4.6 70 01:42 21.05.2020
2815 Clouds 27 1016 57 10000 4.6 70 01:18 21.05.2020
2816 Clouds 27 1016 65 10000 4.6 70 00:44 21.05.2020
2817 Clouds 27 1016 65 10000 4.6 70 00:21 21.05.2020
2818 Clouds 26 1017 65 10000 4.1 70 23:40 20.05.2020
2819 Clouds 26 1017 65 10000 4.1 70 23:19 20.05.2020
2820 Clouds 25 1016 69 10000 4.6 70 22:55 20.05.2020
2821 Clouds 25 1016 69 10000 4.6 70 22:37 20.05.2020
2822 Clouds 25 1016 69 10000 4.6 70 22:19 20.05.2020
2823 Clouds 25 1016 69 10000 4.6 80 21:40 20.05.2020
2824 Clouds 25 1016 69 10000 4.6 80 21:20 20.05.2020
2825 Clouds 24 1015 69 10000 4.6 90 20:44 20.05.2020
2826 Clouds 24 1015 69 10000 4.6 90 20:44 20.05.2020
2827 Clouds 24 1015 69 10000 4.6 90 20:24 20.05.2020
2828 Clouds 24 1015 69 10000 5.1 80 19:44 20.05.2020
2829 Clouds 24 1015 69 10000 5.1 80 19:25 20.05.2020
2830 Clouds 24 1015 69 10000 4.6 90 18:59 20.05.2020
2831 Clouds 24 1015 69 10000 4.6 90 18:41 20.05.2020
2832 Clouds 24 1015 69 10000 4.6 90 18:21 20.05.2020
2833 Clouds 24 1015 69 10000 4.6 100 17:40 20.05.2020
2834 Clouds 24 1015 69 10000 4.6 100 17:22 20.05.2020
2835 Clouds 24 1015 69 10000 4.6 100 16:55 20.05.2020
2836 Clouds 24 1015 69 10000 4.6 100 16:37 20.05.2020
2837 Clouds 24 1015 69 10000 4.6 100 16:18 20.05.2020
2838 Clouds 24 1015 69 10000 3.6 90 15:42 20.05.2020
2839 Clouds 24 1015 69 10000 3.6 90 15:23 20.05.2020
2840 Clouds 24 1016 69 10000 3.6 100 14:44 20.05.2020
2841 Clouds 24 1016 69 10000 3.6 100 14:22 20.05.2020
2842 Clouds 24 1016 69 10000 3.6 100 13:55 20.05.2020
2843 Clouds 24 1016 69 10000 3.6 100 13:36 20.05.2020
2844 Clouds 24 1016 69 10000 3.6 100 13:18 20.05.2020
2845 Clouds 24 1016 69 10000 3.1 100 12:41 20.05.2020
2846 Clouds 24 1016 69 10000 3.1 100 12:20 20.05.2020
2847 Clouds 24 1016 69 10000 2.6 120 11:37 20.05.2020
2848 Clouds 24 1016 69 10000 2.6 120 11:19 20.05.2020
2849 Clouds 24 1016 69 10000 3.6 100 10:44 20.05.2020
2850 Clouds 24 1016 69 10000 3.6 100 10:22 20.05.2020
2851 Clouds 23 1016 73 10000 3.1 120 09:46 20.05.2020
2852 Clouds 23 1016 73 10000 3.1 120 09:23 20.05.2020
2853 Clouds 23 1015 73 10000 3.1 120 08:59 20.05.2020
2854 Clouds 23 1015 73 10000 3.1 120 08:41 20.05.2020
2855 Clouds 23 1015 73 10000 3.1 120 08:19 20.05.2020
2856 Clouds 23 1014 69 10000 3.1 120 07:49 20.05.2020
2857 Clouds 23 1014 69 10000 3.1 120 07:22 20.05.2020
2858 Clouds 24 1014 69 10000 2.6 130 06:46 20.05.2020
2859 Clouds 25 1014 61 10000 2.1 110 05:39 20.05.2020
2860 Clouds 26 1013 61 10000 2.6 100 04:34 20.05.2020
2861 Clouds 26 1013 61 10000 3.1 140 03:53 20.05.2020
2862 Clouds 26 1013 61 10000 3.1 130 02:32 20.05.2020
2863 Clouds 26 1014 57 10000 3.6 120 01:31 20.05.2020
2864 Clouds 26 1014 57 10000 3.6 120 00:46 20.05.2020
2865 Clouds 26 1014 57 10000 3.6 120 00:24 20.05.2020
2866 Clouds 24 1015 55 0 2.85 154 23:45 19.05.2020
2867 Clouds 25 1015 61 10000 3.6 150 23:20 19.05.2020
2868 Clouds 25 1015 61 10000 3.6 150 22:56 19.05.2020
2869 Clouds 25 1015 61 10000 3.6 150 22:38 19.05.2020
2870 Clouds 25 1015 61 10000 3.6 150 22:19 19.05.2020
2871 Clouds 25 1014 61 10000 2.6 160 21:58 19.05.2020
2872 Clouds 25 1014 61 10000 2.6 160 21:38 19.05.2020
2873 Clouds 25 1014 61 10000 2.6 160 21:38 19.05.2020
2874 Clouds 25 1014 61 10000 2.6 160 21:19 19.05.2020
2875 Clouds 22 1013 73 10000 2.6 150 20:57 19.05.2020
2876 Clouds 22 1013 73 10000 2.6 150 20:39 19.05.2020
2877 Clouds 22 1013 73 10000 2.6 150 20:20 19.05.2020
2878 Clouds 22 1013 73 10000 2.6 150 19:55 19.05.2020
2879 Clouds 22 1013 73 10000 2.6 150 19:36 19.05.2020
2880 Clouds 22 1013 73 10000 2.6 150 19:18 19.05.2020
2881 Clouds 22 1012 73 10000 1.5 150 18:40 19.05.2020
2882 Clouds 22 1012 73 10000 1.5 150 18:20 19.05.2020
2883 Clouds 21 1011 77 10000 2.6 160 17:43 19.05.2020
2884 Clouds 21 1011 77 10000 2.6 160 17:21 19.05.2020
2885 Clouds 22 1011 73 10000 2.1 160 16:58 19.05.2020
2886 Clouds 22 1011 73 10000 2.1 160 16:38 19.05.2020
2887 Clouds 22 1011 73 10000 2.1 160 16:19 19.05.2020
2888 Clouds 22 1011 73 10000 2.6 160 15:46 19.05.2020
2889 Clouds 22 1011 73 10000 2.6 160 15:21 19.05.2020
2890 Clouds 21 1012 77 10000 2.6 160 14:57 19.05.2020
2891 Clouds 21 1012 77 10000 2.6 160 14:38 19.05.2020
2892 Clouds 21 1012 77 10000 2.6 160 14:20 19.05.2020
2893 Clouds 22 1012 73 10000 2.1 170 13:57 19.05.2020
2894 Clouds 22 1012 73 10000 2.1 170 13:57 19.05.2020
2895 Clouds 22 1012 73 10000 2.1 170 13:38 19.05.2020
2896 Clouds 22 1012 73 10000 2.1 170 13:38 19.05.2020
2897 Clouds 22 1012 73 10000 2.1 170 13:20 19.05.2020
2898 Clouds 22 1012 73 10000 2.1 170 13:20 19.05.2020
2899 Clouds 23 1012 73 10000 2.6 170 12:56 19.05.2020
2900 Clouds 23 1012 73 10000 2.6 170 12:36 19.05.2020
2901 Clouds 23 1012 73 10000 2.6 170 12:18 19.05.2020
2902 Clouds 23 1012 73 10000 2.6 170 12:18 19.05.2020
2903 Clouds 23 1012 73 10000 2.1 170 11:42 19.05.2020
2904 Clouds 23 1012 73 10000 2.1 170 11:22 19.05.2020
2905 Clouds 23 1012 73 10000 2.6 180 10:57 19.05.2020
2906 Clouds 23 1012 73 10000 2.6 180 10:39 19.05.2020
2907 Clouds 23 1012 73 10000 2.6 180 10:39 19.05.2020
2908 Clouds 23 1012 73 10000 2.6 180 10:21 19.05.2020
2909 Clouds 24 1012 69 10000 2.6 180 09:44 19.05.2020
2910 Clouds 24 1012 69 10000 2.6 180 09:25 19.05.2020
2911 Clouds 24 1011 69 10000 2.6 180 08:47 19.05.2020
2912 Clouds 24 1011 69 10000 2.6 180 08:25 19.05.2020
2913 Clouds 24 1011 69 10000 2.6 180 08:25 19.05.2020
2914 Clouds 23 1011 73 10000 2.1 170 07:49 19.05.2020
2915 Clouds 23 1011 73 10000 2.1 170 07:28 19.05.2020
2916 Clouds 25 1010 69 10000 3.1 190 06:55 19.05.2020
2917 Clouds 25 1010 69 10000 3.1 190 06:31 19.05.2020
2918 Clouds 26 1010 61 10000 4.1 200 05:43 19.05.2020
2919 Clouds 26 1010 61 10000 4.1 200 05:23 19.05.2020
2920 Clouds 26 1010 65 10000 3.6 200 04:35 19.05.2020
2921 Clouds 26 1009 61 10000 5.7 210 02:24 19.05.2020
2922 Clouds 27 1011 61 10000 4.6 220 00:48 19.05.2020
2923 Clouds 27 1011 61 10000 4.6 220 00:29 19.05.2020
2924 Clouds 27 1011 61 10000 4.6 220 23:59 18.05.2020
2925 Clouds 27 1011 61 10000 4.6 220 23:40 18.05.2020
2926 Clouds 27 1011 61 10000 4.6 220 23:20 18.05.2020
2927 Clouds 24 1013 66 0 5.53 242 22:42 18.05.2020
2928 Clouds 24 1012 69 10000 2.6 190 22:22 18.05.2020
2929 Clouds 24 1012 69 10000 2.6 190 21:58 18.05.2020
2930 Clouds 24 1012 69 10000 2.6 190 21:40 18.05.2020
2931 Clouds 24 1012 69 10000 2.6 190 21:20 18.05.2020
2932 Clouds 24 1011 69 10000 3.6 190 20:56 18.05.2020
2933 Clouds 24 1011 69 10000 3.6 190 20:36 18.05.2020
2934 Clouds 24 1010 69 10000 3.1 190 20:18 18.05.2020
2935 Clouds 24 1010 69 10000 3.1 190 19:41 18.05.2020
2936 Clouds 24 1010 69 10000 3.1 190 19:19 18.05.2020
2937 Clouds 24 1010 69 10000 3.6 200 18:46 18.05.2020
2938 Clouds 24 1010 69 10000 3.6 200 18:25 18.05.2020
2939 Clouds 24 1009 64 10000 4.6 200 17:55 18.05.2020
2940 Clouds 24 1009 64 10000 4.6 200 17:37 18.05.2020
2941 Clouds 24 1009 64 10000 4.6 200 17:18 18.05.2020
2942 Clouds 24 1009 69 10000 4.6 210 16:44 18.05.2020
2943 Clouds 24 1009 69 10000 4.6 210 16:23 18.05.2020
2944 Clouds 24 1010 69 10000 4.6 200 16:00 18.05.2020
2945 Clouds 24 1010 69 10000 4.6 200 15:41 18.05.2020
2946 Clouds 24 1010 69 10000 4.6 200 15:22 18.05.2020
2947 Clouds 24 1010 73 10000 5.7 210 14:57 18.05.2020
2948 Clouds 24 1010 73 10000 5.7 210 14:38 18.05.2020
2949 Clouds 24 1010 73 10000 5.7 210 14:20 18.05.2020
2950 Clouds 24 1010 64 10000 5.1 220 13:41 18.05.2020
2951 Clouds 24 1010 64 10000 5.1 220 13:21 18.05.2020
2952 Clouds 24 1010 64 10000 5.1 220 13:21 18.05.2020
2953 Clouds 24 1010 69 10000 5.1 210 12:58 18.05.2020
2954 Clouds 24 1010 69 10000 5.1 210 12:40 18.05.2020
2955 Clouds 24 1010 69 10000 5.1 210 12:19 18.05.2020
2956 Clouds 25 1010 69 10000 5.1 210 11:59 18.05.2020
2957 Clouds 25 1010 69 10000 5.1 210 11:59 18.05.2020
2958 Clouds 25 1010 69 10000 5.1 210 11:40 18.05.2020
2959 Clouds 25 1010 69 10000 5.1 210 11:21 18.05.2020
2960 Clouds 24 1010 69 10000 5.7 220 10:46 18.05.2020
2961 Clouds 24 1010 69 10000 5.7 220 10:23 18.05.2020
2962 Clouds 24 1010 69 10000 5.7 210 09:45 18.05.2020
2963 Clouds 24 1010 69 10000 5.7 210 09:26 18.05.2020
2964 Clouds 24 1009 73 10000 5.1 210 08:54 18.05.2020
2965 Clouds 24 1009 73 10000 5.1 210 08:36 18.05.2020
2966 Clouds 24 1009 73 10000 5.1 210 08:18 18.05.2020
2967 Clouds 25 1009 69 10000 5.1 200 07:41 18.05.2020
2968 Clouds 25 1009 69 10000 5.1 200 07:20 18.05.2020
2969 Clouds 25 1009 69 10000 5.7 200 06:46 18.05.2020
2970 Clouds 25 1009 69 10000 5.7 200 06:18 18.05.2020
2971 Clouds 25 1008 69 10000 5.7 210 05:42 18.05.2020
2972 Rain 25 1008 78 10000 4.6 190 03:37 18.05.2020
2973 Clouds 25 1009 72 0 6.74 246 02:31 18.05.2020
2974 Clouds 27 1010 65 10000 7.2 220 01:32 18.05.2020
2975 Clouds 27 1010 65 10000 7.2 220 00:27 18.05.2020
2976 Clouds 27 1010 65 10000 6.7 220 23:58 17.05.2020
2977 Clouds 27 1010 65 10000 6.7 220 23:58 17.05.2020
2978 Clouds 27 1010 65 10000 6.7 220 23:40 17.05.2020
2979 Clouds 27 1010 65 10000 6.7 220 23:20 17.05.2020
2980 Clouds 27 1011 69 10000 5.7 220 22:57 17.05.2020
2981 Clouds 27 1011 69 10000 5.7 220 22:38 17.05.2020
2982 Clouds 27 1011 69 10000 5.7 220 22:20 17.05.2020
2983 Clouds 26 1010 74 10000 6.2 220 21:56 17.05.2020
2984 Clouds 26 1010 74 10000 6.2 220 21:38 17.05.2020
2985 Clouds 26 1010 74 10000 6.2 220 21:18 17.05.2020
2986 Clouds 25 1010 78 10000 5.7 210 20:42 17.05.2020
2987 Clouds 25 1010 78 10000 5.7 210 20:22 17.05.2020
2988 Clouds 25 1008 78 10000 6.7 210 19:57 17.05.2020
2989 Clouds 25 1008 78 10000 6.7 210 19:38 17.05.2020
2990 Clouds 25 1008 78 10000 6.7 210 19:19 17.05.2020
2991 Clouds 26 1010 77 0 7.25 257 18:42 17.05.2020
2992 Clouds 25 1008 78 10000 1.5 260 18:23 17.05.2020
2993 Clouds 25 1008 78 10000 1.5 260 17:59 17.05.2020
2994 Clouds 25 1008 78 10000 1.5 260 17:39 17.05.2020
2995 Clouds 25 1008 78 10000 1.5 260 17:19 17.05.2020
2996 Clouds 25 1008 78 10000 1.5 260 17:19 17.05.2020
2997 Clouds 25 1009 78 10000 6.7 230 16:40 17.05.2020
2998 Clouds 25 1009 78 10000 6.7 230 16:21 17.05.2020
2999 Clouds 26 1009 74 10000 7.2 230 15:59 17.05.2020
3000 Clouds 26 1009 74 10000 7.2 230 15:59 17.05.2020
3001 Clouds 26 1009 74 10000 7.2 230 15:39 17.05.2020
3002 Clouds 26 1009 74 10000 7.2 230 15:20 17.05.2020
3003 Clouds 26 1009 74 10000 6.2 220 14:43 17.05.2020
3004 Clouds 26 1009 74 10000 6.2 220 14:24 17.05.2020
3005 Clouds 26 1009 78 10000 7.2 230 13:59 17.05.2020
3006 Clouds 26 1009 78 10000 7.2 230 13:40 17.05.2020
3007 Clouds 26 1009 78 10000 7.2 230 13:40 17.05.2020
3008 Clouds 26 1009 78 10000 7.2 230 13:19 17.05.2020
3009 Clouds 28 1008 65 10000 7.2 260 04:41 17.05.2020
3010 Clouds 29 1009 66 10000 7.2 270 02:39 17.05.2020
3011 Clouds 29 1009 66 10000 7.2 270 02:19 17.05.2020
3012 Clouds 29 1010 70 10000 5.7 280 01:44 17.05.2020
3013 Clouds 28 1011 74 10000 6.7 280 00:40 17.05.2020
3014 Clouds 28 1011 74 10000 6.7 280 00:19 17.05.2020
3015 Clouds 28 1011 69 10000 5.1 270 23:40 16.05.2020
3016 Clouds 28 1011 69 10000 5.1 270 23:20 16.05.2020
3017 Clouds 27 1012 69 10000 4.6 270 22:58 16.05.2020
3018 Clouds 27 1012 69 10000 4.6 270 22:40 16.05.2020
3019 Clouds 27 1012 69 10000 4.6 270 22:20 16.05.2020
3020 Clouds 26 1012 74 10000 4.6 260 21:46 16.05.2020
3021 Clouds 26 1012 74 10000 4.6 260 21:46 16.05.2020
3022 Clouds 26 1012 74 10000 4.6 260 21:27 16.05.2020
3023 Clouds 26 1011 69 10000 5.1 250 20:59 16.05.2020
3024 Clouds 26 1011 69 10000 5.1 250 20:41 16.05.2020
3025 Clouds 26 1011 69 10000 5.1 250 20:41 16.05.2020
3026 Clouds 26 1011 69 10000 5.1 250 20:22 16.05.2020
3027 Clouds 25 1011 73 10000 5.7 250 19:58 16.05.2020
3028 Clouds 25 1011 73 10000 5.7 250 19:39 16.05.2020
3029 Clouds 25 1011 73 10000 5.7 250 19:21 16.05.2020
3030 Clouds 25 1010 78 10000 5.1 240 18:42 16.05.2020
3031 Clouds 25 1010 78 10000 5.1 240 18:23 16.05.2020
3032 Clouds 25 1010 78 10000 5.7 220 17:56 16.05.2020
3033 Clouds 25 1010 78 10000 5.7 220 17:38 16.05.2020
3034 Clouds 25 1010 78 10000 5.7 220 17:18 16.05.2020
3035 Clouds 25 1010 78 10000 5.7 220 17:18 16.05.2020
3036 Clouds 25 1010 78 10000 6.7 250 16:39 16.05.2020
3037 Clouds 25 1010 78 10000 6.7 250 16:20 16.05.2020
3038 Clouds 25 1010 78 10000 5.7 240 15:56 16.05.2020
3039 Clouds 25 1010 78 10000 5.7 240 15:38 16.05.2020
3040 Clouds 25 1010 78 10000 5.7 240 15:38 16.05.2020
3041 Clouds 25 1010 78 10000 5.7 240 15:19 16.05.2020
3042 Clouds 25 1011 78 10000 5.1 230 14:43 16.05.2020
3043 Clouds 25 1011 78 10000 5.1 230 14:20 16.05.2020
3044 Clouds 22 1011 100 10000 1.5 180 13:57 16.05.2020
3045 Clouds 22 1011 100 10000 1.5 180 13:38 16.05.2020
3046 Clouds 22 1011 100 10000 1.5 180 13:19 16.05.2020
3047 Clouds 22 1011 94 10000 1.5 160 12:44 16.05.2020
3048 Clouds 22 1011 94 10000 1.5 160 12:20 16.05.2020
3049 Clouds 23 1011 94 10000 1.5 170 11:56 16.05.2020
3050 Clouds 23 1011 94 10000 1.5 170 11:37 16.05.2020
3051 Clouds 23 1011 94 10000 1.5 170 11:18 16.05.2020
3052 Clouds 26 1012 82 0 4.12 258 10:54 16.05.2020
3053 Clouds 24 1011 88 10000 1.5 170 10:36 16.05.2020
3054 Clouds 24 1011 88 10000 1.5 170 10:36 16.05.2020
3055 Clouds 24 1011 88 10000 1.5 170 10:18 16.05.2020
3056 Clouds 24 1011 88 10000 1.5 170 09:40 16.05.2020
3057 Clouds 24 1011 88 10000 1.5 170 09:18 16.05.2020
3058 Clouds 25 1010 83 10000 3.1 200 08:42 16.05.2020
3059 Clouds 25 1010 83 10000 3.1 200 08:21 16.05.2020
3060 Clouds 25 1009 83 10000 6.2 190 07:45 16.05.2020
3061 Clouds 25 1009 83 10000 6.2 190 07:25 16.05.2020
3062 Clouds 25 1009 83 10000 6.2 190 06:57 16.05.2020
3063 Clouds 27 1009 78 10000 5.7 190 06:36 16.05.2020
3064 Clouds 27 1009 78 10000 5.7 190 06:18 16.05.2020
3065 Clouds 27 1009 78 10000 5.7 190 05:31 16.05.2020
3066 Clouds 27 1009 83 10000 6.2 220 03:35 16.05.2020
3067 Clouds 27 1009 83 10000 5.7 240 02:59 16.05.2020
3068 Clouds 26 1011 94 10000 7.2 240 02:20 16.05.2020
3069 Clouds 26 1011 94 10000 7.2 240 01:44 16.05.2020
3070 Clouds 26 1011 94 10000 7.2 240 01:18 16.05.2020
3071 Rain 29 1011 83 10000 3.1 280 00:42 16.05.2020
3072 Rain 28 1011 88 10000 3.6 280 00:21 16.05.2020
3073 Rain 28 1011 88 10000 3.6 280 23:40 15.05.2020
3074 Rain 28 1011 88 10000 3.6 280 23:20 15.05.2020
3075 Clouds 27 1011 88 10000 5.7 280 22:42 15.05.2020
3076 Clouds 27 1011 88 10000 5.7 280 22:24 15.05.2020
3077 Clouds 26 1011 94 0 5.7 350 21:59 15.05.2020
3078 Clouds 26 1011 94 0 5.7 350 21:39 15.05.2020
3079 Clouds 26 1011 94 0 5.7 350 21:39 15.05.2020
3080 Clouds 26 1011 94 0 5.7 350 21:21 15.05.2020
3081 Clouds 26 1013 86 0 5.31 308 20:57 15.05.2020
3082 Clouds 26 1013 86 0 5.31 308 20:39 15.05.2020
3083 Clouds 27 1010 88 10000 5.1 300 20:21 15.05.2020
3084 Clouds 27 1010 88 10000 5.1 300 19:44 15.05.2020
3085 Clouds 27 1010 88 10000 5.1 300 19:25 15.05.2020
3086 Clouds 27 1009 88 10000 5.1 310 18:59 15.05.2020
3087 Clouds 27 1009 88 10000 5.1 310 18:39 15.05.2020
3088 Clouds 27 1009 88 10000 5.1 310 18:21 15.05.2020
3089 Clouds 26 1009 94 10000 5.1 310 17:39 15.05.2020
3090 Clouds 26 1009 94 10000 5.1 310 17:19 15.05.2020
3091 Clouds 26 1010 88 10000 5.7 340 16:56 15.05.2020
3092 Clouds 26 1010 88 10000 5.7 340 16:38 15.05.2020
3093 Clouds 26 1010 88 10000 5.7 340 16:19 15.05.2020
3094 Clouds 27 1010 83 10000 7.2 340 15:41 15.05.2020
3095 Clouds 27 1010 83 10000 7.2 340 15:22 15.05.2020
3096 Clouds 27 1010 83 10000 7.2 340 14:58 15.05.2020
3097 Clouds 27 1010 83 10000 7.2 340 14:40 15.05.2020
3098 Clouds 27 1010 83 10000 7.2 340 14:22 15.05.2020
3099 Clouds 26 1011 94 10000 4.6 330 13:43 15.05.2020
3100 Clouds 26 1011 94 10000 4.6 330 13:22 15.05.2020
3101 Clouds 26 1011 94 10000 4.6 320 12:59 15.05.2020
3102 Clouds 26 1011 94 10000 4.6 320 12:39 15.05.2020
3103 Clouds 26 1011 94 10000 4.6 320 12:39 15.05.2020
3104 Clouds 26 1011 94 10000 4.6 320 12:18 15.05.2020
3105 Clouds 27 1011 83 10000 4.6 310 11:56 15.05.2020
3106 Clouds 27 1011 83 10000 4.6 310 11:37 15.05.2020
3107 Clouds 27 1011 83 10000 4.6 310 11:19 15.05.2020
3108 Clouds 27 1012 83 10000 4.6 330 10:56 15.05.2020
3109 Clouds 27 1012 83 10000 4.6 330 10:38 15.05.2020
3110 Clouds 27 1012 83 10000 4.6 330 10:19 15.05.2020
3111 Clouds 27 1011 94 10000 2.1 330 09:40 15.05.2020
3112 Clouds 27 1011 94 10000 2.1 330 09:20 15.05.2020
3113 Clouds 27 1011 94 10000 4.6 320 08:59 15.05.2020
3114 Clouds 27 1011 94 10000 4.6 320 08:38 15.05.2020
3115 Clouds 27 1011 94 10000 4.6 320 08:38 15.05.2020
3116 Clouds 27 1011 94 10000 4.6 320 08:38 15.05.2020
3117 Clouds 27 1011 94 10000 4.6 320 08:19 15.05.2020
3118 Clouds 27 1011 94 10000 4.6 340 07:46 15.05.2020
3119 Clouds 27 1011 94 10000 4.6 340 07:46 15.05.2020
3120 Clouds 27 1011 94 10000 4.6 340 07:27 15.05.2020
3121 Clouds 28 1010 88 10000 4.6 360 06:57 15.05.2020
3122 Clouds 28 1010 88 10000 4.6 360 05:55 15.05.2020
3123 Clouds 28 1010 83 10000 6.2 340 04:33 15.05.2020
3124 Clouds 28 1010 83 10000 6.7 310 03:48 15.05.2020
3125 Clouds 28 1011 83 10000 6.7 350 02:40 15.05.2020
3126 Clouds 29 1011 83 10000 6.2 10 01:31 15.05.2020
3127 Clouds 29 1011 74 10000 5.7 20 00:56 15.05.2020
3128 Clouds 29 1011 74 10000 5.7 20 00:37 15.05.2020
3129 Clouds 29 1011 74 10000 5.7 20 00:19 15.05.2020
3130 Clouds 29 1012 83 10000 5.7 20 23:40 14.05.2020
3131 Clouds 29 1012 83 10000 5.7 20 23:18 14.05.2020
3132 Clouds 28 1012 78 10000 4.6 30 22:41 14.05.2020
3133 Clouds 28 1012 78 10000 4.6 30 22:19 14.05.2020
3134 Clouds 27 1012 83 10000 4.6 30 21:58 14.05.2020
3135 Clouds 27 1012 83 10000 4.6 30 21:39 14.05.2020
3136 Clouds 27 1012 83 10000 4.6 30 21:19 14.05.2020
3137 Rain 27 1013 84 0 5.71 12 20:55 14.05.2020
3138 Rain 27 1013 84 0 5.71 12 20:55 14.05.2020
3139 Rain 27 1013 84 0 5.71 12 20:36 14.05.2020
3140 Rain 26 1012 83 0 5.34 17 20:18 14.05.2020
3141 Rain 26 1012 83 0 5.34 17 19:41 14.05.2020
3142 Clouds 27 1012 83 0 5.78 30 19:21 14.05.2020
3143 Clouds 27 1012 83 0 5.78 30 18:58 14.05.2020
3144 Clouds 26 1011 88 10000 3.1 40 18:38 14.05.2020
3145 Clouds 26 1011 88 10000 3.1 40 18:20 14.05.2020
3146 Clouds 26 1011 88 10000 3.1 40 17:59 14.05.2020
3147 Clouds 26 1011 88 10000 3.1 40 17:59 14.05.2020
3148 Clouds 26 1011 88 10000 3.1 40 17:37 14.05.2020
3149 Clouds 26 1011 88 10000 3.1 40 17:19 14.05.2020
3150 Clouds 26 1011 88 10000 3.1 40 16:58 14.05.2020
3151 Clouds 26 1012 94 10000 2.6 30 16:38 14.05.2020
3152 Rain 26 1012 94 10000 2.6 30 16:19 14.05.2020
3153 Rain 26 1012 94 10000 2.6 40 15:56 14.05.2020
3154 Rain 26 1012 94 10000 2.6 50 15:37 14.05.2020
3155 Clouds 26 1012 94 10000 2.6 50 15:18 14.05.2020
3156 Clouds 26 1012 94 10000 3.1 50 14:40 14.05.2020
3157 Rain 26 1012 94 10000 3.1 50 14:21 14.05.2020
3158 Rain 26 1012 94 10000 3.1 50 13:59 14.05.2020
3159 Rain 26 1012 94 10000 3.1 50 13:59 14.05.2020
3160 Rain 26 1012 94 10000 3.1 50 13:59 14.05.2020
3161 Rain 26 1012 94 10000 3.1 50 13:41 14.05.2020
3162 Rain 26 1012 94 10000 3.1 50 13:20 14.05.2020
3163 Rain 26 1013 88 10000 2.6 60 12:59 14.05.2020
3164 Rain 26 1013 94 10000 3.1 50 12:39 14.05.2020
3165 Rain 26 1013 94 10000 3.1 50 12:39 14.05.2020
3166 Rain 26 1013 94 10000 3.1 50 12:20 14.05.2020
3167 Rain 26 1013 94 10000 3.1 60 11:58 14.05.2020
3168 Rain 26 1013 94 10000 2.6 60 11:38 14.05.2020
3169 Rain 26 1013 94 10000 2.6 60 11:20 14.05.2020
3170 Rain 26 1013 94 10000 2.6 60 11:20 14.05.2020
3171 Rain 25 1013 100 10000 2.1 90 10:45 14.05.2020
3172 Rain 25 1013 100 10000 2.1 90 10:26 14.05.2020
3173 Rain 25 1014 100 10000 2.1 90 09:57 14.05.2020
3174 Rain 25 1014 94 10000 1.5 80 09:39 14.05.2020
3175 Rain 25 1014 94 10000 1.5 80 09:19 14.05.2020
3176 Rain 25 1014 94 10000 1.5 80 08:41 14.05.2020
3177 Clouds 25 1014 94 10000 1.5 80 08:20 14.05.2020
3178 Clouds 25 1013 100 10000 1.5 100 07:45 14.05.2020
3179 Rain 25 1013 100 10000 1.5 100 07:24 14.05.2020
3180 Rain 26 1012 94 10000 2.1 100 06:54 14.05.2020
3181 Rain 26 1012 94 10000 3.6 90 06:29 14.05.2020
3182 Rain 27 1012 88 10000 3.1 80 05:46 14.05.2020
3183 Rain 27 1012 88 10000 3.1 80 05:23 14.05.2020
3184 Rain 27 1012 88 10000 4.1 70 04:25 14.05.2020
3185 Rain 27 1012 88 10000 2.6 40 03:22 14.05.2020
3186 Rain 26 1013 94 10000 3.6 60 02:40 14.05.2020
3187 Rain 26 1014 94 10000 2.6 80 01:55 14.05.2020
3188 Rain 27 1014 88 10000 4.6 50 00:58 14.05.2020
3189 Rain 27 1015 88 10000 2.6 250 00:37 14.05.2020
3190 Rain 27 1015 88 10000 2.6 250 00:19 14.05.2020
3191 Rain 27 1016 88 10000 1 210 23:39 13.05.2020
3192 Rain 27 1016 88 10000 1 210 23:18 13.05.2020
3193 Rain 25 1016 100 10000 1.5 220 22:42 13.05.2020
3194 Rain 25 1016 100 10000 1.5 220 22:23 13.05.2020
3195 Rain 25 1016 100 5000 2.6 260 21:59 13.05.2020
3196 Rain 25 1016 100 5000 2.6 260 21:59 13.05.2020
3197 Rain 26 1016 94 10000 1 340 21:40 13.05.2020
3198 Clear 26 1016 94 10000 1 340 21:19 13.05.2020
3199 Clear 26 1015 94 10000 0.5 10 20:56 13.05.2020
3200 Clear 24 1015 100 10000 0.5 170 20:38 13.05.2020
3201 Clear 24 1015 100 10000 0.5 170 20:19 13.05.2020
3202 Clear 24 1015 100 10000 1 190 19:42 13.05.2020
3203 Clear 24 1015 100 10000 1 190 19:24 13.05.2020
3204 Clear 24 1014 100 10000 1 200 18:45 13.05.2020
3205 Clear 24 1014 100 10000 1 200 18:22 13.05.2020
3206 Clear 24 1014 100 10000 1 200 18:22 13.05.2020
3207 Clear 24 1014 100 10000 1 200 18:22 13.05.2020
3208 Clear 24 1014 100 10000 0.5 220 17:57 13.05.2020
3209 Clear 24 1013 100 10000 0.5 180 17:37 13.05.2020
3210 Clear 24 1013 100 10000 0.5 180 17:18 13.05.2020
3211 Clear 24 1013 100 10000 0.5 180 17:18 13.05.2020
3212 Clear 24 1013 100 10000 0.5 180 16:40 13.05.2020
3213 Clear 24 1013 100 10000 0.5 180 16:19 13.05.2020
3214 Clear 24 1013 100 10000 0.5 190 15:54 13.05.2020
3215 Clear 23 1014 100 10000 0.5 150 15:36 13.05.2020
3216 Clear 23 1014 100 10000 0.5 150 15:18 13.05.2020
3217 Clear 24 1014 100 10000 0.5 160 14:42 13.05.2020
3218 Clear 24 1014 100 10000 0.5 160 14:22 13.05.2020
3219 Fog 24 1014 100 1700 0.5 110 13:58 13.05.2020
3220 Clear 24 1014 100 10000 0.5 170 13:39 13.05.2020
3221 Clear 24 1014 100 10000 0.5 170 13:39 13.05.2020
3222 Rain 24 1014 100 10000 0.5 170 13:21 13.05.2020
3223 Rain 24 1015 100 10000 1 190 12:57 13.05.2020
3224 Rain 24 1015 100 10000 1.5 70 12:39 13.05.2020
3225 Clear 24 1015 100 10000 1.5 70 12:18 13.05.2020
3226 Clear 24 1015 100 10000 0.5 80 11:55 13.05.2020
3227 Clear 25 1015 100 10000 0.5 70 11:36 13.05.2020
3228 Rain 25 1015 100 10000 1 200 11:18 13.05.2020
3229 Rain 25 1015 100 10000 1 200 10:56 13.05.2020
3230 Rain 25 1015 100 10000 1 170 10:37 13.05.2020
3231 Clear 25 1015 100 10000 1 170 10:18 13.05.2020
3232 Clear 26 1015 94 10000 0.5 150 09:41 13.05.2020
3233 Clear 26 1015 94 10000 0.5 150 09:22 13.05.2020
3234 Haze 26 1015 94 4600 0.5 240 08:43 13.05.2020
3235 Haze 26 1015 94 4600 0.5 240 08:22 13.05.2020
3236 Haze 26 1015 94 2400 0.5 200 07:59 13.05.2020
3237 Haze 27 1014 94 1700 1 210 07:39 13.05.2020
3238 Haze 27 1014 94 1700 1 210 07:21 13.05.2020
3239 Rain 27 1014 88 10000 2.6 250 06:43 13.05.2020
3240 Rain 27 1014 88 10000 2.6 250 05:54 13.05.2020
3241 Clear 28 1014 88 10000 2.6 290 04:48 13.05.2020
3242 Clear 28 1014 88 10000 2.6 290 02:59 13.05.2020
3243 Clouds 28 1014 88 10000 3.1 270 02:26 13.05.2020
3244 Clouds 28 1015 88 10000 3.6 290 01:26 13.05.2020
3245 Clouds 28 1015 88 10000 2.6 290 00:41 13.05.2020
3246 Clouds 28 1015 88 10000 2.6 290 00:19 13.05.2020
3247 Clouds 27 1016 94 10000 2.1 300 23:40 12.05.2020
3248 Clouds 27 1016 94 10000 2.1 300 23:21 12.05.2020
3249 Clouds 27 1016 94 10000 1.5 300 22:57 12.05.2020
3250 Clouds 27 1016 88 10000 2.1 320 22:39 12.05.2020
3251 Clouds 27 1016 88 10000 2.1 320 22:20 12.05.2020
3252 Clouds 27 1016 94 10000 1.5 250 21:55 12.05.2020
3253 Clear 26 1015 94 10000 1.5 220 21:36 12.05.2020
3254 Clear 26 1015 94 10000 1.5 190 21:18 12.05.2020
3255 Clear 26 1015 94 10000 1.5 190 20:55 12.05.2020
3256 Clear 26 1015 94 10000 1.5 220 20:36 12.05.2020
3257 Clear 26 1015 94 10000 1.5 220 20:18 12.05.2020
3258 Clear 26 1014 94 10000 1.5 280 19:41 12.05.2020
3259 Clear 26 1014 94 10000 1.5 280 19:23 12.05.2020
3260 Clear 26 1014 100 10000 0.5 200 18:58 12.05.2020
3261 Clear 26 1014 100 10000 1.5 240 18:40 12.05.2020
3262 Clear 26 1014 100 10000 1.5 240 18:21 12.05.2020
3263 Clear 27 1014 94 10000 3.1 290 17:44 12.05.2020
3264 Rain 27 1014 94 10000 3.1 290 17:25 12.05.2020
3265 Rain 27 1014 94 10000 2.6 290 16:58 12.05.2020
3266 Rain 26 1014 100 10000 2.1 320 16:40 12.05.2020
3267 Rain 26 1014 100 10000 2.1 320 16:19 12.05.2020
3268 Rain 26 1014 100 10000 1.5 290 15:54 12.05.2020
3269 Rain 27 1014 94 10000 2.1 320 15:36 12.05.2020
3270 Rain 27 1014 94 10000 1.5 340 15:18 12.05.2020
3271 Rain 27 1014 94 10000 1.5 340 14:54 12.05.2020
3272 Rain 27 1015 94 10000 2.1 280 14:36 12.05.2020
3273 Clouds 27 1015 94 10000 2.1 280 14:18 12.05.2020
3274 Clouds 27 1015 94 10000 2.1 320 13:41 12.05.2020
3275 Rain 27 1015 94 10000 2.1 320 13:20 12.05.2020
3276 Rain 26 1014 100 10000 0.5 30 12:58 12.05.2020
3277 Rain 27 1014 94 10000 1 340 12:40 12.05.2020
3278 Rain 27 1014 94 10000 1 340 12:40 12.05.2020
3279 Rain 27 1014 94 10000 1 340 12:40 12.05.2020
3280 Rain 27 1014 94 10000 1 340 12:40 12.05.2020
3281 Rain 27 1014 94 10000 1 340 12:22 12.05.2020
3282 Rain 27 1014 94 10000 1 330 11:58 12.05.2020
3283 Rain 27 1014 94 10000 1.5 350 11:39 12.05.2020
3284 Clouds 27 1014 94 10000 1.5 350 11:21 12.05.2020
3285 Clouds 27 1014 94 10000 2.1 320 10:59 12.05.2020
3286 Clouds 27 1014 94 10000 1.5 340 10:40 12.05.2020
3287 Clouds 27 1014 94 10000 1.5 340 10:22 12.05.2020
3288 Clouds 27 1014 94 10000 1 340 09:59 12.05.2020
3289 Clouds 27 1014 94 10000 1.5 10 09:39 12.05.2020
3290 Clear 27 1014 94 10000 1.5 10 09:20 12.05.2020
3291 Clear 27 1014 94 10000 1.5 350 08:54 12.05.2020
3292 Clear 27 1014 94 10000 1.5 360 08:36 12.05.2020
3293 Clear 27 1014 94 10000 1.5 360 08:18 12.05.2020
3294 Clear 27 1013 94 10000 1 20 07:41 12.05.2020
3295 Rain 27 1013 94 10000 1 20 07:21 12.05.2020
3296 Rain 27 1012 94 10000 1.5 340 06:41 12.05.2020
3297 Rain 27 1012 94 10000 1.5 340 06:22 12.05.2020
3298 Rain 28 1012 88 10000 1.5 340 05:50 12.05.2020
3299 Clear 28 1012 88 10000 3.1 340 04:54 12.05.2020
3300 Rain 29 1012 83 10000 2.6 350 03:26 12.05.2020
3301 Clear 28 1012 83 10000 3.1 350 02:28 12.05.2020
3302 Clear 28 1013 83 10000 3.1 350 01:56 12.05.2020
3303 Clear 28 1013 83 10000 3.1 360 01:20 12.05.2020
3304 Clear 28 1013 83 10000 3.6 10 00:25 12.05.2020
3305 Clear 28 1013 83 10000 4.1 20 23:58 11.05.2020
3306 Clear 28 1014 83 10000 4.1 20 23:40 11.05.2020
3307 Clear 28 1014 83 10000 4.1 20 23:20 11.05.2020
3308 Clear 28 1014 83 10000 3.6 20 22:58 11.05.2020
3309 Clear 28 1014 83 10000 4.1 30 22:40 11.05.2020
3310 Clear 28 1014 83 10000 4.1 30 22:19 11.05.2020
3311 Clear 27 1014 88 10000 3.6 30 21:55 11.05.2020
3312 Clouds 27 1013 88 10000 4.1 40 21:37 11.05.2020
3313 Clear 27 1013 88 10000 4.1 40 21:18 11.05.2020
3314 Clouds 27 1013 83 10000 3.6 40 20:57 11.05.2020
3315 Clouds 26 1013 88 10000 3.6 50 20:38 11.05.2020
3316 Clouds 26 1013 88 10000 3.6 50 20:18 11.05.2020
3317 Clouds 24 1013 94 10000 3.1 100 19:41 11.05.2020
3318 Clouds 24 1013 94 10000 3.1 100 19:22 11.05.2020
3319 Clouds 24 1012 94 10000 3.1 90 18:58 11.05.2020
3320 Clouds 24 1012 94 10000 3.6 80 18:39 11.05.2020
3321 Clouds 24 1012 94 10000 3.6 80 18:20 11.05.2020
3322 Clouds 24 1012 100 10000 4.6 80 17:58 11.05.2020
3323 Clouds 25 1012 88 10000 5.1 70 17:40 11.05.2020
3324 Clouds 25 1012 88 10000 5.1 70 17:40 11.05.2020
3325 Clouds 25 1012 88 10000 5.1 70 17:21 11.05.2020
3326 Clouds 25 1012 88 10000 5.7 60 16:57 11.05.2020
3327 Clouds 25 1012 88 10000 5.7 60 16:38 11.05.2020
3328 Clouds 25 1012 88 10000 5.7 60 16:19 11.05.2020
3329 Clouds 25 1012 88 10000 5.1 60 15:42 11.05.2020
3330 Clouds 25 1012 88 10000 5.1 60 15:21 11.05.2020
3331 Clouds 25 1012 88 10000 5.7 60 14:59 11.05.2020
3332 Clouds 24 1013 88 10000 5.7 50 14:41 11.05.2020
3333 Clouds 24 1013 88 10000 5.7 50 14:22 11.05.2020
3334 Clouds 24 1013 94 10000 5.7 60 13:55 11.05.2020
3335 Clouds 24 1013 94 10000 5.7 60 13:55 11.05.2020
3336 Rain 23 1013 100 10000 6.7 80 13:37 11.05.2020
3337 Rain 23 1013 100 10000 6.7 80 13:18 11.05.2020
3338 Rain 23 1012 94 10000 4.6 80 12:55 11.05.2020
3339 Rain 23 1013 94 10000 3.1 70 12:37 11.05.2020
3340 Rain 23 1013 94 10000 3.1 70 12:19 11.05.2020
3341 Rain 22 1013 100 10000 3.6 80 11:41 11.05.2020
3342 Rain 22 1013 100 10000 3.6 80 11:22 11.05.2020
3343 Rain 22 1014 100 10000 1 90 10:58 11.05.2020
3344 Rain 23 1014 94 10000 2.1 110 10:40 11.05.2020
3345 Rain 23 1014 94 10000 2.1 110 10:21 11.05.2020
3346 Rain 23 1014 94 8000 1.5 260 09:58 11.05.2020
3347 Rain 23 1014 94 8000 4.1 190 09:39 11.05.2020
3348 Rain 23 1014 94 8000 4.1 190 09:19 11.05.2020
3349 Rain 23 1013 94 8000 4.1 150 08:55 11.05.2020
3350 Rain 23 1013 94 8000 4.1 150 08:37 11.05.2020
3351 Rain 23 1013 94 8000 4.1 150 08:18 11.05.2020
3352 Rain 24 1014 100 2400 1.5 190 07:42 11.05.2020
3353 Mist 24 1014 100 2400 1.5 190 07:23 11.05.2020
3354 Rain 25 1013 94 1000 2.1 250 06:40 11.05.2020
3355 Haze 25 1013 94 4800 1.5 170 05:55 11.05.2020
3356 Rain 26 1012 88 10000 2.6 110 05:23 11.05.2020
3357 Rain 27 1012 78 10000 6.2 70 04:19 11.05.2020
3358 Clouds 28 1013 74 10000 7.2 60 02:37 11.05.2020
3359 Clouds 28 1013 74 10000 7.2 60 02:19 11.05.2020
3360 Clouds 28 1013 74 10000 7.2 60 01:23 11.05.2020
3361 Clouds 27 1014 83 10000 7.2 60 00:42 11.05.2020
3362 Clouds 27 1014 83 10000 7.2 60 00:19 11.05.2020
3363 Clouds 27 1015 78 10000 6.7 60 23:42 10.05.2020
3364 Clouds 27 1015 78 10000 6.7 60 23:20 10.05.2020
3365 Clouds 27 1015 74 10000 7.7 60 22:55 10.05.2020
3366 Clouds 27 1015 74 10000 7.7 60 22:55 10.05.2020
3367 Clouds 27 1014 78 10000 7.2 70 22:37 10.05.2020
3368 Clouds 27 1014 78 10000 7.2 70 22:18 10.05.2020
3369 Clouds 27 1014 78 10000 7.2 70 21:42 10.05.2020
3370 Clouds 27 1014 78 10000 7.2 70 21:18 10.05.2020
3371 Clouds 26 1014 83 10000 7.7 70 20:43 10.05.2020
3372 Clouds 26 1014 83 10000 7.7 70 20:24 10.05.2020
3373 Clouds 26 1014 83 10000 7.2 70 19:58 10.05.2020
3374 Clouds 26 1013 78 10000 6.7 80 19:38 10.05.2020
3375 Clouds 26 1013 78 10000 6.7 80 19:20 10.05.2020
3376 Clouds 26 1013 83 10000 7.2 70 18:56 10.05.2020
3377 Clouds 26 1013 78 10000 7.2 70 18:36 10.05.2020
3378 Clouds 26 1013 83 10000 7.2 80 18:18 10.05.2020
3379 Clouds 26 1013 78 10000 7.2 70 18:18 10.05.2020
3380 Clouds 26 1013 83 10000 7.2 80 17:57 10.05.2020
3381 Clouds 25 1013 88 10000 6.2 80 17:39 10.05.2020
3382 Clouds 25 1013 88 10000 5.7 80 17:20 10.05.2020
3383 Clouds 26 1013 83 10000 6.2 80 16:43 10.05.2020
3384 Clouds 26 1013 83 10000 6.2 80 16:21 10.05.2020
3385 Clouds 25 1013 83 10000 6.7 80 15:58 10.05.2020
3386 Clouds 25 1013 83 10000 6.7 80 15:58 10.05.2020
3387 Clouds 26 1014 83 10000 5.1 80 15:39 10.05.2020
3388 Clouds 26 1014 83 10000 5.1 80 15:39 10.05.2020
3389 Clouds 26 1014 83 10000 5.1 80 15:20 10.05.2020
3390 Clouds 26 1014 83 10000 5.1 90 14:55 10.05.2020
3391 Clouds 26 1014 83 10000 6.2 80 14:37 10.05.2020
3392 Clouds 26 1014 83 10000 6.2 80 14:18 10.05.2020
3393 Clouds 25 1014 88 10000 5.7 80 13:55 10.05.2020
3394 Clouds 26 1015 83 10000 6.2 80 13:36 10.05.2020
3395 Clouds 26 1015 83 10000 6.2 80 13:36 10.05.2020
3396 Clouds 26 1015 83 10000 6.2 80 13:18 10.05.2020
3397 Clouds 25 1015 88 10000 3.6 90 12:42 10.05.2020
3398 Clouds 25 1015 88 10000 3.6 90 12:21 10.05.2020
3399 Clouds 25 1016 88 10000 3.6 90 11:58 10.05.2020
3400 Clouds 26 1016 83 10000 3.1 90 11:40 10.05.2020
3401 Clouds 26 1016 83 10000 3.1 90 11:20 10.05.2020
3402 Clouds 26 1016 83 10000 5.1 80 10:48 10.05.2020
3403 Clouds 26 1016 83 10000 5.1 80 10:30 10.05.2020
3404 Clouds 26 1016 83 10000 5.7 80 09:59 10.05.2020
3405 Clouds 26 1015 83 10000 5.1 90 09:41 10.05.2020
3406 Clouds 26 1015 83 10000 5.1 90 09:22 10.05.2020
3407 Clouds 26 1015 83 10000 4.6 90 08:53 10.05.2020
3408 Clear 26 1015 83 10000 6.2 80 08:24 10.05.2020
3409 Clear 26 1014 83 10000 5.7 80 07:57 10.05.2020
3410 Clear 26 1014 83 10000 5.1 80 07:38 10.05.2020
3411 Clouds 26 1014 83 10000 5.1 80 07:19 10.05.2020
3412 Clouds 26 1014 83 10000 5.1 90 06:50 10.05.2020
3413 Clear 26 1014 83 10000 5.7 80 06:22 10.05.2020
3414 Clear 27 1013 78 10000 7.2 80 05:44 10.05.2020
3415 Clear 27 1014 78 10000 7.2 80 04:41 10.05.2020
3416 Clear 27 1014 78 10000 7.2 80 04:22 10.05.2020
3417 Clear 28 1014 74 10000 7.7 90 03:43 10.05.2020
3418 Clouds 28 1014 74 10000 7.7 80 02:54 10.05.2020
3419 Clouds 28 1015 74 10000 6.7 90 02:24 10.05.2020
3420 Clouds 28 1015 74 10000 6.7 90 02:24 10.05.2020
3421 Clouds 28 1016 78 10000 7.2 80 01:43 10.05.2020
3422 Clouds 28 1016 78 10000 7.2 80 01:23 10.05.2020
3423 Clouds 28 1016 78 10000 7.2 80 00:58 10.05.2020
3424 Clouds 28 1016 78 10000 7.7 80 00:37 10.05.2020
3425 Clouds 28 1016 78 10000 7.7 80 00:19 10.05.2020
3426 Clouds 28 1017 78 10000 8.2 80 23:39 09.05.2020
3427 Clouds 28 1017 78 10000 8.2 80 23:20 09.05.2020
3428 Clouds 27 1017 83 10000 7.2 80 22:54 09.05.2020
3429 Clouds 27 1017 83 10000 6.7 90 22:36 09.05.2020
3430 Clear 27 1017 78 10000 7.2 80 22:18 09.05.2020
3431 Clear 27 1016 83 10000 6.2 80 21:42 09.05.2020
3432 Clear 27 1016 83 10000 6.2 80 21:22 09.05.2020
3433 Clouds 27 1016 78 10000 5.1 90 20:58 09.05.2020
3434 Clouds 27 1016 78 10000 5.1 90 20:58 09.05.2020
3435 Clouds 26 1016 83 10000 3.6 90 20:39 09.05.2020
3436 Clouds 26 1016 83 10000 3.6 90 20:20 09.05.2020
3437 Clouds 26 1016 83 10000 3.6 90 20:20 09.05.2020
3438 Clouds 25 1016 88 10000 3.6 90 19:58 09.05.2020
3439 Clouds 25 1016 88 10000 2.1 100 19:39 09.05.2020
3440 Clouds 25 1016 88 10000 2.1 100 19:19 09.05.2020
3441 Clouds 25 1015 88 10000 2.1 100 18:45 09.05.2020
3442 Clouds 25 1015 88 10000 2.1 100 18:26 09.05.2020
3443 Clouds 25 1015 88 10000 3.1 90 17:56 09.05.2020
3444 Rain 26 1015 83 10000 4.1 100 17:36 09.05.2020
3445 Rain 26 1015 83 10000 4.1 100 17:18 09.05.2020
3446 Clouds 26 1015 83 10000 2.6 110 16:41 09.05.2020
3447 Clouds 26 1015 83 10000 2.6 110 16:19 09.05.2020
3448 Clouds 26 1016 83 10000 2.6 100 15:45 09.05.2020
3449 Clouds 26 1016 83 10000 2.6 100 15:45 09.05.2020
3450 Clouds 26 1016 83 10000 2.6 100 15:26 09.05.2020
3451 Rain 25 1016 88 10000 3.6 100 14:57 09.05.2020
3452 Clouds 25 1016 88 10000 1.5 100 14:39 09.05.2020
3453 Clouds 25 1016 88 10000 1.5 100 14:18 09.05.2020
3454 Clouds 26 1016 83 10000 2.1 110 13:56 09.05.2020
3455 Clouds 26 1016 83 10000 2.1 100 13:38 09.05.2020
3456 Clear 26 1016 83 10000 2.1 100 13:18 09.05.2020
3457 Clear 26 1016 83 10000 2.1 100 13:18 09.05.2020
3458 Clear 25 1016 88 10000 1.5 100 12:41 09.05.2020
3459 Clear 25 1016 88 10000 1.5 100 12:22 09.05.2020
3460 Clear 26 1017 83 10000 3.1 90 11:45 09.05.2020
3461 Clear 26 1017 83 10000 3.1 90 11:20 09.05.2020
3462 Clear 26 1017 83 10000 4.6 90 10:56 09.05.2020
3463 Clear 26 1017 83 10000 4.6 90 10:38 09.05.2020
3464 Clear 26 1017 83 10000 4.6 90 10:19 09.05.2020
3465 Clear 26 1017 83 10000 5.1 80 09:47 09.05.2020
3466 Clear 26 1016 83 10000 4.6 90 09:20 09.05.2020
3467 Clear 26 1016 83 10000 5.1 90 08:57 09.05.2020
3468 Clear 25 1016 83 10000 3.6 90 08:38 09.05.2020
3469 Clear 25 1016 83 10000 3.6 90 08:20 09.05.2020
3470 Clear 26 1016 78 10000 3.1 110 07:44 09.05.2020
3471 Clear 26 1016 78 10000 3.1 110 07:25 09.05.2020
3472 Clear 26 1016 78 10000 2.6 90 06:40 09.05.2020
3473 Clear 26 1016 78 10000 2.6 90 06:18 09.05.2020
3474 Clear 27 1016 78 10000 5.1 90 05:39 09.05.2020
3475 Clouds 28 1016 74 10000 6.7 80 03:40 09.05.2020
3476 Clouds 28 1016 74 10000 7.2 80 02:54 09.05.2020
3477 Clouds 28 1016 78 10000 7.2 80 02:30 09.05.2020
3478 Rain 27 1017 83 10000 7.2 80 01:50 09.05.2020
3479 Clouds 28 1017 78 10000 7.7 80 01:22 09.05.2020
3480 Clouds 28 1018 74 10000 4.1 90 00:43 09.05.2020
3481 Clouds 28 1018 74 10000 4.1 90 00:19 09.05.2020
3482 Clouds 28 1018 74 10000 4.1 100 23:44 08.05.2020
3483 Clouds 28 1018 74 10000 4.1 100 23:25 08.05.2020
3484 Clouds 28 1018 74 10000 3.6 100 22:56 08.05.2020
3485 Clouds 29 1018 70 10000 3.1 110 22:38 08.05.2020
3486 Clouds 29 1018 70 10000 3.1 110 22:19 08.05.2020
3487 Clouds 28 1018 74 10000 2.6 110 21:54 08.05.2020
3488 Clouds 27 1018 78 10000 4.6 90 21:36 08.05.2020
3489 Clouds 27 1018 78 10000 4.6 90 21:18 08.05.2020
3490 Clouds 26 1018 83 10000 2.6 100 20:55 08.05.2020
3491 Clouds 26 1017 83 10000 2.1 100 20:36 08.05.2020
3492 Clouds 26 1017 83 10000 2.1 100 20:36 08.05.2020
3493 Clouds 26 1017 83 10000 2.1 100 20:36 08.05.2020
3494 Clear 26 1017 83 10000 2.1 100 20:18 08.05.2020
3495 Clear 24 1016 94 10000 1 120 19:41 08.05.2020
3496 Clear 24 1016 94 10000 1 120 19:21 08.05.2020
3497 Clear 25 1016 88 10000 1.5 100 18:45 08.05.2020
3498 Clear 25 1016 88 10000 1.5 100 18:27 08.05.2020
3499 Clear 25 1016 88 10000 2.6 90 17:43 08.05.2020
3500 Clear 25 1016 88 10000 2.6 90 17:20 08.05.2020
3501 Clear 24 1016 94 10000 1 90 16:56 08.05.2020
3502 Clear 25 1016 88 10000 1 110 16:37 08.05.2020
3503 Clear 25 1016 88 10000 1 110 16:19 08.05.2020
3504 Clear 25 1016 88 10000 1 80 15:42 08.05.2020
3505 Clear 25 1016 88 10000 1 80 15:22 08.05.2020
3506 Clear 25 1016 88 10000 1.5 100 14:56 08.05.2020
3507 Clear 25 1017 88 10000 1 100 14:38 08.05.2020
3508 Clear 25 1017 88 10000 1 100 14:18 08.05.2020
3509 Clear 25 1017 94 10000 3.1 90 13:41 08.05.2020
3510 Clear 25 1017 94 10000 3.1 90 13:41 08.05.2020
3511 Clear 25 1017 94 10000 3.1 90 13:20 08.05.2020
3512 Clear 25 1017 94 10000 2.6 90 12:59 08.05.2020
3513 Clear 26 1017 88 10000 4.1 90 12:38 08.05.2020
3514 Rain 26 1017 88 10000 4.1 90 12:20 08.05.2020
3515 Rain 26 1017 83 10000 2.6 90 11:44 08.05.2020
3516 Clear 26 1017 83 10000 2.6 90 11:23 08.05.2020
3517 Clear 26 1017 83 10000 2.1 100 10:59 08.05.2020
3518 Clear 25 1017 88 10000 2.1 100 10:40 08.05.2020
3519 Clear 25 1017 88 10000 1.5 100 10:19 08.05.2020
3520 Clear 25 1017 88 10000 1.5 100 09:56 08.05.2020
3521 Clear 24 1017 94 10000 1 180 09:37 08.05.2020
3522 Clear 24 1017 94 10000 1 180 09:18 08.05.2020
3523 Clear 24 1017 94 9000 0.5 200 08:42 08.05.2020
3524 Clear 24 1017 94 9000 0.5 200 08:21 08.05.2020
3525 Clear 26 1016 83 10000 1.5 100 07:43 08.05.2020
3526 Clear 26 1016 83 10000 1.5 100 07:23 08.05.2020
3527 Clear 26 1016 83 10000 1.5 100 06:50 08.05.2020
3528 Clear 27 1016 78 10000 1.5 80 06:22 08.05.2020
3529 Clear 28 1015 74 10000 3.6 90 05:41 08.05.2020
3530 Clear 29 1015 70 10000 3.1 100 04:32 08.05.2020
3531 Clouds 29 1016 74 10000 4.6 60 02:33 08.05.2020
3532 Clouds 29 1016 74 10000 4.1 80 01:47 08.05.2020
3533 Clouds 29 1016 74 10000 5.1 60 01:27 08.05.2020
3534 Clouds 29 1016 74 10000 2.6 360 00:51 08.05.2020
3535 Clouds 29 1017 79 10000 2.1 360 00:29 08.05.2020
3536 Clouds 28 1017 78 10000 2.6 290 23:58 07.05.2020
3537 Clouds 28 1018 83 10000 2.1 300 23:40 07.05.2020
3538 Clouds 28 1018 83 10000 2.1 300 23:21 07.05.2020
3539 Clouds 28 1018 78 10000 2.1 290 22:54 07.05.2020
3540 Clouds 27 1018 83 10000 1.5 290 22:36 07.05.2020
3541 Clouds 27 1018 83 10000 1.5 290 22:18 07.05.2020
3542 Clouds 27 1017 83 10000 1 320 21:54 07.05.2020
3543 Clouds 26 1017 88 10000 0.5 310 21:36 07.05.2020
3544 Clear 26 1017 88 10000 0.5 310 21:18 07.05.2020
3545 Clear 24 1016 100 10000 0.5 120 20:41 07.05.2020
3546 Clouds 24 1016 100 10000 0.5 120 20:21 07.05.2020
3547 Clouds 22 1016 100 10000 0.5 100 19:50 07.05.2020
3548 Clouds 22 1016 100 10000 0.5 130 19:24 07.05.2020
3549 Clouds 22 1016 100 10000 1 180 18:59 07.05.2020
3550 Clouds 22 1015 100 10000 1 190 18:40 07.05.2020
3551 Clouds 22 1015 100 10000 1 190 18:21 07.05.2020
3552 Clouds 22 1015 100 10000 1 180 17:43 07.05.2020
3553 Clouds 22 1015 100 10000 1 180 17:21 07.05.2020
3554 Clouds 22 1015 100 10000 0.5 190 16:43 07.05.2020
3555 Clouds 22 1015 100 10000 0.5 190 16:20 07.05.2020
3556 Clouds 22 1015 100 10000 1 80 15:58 07.05.2020
3557 Clouds 22 1015 100 10000 1 80 15:39 07.05.2020
3558 Clear 22 1015 100 10000 1 80 15:19 07.05.2020
3559 Clear 22 1015 100 10000 1.5 90 14:59 07.05.2020
3560 Clear 23 1016 94 10000 1 110 14:41 07.05.2020
3561 Clear 23 1016 100 10000 1 100 14:18 07.05.2020
3562 Clear 23 1016 100 10000 1.5 110 13:42 07.05.2020
3563 Clear 23 1016 100 10000 1.5 110 13:24 07.05.2020
3564 Clear 23 1017 94 10000 1 100 12:43 07.05.2020
3565 Clear 23 1017 94 10000 1 100 12:20 07.05.2020
3566 Clear 23 1017 94 10000 1 70 11:54 07.05.2020
3567 Clear 23 1017 100 10000 0.5 170 11:36 07.05.2020
3568 Clear 23 1017 100 10000 0.5 110 11:18 07.05.2020
3569 Clear 23 1016 100 10000 0.5 170 10:40 07.05.2020
3570 Clear 23 1016 100 10000 0.5 170 10:20 07.05.2020
3571 Clear 24 1016 94 10000 1 190 09:41 07.05.2020
3572 Clear 24 1016 94 10000 1 190 09:20 07.05.2020
3573 Clouds 24 1016 94 10000 0.5 170 08:56 07.05.2020
3574 Clouds 24 1016 94 10000 0.5 120 08:37 07.05.2020
3575 Clouds 24 1016 94 10000 0.5 120 08:19 07.05.2020
3576 Clouds 25 1015 94 10000 1 100 07:43 07.05.2020
3577 Clouds 25 1015 94 10000 1 100 07:43 07.05.2020
3578 Clouds 25 1015 94 10000 1 100 07:25 07.05.2020
3579 Clouds 27 1014 83 10000 2.6 70 06:45 07.05.2020
3580 Clouds 27 1014 83 10000 2.6 70 06:45 07.05.2020
3581 Clouds 27 1014 83 10000 2.6 70 06:23 07.05.2020
3582 Clouds 28 1014 78 10000 1.5 270 05:28 07.05.2020
3583 Clouds 28 1014 78 10000 1.5 340 03:50 07.05.2020
3584 Clouds 28 1014 78 10000 1.5 310 03:23 07.05.2020
3585 Clouds 28 1014 78 10000 1.5 330 02:41 07.05.2020
3586 Clouds 28 1015 78 10000 1.5 40 01:41 07.05.2020
3587 Rain 28 1015 78 10000 1.5 40 01:23 07.05.2020
3588 Rain 28 1015 83 10000 2.1 50 00:44 07.05.2020
3589 Clouds 28 1015 83 10000 2.1 50 00:25 07.05.2020
3590 Clouds 28 1016 83 10000 3.1 60 23:46 06.05.2020
3591 Clouds 28 1016 83 10000 3.1 60 23:24 06.05.2020
3592 Clouds 28 1016 83 10000 2.6 60 22:57 06.05.2020
3593 Clouds 28 1016 83 10000 2.6 60 22:39 06.05.2020
3594 Rain 28 1016 83 10000 2.6 60 22:19 06.05.2020
3595 Rain 28 1016 83 10000 2.6 50 21:56 06.05.2020
3596 Rain 27 1015 83 10000 3.6 60 21:38 06.05.2020
3597 Clouds 27 1015 83 10000 3.6 60 21:18 06.05.2020
3598 Clouds 26 1014 88 10000 2.6 70 20:42 06.05.2020
3599 Clear 26 1014 88 10000 2.6 70 20:23 06.05.2020
3600 Clear 26 1014 88 10000 2.6 70 20:23 06.05.2020
3601 Clear 25 1014 94 10000 2.6 90 19:57 06.05.2020
3602 Clear 24 1013 100 10000 2.1 80 19:38 06.05.2020
3603 Clear 24 1013 100 10000 2.1 80 19:19 06.05.2020
3604 Clear 25 1013 94 10000 2.6 90 18:58 06.05.2020
3605 Clear 25 1013 94 10000 2.6 90 18:38 06.05.2020
3606 Clear 25 1013 94 10000 2.6 90 18:20 06.05.2020
3607 Clear 25 1013 94 10000 2.6 90 18:20 06.05.2020
3608 Clear 25 1012 94 10000 2.6 90 17:56 06.05.2020
3609 Clear 25 1012 94 10000 2.6 90 17:56 06.05.2020
3610 Clear 25 1012 94 10000 2.6 90 17:56 06.05.2020
3611 Clear 25 1012 94 10000 3.1 90 17:38 06.05.2020
3612 Clear 25 1012 94 10000 3.1 90 17:20 06.05.2020
3613 Clear 24 1012 100 10000 3.1 80 16:58 06.05.2020
3614 Clear 22 1013 100 10000 2.1 80 16:40 06.05.2020
3615 Clear 22 1013 100 10000 2.1 80 16:20 06.05.2020
3616 Clear 22 1013 100 10000 1.5 90 15:57 06.05.2020
3617 Clear 22 1013 100 10000 1.5 90 15:39 06.05.2020
3618 Clouds 22 1013 100 10000 1.5 90 15:19 06.05.2020
3619 Clouds 22 1014 100 10000 1 80 14:41 06.05.2020
3620 Clouds 22 1014 100 10000 1 80 14:19 06.05.2020
3621 Clouds 22 1014 100 10000 1 80 14:19 06.05.2020
3622 Clouds 22 1014 100 10000 0.5 140 13:59 06.05.2020
3623 Clouds 22 1015 100 10000 0.5 150 13:39 06.05.2020
3624 Clouds 22 1015 100 10000 0.5 150 13:19 06.05.2020
3625 Clouds 22 1015 100 10000 0.5 150 13:19 06.05.2020
3626 Clouds 22 1015 100 10000 0.5 200 12:43 06.05.2020
3627 Clouds 22 1015 100 10000 0.5 200 12:25 06.05.2020
3628 Clouds 22 1015 100 10000 0.5 160 11:55 06.05.2020
3629 Clouds 23 1015 94 10000 0.5 170 11:36 06.05.2020
3630 Clouds 23 1015 94 10000 0.5 170 11:18 06.05.2020
3631 Clouds 23 1015 100 10000 1.5 190 10:55 06.05.2020
3632 Clouds 23 1015 100 10000 0.5 130 10:36 06.05.2020
3633 Clouds 23 1015 100 10000 0.5 130 10:18 06.05.2020
3634 Clouds 23 1014 100 10000 1 200 09:38 06.05.2020
3635 Clouds 23 1014 100 10000 1 200 09:20 06.05.2020
3636 Clouds 24 1014 100 10000 0.5 180 08:44 06.05.2020
3637 Clouds 24 1014 100 10000 0.5 180 08:20 06.05.2020
3638 Clouds 24 1013 94 10000 0.5 120 07:56 06.05.2020
3639 Clouds 25 1013 94 6000 1 180 07:38 06.05.2020
3640 Clouds 25 1013 94 6000 1 180 07:18 06.05.2020
3641 Clouds 27 1012 83 10000 2.1 60 06:46 06.05.2020
3642 Clouds 27 1012 83 10000 2.1 60 06:20 06.05.2020
3643 Clouds 28 1012 78 10000 1.5 310 05:39 06.05.2020
3644 Clouds 27 1012 78 10000 1.5 320 04:52 06.05.2020
3645 Clouds 27 1012 78 10000 2.6 40 03:52 06.05.2020
3646 Clouds 27 1012 83 10000 2.1 60 03:26 06.05.2020
3647 Clouds 27 1012 83 10000 3.1 40 02:51 06.05.2020
3648 Clouds 27 1012 78 10000 3.6 50 02:22 06.05.2020
3649 Clouds 28 1013 78 10000 3.1 40 01:42 06.05.2020
3650 Clouds 28 1013 78 10000 3.1 40 01:20 06.05.2020
3651 Clouds 27 1014 74 10000 2.6 40 00:44 06.05.2020
3652 Clouds 27 1014 74 10000 2.6 40 00:19 06.05.2020
3653 Clouds 27 1014 78 10000 3.6 50 23:41 05.05.2020
3654 Clouds 27 1014 78 10000 3.6 50 23:19 05.05.2020
3655 Clouds 27 1014 78 10000 2.6 50 22:54 05.05.2020
3656 Clouds 27 1014 74 10000 0.5 330 22:36 05.05.2020
3657 Clouds 27 1014 74 10000 0.5 330 22:18 05.05.2020
3658 Clouds 25 1014 83 10000 0.5 310 21:41 05.05.2020
3659 Clouds 25 1014 83 10000 0.5 310 21:21 05.05.2020
3660 Clouds 24 1014 94 10000 0.5 180 20:59 05.05.2020
3661 Clouds 22 1014 100 10000 1 180 20:39 05.05.2020
3662 Clouds 22 1014 100 10000 1 180 20:19 05.05.2020
3663 Clouds 21 1013 100 10000 1.5 180 19:58 05.05.2020
3664 Fog 20 1013 100 4700 1 120 19:37 05.05.2020
3665 Fog 20 1013 100 4700 1 120 19:19 05.05.2020
3666 Clouds 21 1013 100 10000 1 170 18:55 05.05.2020
3667 Clouds 21 1012 100 10000 1 190 18:37 05.05.2020
3668 Clouds 21 1012 100 10000 1 190 18:37 05.05.2020
3669 Clouds 21 1012 100 10000 1 190 18:19 05.05.2020
3670 Clouds 21 1012 100 10000 0.5 90 17:43 05.05.2020
3671 Clouds 21 1012 100 10000 0.5 90 17:25 05.05.2020
3672 Clouds 21 1012 100 10000 1 120 16:58 05.05.2020
3673 Clouds 21 1012 100 10000 0.5 120 16:37 05.05.2020
3674 Clear 21 1012 100 10000 1.5 190 16:18 05.05.2020
3675 Clear 21 1012 100 10000 1.5 190 15:55 05.05.2020
3676 Clear 21 1013 100 10000 1 150 15:37 05.05.2020
3677 Clear 21 1013 100 10000 1 150 15:37 05.05.2020
3678 Clear 21 1013 100 10000 1 150 15:19 05.05.2020
3679 Clear 21 1013 100 10000 1 180 14:42 05.05.2020
3680 Clear 21 1013 100 10000 1 180 14:42 05.05.2020
3681 Clear 21 1013 100 10000 1 180 14:24 05.05.2020
3682 Clear 21 1013 100 10000 1 170 13:58 05.05.2020
3683 Clear 21 1013 100 10000 0.5 190 13:40 05.05.2020
3684 Clear 21 1013 100 10000 0.5 190 13:21 05.05.2020
3685 Clear 22 1013 94 10000 1.5 190 12:59 05.05.2020
3686 Clear 21 1014 100 10000 1 180 12:39 05.05.2020
3687 Clear 21 1014 100 10000 1 180 12:20 05.05.2020
3688 Clear 22 1014 94 10000 1 190 11:57 05.05.2020
3689 Clear 22 1014 94 10000 0.5 130 11:36 05.05.2020
3690 Clear 22 1014 94 10000 0.5 190 11:18 05.05.2020
3691 Clear 22 1014 94 10000 0.5 190 11:18 05.05.2020
3692 Clear 22 1014 100 10000 2.15 147 10:39 05.05.2020
3693 Clouds 22 1014 100 10000 2.31 146 10:19 05.05.2020
3694 Clouds 23 1014 94 10000 1.5 190 09:59 05.05.2020
3695 Clouds 23 1014 94 10000 1.5 190 09:59 05.05.2020
3696 Clouds 23 1014 94 10000 1 190 09:40 05.05.2020
3697 Clouds 23 1014 94 10000 1 190 09:40 05.05.2020
3698 Rain 23 1014 94 10000 1 190 09:22 05.05.2020
3699 Rain 24 1013 88 10000 1.5 190 08:41 05.05.2020
3700 Clear 24 1013 88 10000 1.5 190 08:20 05.05.2020
3701 Clear 24 1013 88 10000 1 160 07:58 05.05.2020
3702 Clear 24 1012 88 10000 0.5 170 07:38 05.05.2020
3703 Clear 24 1012 88 10000 0.5 170 07:19 05.05.2020
3704 Clear 25 1012 83 10000 1.5 210 06:49 05.05.2020
3705 Clear 26 1012 78 10000 2.1 210 06:21 05.05.2020
3706 Clear 27 1012 78 10000 2.6 230 05:37 05.05.2020
3707 Clear 27 1012 78 10000 2.6 250 03:35 05.05.2020
3708 Clear 27 1013 83 10000 2.6 270 01:42 05.05.2020
3709 Clear 27 1013 78 10000 2.6 260 00:52 05.05.2020
3710 Clear 27 1014 83 10000 2.1 260 00:21 05.05.2020
3711 Clear 27 1014 83 10000 1.5 290 23:45 04.05.2020
3712 Clear 27 1014 83 10000 1.5 290 23:21 04.05.2020
3713 Clear 27 1015 78 10000 1.5 260 22:56 04.05.2020
3714 Clear 27 1014 83 10000 1 340 22:38 04.05.2020
3715 Clear 27 1014 83 10000 1 340 22:19 04.05.2020
3716 Clear 27 1014 83 10000 0.5 80 21:53 04.05.2020
3717 Clear 27 1014 83 10000 0.5 80 21:53 04.05.2020
3718 Clear 27 1014 83 10000 0.5 80 21:53 04.05.2020
3719 Clear 27 1014 83 10000 0.5 80 21:53 04.05.2020
3720 Clear 27 1014 83 10000 0.5 80 21:53 04.05.2020
3721 Clear 26 1014 88 10000 1 70 21:30 04.05.2020
3722 Clear 26 1014 88 10000 1 70 21:30 04.05.2020
3723 Clear 22 1014 100 10000 0.5 80 20:44 04.05.2020
3724 Clear 22 1014 100 10000 0.5 80 20:23 04.05.2020
3725 Clear 21 1013 100 10000 1 160 19:59 04.05.2020
3726 Clear 21 1013 100 10000 1 180 19:40 04.05.2020
3727 Clear 21 1013 100 10000 1 180 19:20 04.05.2020
3728 Clear 21 1013 100 10000 1 180 18:55 04.05.2020
3729 Clear 21 1013 100 10000 1 180 18:55 04.05.2020
3730 Clear 20 1013 100 6000 0.5 190 18:37 04.05.2020
3731 Mist 20 1012 100 5000 0.5 170 18:18 04.05.2020
3732 Mist 20 1012 100 5000 0.5 170 17:55 04.05.2020
3733 Mist 20 1012 100 5000 0.5 170 17:55 04.05.2020
3734 Clear 21 1012 100 10000 1 170 17:36 04.05.2020
3735 Clear 20 1012 100 10000 1 190 17:18 04.05.2020
3736 Clear 20 1012 100 9000 1 180 16:42 04.05.2020
3737 Clear 20 1012 100 9000 1 180 16:21 04.05.2020
3738 Clear 21 1012 100 10000 1 180 15:46 04.05.2020
3739 Clear 21 1012 100 10000 1 180 15:46 04.05.2020
3740 Clear 21 1012 100 10000 1 180 15:25 04.05.2020
3741 Clear 21 1012 100 10000 1 180 14:56 04.05.2020
3742 Clear 21 1012 100 10000 1 180 14:56 04.05.2020
3743 Clear 21 1013 100 10000 1 180 14:38 04.05.2020
3744 Clear 21 1013 100 10000 1 180 14:38 04.05.2020
3745 Clear 21 1013 100 10000 1 180 14:38 04.05.2020
3746 Clear 21 1013 100 10000 1 180 14:38 04.05.2020
3747 Clear 21 1013 100 10000 1 180 14:38 04.05.2020
3748 Clear 21 1013 100 10000 1 190 13:42 04.05.2020
3749 Clear 22 1014 94 10000 0.5 170 12:46 04.05.2020
3750 Clear 22 1014 94 10000 0.5 170 12:46 04.05.2020
3751 Clear 22 1014 94 10000 0.5 160 12:00 04.05.2020
3752 Clear 24 1013 88 10000 1.5 190 09:32 04.05.2020
3753 Clear 24 1013 88 10000 1.5 210 08:50 04.05.2020
3754 Clear 24 1013 88 10000 1.5 200 08:43 04.05.2020
3755 Clear 24 1013 88 10000 1.5 200 08:43 04.05.2020
3756 Clear 24 1013 88 10000 1.5 200 08:43 04.05.2020
3757 Clear 24 1013 88 10000 1.5 200 08:43 04.05.2020
3758 Rain 25 1012 83 10000 2.1 210 07:43 04.05.2020
3759 Rain 25 1011 83 10000 2.1 210 06:43 04.05.2020
3760 Rain 25 1011 83 10000 2.1 210 06:43 04.05.2020
3761 Rain 25 1011 83 10000 2.1 210 06:38 04.05.2020
3762 Rain 25 1011 83 10000 2.1 210 06:37 04.05.2020
3763 Rain 27 1011 74 10000 3.1 230 04:55 04.05.2020
3764 Clouds 27 1011 74 10000 4.1 260 03:18 04.05.2020
3765 Clouds 27 1011 74 10000 4.1 260 03:18 04.05.2020
3766 Clouds 27 1012 74 10000 3.1 250 02:30 04.05.2020
3767 Rain 26 1013 78 10000 4.1 260 00:36 04.05.2020
3768 Rain 25 1014 83 10000 3.6 290 23:45 03.05.2020
3769 Rain 25 1014 83 10000 3.6 290 23:24 03.05.2020
3770 Rain 24 1014 88 10000 1.5 240 22:56 03.05.2020
3771 Rain 23 1014 94 10000 1.5 240 22:38 03.05.2020
3772 Rain 23 1014 94 10000 1.5 240 22:18 03.05.2020
3773 Rain 22 1014 94 10000 0.5 300 21:41 03.05.2020
3774 Rain 22 1014 94 10000 0.5 300 21:20 03.05.2020
3775 Rain 23 1012 94 10000 6.7 50 20:47 03.05.2020
3776 Rain 23 1012 94 10000 6.7 50 20:23 03.05.2020
3777 Rain 22 1011 94 10000 6.7 80 19:55 03.05.2020
3778 Rain 22 1011 94 10000 6.7 80 19:55 03.05.2020
3779 Rain 22 1011 94 10000 6.7 80 19:55 03.05.2020
3780 Rain 22 1013 100 10000 3.6 100 19:36 03.05.2020
3781 Rain 22 1013 100 10000 3.6 100 19:36 03.05.2020
3782 Rain 22 1013 100 10000 3.6 100 19:18 03.05.2020
3783 Rain 22 1013 100 10000 2.1 90 18:39 03.05.2020
3784 Rain 22 1013 100 10000 2.1 90 18:39 03.05.2020
3785 Rain 22 1013 100 10000 2.1 90 18:39 03.05.2020
3786 Rain 22 1013 100 10000 2.1 90 18:19 03.05.2020
3787 Rain 21 1013 100 10000 1 80 17:42 03.05.2020
3788 Rain 21 1013 100 10000 1 80 17:22 03.05.2020
3789 Rain 21 1013 100 10000 1 80 17:22 03.05.2020
3790 Rain 21 1013 100 10000 1 80 17:22 03.05.2020
3791 Rain 21 1013 100 10000 1 90 16:54 03.05.2020
3792 Rain 21 1013 100 10000 1.5 120 16:36 03.05.2020
3793 Rain 21 1013 100 3900 1 70 16:18 03.05.2020
3794 Rain 21 1013 100 3900 1 70 15:55 03.05.2020
3795 Rain 21 1013 100 7000 1 160 15:36 03.05.2020
3796 Rain 21 1013 100 7000 1 160 15:36 03.05.2020
3797 Rain 21 1013 100 7000 1 160 15:36 03.05.2020
3798 Rain 21 1013 100 7000 1 160 15:18 03.05.2020
3799 Rain 20 1015 100 1100 9.8 250 14:41 03.05.2020
3800 Rain 20 1015 100 1100 9.8 250 14:22 03.05.2020
3801 Rain 26 1012 88 10000 8.2 40 13:56 03.05.2020
3802 Rain 26 1012 88 10000 8.2 40 13:56 03.05.2020
3803 Rain 26 1013 88 10000 7.7 50 13:32 03.05.2020
3804 Rain 26 1013 88 10000 7.7 50 13:32 03.05.2020
3805 Rain 26 1013 88 10000 7.7 50 13:32 03.05.2020
3806 Rain 26 1013 88 10000 7.7 50 13:32 03.05.2020
3807 Rain 25 1013 94 4800 8.7 50 12:45 03.05.2020
3808 Rain 25 1013 94 4800 8.7 50 12:19 03.05.2020
3809 Rain 26 1014 88 10000 7.7 60 11:57 03.05.2020
3810 Rain 26 1014 88 10000 7.7 60 11:57 03.05.2020
3811 Rain 26 1014 88 10000 7.7 60 11:57 03.05.2020
3812 Rain 26 1014 88 10000 7.7 60 11:39 03.05.2020
3813 Rain 26 1014 88 10000 7.7 60 11:39 03.05.2020
3814 Rain 26 1014 88 10000 7.7 60 11:19 03.05.2020
3815 Rain 26 1014 88 10000 7.7 60 11:19 03.05.2020
3816 Rain 26 1014 83 10000 7.2 60 10:47 03.05.2020
3817 Rain 26 1014 88 10000 7.2 60 09:58 03.05.2020
3818 Rain 26 1014 88 10000 7.2 60 09:38 03.05.2020
3819 Rain 24 1014 94 10000 5.1 80 08:56 03.05.2020
3820 Rain 23 1014 100 8000 5.7 90 08:27 03.05.2020
3821 Rain 25 1013 88 10000 6.2 70 07:40 03.05.2020
3822 Rain 26 1012 83 10000 7.7 60 06:27 03.05.2020
3823 Rain 26 1012 83 10000 7.7 60 06:27 03.05.2020
3824 Rain 26 1012 83 10000 7.7 60 06:27 03.05.2020
3825 Rain 26 1012 83 10000 7.7 60 06:27 03.05.2020
3826 Rain 26 1012 83 10000 7.7 60 06:27 03.05.2020
3827 Rain 26 1013 83 10000 6.7 60 05:49 03.05.2020
3828 Rain 26 1013 83 10000 6.7 60 05:49 03.05.2020
3829 Rain 26 1012 83 10000 8.7 70 04:56 03.05.2020
3830 Rain 26 1013 83 10000 6.7 70 04:27 03.05.2020
3831 Clouds 27 1012 78 10000 7.2 60 03:24 03.05.2020
3832 Clouds 27 1012 78 10000 7.2 60 03:24 03.05.2020
3833 Rain 26 1013 83 10000 7.2 60 02:24 03.05.2020
3834 Rain 26 1014 83 10000 7.7 60 01:45 03.05.2020
3835 Rain 26 1014 83 10000 7.7 60 01:27 03.05.2020
3836 Rain 26 1014 83 10000 7.7 70 00:55 03.05.2020
3837 Rain 25 1015 94 10000 4.1 90 00:37 03.05.2020
3838 Rain 25 1015 94 10000 4.1 90 00:18 03.05.2020
3839 Clouds 27 1015 83 10000 7.2 70 23:42 02.05.2020
3840 Clouds 27 1015 83 10000 7.2 70 23:24 02.05.2020
3841 Clouds 26 1015 83 10000 5.7 80 22:43 02.05.2020
3842 Clouds 26 1015 83 10000 5.7 80 22:43 02.05.2020
3843 Clouds 26 1015 83 10000 5.7 80 22:23 02.05.2020
3844 Clouds 25 1015 88 10000 5.1 80 21:56 02.05.2020
3845 Clouds 25 1014 83 10000 5.7 90 21:38 02.05.2020
3846 Rain 25 1014 83 10000 5.7 90 21:18 02.05.2020
3847 Rain 24 1014 88 10000 4.6 80 21:18 02.05.2020
3848 Rain 24 1014 88 10000 4.6 80 21:18 02.05.2020
3849 Rain 24 1014 88 10000 4.6 80 20:56 02.05.2020
3850 Rain 24 1014 88 10000 6.2 70 20:37 02.05.2020
3851 Rain 24 1014 88 10000 6.2 70 20:19 02.05.2020
3852 Rain 24 1014 88 10000 7.7 70 19:55 02.05.2020
3853 Rain 24 1013 88 10000 7.2 60 19:37 02.05.2020
3854 Rain 24 1013 88 10000 7.2 60 19:18 02.05.2020
3855 Rain 24 1013 88 10000 8.2 70 18:40 02.05.2020
3856 Rain 24 1013 88 10000 8.2 70 18:22 02.05.2020
3857 Rain 24 1012 88 10000 9.3 70 17:57 02.05.2020
3858 Rain 23 1012 94 10000 7.2 80 17:39 02.05.2020
3859 Rain 23 1012 94 10000 7.2 80 17:20 02.05.2020
3860 Drizzle 23 1012 94 10000 6.7 80 16:57 02.05.2020
3861 Rain 23 1012 94 10000 8.2 80 16:38 02.05.2020
3862 Rain 23 1012 94 10000 8.2 80 16:20 02.05.2020
3863 Rain 23 1012 94 10000 6.7 80 15:42 02.05.2020
3864 Rain 23 1012 94 10000 6.7 80 15:20 02.05.2020
3865 Rain 23 1012 94 10000 5.7 90 14:45 02.05.2020
3866 Rain 23 1012 94 10000 5.7 90 14:27 02.05.2020
3867 Rain 23 1013 94 10000 7.7 80 13:59 02.05.2020
3868 Rain 23 1013 94 10000 9.8 80 13:39 02.05.2020
3869 Rain 23 1013 94 10000 9.8 80 13:19 02.05.2020
3870 Rain 23 1013 94 10000 7.7 90 12:42 02.05.2020
3871 Rain 23 1013 94 10000 7.7 90 12:23 02.05.2020
3872 Rain 23 1014 94 10000 5.7 90 11:58 02.05.2020
3873 Rain 23 1015 94 10000 2.6 100 11:39 02.05.2020
3874 Rain 23 1015 94 10000 2.6 100 11:21 02.05.2020
3875 Rain 23 1015 88 10000 6.2 90 10:54 02.05.2020
3876 Rain 23 1015 88 10000 2.6 100 10:36 02.05.2020
3877 Rain 23 1015 88 10000 3.6 110 10:18 02.05.2020
3878 Rain 23 1015 88 10000 3.6 110 10:18 02.05.2020
3879 Rain 23 1015 88 10000 3.6 110 09:54 02.05.2020
3880 Rain 23 1014 88 10000 6.2 90 09:36 02.05.2020
3881 Rain 23 1014 88 10000 6.2 90 09:18 02.05.2020
3882 Rain 22 1014 88 10000 8.7 90 08:41 02.05.2020
3883 Rain 22 1014 88 10000 8.7 90 08:22 02.05.2020
3884 Rain 22 1013 88 10000 7.7 100 07:46 02.05.2020
3885 Rain 22 1013 88 10000 7.7 100 07:27 02.05.2020
3886 Rain 22 1013 88 10000 7.7 100 07:27 02.05.2020
3887 Rain 22 1013 88 10000 3.1 90 06:43 02.05.2020
3888 Mist 21 1013 100 4200 2.1 120 05:28 02.05.2020
3889 Rain 22 1013 88 8000 3.1 100 04:31 02.05.2020
3890 Rain 22 1013 88 10000 4.1 110 03:56 02.05.2020
3891 Rain 23 1013 78 10000 5.1 120 02:42 02.05.2020
3892 Rain 23 1013 73 10000 3.1 100 01:58 02.05.2020
3893 Rain 23 1014 69 10000 4.6 100 01:27 02.05.2020
3894 Rain 23 1015 78 10000 3.6 120 00:43 02.05.2020
3895 Rain 23 1015 78 10000 3.6 120 00:22 02.05.2020
3896 Rain 23 1015 78 10000 3.1 110 23:55 01.05.2020
3897 Rain 23 1016 78 10000 3.6 110 23:37 01.05.2020
3898 Clouds 23 1016 78 10000 3.6 110 23:18 01.05.2020
3899 Rain 23 1016 83 10000 4.6 120 22:39 01.05.2020
3900 Rain 23 1016 83 10000 4.6 120 22:20 01.05.2020
3901 Rain 22 1016 88 10000 3.6 130 21:57 01.05.2020
3902 Rain 23 1015 83 10000 3.6 130 21:39 01.05.2020
3903 Rain 23 1015 83 10000 3.6 130 21:20 01.05.2020
3904 Rain 22 1015 83 10000 3.1 130 20:57 01.05.2020
3905 Rain 22 1015 83 10000 2.6 110 20:39 01.05.2020
3906 Rain 22 1015 83 10000 2.6 110 20:19 01.05.2020
3907 Rain 22 1015 83 10000 1.5 120 19:55 01.05.2020
3908 Rain 22 1014 83 10000 3.6 100 19:37 01.05.2020
3909 Rain 22 1014 83 10000 3.6 100 19:19 01.05.2020
3910 Rain 22 1014 83 10000 4.1 100 18:55 01.05.2020
3911 Rain 21 1014 88 9000 3.1 120 18:36 01.05.2020
3912 Rain 21 1014 88 9000 3.1 120 18:18 01.05.2020
3913 Rain 23 1014 78 9000 4.6 80 17:40 01.05.2020
3914 Rain 23 1014 78 9000 4.6 80 17:21 01.05.2020
3915 Clouds 24 1013 73 10000 1.5 130 16:57 01.05.2020
3916 Clouds 24 1013 69 10000 3.1 110 16:38 01.05.2020
3917 Clouds 24 1013 69 10000 3.1 110 16:20 01.05.2020
3918 Clouds 24 1014 69 10000 2.6 130 15:56 01.05.2020
3919 Rain 23 1014 78 10000 2.1 120 15:38 01.05.2020
3920 Rain 23 1014 78 10000 2.1 120 15:18 01.05.2020
3921 Rain 24 1014 73 10000 2.1 120 14:42 01.05.2020
3922 Rain 24 1014 73 10000 2.1 120 14:23 01.05.2020
3923 Clouds 25 1015 65 10000 3.6 100 13:42 01.05.2020
3924 Rain 25 1015 65 10000 3.6 100 13:23 01.05.2020
3925 Rain 25 1015 65 10000 4.6 100 12:58 01.05.2020
3926 Rain 25 1015 61 10000 3.1 110 12:40 01.05.2020
3927 Clouds 25 1015 61 10000 3.1 110 12:20 01.05.2020
3928 Clouds 25 1015 61 10000 2.6 110 11:59 01.05.2020
3929 Clouds 25 1015 65 10000 3.1 100 11:40 01.05.2020
3930 Clouds 25 1015 65 10000 3.1 100 11:19 01.05.2020
3931 Clouds 25 1016 61 10000 2.6 140 10:41 01.05.2020
3932 Clouds 25 1016 61 10000 2.6 140 10:20 01.05.2020
3933 Clouds 25 1015 65 10000 2.6 90 09:59 01.05.2020
3934 Clouds 25 1015 61 10000 3.6 100 09:41 01.05.2020
3935 Rain 25 1014 65 10000 3.6 110 09:19 01.05.2020
3936 Rain 24 1014 69 10000 3.6 120 08:46 01.05.2020
3937 Rain 24 1014 69 10000 3.6 120 08:28 01.05.2020
3938 Rain 25 1014 65 10000 3.6 110 07:56 01.05.2020
3939 Rain 24 1013 69 10000 4.6 110 07:37 01.05.2020
3940 Clouds 24 1013 69 10000 4.1 110 06:58 01.05.2020
3941 Clouds 25 1013 65 10000 3.6 110 05:48 01.05.2020
3942 Clouds 25 1013 65 10000 4.1 100 05:20 01.05.2020
3943 Clouds 25 1012 65 10000 2.6 120 03:42 01.05.2020
3944 Clouds 26 1013 61 10000 3.6 120 02:50 01.05.2020
3945 Clouds 25 1013 69 10000 4.6 110 02:32 01.05.2020
3946 Clouds 26 1013 61 10000 4.6 120 01:42 01.05.2020
3947 Clouds 26 1013 61 10000 4.6 120 01:24 01.05.2020
3948 Clouds 26 1014 61 10000 3.1 120 00:39 01.05.2020
3949 Clouds 26 1014 61 10000 3.1 120 00:20 01.05.2020
3950 Clouds 26 1014 65 10000 3.1 110 23:57 30.04.2020
3951 Clouds 25 1015 69 10000 3.1 140 23:38 30.04.2020
3952 Clouds 25 1015 69 10000 3.1 140 23:19 30.04.2020
3953 Clouds 25 1015 69 10000 4.1 110 22:42 30.04.2020
3954 Clouds 25 1015 69 10000 4.1 110 22:21 30.04.2020
3955 Haze 25 1014 69 2300 4.1 130 21:58 30.04.2020
3956 Clouds 25 1014 65 9000 3.6 120 21:39 30.04.2020
3957 Clouds 25 1014 65 9000 3.6 120 21:20 30.04.2020
3958 Clouds 25 1014 65 10000 3.6 100 20:55 30.04.2020
3959 Clouds 24 1014 73 10000 2.1 110 20:37 30.04.2020
3960 Clouds 24 1014 73 10000 2.1 110 20:18 30.04.2020
3961 Clouds 24 1013 69 10000 1.5 100 19:43 30.04.2020
3962 Clouds 24 1013 69 10000 1.5 100 19:24 30.04.2020
3963 Clouds 23 1013 73 10000 2.1 90 18:56 30.04.2020
3964 Clouds 24 1013 69 10000 2.1 120 18:37 30.04.2020
3965 Clouds 24 1013 69 10000 2.1 120 18:19 30.04.2020
3966 Clouds 24 1013 64 10000 1 60 17:56 30.04.2020
3967 Clouds 24 1013 69 10000 1 110 17:38 30.04.2020
3968 Clouds 24 1012 69 10000 3.1 110 17:19 30.04.2020
3969 Clouds 24 1012 69 10000 3.1 110 16:54 30.04.2020
3970 Clouds 24 1012 69 10000 2.6 110 16:36 30.04.2020
3971 Clouds 24 1012 69 10000 2.6 110 16:36 30.04.2020
3972 Clouds 24 1012 69 10000 2.6 110 16:18 30.04.2020
3973 Clouds 24 1013 69 10000 2.6 140 15:43 30.04.2020
3974 Clear 24 1013 69 10000 2.6 140 15:21 30.04.2020
3975 Clear 25 1013 65 10000 4.1 140 14:42 30.04.2020
3976 Clouds 25 1013 65 10000 4.1 140 14:22 30.04.2020
3977 Clouds 25 1013 69 10000 3.6 130 13:58 30.04.2020
3978 Clouds 25 1013 69 10000 3.1 130 13:40 30.04.2020
3979 Clouds 25 1013 69 10000 3.1 130 13:21 30.04.2020
3980 Clouds 25 1013 69 10000 3.6 130 12:58 30.04.2020
3981 Clouds 25 1014 69 10000 3.1 120 12:39 30.04.2020
3982 Clouds 25 1014 69 10000 3.1 120 12:18 30.04.2020
3983 Clouds 25 1013 69 10000 5.7 100 11:38 30.04.2020
3984 Clouds 25 1013 69 10000 5.7 100 11:19 30.04.2020
3985 Clouds 25 1013 69 10000 5.7 100 11:19 30.04.2020
3986 Clouds 25 1013 69 10000 4.1 130 10:56 30.04.2020
3987 Clouds 25 1013 69 10000 3.6 130 10:38 30.04.2020
3988 Clouds 25 1013 69 10000 3.6 130 10:18 30.04.2020
3989 Clouds 25 1013 73 10000 3.6 130 09:44 30.04.2020
3990 Clouds 25 1013 73 10000 3.6 130 09:23 30.04.2020
3991 Clouds 25 1013 73 10000 3.6 130 08:54 30.04.2020
3992 Clouds 25 1013 69 10000 3.6 130 08:36 30.04.2020
3993 Clouds 25 1013 69 10000 3.6 130 08:18 30.04.2020
3994 Clouds 25 1012 73 10000 2.6 110 07:42 30.04.2020
3995 Clouds 25 1012 73 10000 2.6 110 07:23 30.04.2020
3996 Clouds 25 1012 73 10000 3.6 130 06:40 30.04.2020
3997 Clouds 25 1012 73 10000 3.1 120 05:49 30.04.2020
3998 Clouds 25 1012 73 10000 3.1 120 05:27 30.04.2020
3999 Clouds 26 1012 69 10000 2.1 140 04:30 30.04.2020
4000 Clouds 26 1012 69 10000 3.1 120 02:59 30.04.2020
4001 Clouds 26 1012 69 10000 3.1 120 02:29 30.04.2020
4002 Clouds 26 1012 74 10000 3.6 110 01:56 30.04.2020
4003 Clouds 26 1013 74 10000 3.6 120 01:20 30.04.2020
4004 Clouds 26 1013 74 10000 3.6 110 00:37 30.04.2020
4005 Clouds 26 1013 74 10000 3.6 110 00:18 30.04.2020
4006 Clouds 26 1014 69 10000 3.1 110 23:42 29.04.2020
4007 Clear 26 1014 69 10000 3.1 110 23:24 29.04.2020
4008 Clear 27 1014 69 10000 3.1 110 22:59 29.04.2020
4009 Clear 26 1014 74 10000 3.1 100 22:39 29.04.2020
4010 Clear 26 1014 74 10000 3.1 100 22:20 29.04.2020
4011 Rain 24 1014 83 7000 3.1 80 21:39 29.04.2020
4012 Rain 24 1014 83 7000 3.1 80 21:21 29.04.2020
4013 Rain 24 1014 83 10000 2.1 110 20:59 29.04.2020
4014 Rain 24 1013 83 10000 3.6 120 20:40 29.04.2020
4015 Rain 24 1013 83 10000 3.6 120 20:19 29.04.2020
4016 Rain 24 1013 83 10000 3.1 120 19:57 29.04.2020
4017 Clouds 25 1012 73 10000 3.6 120 19:39 29.04.2020
4018 Clouds 25 1012 73 10000 3.6 120 19:18 29.04.2020
4019 Clouds 25 1012 73 10000 3.6 120 18:42 29.04.2020
4020 Clouds 25 1012 73 10000 3.6 120 18:20 29.04.2020
4021 Clouds 24 1012 83 10000 4.1 120 17:56 29.04.2020
4022 Clouds 25 1012 73 10000 3.6 120 17:37 29.04.2020
4023 Clear 25 1012 73 10000 3.6 120 17:18 29.04.2020
4024 Clear 25 1012 73 10000 2.6 120 16:37 29.04.2020
4025 Clear 25 1012 73 10000 2.6 120 16:19 29.04.2020
4026 Clear 24 1012 78 10000 2.1 100 15:57 29.04.2020
4027 Clear 24 1012 83 10000 0.5 70 15:38 29.04.2020
4028 Clear 24 1012 83 10000 0.5 70 15:20 29.04.2020
4029 Drizzle 24 1013 83 10000 3.1 140 14:45 29.04.2020
4030 Drizzle 24 1013 83 10000 3.1 140 14:26 29.04.2020
4031 Clouds 25 1013 78 10000 3.1 140 13:58 29.04.2020
4032 Clouds 25 1013 78 10000 2.1 140 13:40 29.04.2020
4033 Clouds 25 1013 78 10000 2.1 140 13:20 29.04.2020
4034 Clouds 25 1013 83 10000 3.1 120 12:56 29.04.2020
4035 Clouds 24 1013 83 10000 3.6 130 12:37 29.04.2020
4036 Clouds 24 1013 83 10000 3.6 130 12:18 29.04.2020
4037 Clouds 24 1013 88 10000 2.6 110 11:39 29.04.2020
4038 Clouds 24 1013 88 10000 2.6 110 11:20 29.04.2020
4039 Clouds 24 1013 88 10000 2.6 110 11:20 29.04.2020
4040 Clouds 24 1013 88 10000 2.6 110 11:20 29.04.2020
4041 Clouds 25 1013 83 10000 3.6 130 10:54 29.04.2020
4042 Clouds 25 1013 83 10000 2.6 140 10:36 29.04.2020
4043 Clouds 24 1013 88 10000 2.1 120 10:18 29.04.2020
4044 Rain 24 1013 88 10000 2.6 120 09:41 29.04.2020
4045 Rain 24 1013 88 10000 2.6 120 09:41 29.04.2020
4046 Rain 25 1013 83 10000 2.6 140 09:21 29.04.2020
4047 Rain 25 1013 88 10000 3.1 150 08:44 29.04.2020
4048 Rain 25 1013 88 10000 3.1 150 08:26 29.04.2020
4049 Rain 24 1013 94 10000 2.1 120 07:55 29.04.2020
4050 Rain 25 1013 88 10000 1.5 140 07:29 29.04.2020
4051 Clouds 25 1012 88 10000 2.6 90 06:53 29.04.2020
4052 Rain 26 1012 83 10000 3.1 130 06:32 29.04.2020
4053 Clouds 26 1012 83 10000 2.6 130 05:50 29.04.2020
4054 Clouds 26 1012 83 10000 1.5 110 05:19 29.04.2020
4055 Clouds 27 1011 78 10000 3.6 160 04:20 29.04.2020
4056 Clouds 28 1011 74 10000 4.1 130 03:28 29.04.2020
4057 Clouds 27 1012 74 10000 2.6 130 01:56 29.04.2020
4058 Clouds 27 1012 78 10000 3.6 160 01:28 29.04.2020
4059 Clouds 27 1012 78 10000 3.6 140 00:56 29.04.2020
4060 Clouds 28 1013 74 10000 3.1 160 00:37 29.04.2020
4061 Clouds 28 1013 74 10000 3.1 160 00:18 29.04.2020
4062 Clouds 29 1013 70 10000 2.1 30 23:43 28.04.2020
4063 Clouds 29 1013 70 10000 2.1 30 23:43 28.04.2020
4064 Clouds 29 1013 70 10000 2.1 30 23:20 28.04.2020
4065 Clouds 28 1013 74 10000 2.6 180 22:39 28.04.2020
4066 Clouds 28 1013 74 10000 2.6 180 22:20 28.04.2020
4067 Clouds 27 1013 78 10000 2.1 190 21:59 28.04.2020
4068 Clouds 27 1013 78 10000 1.5 200 21:40 28.04.2020
4069 Clouds 27 1013 78 10000 1.5 200 21:40 28.04.2020
4070 Clouds 27 1013 78 10000 1.5 200 21:22 28.04.2020
4071 Clouds 26 1013 88 10000 0.5 190 20:58 28.04.2020
4072 Clouds 24 1012 100 10000 0.5 220 20:40 28.04.2020
4073 Clouds 24 1012 100 10000 0.5 220 20:20 28.04.2020
4074 Clouds 23 1012 100 10000 1 190 19:56 28.04.2020
4075 Clouds 23 1012 100 10000 1 170 19:37 28.04.2020
4076 Clouds 23 1012 100 10000 1 170 19:19 28.04.2020
4077 Clouds 23 1012 100 10000 1 200 18:41 28.04.2020
4078 Clouds 23 1012 100 10000 1 200 18:20 28.04.2020
4079 Clouds 23 1012 100 10000 1 200 18:20 28.04.2020
4080 Clouds 23 1012 100 10000 1.5 60 17:59 28.04.2020
4081 Clouds 24 1012 94 10000 1 200 17:37 28.04.2020
4082 Clouds 24 1012 94 10000 1.5 200 17:18 28.04.2020
4083 Clouds 24 1012 94 10000 1.5 200 16:45 28.04.2020
4084 Clouds 24 1012 94 10000 1.5 200 16:24 28.04.2020
4085 Clouds 24 1012 94 10000 1 190 15:59 28.04.2020
4086 Clouds 24 1012 94 10000 1 190 15:59 28.04.2020
4087 -273 0 0 0 0 0 15:59 28.04.2020
4088 Clouds 24 1012 94 10000 1 140 15:40 28.04.2020
4089 Clouds 24 1012 94 10000 1 140 15:21 28.04.2020
4090 Clouds 24 1012 94 10000 1 140 15:21 28.04.2020
4091 Clouds 24 1012 94 10000 1.5 180 14:59 28.04.2020
4092 Clouds 24 1012 94 10000 1 180 14:41 28.04.2020
4093 Clouds 24 1012 94 10000 1 180 14:21 28.04.2020
4094 Clouds 24 1012 94 10000 1 180 13:58 28.04.2020
4095 Clouds 24 1012 94 10000 1 150 13:38 28.04.2020
4096 Clouds 24 1012 94 10000 1 150 13:20 28.04.2020
4097 Clouds 24 1013 94 10000 1 200 12:47 28.04.2020
4098 Clouds 24 1013 94 10000 1 200 12:27 28.04.2020
4099 Clouds 24 1013 94 10000 0.5 180 11:59 28.04.2020
4100 Clouds 24 1012 94 10000 0.5 170 11:39 28.04.2020
4101 Clouds 24 1012 94 10000 0.5 170 11:20 28.04.2020
4102 Clouds 25 1013 88 10000 1 160 10:39 28.04.2020
4103 Clouds 25 1013 88 10000 1 160 10:19 28.04.2020
4104 Clouds 25 1013 88 10000 1 110 09:59 28.04.2020
4105 Clouds 26 1012 88 10000 1.5 140 09:40 28.04.2020
4106 Clouds 26 1012 88 10000 1.5 140 09:21 28.04.2020
4107 Clouds 25 1012 94 10000 3.6 80 08:46 28.04.2020
4108 Clouds 25 1012 94 10000 3.6 80 08:27 28.04.2020
4109 Clouds 25 1012 94 10000 1.5 60 07:46 28.04.2020
4110 Clouds 25 1012 94 10000 1.5 60 07:21 28.04.2020
4111 Clouds 26 1011 83 10000 1 90 06:55 28.04.2020
4112 Rain 26 1011 83 10000 4.74 157 06:22 28.04.2020
4113 Rain 27 1012 78 10000 1.5 130 05:43 28.04.2020
4114 Rain 27 1012 78 10000 1.5 130 05:25 28.04.2020
4115 Rain 27 1012 83 10000 2.1 30 04:27 28.04.2020
4116 Rain 28 1012 78 10000 2.1 330 02:34 28.04.2020
4117 Clouds 28 1012 78 10000 1.5 240 01:23 28.04.2020
4118 Clouds 27 1012 88 10000 3.1 70 00:56 28.04.2020
4119 Clouds 27 1012 88 10000 3.1 50 00:23 28.04.2020
4120 Clouds 28 1013 83 10000 3.1 60 23:47 27.04.2020
4121 Clouds 27 1013 88 10000 4.1 70 23:24 27.04.2020
4122 Clouds 27 1013 83 10000 2.6 50 22:55 27.04.2020
4123 Clouds 27 1013 78 10000 1 300 22:37 27.04.2020
4124 Clouds 27 1013 78 10000 1 300 22:19 27.04.2020
4125 Clouds 26 1014 83 10000 0.5 260 21:56 27.04.2020
4126 Clouds 25 1013 94 10000 0.5 360 21:38 27.04.2020
4127 Clouds 25 1013 94 10000 0.5 360 21:18 27.04.2020
4128 Clouds 23 1013 100 10000 0.5 150 20:43 27.04.2020
4129 Clouds 23 1013 100 10000 0.5 150 20:22 27.04.2020
4130 Clouds 23 1013 100 10000 0.5 160 19:58 27.04.2020
4131 Clouds 23 1013 100 10000 1 200 19:39 27.04.2020
4132 Clouds 23 1013 100 10000 1 200 19:20 27.04.2020
4133 Clouds 23 1012 100 10000 0.5 100 18:56 27.04.2020
4134 Clouds 23 1012 100 10000 1 150 18:38 27.04.2020
4135 Clouds 23 1012 100 10000 1 150 18:19 27.04.2020
4136 Clouds 23 1012 100 10000 1 90 17:43 27.04.2020
4137 Clouds 23 1012 100 10000 1 90 17:21 27.04.2020
4138 Clouds 23 1012 100 10000 1.5 190 16:57 27.04.2020
4139 Clouds 23 1012 100 10000 0.5 130 16:38 27.04.2020
4140 Clouds 23 1012 100 10000 0.5 130 16:20 27.04.2020
4141 Clouds 24 1012 94 10000 2.1 100 15:56 27.04.2020
4142 Clouds 24 1012 100 10000 3.1 90 15:37 27.04.2020
4143 Clouds 24 1013 100 10000 3.1 90 15:18 27.04.2020
4144 Mist 25 1013 94 3200 1 130 14:42 27.04.2020
4145 Mist 25 1013 94 3200 1 130 14:22 27.04.2020
4146 Rain 26 1012 88 10000 1 90 13:58 27.04.2020
4147 Clouds 25 1012 94 10000 1 100 13:39 27.04.2020
4148 Clouds 25 1012 88 10000 1.5 100 13:19 27.04.2020
4149 Clouds 24 1012 94 10000 1.5 80 12:43 27.04.2020
4150 Clouds 24 1012 94 10000 1.5 80 12:23 27.04.2020
4151 Clouds 24 1012 94 10000 2.1 90 11:59 27.04.2020
4152 Clouds 25 1013 94 10000 1.5 110 11:40 27.04.2020
4153 Clouds 25 1013 94 10000 1.5 110 11:19 27.04.2020
4154 Clouds 25 1013 88 10000 1.5 110 10:54 27.04.2020
4155 Clouds 24 1013 94 10000 1 110 10:36 27.04.2020
4156 Clouds 24 1013 94 10000 0.5 90 10:18 27.04.2020
4157 Clouds 25 1013 88 10000 1.5 110 09:42 27.04.2020
4158 Clouds 25 1013 88 10000 1.5 110 09:18 27.04.2020
4159 Clouds 25 1012 88 10000 1.5 110 08:53 27.04.2020
4160 Clouds 25 1012 88 10000 1 120 08:33 27.04.2020
4161 Clouds 25 1012 88 10000 1 100 07:46 27.04.2020
4162 Clouds 25 1012 88 10000 1 100 07:27 27.04.2020
4163 Clouds 26 1012 83 10000 1.5 90 06:59 27.04.2020
4164 Clouds 27 1012 78 10000 2.6 90 06:37 27.04.2020
4165 Clouds 27 1012 78 10000 2.6 90 06:18 27.04.2020
4166 Clouds 28 1011 74 10000 3.6 70 05:21 27.04.2020
4167 Clouds 28 1011 74 10000 3.6 50 04:39 27.04.2020
4168 Clouds 28 1011 74 10000 3.1 40 03:47 27.04.2020
4169 Clouds 28 1012 74 10000 2.6 30 02:32 27.04.2020
4170 Clouds 28 1012 74 10000 2.1 40 01:20 27.04.2020
4171 Clouds 28 1013 74 10000 3.1 50 00:40 27.04.2020
4172 Clouds 28 1013 74 10000 3.1 50 00:40 27.04.2020
4173 Clouds 28 1013 74 10000 3.1 50 00:18 27.04.2020
4174 Clouds 28 1014 74 10000 2.6 40 23:55 26.04.2020
4175 Clouds 28 1014 74 10000 3.1 50 23:36 26.04.2020
4176 Clouds 28 1014 74 10000 3.1 50 23:36 26.04.2020
4177 Clouds 28 1014 74 10000 3.1 50 23:18 26.04.2020
4178 Clouds 28 1014 74 10000 3.1 60 22:40 26.04.2020
4179 Clouds 28 1014 74 10000 3.1 60 22:21 26.04.2020
4180 Clouds 27 1014 78 10000 4.1 60 21:59 26.04.2020
4181 Clouds 27 1014 78 10000 4.1 60 21:59 26.04.2020
4182 Clouds 26 1013 83 10000 3.1 80 21:40 26.04.2020
4183 Clouds 26 1013 83 10000 3.1 80 21:19 26.04.2020
4184 Clouds 26 1013 83 10000 2.6 90 20:56 26.04.2020
4185 Clouds 24 1013 94 10000 1.5 90 20:37 26.04.2020
4186 Clouds 24 1013 94 10000 1.5 90 20:19 26.04.2020
4187 Clouds 24 1013 94 10000 1.5 90 20:19 26.04.2020
4188 Clouds 22 1013 100 10000 1.5 100 19:57 26.04.2020
4189 Clouds 22 1013 94 10000 1.5 100 19:36 26.04.2020
4190 Clouds 22 1013 94 10000 1.5 100 19:18 26.04.2020
4191 Clouds 22 1012 94 10000 1 100 18:43 26.04.2020
4192 Clouds 22 1012 94 10000 1 100 18:24 26.04.2020
4193 Clouds 22 1012 94 10000 1 100 18:24 26.04.2020
4194 Clouds 22 1012 94 10000 1.5 90 17:44 26.04.2020
4195 Clouds 22 1012 94 10000 1.5 90 17:23 26.04.2020
4196 Clouds 22 1012 94 10000 1 80 16:58 26.04.2020
4197 Clouds 22 1012 94 10000 1 110 16:39 26.04.2020
4198 Clouds 22 1012 94 10000 0.5 110 16:20 26.04.2020
4199 Clouds 22 1012 94 10000 0.5 110 15:57 26.04.2020
4200 Clouds 22 1012 94 10000 1 100 15:37 26.04.2020
4201 Clouds 22 1012 94 10000 1 100 15:18 26.04.2020
4202 Clouds 22 1013 94 10000 1.5 100 14:41 26.04.2020
4203 Clouds 22 1013 94 10000 1.5 100 14:19 26.04.2020
4204 Clouds 22 1013 94 10000 1.5 100 14:19 26.04.2020
4205 Clouds 22 1013 100 10000 0.5 100 13:59 26.04.2020
4206 Clouds 22 1013 100 10000 1 80 13:40 26.04.2020
4207 Clouds 22 1013 100 10000 1 80 13:22 26.04.2020
4208 Clouds 22 1013 100 10000 0.5 150 12:57 26.04.2020
4209 Clouds 22 1013 100 10000 0.5 90 12:39 26.04.2020
4210 Clear 22 1013 100 10000 0.5 90 12:20 26.04.2020
4211 Clear 22 1014 100 10000 0.5 130 11:54 26.04.2020
4212 Clear 22 1014 100 10000 1 190 11:36 26.04.2020
4213 Clear 22 1014 100 10000 1 190 11:18 26.04.2020
4214 Clear 23 1014 94 10000 1 190 10:42 26.04.2020
4215 Clear 23 1014 94 10000 1 190 10:24 26.04.2020
4216 Clear 23 1013 94 10000 1 180 09:58 26.04.2020
4217 Clear 23 1013 94 10000 1 180 09:38 26.04.2020
4218 Clouds 23 1013 94 10000 1 180 09:19 26.04.2020
4219 Clouds 24 1013 88 10000 0.5 190 08:41 26.04.2020
4220 Clouds 24 1013 88 10000 0.5 190 08:22 26.04.2020
4221 Clouds 24 1012 88 10000 1 100 07:48 26.04.2020
4222 Clouds 25 1012 83 10000 1.5 110 07:24 26.04.2020
4223 Clouds 27 1011 74 10000 2.1 40 06:47 26.04.2020
4224 Clouds 27 1011 74 10000 2.1 40 06:23 26.04.2020
4225 Clouds 27 1011 74 10000 2.1 40 05:49 26.04.2020
4226 Clouds 28 1011 69 10000 2.1 40 05:30 26.04.2020
4227 Clouds 28 1011 69 10000 2.6 30 04:37 26.04.2020
4228 Clouds 28 1011 69 10000 3.1 40 03:39 26.04.2020
4229 Clear 29 1012 66 10000 3.1 40 02:37 26.04.2020
4230 Clear 29 1012 66 10000 3.1 40 02:19 26.04.2020
4231 Clear 28 1012 69 10000 3.6 50 01:36 26.04.2020
4232 Clear 28 1012 74 10000 3.6 40 00:41 26.04.2020
4233 Clear 28 1012 74 10000 3.6 40 00:21 26.04.2020
4234 Clear 28 1013 74 10000 4.1 40 23:55 25.04.2020
4235 Clear 28 1013 74 10000 4.1 50 23:36 25.04.2020
4236 Clear 28 1013 74 10000 4.1 50 23:18 25.04.2020
4237 Clear 27 1014 78 10000 2.1 80 22:42 25.04.2020
4238 Clear 27 1014 78 10000 2.1 80 22:20 25.04.2020
4239 Clear 28 1014 74 10000 2.1 60 21:58 25.04.2020
4240 Clouds 27 1014 78 10000 2.6 70 21:38 25.04.2020
4241 Clouds 26 1013 83 10000 1 90 21:18 25.04.2020
4242 Clouds 24 1013 94 10000 1 90 20:43 25.04.2020
4243 Clouds 24 1013 94 10000 1 90 20:23 25.04.2020
4244 Clouds 22 1013 100 10000 0.5 100 19:59 25.04.2020
4245 Clouds 22 1012 100 10000 0.5 180 19:39 25.04.2020
4246 Clouds 22 1012 100 10000 0.5 180 19:20 25.04.2020
4247 Clouds 22 1012 100 10000 1.5 90 18:44 25.04.2020
4248 Clouds 22 1012 100 10000 1.5 90 18:22 25.04.2020
4249 Clouds 23 1012 94 10000 1.5 100 17:59 25.04.2020
4250 Clouds 23 1012 94 10000 1.5 100 17:40 25.04.2020
4251 Clouds 23 1012 94 10000 1.5 100 17:21 25.04.2020
4252 Clouds 23 1012 94 10000 1 80 16:59 25.04.2020
4253 Clouds 23 1012 94 10000 1 90 16:41 25.04.2020
4254 Clouds 23 1012 94 10000 1 90 16:21 25.04.2020
4255 Clouds 24 1012 88 10000 1.5 100 15:55 25.04.2020
4256 Clouds 24 1012 88 10000 2.1 90 15:36 25.04.2020
4257 Clouds 24 1012 88 10000 2.1 90 15:18 25.04.2020
4258 Clouds 25 1012 83 10000 2.1 90 14:39 25.04.2020
4259 Clouds 25 1012 83 10000 2.1 90 14:20 25.04.2020
4260 Clouds 24 1013 88 10000 1.5 90 13:59 25.04.2020
4261 Clouds 24 1013 88 10000 1 100 13:40 25.04.2020
4262 Clouds 24 1013 88 10000 2.1 90 13:18 25.04.2020
4263 Clouds 24 1013 88 10000 2.1 90 12:54 25.04.2020
4264 Clouds 24 1013 88 10000 1.5 80 12:36 25.04.2020
4265 Clouds 24 1013 88 10000 1.5 80 12:18 25.04.2020
4266 Clouds 25 1013 83 10000 1.5 80 11:41 25.04.2020
4267 Clouds 25 1013 83 10000 1.5 80 11:23 25.04.2020
4268 Clouds 24 1013 88 10000 2.1 80 10:54 25.04.2020
4269 Clouds 24 1013 88 10000 2.1 70 10:36 25.04.2020
4270 Clouds 24 1013 88 10000 2.1 70 10:18 25.04.2020
4271 Clouds 25 1013 88 10000 1.5 70 09:41 25.04.2020
4272 Clouds 25 1013 88 10000 1.5 70 09:21 25.04.2020
4273 Clouds 25 1013 88 10000 2.1 80 08:41 25.04.2020
4274 Clouds 25 1013 88 10000 2.1 80 08:22 25.04.2020
4275 Clouds 25 1013 83 10000 2.1 90 07:59 25.04.2020
4276 Clouds 26 1012 78 10000 3.1 50 07:41 25.04.2020
4277 Clouds 27 1012 74 10000 3.1 50 06:57 25.04.2020
4278 Clouds 27 1012 74 10000 2.6 50 06:36 25.04.2020
4279 Clouds 28 1012 74 10000 3.1 40 05:42 25.04.2020
4280 Clouds 28 1012 74 10000 3.1 40 05:23 25.04.2020
4281 Clouds 28 1012 74 10000 3.6 40 03:29 25.04.2020
4282 Clouds 28 1013 74 10000 3.6 40 02:28 25.04.2020
4283 Clouds 28 1013 74 10000 4.1 40 01:55 25.04.2020
4284 Clouds 28 1014 74 10000 3.6 40 01:37 25.04.2020
4285 Clouds 28 1014 74 10000 3.6 40 01:18 25.04.2020
4286 Clouds 29 1014 70 10000 4.6 40 00:37 25.04.2020
4287 Clouds 28 1015 69 10000 4.1 50 23:55 24.04.2020
4288 Clouds 29 1015 66 10000 4.6 50 23:37 24.04.2020
4289 Clouds 29 1015 66 10000 4.6 50 23:19 24.04.2020
4290 Clouds 28 1015 69 10000 4.6 60 22:40 24.04.2020
4291 Clouds 28 1015 69 10000 4.6 60 22:20 24.04.2020
4292 Clouds 28 1015 74 10000 5.1 60 21:57 24.04.2020
4293 Clouds 28 1015 74 10000 4.6 50 21:39 24.04.2020
4294 Clouds 28 1015 74 10000 4.6 50 21:20 24.04.2020
4295 Clouds 27 1015 74 10000 5.1 60 20:56 24.04.2020
4296 Clouds 27 1014 74 10000 4.6 60 20:38 24.04.2020
4297 Clouds 26 1014 83 10000 4.1 60 20:18 24.04.2020
4298 Clouds 26 1014 78 10000 4.6 70 19:43 24.04.2020
4299 Clouds 26 1014 78 10000 4.6 70 19:24 24.04.2020
4300 Clouds 26 1013 78 10000 4.6 60 18:46 24.04.2020
4301 Clouds 26 1013 78 10000 4.6 60 18:28 24.04.2020
4302 Clouds 26 1013 78 10000 4.6 70 17:59 24.04.2020
4303 Clouds 26 1013 83 10000 5.1 70 17:39 24.04.2020
4304 Clouds 26 1013 83 10000 5.1 70 17:20 24.04.2020
4305 Clouds 26 1013 78 10000 4.6 60 16:58 24.04.2020
4306 Clouds 26 1013 83 10000 4.6 70 16:40 24.04.2020
4307 Clouds 26 1013 83 10000 4.6 70 16:21 24.04.2020
4308 Clouds 25 1013 88 10000 2.6 90 15:42 24.04.2020
4309 Clouds 25 1013 88 10000 2.6 90 15:22 24.04.2020
4310 Clouds 25 1014 88 10000 2.1 80 14:59 24.04.2020
4311 Clouds 25 1014 88 10000 2.1 90 14:39 24.04.2020
4312 Clouds 25 1014 88 10000 2.1 90 14:20 24.04.2020
4313 Clouds 26 1014 83 10000 4.6 70 13:42 24.04.2020
4314 Clouds 26 1014 83 10000 4.6 70 13:22 24.04.2020
4315 Clouds 26 1014 83 10000 3.6 80 12:59 24.04.2020
4316 Clouds 26 1015 78 10000 4.6 60 12:40 24.04.2020
4317 Clouds 26 1015 78 10000 4.6 60 12:20 24.04.2020
4318 Clouds 26 1014 78 10000 4.6 60 11:55 24.04.2020
4319 Clouds 26 1015 78 10000 5.1 70 11:36 24.04.2020
4320 Clouds 26 1015 78 10000 2.6 90 11:18 24.04.2020
4321 Clouds 26 1015 78 10000 3.1 80 10:38 24.04.2020
4322 Clouds 26 1015 78 10000 3.1 80 10:20 24.04.2020
4323 Clouds 25 1015 83 10000 3.1 90 09:57 24.04.2020
4324 Clouds 26 1015 78 10000 3.1 80 09:37 24.04.2020
4325 Clouds 26 1015 78 10000 3.1 80 09:19 24.04.2020
4326 Clouds 25 1014 83 10000 2.6 100 08:42 24.04.2020
4327 Clouds 25 1014 83 10000 2.6 100 08:20 24.04.2020
4328 Clouds 25 1014 83 10000 2.1 100 07:56 24.04.2020
4329 Clouds 26 1014 83 10000 1.5 110 07:38 24.04.2020
4330 Clouds 26 1014 83 10000 1.5 110 07:20 24.04.2020
4331 Clouds 27 1014 78 10000 3.6 80 06:43 24.04.2020
4332 Clouds 28 1014 74 10000 3.6 60 05:51 24.04.2020
4333 Clouds 28 1014 74 10000 3.6 60 05:20 24.04.2020
4334 Clouds 29 1014 70 10000 4.6 60 03:34 24.04.2020
4335 Clouds 29 1014 70 10000 4.6 50 02:50 24.04.2020
4336 Clouds 29 1014 70 10000 5.1 60 02:30 24.04.2020
4337 Clouds 29 1014 74 10000 4.6 60 01:46 24.04.2020
4338 Clouds 29 1015 70 10000 4.6 50 00:50 24.04.2020
4339 Clouds 29 1015 74 10000 4.1 50 00:19 24.04.2020
4340 Clouds 28 1016 78 10000 4.1 60 23:46 23.04.2020
4341 Clouds 28 1016 78 10000 4.1 60 23:27 23.04.2020
4342 Clouds 28 1016 74 10000 4.1 70 22:57 23.04.2020
4343 Clouds 28 1016 74 10000 4.6 70 22:38 23.04.2020
4344 Clouds 28 1016 74 10000 4.6 70 22:19 23.04.2020
4345 Clouds 28 1016 74 10000 4.6 70 21:57 23.04.2020
4346 Clouds 28 1016 74 10000 4.6 70 21:57 23.04.2020
4347 Clouds 27 1015 83 10000 4.6 70 21:38 23.04.2020
4348 Clouds 27 1015 83 10000 4.6 70 21:38 23.04.2020
4349 Clouds 27 1015 83 10000 4.6 70 21:20 23.04.2020
4350 Clouds 27 1015 78 10000 3.1 80 20:54 23.04.2020
4351 Clouds 27 1015 78 10000 3.1 80 20:54 23.04.2020
4352 Clouds 24 1015 94 10000 1.5 100 20:36 23.04.2020
4353 Clouds 23 1015 94 10000 1 100 20:18 23.04.2020
4354 Clouds 23 1014 94 10000 1 110 19:42 23.04.2020
4355 Clouds 23 1014 94 10000 1 110 19:23 23.04.2020
4356 Clouds 23 1014 94 10000 1 120 19:00 23.04.2020
4357 Clouds 23 1014 94 10000 1 120 19:00 23.04.2020
4358 Clouds 23 1014 94 10000 2.1 90 18:40 23.04.2020
4359 Clouds 23 1014 94 10000 2.1 90 18:21 23.04.2020
4360 Clouds 23 1014 94 10000 1.5 80 17:57 23.04.2020
4361 Clouds 23 1014 100 10000 1 110 17:38 23.04.2020
4362 Clouds 23 1014 100 10000 1 110 17:20 23.04.2020
4363 Clouds 24 1014 94 10000 1.5 100 16:44 23.04.2020
4364 Clouds 24 1014 94 10000 1.5 100 16:44 23.04.2020
4365 Clouds 24 1014 94 10000 1.5 100 16:21 23.04.2020
4366 Clouds 24 1014 88 10000 1.5 100 15:43 23.04.2020
4367 Clouds 24 1014 88 10000 1.5 100 15:24 23.04.2020
4368 Clouds 25 1014 88 10000 3.1 90 14:59 23.04.2020
4369 Clouds 25 1014 88 10000 3.6 90 14:41 23.04.2020
4370 Clouds 25 1014 88 10000 3.6 90 14:41 23.04.2020
4371 Clouds 25 1014 88 10000 3.6 90 14:22 23.04.2020
4372 Clouds 25 1015 88 10000 3.1 90 13:58 23.04.2020
4373 Clouds 25 1015 88 10000 3.1 90 13:40 23.04.2020
4374 Clouds 25 1015 88 10000 3.1 90 13:22 23.04.2020
4375 Clouds 25 1015 88 10000 2.6 90 12:57 23.04.2020
4376 Clouds 25 1015 88 10000 2.1 90 12:38 23.04.2020
4377 Clouds 25 1015 88 10000 2.1 90 12:19 23.04.2020
4378 Clouds 25 1016 88 10000 3.1 90 11:46 23.04.2020
4379 Clouds 25 1016 88 10000 3.1 90 11:27 23.04.2020
4380 Clouds 25 1016 88 10000 2.6 90 10:56 23.04.2020
4381 Clouds 25 1016 88 10000 2.1 90 10:38 23.04.2020
4382 Clouds 25 1016 88 10000 2.1 90 10:19 23.04.2020
4383 Clouds 25 1016 88 10000 1.5 110 09:38 23.04.2020
4384 Clouds 25 1016 88 10000 1.5 110 09:18 23.04.2020
4385 Clouds 26 1015 83 10000 1.5 120 08:47 23.04.2020
4386 Clouds 26 1015 83 10000 1.5 120 08:29 23.04.2020
4387 Clouds 26 1014 88 10000 1.5 100 07:45 23.04.2020
4388 Clouds 26 1014 88 10000 1.5 100 07:24 23.04.2020
4389 Clouds 26 1014 88 10000 1.5 100 06:58 23.04.2020
4390 Clouds 27 1014 83 10000 1.5 90 06:40 23.04.2020
4391 Clouds 28 1014 78 10000 4.1 70 05:33 23.04.2020
4392 Clouds 28 1014 78 10000 5.1 80 04:54 23.04.2020
4393 Clouds 29 1015 74 10000 4.6 60 02:41 23.04.2020
4394 Clouds 29 1015 74 10000 4.6 60 02:22 23.04.2020
4395 Clouds 28 1016 74 10000 4.6 50 01:35 23.04.2020
4396 Clouds 28 1016 78 10000 4.6 80 00:50 23.04.2020
4397 Rain 28 1016 78 10000 4.6 70 00:25 23.04.2020
4398 Rain 28 1017 78 10000 4.6 70 23:53 22.04.2020
4399 Rain 28 1017 74 10000 4.1 60 23:26 22.04.2020
4400 Rain 28 1017 74 10000 4.1 70 22:58 22.04.2020
4401 Rain 28 1017 74 10000 3.6 60 22:39 22.04.2020
4402 Rain 28 1017 74 10000 3.6 60 22:19 22.04.2020
4403 Rain 28 1017 74 10000 3.1 80 21:56 22.04.2020
4404 Rain 27 1017 78 10000 3.6 70 21:38 22.04.2020
4405 Rain 27 1017 78 10000 3.6 70 21:19 22.04.2020
4406 Rain 25 1016 94 10000 1.5 90 20:43 22.04.2020
4407 Rain 25 1016 94 10000 1.5 90 20:20 22.04.2020
4408 Rain 23 1016 100 10000 1.5 100 19:58 22.04.2020
4409 Rain 23 1016 94 10000 0.5 130 19:40 22.04.2020
4410 Rain 23 1016 94 10000 0.5 130 19:19 22.04.2020
4411 Rain 23 1015 94 10000 1 100 19:00 22.04.2020
4412 Rain 23 1015 94 10000 0.5 110 18:41 22.04.2020
4413 Clouds 23 1015 94 10000 0.5 110 18:22 22.04.2020
4414 Clouds 24 1015 94 10000 1.5 130 17:58 22.04.2020
4415 Clouds 23 1015 94 10000 1 100 17:39 22.04.2020
4416 Clouds 24 1015 94 10000 0.5 110 17:21 22.04.2020
4417 Clouds 24 1015 94 10000 1 160 16:46 22.04.2020
4418 Clouds 24 1015 94 10000 1 160 16:28 22.04.2020
4419 Clouds 25 1015 88 10000 2.1 100 15:54 22.04.2020
4420 Clouds 24 1015 94 10000 2.6 100 15:36 22.04.2020
4421 Rain 24 1015 88 10000 1 110 15:18 22.04.2020
4422 Rain 24 1015 88 10000 1 110 15:18 22.04.2020
4423 Rain 25 1015 88 10000 2.1 100 14:41 22.04.2020
4424 Rain 25 1015 88 10000 2.1 100 14:20 22.04.2020
4425 Rain 25 1016 88 10000 2.1 90 13:57 22.04.2020
4426 Rain 25 1016 88 10000 3.1 90 13:39 22.04.2020
4427 Rain 25 1016 88 10000 2.6 90 13:19 22.04.2020
4428 Rain 26 1016 83 10000 2.6 100 12:42 22.04.2020
4429 Rain 26 1016 83 10000 2.6 100 12:23 22.04.2020
4430 Rain 26 1016 83 10000 2.6 100 12:23 22.04.2020
4431 Rain 25 1016 83 10000 2.1 100 11:57 22.04.2020
4432 Rain 26 1016 78 10000 3.6 90 11:36 22.04.2020
4433 Rain 26 1016 78 10000 3.6 90 11:18 22.04.2020
4434 Rain 26 1016 78 10000 4.6 90 10:41 22.04.2020
4435 Rain 26 1016 78 10000 4.6 90 10:21 22.04.2020
4436 Rain 26 1016 78 10000 5.1 90 09:41 22.04.2020
4437 Clear 26 1016 78 10000 5.1 90 09:23 22.04.2020
4438 Clear 26 1016 78 10000 4.6 90 08:59 22.04.2020
4439 Clear 26 1016 78 10000 4.6 90 08:59 22.04.2020
4440 Clear 26 1016 78 10000 4.1 90 08:41 22.04.2020
4441 Clear 26 1016 78 10000 4.1 90 08:22 22.04.2020
4442 Clear 26 1016 78 10000 3.6 90 07:53 22.04.2020
4443 Clear 26 1015 78 10000 4.1 90 07:29 22.04.2020
4444 Clear 26 1015 78 10000 5.7 80 06:53 22.04.2020
4445 Clear 27 1015 74 10000 6.7 70 06:23 22.04.2020
4446 Clear 28 1014 69 10000 7.2 70 05:37 22.04.2020
4447 Clear 27 1014 78 10000 6.2 90 04:30 22.04.2020
4448 Rain 26 1015 88 8000 1.5 100 02:51 22.04.2020
4449 Rain 27 1015 78 10000 5.7 90 01:53 22.04.2020
4450 Rain 28 1016 78 10000 7.2 80 01:27 22.04.2020
4451 Rain 26 1016 83 10000 4.6 90 00:54 22.04.2020
4452 Rain 28 1016 74 10000 6.7 80 00:36 22.04.2020
4453 Rain 28 1016 74 10000 6.7 80 00:18 22.04.2020
4454 Rain 28 1017 74 10000 7.7 70 23:41 21.04.2020
4455 Rain 28 1017 74 10000 7.7 70 23:19 21.04.2020
4456 Rain 28 1017 74 10000 7.7 70 23:19 21.04.2020
4457 Rain 27 1017 78 10000 6.2 80 22:40 21.04.2020
4458 Rain 27 1017 78 10000 6.2 80 22:21 21.04.2020
4459 Rain 27 1017 78 10000 6.7 70 21:59 21.04.2020
4460 Rain 27 1017 78 10000 7.2 70 21:40 21.04.2020
4461 Rain 27 1017 78 10000 7.2 70 21:22 21.04.2020
4462 Rain 26 1017 83 10000 6.2 60 20:55 21.04.2020
4463 Rain 25 1017 94 10000 4.1 70 20:36 21.04.2020
4464 Rain 25 1017 94 10000 4.1 70 20:18 21.04.2020
4465 Rain 25 1017 83 10000 3.1 90 19:40 21.04.2020
4466 Rain 25 1017 83 10000 3.1 90 19:40 21.04.2020
4467 Rain 25 1017 83 10000 3.1 90 19:19 21.04.2020
4468 Rain 25 1016 83 10000 3.1 100 18:57 21.04.2020
4469 Rain 26 1016 78 10000 4.6 90 18:38 21.04.2020
4470 Rain 26 1016 78 10000 4.6 90 18:19 21.04.2020
4471 Rain 26 1016 78 10000 4.6 90 18:19 21.04.2020
4472 Rain 26 1016 78 10000 4.1 100 17:41 21.04.2020
4473 Rain 26 1016 78 10000 4.1 100 17:22 21.04.2020
4474 -273 0 0 0 0 0 16:59 21.04.2020
4475 Rain 26 1016 74 10000 3.1 90 16:38 21.04.2020
4476 Rain 26 1016 74 10000 3.1 90 16:38 21.04.2020
4477 Rain 26 1016 74 10000 3.1 90 16:38 21.04.2020
4478 Rain 26 1016 74 10000 3.1 90 16:19 21.04.2020
4479 Rain 26 1016 74 10000 3.1 90 16:19 21.04.2020
4480 Rain 26 1016 74 10000 3.6 90 15:56 21.04.2020
4481 Rain 25 1016 83 10000 5.7 80 15:38 21.04.2020
4482 Rain 25 1016 83 10000 5.7 80 15:19 21.04.2020
4483 Rain 26 1016 78 10000 5.1 90 14:45 21.04.2020
4484 Rain 26 1016 78 10000 5.1 90 14:25 21.04.2020
4485 Rain 26 1016 78 10000 4.6 90 13:59 21.04.2020
4486 Rain 26 1016 78 10000 4.6 90 13:38 21.04.2020
4487 Rain 26 1016 78 10000 4.6 90 13:19 21.04.2020
4488 Rain 26 1017 78 10000 6.2 90 12:40 21.04.2020
4489 Rain 26 1017 78 10000 6.2 90 12:20 21.04.2020
4490 Rain 26 1017 78 10000 6.7 90 11:58 21.04.2020
4491 Rain 26 1017 78 10000 5.7 90 11:39 21.04.2020
4492 Rain 26 1017 78 10000 6.2 90 11:19 21.04.2020
4493 Rain 26 1017 78 10000 6.2 90 10:59 21.04.2020
4494 Rain 26 1017 78 10000 5.1 90 10:40 21.04.2020
4495 Rain 26 1017 78 10000 5.1 90 10:22 21.04.2020
4496 Rain 26 1017 78 10000 4.6 90 09:59 21.04.2020
4497 Clear 26 1017 78 10000 4.6 90 09:37 21.04.2020
4498 Rain 26 1017 78 10000 4.6 90 09:18 21.04.2020
4499 Rain 26 1016 78 10000 3.6 90 08:44 21.04.2020
4500 Rain 26 1016 78 10000 3.6 90 08:26 21.04.2020
4501 Rain 27 1016 78 10000 4.6 90 07:53 21.04.2020
4502 Rain 27 1015 74 10000 4.6 100 07:28 21.04.2020
4503 Rain 27 1015 74 10000 6.7 90 06:54 21.04.2020
4504 Rain 27 1015 78 10000 6.2 90 06:36 21.04.2020
4505 Clouds 28 1015 74 10000 6.7 80 05:51 21.04.2020
4506 Clouds 28 1014 74 10000 7.7 90 05:20 21.04.2020
4507 Clouds 28 1015 74 10000 7.7 90 03:46 21.04.2020
4508 Rain 28 1016 74 10000 7.7 90 02:42 21.04.2020
4509 Rain 29 1017 70 10000 6.7 90 01:31 21.04.2020
4510 Rain 29 1017 74 10000 5.7 100 00:38 21.04.2020
4511 Clear 29 1017 74 10000 5.7 100 00:18 21.04.2020
4512 Clear 29 1018 74 10000 5.1 100 23:43 20.04.2020
4513 Clear 28 1018 74 10000 7.2 90 23:19 20.04.2020
4514 Clear 28 1018 74 10000 7.2 90 22:54 20.04.2020
4515 Clear 28 1018 78 10000 7.2 90 22:36 20.04.2020
4516 Clear 28 1018 78 10000 7.2 90 22:18 20.04.2020
4517 Clear 28 1018 74 10000 5.7 100 21:54 20.04.2020
4518 Clear 27 1017 78 10000 5.7 100 21:36 20.04.2020
4519 Rain 27 1017 78 10000 5.7 100 21:18 20.04.2020
4520 Rain 27 1017 78 10000 5.7 100 20:41 20.04.2020
4521 Rain 27 1017 78 10000 5.7 100 20:19 20.04.2020
4522 Rain 27 1017 78 10000 4.1 100 19:59 20.04.2020
4523 Rain 26 1016 83 10000 4.6 100 19:40 20.04.2020
4524 Rain 26 1016 83 10000 4.6 100 19:20 20.04.2020
4525 Rain 26 1016 83 10000 4.6 100 18:55 20.04.2020
4526 Rain 26 1016 83 10000 5.1 90 18:36 20.04.2020
4527 Rain 26 1016 83 10000 5.1 90 18:18 20.04.2020
4528 Rain 26 1016 83 10000 4.6 90 17:43 20.04.2020
4529 Rain 26 1016 83 10000 4.1 100 17:22 20.04.2020
4530 Rain 26 1016 83 10000 4.1 100 16:59 20.04.2020
4531 Rain 26 1016 83 10000 3.6 90 16:40 20.04.2020
4532 Rain 26 1016 83 10000 3.6 90 16:19 20.04.2020
4533 Rain 26 1016 83 10000 4.1 100 15:55 20.04.2020
4534 Drizzle 26 1017 83 10000 5.1 100 15:36 20.04.2020
4535 Drizzle 26 1017 83 10000 5.1 100 15:18 20.04.2020
4536 Rain 26 1017 83 10000 3.6 100 14:40 20.04.2020
4537 Rain 26 1017 83 10000 3.6 100 14:19 20.04.2020
4538 Rain 26 1018 83 10000 3.1 110 13:56 20.04.2020
4539 Rain 26 1018 83 10000 3.1 110 13:56 20.04.2020
4540 Rain 26 1018 83 10000 3.1 110 13:56 20.04.2020
4541 Rain 26 1018 83 10000 3.1 110 13:37 20.04.2020
4542 Rain 26 1018 83 10000 3.1 110 13:19 20.04.2020
4543 Rain 26 1018 78 10000 4.1 110 12:43 20.04.2020
4544 Rain 26 1018 78 10000 4.1 110 12:22 20.04.2020
4545 Rain 26 1019 78 10000 4.6 100 11:43 20.04.2020
4546 Rain 26 1019 78 10000 4.6 100 11:23 20.04.2020
4547 Rain 26 1019 78 10000 5.7 100 10:57 20.04.2020
4548 Rain 26 1018 83 10000 4.1 100 10:39 20.04.2020
4549 Rain 26 1018 83 10000 4.1 100 10:20 20.04.2020
4550 Rain 27 1019 74 10000 4.6 100 09:59 20.04.2020
4551 Rain 27 1018 74 10000 5.7 100 09:40 20.04.2020
4552 Clear 27 1018 74 10000 5.7 100 09:21 20.04.2020
4553 Clear 27 1018 74 10000 4.1 100 08:42 20.04.2020
4554 Clear 27 1018 74 10000 4.1 100 08:23 20.04.2020
4555 Clear 26 1018 78 10000 2.6 110 07:56 20.04.2020
4556 Clear 26 1017 78 10000 3.1 110 07:37 20.04.2020
4557 Clear 26 1017 78 10000 3.1 110 07:19 20.04.2020
4558 Clear 26 1017 78 10000 3.1 110 07:19 20.04.2020
4559 Clear 27 1017 74 10000 4.1 100 06:37 20.04.2020
4560 Clear 27 1017 74 10000 5.1 100 05:48 20.04.2020
4561 Clear 28 1016 69 10000 3.6 110 04:46 20.04.2020
4562 Clear 28 1018 69 10000 3.6 130 02:47 20.04.2020
4563 Clear 28 1018 69 10000 3.6 130 02:19 20.04.2020
4564 Clear 28 1018 69 10000 5.7 90 01:29 20.04.2020
4565 Clear 28 1019 74 10000 5.1 100 00:42 20.04.2020
4566 Rain 28 1019 69 10000 3.1 110 23:59 19.04.2020
4567 Rain 28 1019 69 10000 3.1 110 23:59 19.04.2020
4568 Rain 29 1020 66 10000 3.1 130 23:39 19.04.2020
4569 Rain 29 1020 66 10000 3.1 130 23:21 19.04.2020
4570 Rain 28 1019 69 10000 3.6 120 22:44 19.04.2020
4571 Rain 28 1019 69 10000 3.6 120 22:24 19.04.2020
4572 Rain 27 1019 74 10000 3.1 130 21:59 19.04.2020
4573 Rain 27 1019 74 10000 1.5 130 21:41 19.04.2020
4574 Rain 27 1019 74 10000 1.5 130 21:41 19.04.2020
4575 Rain 27 1019 74 10000 1.5 130 21:41 19.04.2020
4576 Clouds 27 1019 74 10000 1.5 130 21:22 19.04.2020
4577 Clouds 27 1019 74 10000 2.6 120 20:55 19.04.2020
4578 Clouds 27 1018 74 10000 2.1 120 20:37 19.04.2020
4579 Clouds 27 1018 74 10000 2.1 120 20:19 19.04.2020
4580 Clouds 25 1018 83 10000 1.5 140 19:41 19.04.2020
4581 Clouds 25 1018 83 10000 1.5 140 19:23 19.04.2020
4582 Clouds 25 1018 83 10000 2.1 120 18:58 19.04.2020
4583 Clouds 25 1018 83 10000 1 140 18:40 19.04.2020
4584 Clouds 25 1018 83 10000 1 140 18:21 19.04.2020
4585 Clouds 25 1017 83 10000 2.1 130 17:59 19.04.2020
4586 Clouds 25 1017 83 10000 1.5 120 17:41 19.04.2020
4587 Clouds 25 1017 83 10000 1.5 120 17:22 19.04.2020
4588 Clouds 25 1017 83 10000 2.1 110 16:58 19.04.2020
4589 Clouds 24 1017 88 10000 1 120 16:39 19.04.2020
4590 Clouds 24 1017 88 10000 1 120 16:21 19.04.2020
4591 Clouds 25 1018 83 10000 2.1 130 15:43 19.04.2020
4592 Clear 25 1018 83 10000 2.1 130 15:23 19.04.2020
4593 Clear 25 1018 83 10000 2.1 130 15:23 19.04.2020
4594 Clear 25 1018 83 10000 2.1 120 14:56 19.04.2020
4595 Clear 26 1019 78 10000 2.1 120 14:38 19.04.2020
4596 Clear 26 1019 78 10000 2.1 120 14:19 19.04.2020
4597 Clear 25 1019 83 10000 2.1 120 13:40 19.04.2020
4598 Clear 25 1019 83 10000 2.1 120 13:21 19.04.2020
4599 Clear 25 1019 78 10000 2.1 130 12:58 19.04.2020
4600 Clear 25 1019 83 10000 2.1 100 12:40 19.04.2020
4601 Clear 25 1019 83 10000 2.1 100 12:20 19.04.2020
4602 Clear 26 1019 78 10000 3.1 90 11:38 19.04.2020
4603 Clear 26 1019 78 10000 3.1 90 11:19 19.04.2020
4604 Clear 26 1019 78 10000 4.1 100 10:58 19.04.2020
4605 Clear 26 1019 78 10000 3.6 100 10:39 19.04.2020
4606 Clear 26 1019 78 10000 3.6 110 10:19 19.04.2020
4607 Clear 26 1019 78 10000 3.1 110 09:46 19.04.2020
4608 Clouds 26 1019 78 10000 3.1 110 09:28 19.04.2020
4609 Clouds 26 1018 78 10000 4.1 100 08:42 19.04.2020
4610 Clouds 26 1018 78 10000 4.1 100 08:24 19.04.2020
4611 Clouds 26 1018 74 10000 3.6 100 07:59 19.04.2020
4612 Clouds 26 1018 74 10000 3.1 110 07:41 19.04.2020
4613 Clouds 26 1018 74 10000 3.1 110 07:23 19.04.2020
4614 Clouds 26 1018 74 10000 3.1 110 07:23 19.04.2020
4615 Clouds 27 1017 69 10000 2.6 110 06:30 19.04.2020
4616 Clouds 27 1017 74 10000 4.1 90 05:56 19.04.2020
4617 Clouds 28 1016 69 10000 5.1 90 04:48 19.04.2020
4618 Clouds 28 1017 69 10000 3.1 100 02:59 19.04.2020
4619 Rain 27 1017 74 10000 3.1 120 02:21 19.04.2020
4620 Clouds 28 1017 69 10000 2.6 150 01:39 19.04.2020
4621 Clouds 27 1018 69 10000 2.6 150 00:49 19.04.2020
4622 Clouds 28 1018 74 10000 3.1 150 00:25 19.04.2020
4623 Clouds 27 1019 74 10000 3.1 140 23:56 18.04.2020
4624 Clouds 27 1018 74 10000 2.6 130 23:36 18.04.2020
4625 Clouds 27 1018 74 10000 2.6 130 23:18 18.04.2020
4626 Clouds 27 1018 74 10000 3.6 140 22:41 18.04.2020
4627 Clouds 27 1018 74 10000 3.6 140 22:21 18.04.2020
4628 Clouds 27 1018 74 10000 2.6 150 21:57 18.04.2020
4629 Clouds 27 1018 74 10000 2.6 120 21:38 18.04.2020
4630 Clouds 27 1018 74 10000 2.6 120 21:19 18.04.2020
4631 Clouds 26 1018 78 10000 1.5 40 20:42 18.04.2020
4632 Clouds 26 1018 78 10000 1.5 40 20:42 18.04.2020
4633 Clouds 26 1018 78 10000 1.5 40 20:22 18.04.2020
4634 Clouds 25 1017 83 10000 2.1 100 19:59 18.04.2020
4635 Clouds 25 1017 78 10000 1 220 19:38 18.04.2020
4636 Clouds 25 1017 78 10000 1 220 19:19 18.04.2020
4637 Clouds 25 1016 78 10000 3.1 160 18:38 18.04.2020
4638 Clear 25 1016 78 10000 3.1 160 18:19 18.04.2020
4639 Clear 25 1016 78 10000 3.1 130 17:45 18.04.2020
4640 Clear 25 1016 78 10000 3.1 130 17:22 18.04.2020
4641 Clear 25 1016 78 10000 3.1 140 16:58 18.04.2020
4642 Clear 25 1016 78 10000 2.6 130 16:38 18.04.2020
4643 Clear 25 1016 78 10000 2.6 130 16:20 18.04.2020
4644 Clear 25 1016 78 10000 2.6 140 15:40 18.04.2020
4645 Clear 25 1016 78 10000 2.6 140 15:22 18.04.2020
4646 Clear 24 1017 83 10000 1.5 130 14:47 18.04.2020
4647 Clear 24 1017 83 10000 1.5 130 14:47 18.04.2020
4648 Clear 24 1017 83 10000 1.5 130 14:29 18.04.2020
4649 Clear 23 1017 88 10000 1 150 13:59 18.04.2020
4650 Clear 23 1017 88 10000 1.5 160 13:41 18.04.2020
4651 Clear 24 1017 83 10000 1 170 13:20 18.04.2020
4652 Clear 24 1017 83 10000 1 140 12:42 18.04.2020
4653 Clear 24 1017 83 10000 1 140 12:24 18.04.2020
4654 Clear 25 1017 78 10000 1.5 120 11:56 18.04.2020
4655 Clear 25 1017 78 10000 1.5 120 11:37 18.04.2020
4656 Clear 25 1017 78 10000 1.5 120 11:19 18.04.2020
4657 Clear 23 1017 88 10000 1 140 10:41 18.04.2020
4658 Clear 23 1017 88 10000 1 140 10:19 18.04.2020
4659 Clear 23 1018 88 10000 1 150 09:58 18.04.2020
4660 Clear 23 1018 88 10000 1 180 09:38 18.04.2020
4661 Clear 23 1018 88 10000 1 180 09:20 18.04.2020
4662 Clear 23 1018 88 10000 1 180 09:20 18.04.2020
4663 Clear 25 1017 78 10000 1.5 100 08:39 18.04.2020
4664 Clear 25 1017 78 10000 1.5 100 08:21 18.04.2020
4665 Clear 25 1016 73 10000 2.1 80 07:41 18.04.2020
4666 Clear 25 1016 73 10000 2.1 80 07:19 18.04.2020
4667 Clear 26 1015 69 10000 2.1 100 06:30 18.04.2020
4668 Clear 27 1015 69 10000 2.1 120 05:43 18.04.2020
4669 Clear 27 1014 65 10000 3.6 120 04:47 18.04.2020
4670 Clear 27 1014 65 10000 3.6 120 04:47 18.04.2020
4671 Clear 27 1014 65 10000 3.6 120 04:28 18.04.2020
4672 Clouds 28 1015 61 10000 3.1 120 02:57 18.04.2020
4673 Clouds 28 1015 61 10000 2.1 130 02:37 18.04.2020
4674 Clouds 28 1015 61 10000 2.1 130 02:19 18.04.2020
4675 Clouds 28 1015 65 10000 3.6 180 01:35 18.04.2020
4676 Clouds 28 1016 65 10000 2.1 130 00:47 18.04.2020
4677 Clouds 28 1016 65 10000 2.1 130 00:23 18.04.2020
4678 Clouds 28 1016 65 10000 1.5 120 23:56 17.04.2020
4679 Clouds 27 1016 69 10000 2.1 130 23:38 17.04.2020
4680 Clouds 27 1016 69 10000 2.1 120 23:18 17.04.2020
4681 Clouds 27 1016 69 10000 2.1 120 22:56 17.04.2020
4682 Clouds 27 1016 74 10000 2.1 120 22:37 17.04.2020
4683 Clouds 27 1016 74 10000 2.1 120 22:18 17.04.2020
4684 Clouds 26 1016 78 10000 2.1 100 21:42 17.04.2020
4685 Clouds 26 1016 78 10000 2.1 100 21:21 17.04.2020
4686 Clouds 25 1016 83 10000 0.5 20 20:56 17.04.2020
4687 Clouds 23 1015 94 10000 0.5 140 20:38 17.04.2020
4688 Clouds 23 1015 94 10000 0.5 140 20:19 17.04.2020
4689 Clouds 22 1015 94 10000 0.5 80 19:57 17.04.2020
4690 Clouds 22 1015 94 10000 1 170 19:38 17.04.2020
4691 Clouds 22 1015 94 10000 1 170 19:20 17.04.2020
4692 Clouds 22 1014 94 10000 1.5 150 18:44 17.04.2020
4693 Clouds 22 1014 94 10000 1.5 150 18:23 17.04.2020
4694 Clouds 22 1014 94 10000 1.5 150 18:23 17.04.2020
4695 Clouds 22 1014 94 10000 1 170 17:55 17.04.2020
4696 Clouds 22 1014 94 10000 1.5 190 17:36 17.04.2020
4697 Clouds 22 1014 94 10000 1.5 190 17:18 17.04.2020
4698 Clouds 22 1014 94 10000 0.5 130 16:41 17.04.2020
4699 Clouds 22 1014 94 10000 0.5 130 16:22 17.04.2020
4700 Clouds 22 1014 94 10000 0.5 130 16:22 17.04.2020
4701 Clouds 22 1014 94 10000 1 160 15:41 17.04.2020
4702 Clouds 22 1014 94 10000 1 160 15:22 17.04.2020
4703 Clouds 22 1014 94 10000 1 160 14:55 17.04.2020
4704 Clouds 22 1014 94 10000 0.5 170 14:37 17.04.2020
4705 Clouds 22 1014 94 10000 0.5 170 14:19 17.04.2020
4706 Clouds 22 1014 94 10000 0.5 180 13:40 17.04.2020
4707 Clouds 22 1014 94 10000 0.5 180 13:20 17.04.2020
4708 Clouds 22 1014 94 10000 0.5 150 12:57 17.04.2020
4709 Clouds 22 1014 94 10000 0.5 180 12:38 17.04.2020
4710 Clouds 22 1014 94 10000 0.5 180 12:20 17.04.2020
4711 Clouds 22 1013 94 10000 1 160 11:40 17.04.2020
4712 Clouds 22 1013 94 10000 1 160 11:19 17.04.2020
4713 Clouds 22 1013 94 10000 1 160 11:19 17.04.2020
4714 Clouds 22 1013 94 10000 1.5 180 10:43 17.04.2020
4715 Clouds 22 1013 94 10000 1.5 180 10:22 17.04.2020
4716 Clouds 22 1013 94 10000 0.5 110 09:57 17.04.2020
4717 Clouds 22 1013 94 10000 1 180 09:38 17.04.2020
4718 Clouds 22 1013 94 10000 1 180 09:19 17.04.2020
4719 Clouds 26 1014 63 0 3.35 169 08:47 17.04.2020
4720 Clouds 26 1014 63 0 3.35 169 08:47 17.04.2020
4721 Clouds 23 1012 88 10000 1 180 08:27 17.04.2020
4722 Clouds 23 1012 88 10000 1 180 07:57 17.04.2020
4723 Clouds 23 1012 88 10000 1 180 07:39 17.04.2020
4724 Clouds 25 1012 78 10000 0.5 150 07:18 17.04.2020
4725 Clouds 26 1012 69 10000 1 200 06:43 17.04.2020
4726 Clouds 27 1012 61 10000 2.1 240 05:58 17.04.2020
4727 Clouds 27 1013 65 10000 3.1 260 03:23 17.04.2020
4728 Clouds 28 1013 61 10000 1.5 190 02:50 17.04.2020
4729 Clouds 27 1013 65 10000 3.6 230 01:30 17.04.2020
4730 Clouds 28 1014 61 10000 2.6 230 00:59 17.04.2020
4731 Clouds 27 1014 65 10000 3.6 240 00:20 17.04.2020
4732 Clouds 28 1014 65 10000 2.1 280 23:46 16.04.2020
4733 Clouds 28 1015 61 10000 1 340 23:24 16.04.2020
4734 Clouds 27 1014 65 10000 2.1 70 22:59 16.04.2020
4735 Clouds 27 1014 65 10000 2.1 70 22:39 16.04.2020
4736 Clouds 27 1014 65 10000 2.1 70 22:39 16.04.2020
4737 Clouds 27 1014 65 10000 2.1 70 22:39 16.04.2020
4738 Clouds 27 1014 65 10000 2.1 70 22:20 16.04.2020
4739 Clouds 27 1014 65 10000 1.5 80 21:56 16.04.2020
4740 Clouds 26 1014 69 10000 1.5 90 21:38 16.04.2020
4741 Clouds 26 1014 69 10000 1.5 90 21:38 16.04.2020
4742 Clouds 26 1014 69 10000 1.5 90 21:18 16.04.2020
4743 Clouds 22 1013 94 10000 1 90 20:41 16.04.2020
4744 Clouds 22 1013 94 10000 1 90 20:22 16.04.2020
4745 Clouds 20 1013 94 10000 1 90 19:56 16.04.2020
4746 Clouds 20 1013 94 0 2.74 90 19:38 16.04.2020
4747 Clouds 20 1013 100 10000 0.5 130 19:19 16.04.2020
4748 Clouds 20 1012 100 10000 0.5 130 18:45 16.04.2020
4749 Clouds 20 1012 100 10000 0.5 130 18:26 16.04.2020
4750 Clouds 21 1012 88 10000 0.5 140 17:58 16.04.2020
4751 Clouds 21 1012 88 10000 1.5 130 17:40 16.04.2020
4752 Clouds 21 1012 88 10000 1.5 130 17:21 16.04.2020
4753 Clouds 22 1012 83 10000 1.5 120 16:45 16.04.2020
4754 Clouds 22 1012 83 10000 1.5 120 16:45 16.04.2020
4755 Clouds 23 1012 78 10000 2.1 120 16:26 16.04.2020
4756 Clouds 22 1012 83 10000 1.5 130 15:57 16.04.2020
4757 Clouds 23 1012 78 10000 1.5 140 15:39 16.04.2020
4758 Clouds 23 1012 78 10000 1.5 140 15:18 16.04.2020
4759 Clouds 21 1013 88 10000 1 90 14:45 16.04.2020
4760 Clouds 21 1013 88 10000 1 90 14:45 16.04.2020
4761 Clouds 21 1013 88 10000 1 140 14:25 16.04.2020
4762 Clouds 21 1013 94 10000 1.5 130 13:59 16.04.2020
4763 Clouds 21 1014 88 10000 1.5 110 13:41 16.04.2020
4764 Clouds 21 1014 88 10000 1.5 110 13:22 16.04.2020
4765 Clouds 22 1014 83 10000 1 120 12:58 16.04.2020
4766 Clouds 23 1014 83 10000 1.5 140 12:39 16.04.2020
4767 Clouds 23 1014 83 10000 1.5 140 12:19 16.04.2020
4768 Clouds 23 1014 83 10000 1.5 140 11:57 16.04.2020
4769 Clouds 23 1014 83 10000 1.5 140 11:39 16.04.2020
4770 Clouds 23 1014 83 10000 1.5 140 11:20 16.04.2020
4771 Clouds 23 1014 83 10000 1.5 120 10:55 16.04.2020
4772 Clouds 23 1014 83 10000 1.5 120 10:36 16.04.2020
4773 Clouds 23 1014 83 10000 1.5 120 10:18 16.04.2020
4774 Clouds 24 1014 78 10000 1.5 120 09:39 16.04.2020
4775 Clouds 24 1014 78 10000 1.5 120 09:20 16.04.2020
4776 Clouds 24 1013 78 10000 1.5 130 08:56 16.04.2020
4777 Clouds 24 1013 78 10000 1.5 120 08:36 16.04.2020
4778 Clouds 24 1013 78 10000 1.5 120 08:18 16.04.2020
4779 Clouds 24 1013 78 10000 1.5 110 07:42 16.04.2020
4780 Clouds 24 1013 78 10000 1.5 110 07:20 16.04.2020
4781 Clouds 26 1012 69 10000 2.6 100 06:41 16.04.2020
4782 Clouds 26 1012 69 10000 2.6 100 06:41 16.04.2020
4783 Clouds 26 1012 69 10000 2.6 100 06:22 16.04.2020
4784 Clouds 28 1011 65 10000 4.1 80 04:53 16.04.2020
4785 Clouds 27 1012 69 10000 5.7 80 03:28 16.04.2020
4786 Clouds 28 1012 61 10000 4.1 60 02:59 16.04.2020
4787 Clouds 28 1013 58 10000 5.1 70 02:36 16.04.2020
4788 Clouds 28 1013 65 10000 5.1 50 01:28 16.04.2020
4789 Clouds 27 1014 65 10000 4.6 50 00:53 16.04.2020
4790 Clouds 28 1014 65 10000 4.6 50 00:21 16.04.2020
4791 Clouds 28 1014 65 10000 4.6 50 00:21 16.04.2020
4792 Clouds 27 1015 69 10000 2.1 70 23:44 15.04.2020
4793 Clouds 27 1015 74 10000 2.1 180 23:24 15.04.2020
4794 Clouds 27 1015 69 10000 2.6 90 22:59 15.04.2020
4795 Clouds 27 1015 69 10000 2.1 110 22:38 15.04.2020
4796 Clouds 27 1015 69 10000 2.1 110 22:20 15.04.2020
4797 Clouds 27 1015 69 10000 2.1 120 21:54 15.04.2020
4798 Clouds 26 1015 74 10000 2.1 120 21:36 15.04.2020
4799 Clouds 26 1015 74 10000 2.1 120 21:18 15.04.2020
4800 Clouds 26 1015 78 10000 0.5 140 20:41 15.04.2020
4801 Clouds 22 1015 94 10000 0.5 170 20:22 15.04.2020
4802 Clouds 21 1014 94 10000 0.5 120 19:59 15.04.2020
4803 Clouds 20 1014 100 10000 0.5 160 19:40 15.04.2020
4804 Clouds 21 1014 94 10000 1 170 19:20 15.04.2020
4805 Clouds 21 1013 94 10000 1 170 18:41 15.04.2020
4806 Clouds 22 1013 88 10000 1.5 140 18:22 15.04.2020
4807 Clouds 22 1013 88 10000 1.5 140 17:58 15.04.2020
4808 Clouds 22 1013 88 10000 1.5 140 17:58 15.04.2020
4809 Clouds 20 1013 100 10000 1 150 17:38 15.04.2020
4810 Clouds 20 1013 100 10000 1 150 17:20 15.04.2020
4811 Clouds 20 1013 100 10000 1 170 16:55 15.04.2020
4812 Clouds 20 1013 100 10000 1 170 16:37 15.04.2020
4813 Clouds 20 1013 100 10000 1 170 16:18 15.04.2020
4814 Clouds 20 1013 100 10000 1 180 15:56 15.04.2020
4815 Clouds 20 1013 100 10000 1 190 15:37 15.04.2020
4816 Clouds 20 1013 100 10000 1 190 15:37 15.04.2020
4817 Clouds 20 1013 100 10000 1 190 15:19 15.04.2020
4818 Clouds 20 1013 100 10000 1 190 15:19 15.04.2020
4819 Clouds 20 1013 100 10000 1 180 14:55 15.04.2020
4820 Clouds 20 1014 100 10000 1 180 14:36 15.04.2020
4821 Clouds 20 1014 100 10000 1 180 14:36 15.04.2020
4822 Clouds 20 1014 100 10000 1 180 14:18 15.04.2020
4823 Clouds 21 1014 94 10000 0.5 170 13:40 15.04.2020
4824 Clouds 21 1014 94 10000 0.5 170 13:21 15.04.2020
4825 Clouds 21 1014 94 10000 1 150 12:59 15.04.2020
4826 Clouds 22 1014 88 10000 1 150 12:41 15.04.2020
4827 Clouds 22 1014 88 10000 1 150 12:22 15.04.2020
4828 Clouds 22 1015 88 10000 1 150 11:58 15.04.2020
4829 Clouds 22 1014 88 10000 1 120 11:38 15.04.2020
4830 Clouds 22 1014 88 10000 1 120 11:38 15.04.2020
4831 Clouds 22 1014 88 10000 1 120 11:20 15.04.2020
4832 Clouds 24 1015 78 10000 1.5 140 10:38 15.04.2020
4833 Clouds 24 1015 78 10000 1.5 140 10:20 15.04.2020
4834 Clouds 24 1015 78 10000 1.5 130 09:57 15.04.2020
4835 Clouds 24 1015 78 10000 1.5 130 09:38 15.04.2020
4836 Clouds 24 1015 78 10000 1.5 130 09:20 15.04.2020
4837 Clouds 24 1014 78 10000 1.5 140 08:54 15.04.2020
4838 Clouds 24 1014 78 10000 1.5 130 08:36 15.04.2020
4839 Clouds 24 1014 78 10000 1.5 130 08:18 15.04.2020
4840 Clouds 24 1013 78 10000 1.5 140 07:44 15.04.2020
4841 Clouds 24 1013 78 10000 1.5 140 07:26 15.04.2020
4842 Clouds 26 1013 69 10000 1.5 120 06:25 15.04.2020
4843 Clouds 27 1013 69 10000 2.1 130 05:48 15.04.2020
4844 Clouds 27 1013 65 10000 2.6 120 04:47 15.04.2020
4845 Clouds 26 1013 74 10000 2.1 100 04:22 15.04.2020
4846 Clouds 27 1013 65 10000 2.6 110 03:22 15.04.2020
4847 Clouds 28 1014 61 10000 2.6 130 02:49 15.04.2020
4848 Clouds 27 1014 65 10000 2.6 120 01:51 15.04.2020
4849 Clouds 28 1015 61 10000 2.6 110 01:25 15.04.2020
4850 Clouds 28 1015 61 10000 3.1 150 00:48 15.04.2020
4851 Clouds 27 1015 61 10000 3.1 140 00:25 15.04.2020
4852 Clouds 27 1016 61 10000 3.1 120 23:56 14.04.2020
4853 Clouds 27 1016 57 10000 2.6 140 23:38 14.04.2020
4854 Clouds 27 1016 57 10000 2.6 140 23:20 14.04.2020
4855 Clouds 27 1016 57 10000 3.6 130 22:56 14.04.2020
4856 Clouds 27 1017 57 10000 3.1 160 22:38 14.04.2020
4857 Clouds 27 1017 57 10000 3.1 160 22:20 14.04.2020
4858 Clouds 26 1017 65 10000 2.6 160 21:56 14.04.2020
4859 Clouds 26 1016 65 10000 2.6 160 21:37 14.04.2020
4860 Clouds 26 1016 65 10000 2.6 160 21:19 14.04.2020
4861 Clouds 25 1016 69 10000 3.6 150 20:41 14.04.2020
4862 Clouds 25 1016 69 10000 3.6 150 20:41 14.04.2020
4863 Clouds 25 1016 69 10000 3.1 160 20:23 14.04.2020
4864 Clouds 25 1016 69 10000 3.6 170 20:00 14.04.2020
4865 Clouds 24 1015 73 10000 2.6 170 19:40 14.04.2020
4866 Clouds 24 1015 73 10000 2.6 170 19:21 14.04.2020
4867 Clouds 25 1015 69 10000 3.1 160 18:57 14.04.2020
4868 Clouds 25 1015 69 10000 3.1 160 18:39 14.04.2020
4869 Clouds 25 1015 69 10000 3.1 160 18:20 14.04.2020
4870 Clouds 25 1015 69 10000 3.6 160 17:57 14.04.2020
4871 Clouds 24 1014 78 10000 3.1 140 17:38 14.04.2020
4872 Clouds 24 1014 78 10000 3.1 140 17:19 14.04.2020
4873 Clouds 24 1014 78 10000 3.1 140 17:19 14.04.2020
4874 Clouds 24 1014 78 10000 3.1 140 16:54 14.04.2020
4875 Clouds 21 1015 94 10000 0.5 130 16:36 14.04.2020
4876 Clouds 21 1015 94 10000 0.5 130 16:18 14.04.2020
4877 Clouds 21 1015 94 10000 0.5 130 15:41 14.04.2020
4878 Clouds 21 1015 94 10000 1.5 150 15:23 14.04.2020
4879 Clouds 21 1015 94 0 5.32 145 14:59 14.04.2020
4880 Clouds 21 1015 94 0 5.56 147 14:40 14.04.2020
4881 Clouds 21 1015 94 10000 1.5 160 14:22 14.04.2020
4882 Clouds 20 1015 100 10000 1 180 13:56 14.04.2020
4883 Clouds 21 1015 94 10000 1 150 13:38 14.04.2020
4884 Clouds 21 1015 94 10000 1 150 13:20 14.04.2020
4885 Clouds 22 1016 83 10000 1 140 12:41 14.04.2020
4886 Clouds 22 1016 83 10000 1 140 12:21 14.04.2020
4887 Clouds 22 1016 83 10000 1 140 12:21 14.04.2020
4888 Clouds 22 1016 83 10000 1.5 130 11:55 14.04.2020
4889 Clouds 22 1016 83 10000 1.5 130 11:55 14.04.2020
4890 Clouds 23 1016 78 10000 1.5 140 11:37 14.04.2020
4891 Clouds 23 1016 78 10000 1.5 140 11:18 14.04.2020
4892 Clouds 25 1016 69 10000 2.1 150 10:43 14.04.2020
4893 Clouds 25 1016 69 10000 2.1 150 10:23 14.04.2020
4894 Clouds 25 1016 69 10000 2.1 150 09:43 14.04.2020
4895 Clouds 25 1016 73 10000 2.1 140 09:25 14.04.2020
4896 Clouds 25 1016 73 10000 2.1 140 08:59 14.04.2020
4897 Clouds 25 1016 73 10000 2.1 140 08:41 14.04.2020
4898 Clouds 25 1016 73 10000 2.6 150 08:22 14.04.2020
4899 Clouds 25 1016 73 10000 2.6 150 07:53 14.04.2020
4900 Clouds 25 1015 73 10000 2.6 150 07:30 14.04.2020
4901 Clouds 26 1015 65 10000 3.1 150 06:48 14.04.2020
4902 Clouds 26 1015 69 0 6.12 168 05:55 14.04.2020
4903 Clouds 26 1014 74 10000 2.6 140 03:52 14.04.2020
4904 Clouds 27 1015 74 10000 2.1 160 02:53 14.04.2020
4905 Clouds 27 1015 74 10000 4.6 160 01:39 14.04.2020
4906 Clouds 27 1015 74 10000 4.6 160 01:18 14.04.2020
4907 Clouds 28 1016 74 10000 2.6 160 00:36 14.04.2020
4908 Clouds 28 1016 74 10000 2.6 160 00:18 14.04.2020
4909 Clouds 28 1016 69 10000 3.1 140 23:39 13.04.2020
4910 Clouds 28 1016 69 10000 3.1 140 23:21 13.04.2020
4911 Clouds 28 1016 69 10000 2.6 160 22:56 13.04.2020
4912 Clouds 27 1016 74 10000 3.6 160 22:37 13.04.2020
4913 Clouds 27 1016 74 10000 3.6 160 22:19 13.04.2020
4914 Clouds 27 1016 74 10000 2.6 140 21:54 13.04.2020
4915 Clouds 27 1016 74 10000 1.5 110 21:36 13.04.2020
4916 Clouds 27 1016 74 10000 1.5 110 21:18 13.04.2020
4917 Clouds 27 1016 74 10000 3.1 160 20:41 13.04.2020
4918 Clouds 26 1016 78 10000 1.5 170 20:20 13.04.2020
4919 Clouds 26 1016 78 10000 1.5 170 20:20 13.04.2020
4920 Clouds 25 1016 83 10000 1 140 19:58 13.04.2020
4921 Clouds 25 1015 83 10000 1 240 19:37 13.04.2020
4922 Clouds 25 1015 83 10000 1 240 19:37 13.04.2020
4923 Clouds 25 1015 83 10000 1 240 19:37 13.04.2020
4924 Clouds 25 1015 83 10000 1 250 19:19 13.04.2020
4925 Clouds 25 1015 83 10000 1 240 19:19 13.04.2020
4926 Clouds 25 1015 83 10000 1 250 18:57 13.04.2020
4927 Clouds 25 1015 83 10000 1.5 40 18:38 13.04.2020
4928 Clouds 25 1015 83 10000 1.5 40 18:19 13.04.2020
4929 Clouds 25 1015 83 10000 2.1 180 17:57 13.04.2020
4930 Clouds 26 1015 74 10000 3.1 160 17:37 13.04.2020
4931 Clouds 26 1015 74 10000 3.1 160 17:19 13.04.2020
4932 Clouds 26 1015 74 10000 3.1 160 17:19 13.04.2020
4933 Clouds 26 1015 74 10000 3.1 160 17:19 13.04.2020
4934 Clouds 26 1015 74 10000 2.1 170 16:57 13.04.2020
4935 Clouds 26 1015 74 10000 3.1 150 16:37 13.04.2020
4936 Clouds 26 1015 74 10000 3.1 150 16:19 13.04.2020
4937 Clouds 26 1015 74 10000 2.6 160 15:46 13.04.2020
4938 Rain 26 1014 74 10000 2.6 160 15:28 13.04.2020
4939 Rain 25 1015 83 10000 3.1 160 14:59 13.04.2020
4940 Rain 25 1015 83 10000 1.5 250 14:40 13.04.2020
4941 Rain 25 1015 83 10000 1.5 250 14:22 13.04.2020
4942 Rain 25 1016 83 10000 2.1 340 13:56 13.04.2020
4943 Rain 25 1016 83 10000 2.1 320 13:38 13.04.2020
4944 Rain 25 1016 83 10000 2.1 320 13:38 13.04.2020
4945 Rain 25 1016 83 10000 2.1 320 13:20 13.04.2020
4946 Rain 25 1016 88 10000 1.5 290 12:58 13.04.2020
4947 Rain 25 1016 88 10000 1 80 12:39 13.04.2020
4948 Rain 25 1016 88 10000 1 80 12:19 13.04.2020
4949 Rain 25 1016 88 10000 1.5 170 11:57 13.04.2020
4950 Rain 25 1016 88 10000 1.5 160 11:39 13.04.2020
4951 Rain 25 1016 88 10000 1.5 160 11:18 13.04.2020
4952 Rain 25 1016 94 10000 2.6 160 10:55 13.04.2020
4953 Rain 25 1016 94 10000 1 170 10:36 13.04.2020
4954 Rain 25 1016 94 10000 1 170 10:18 13.04.2020
4955 Rain 26 1016 88 9000 2.6 160 09:43 13.04.2020
4956 Rain 25 1016 100 10000 1.5 200 09:25 13.04.2020
4957 Rain 26 1015 94 6000 1.5 160 08:45 13.04.2020
4958 Rain 26 1015 94 10000 2.1 160 08:27 13.04.2020
4959 Rain 26 1015 94 5000 1 220 07:56 13.04.2020
4960 Rain 26 1015 94 10000 1.5 280 07:38 13.04.2020
4961 Rain 26 1014 94 6000 2.6 160 07:18 13.04.2020
4962 Rain 26 1015 94 3200 1.5 200 06:42 13.04.2020
4963 Rain 27 1014 88 10000 1.5 200 05:52 13.04.2020
4964 Rain 27 1014 88 10000 2.1 210 05:19 13.04.2020
4965 Rain 27 1014 88 10000 2.1 210 05:19 13.04.2020
4966 Rain 28 1014 88 10000 3.1 210 04:31 13.04.2020
4967 Rain 28 1014 88 10000 3.1 210 04:31 13.04.2020
4968 Rain 28 1014 83 10000 1.5 200 03:55 13.04.2020
4969 Rain 28 1014 83 10000 2.1 250 03:34 13.04.2020
4970 Clouds 29 1014 79 10000 2.1 280 02:41 13.04.2020
4971 Clouds 28 1015 83 10000 1.5 320 01:46 13.04.2020
4972 Clouds 28 1015 88 10000 1.5 320 01:27 13.04.2020
4973 Clouds 28 1015 88 10000 1.5 320 01:27 13.04.2020
4974 Clouds 27 1015 88 10000 1.5 360 00:46 13.04.2020
4975 Rain 27 1015 94 10000 1.5 340 00:24 13.04.2020
4976 Rain 27 1016 94 10000 1 340 23:56 12.04.2020
4977 Rain 27 1016 94 10000 1.5 10 23:37 12.04.2020
4978 Rain 27 1016 94 10000 1.5 10 23:18 12.04.2020
4979 Rain 27 1017 88 10000 3.1 20 22:41 12.04.2020
4980 Rain 26 1017 100 10000 0.5 130 22:19 12.04.2020
4981 Rain 26 1017 100 10000 0.5 130 22:19 12.04.2020
4982 Rain 26 1017 100 6000 1 130 21:59 12.04.2020
4983 Rain 26 1017 100 10000 2.6 70 21:37 12.04.2020
4984 Rain 26 1017 100 10000 2.6 70 21:18 12.04.2020
4985 Rain 26 1017 100 10000 2.1 100 20:42 12.04.2020
4986 Rain 26 1016 94 10000 2.1 110 20:23 12.04.2020
4987 Rain 25 1016 100 10000 1.5 90 19:57 12.04.2020
4988 Rain 25 1016 100 10000 1 90 19:38 12.04.2020
4989 Rain 25 1015 100 10000 1.5 80 19:19 12.04.2020
4990 Rain 25 1015 100 10000 0.5 290 18:41 12.04.2020
4991 Rain 25 1015 100 10000 0.5 80 18:23 12.04.2020
4992 Rain 25 1015 100 10000 0.5 80 17:59 12.04.2020
4993 Rain 25 1015 100 10000 0.5 160 17:41 12.04.2020
4994 Rain 25 1015 100 10000 0.5 160 17:23 12.04.2020
4995 Rain 25 1015 100 10000 0.5 170 16:58 12.04.2020
4996 Rain 25 1014 100 10000 1 180 16:39 12.04.2020
4997 Rain 25 1014 100 10000 1 180 16:20 12.04.2020
4998 Rain 25 1014 100 10000 1.5 200 15:48 12.04.2020
4999 Rain 25 1014 100 10000 1.5 210 15:29 12.04.2020
5000 Rain 25 1015 100 10000 1 200 14:54 12.04.2020
5001 Rain 25 1015 100 10000 1 200 14:36 12.04.2020
5002 Rain 25 1015 100 10000 1 200 14:18 12.04.2020
5003 Rain 25 1015 100 10000 1 200 14:18 12.04.2020
5004 Rain 25 1015 100 10000 1.5 200 13:41 12.04.2020
5005 Rain 25 1015 100 10000 1.5 110 13:23 12.04.2020
5006 Rain 24 1015 100 10000 1 200 12:49 12.04.2020
5007 Rain 24 1015 100 4800 1 210 12:23 12.04.2020
5008 Rain 24 1015 100 4800 1 210 12:23 12.04.2020
5009 Rain 25 1015 100 8000 1 250 11:59 12.04.2020
5010 Rain 25 1015 100 8000 1 250 11:40 12.04.2020
5011 Rain 25 1015 94 9000 1 210 11:21 12.04.2020
5012 Rain 25 1016 94 1800 5.7 300 10:58 12.04.2020
5013 Rain 25 1016 94 1800 5.7 300 10:39 12.04.2020
5014 Rain 26 1015 94 10000 2.1 80 10:21 12.04.2020
5015 Rain 26 1015 94 10000 2.6 90 09:59 12.04.2020
5016 Rain 26 1015 94 0 0.91 294 09:39 12.04.2020
5017 Rain 26 1015 94 0 2.43 337 09:20 12.04.2020
5018 Rain 28 1014 94 10000 2.1 70 08:51 12.04.2020
5019 Rain 28 1014 94 10000 2.1 70 08:33 12.04.2020
5020 Rain 28 1014 94 10000 2.1 70 07:55 12.04.2020
5021 Rain 28 1014 88 10000 1.5 40 07:36 12.04.2020
5022 Rain 28 1014 88 10000 1.5 40 07:18 12.04.2020
5023 Rain 29 1014 83 10000 1 320 06:31 12.04.2020
5024 Rain 28 1013 88 10000 2.1 350 05:49 12.04.2020
5025 Rain 29 1013 89 10000 1 340 05:27 12.04.2020
5026 Rain 29 1013 89 10000 2.6 360 03:32 12.04.2020
5027 Rain 29 1014 89 10000 2.1 40 02:51 12.04.2020
5028 Rain 29 1014 83 10000 2.6 10 02:30 12.04.2020
5029 Rain 28 1014 88 10000 3.6 10 01:31 12.04.2020
5030 Rain 28 1015 94 10000 2.6 20 00:55 12.04.2020
5031 Rain 28 1015 88 10000 2.1 10 00:37 12.04.2020
5032 Rain 28 1015 88 10000 2.1 10 00:18 12.04.2020
5033 Rain 28 1015 88 10000 2.1 10 00:18 12.04.2020
5034 Rain 30 1015 84 10000 2.6 20 23:43 11.04.2020
5035 Rain 29 1015 83 10000 2.6 20 23:23 11.04.2020
5036 Rain 29 1015 83 10000 2.6 60 22:39 11.04.2020
5037 Rain 29 1015 83 10000 2.6 60 22:21 11.04.2020
5038 Rain 29 1015 83 10000 2.1 40 21:56 11.04.2020
5039 Rain 28 1015 88 10000 2.6 60 21:37 11.04.2020
5040 Rain 28 1015 88 10000 2.6 60 21:18 11.04.2020
5041 Rain 27 1015 94 10000 2.1 80 20:56 11.04.2020
5042 Rain 26 1015 100 10000 1.5 80 20:38 11.04.2020
5043 Rain 26 1015 100 10000 1.5 80 20:19 11.04.2020
5044 Rain 26 1015 100 10000 1 90 19:57 11.04.2020
5045 Rain 26 1014 100 10000 1 100 19:38 11.04.2020
5046 Rain 26 1014 100 10000 1 100 19:38 11.04.2020
5047 Rain 26 1014 100 10000 1 100 19:18 11.04.2020
5048 Rain 26 1014 100 10000 0.5 70 18:55 11.04.2020
5049 Rain 26 1014 100 10000 1 100 18:37 11.04.2020
5050 Clouds 26 1014 100 10000 1 100 18:18 11.04.2020
5051 Clouds 26 1014 100 10000 1.5 120 17:57 11.04.2020
5052 Rain 26 1014 100 10000 0.5 90 17:37 11.04.2020
5053 Rain 26 1014 100 10000 0.5 90 17:19 11.04.2020
5054 Clouds 26 1013 100 10000 0.5 120 16:42 11.04.2020
5055 Clouds 26 1013 100 10000 1 70 16:21 11.04.2020
5056 Rain 27 1013 94 1700 2.1 240 15:42 11.04.2020
5057 Rain 27 1013 94 1700 2.1 240 15:21 11.04.2020
5058 Clouds 27 1014 100 10000 1 190 14:59 11.04.2020
5059 Clouds 27 1014 100 10000 1 200 14:40 11.04.2020
5060 Clouds 27 1014 100 10000 1 200 14:22 11.04.2020
5061 Clouds 28 1014 94 9000 2.1 270 13:43 11.04.2020
5062 Clouds 28 1014 94 10000 2.6 270 13:25 11.04.2020
5063 Clouds 28 1014 94 10000 3.1 290 12:59 11.04.2020
5064 Clouds 28 1014 88 10000 3.1 280 12:38 11.04.2020
5065 Clouds 28 1014 88 10000 3.1 280 12:18 11.04.2020
5066 Clouds 28 1014 94 10000 3.1 290 11:43 11.04.2020
5067 Clouds 28 1014 88 10000 3.1 280 11:22 11.04.2020
5068 Clouds 28 1014 88 10000 3.1 280 10:57 11.04.2020
5069 Clouds 28 1014 88 10000 3.1 300 10:39 11.04.2020
5070 Clouds 28 1014 88 10000 3.1 300 10:21 11.04.2020
5071 Clouds 28 1014 88 10000 3.1 290 09:57 11.04.2020
5072 Clouds 28 1014 88 10000 3.1 300 09:38 11.04.2020
5073 Rain 28 1014 88 10000 3.1 300 09:19 11.04.2020
5074 Rain 28 1014 88 10000 3.6 300 08:43 11.04.2020
5075 Rain 28 1013 88 10000 4.1 290 08:23 11.04.2020
5076 Rain 28 1013 94 10000 3.1 280 07:49 11.04.2020
5077 Rain 28 1013 94 10000 2.1 300 07:28 11.04.2020
5078 Rain 28 1012 94 10000 2.1 310 06:44 11.04.2020
5079 Rain 28 1012 94 10000 2.6 300 05:59 11.04.2020
5080 Rain 29 1012 89 10000 3.1 290 04:33 11.04.2020
5081 Rain 29 1011 89 10000 3.1 290 03:30 11.04.2020
5082 Rain 29 1012 89 10000 3.1 320 01:48 11.04.2020
5083 Rain 29 1012 89 10000 3.6 310 01:19 11.04.2020
5084 Rain 29 1013 89 10000 3.1 320 00:42 11.04.2020
5085 Rain 29 1013 89 10000 3.1 320 00:18 11.04.2020
5086 Rain 28 1013 88 10000 2.6 320 23:54 10.04.2020
5087 Rain 28 1013 94 10000 2.6 330 23:36 10.04.2020
5088 Rain 28 1013 94 10000 2.6 330 23:18 10.04.2020
5089 Rain 28 1013 94 10000 3.1 310 22:42 10.04.2020
5090 Rain 27 1013 94 10000 4.1 320 22:20 10.04.2020
5091 Rain 28 1013 88 10000 3.6 310 21:42 10.04.2020
5092 Rain 28 1013 88 10000 3.6 310 21:42 10.04.2020
5093 Rain 27 1013 94 9000 3.1 320 21:22 10.04.2020
5094 Rain 27 1013 88 10000 2.6 350 20:59 10.04.2020
5095 Rain 26 1012 100 10000 0.5 110 20:41 10.04.2020
5096 Rain 26 1012 100 10000 0.5 110 20:21 10.04.2020
5097 Rain 25 1012 100 10000 0.5 60 19:56 10.04.2020
5098 Rain 25 1012 100 10000 0.5 60 19:56 10.04.2020
5099 Rain 25 1011 100 10000 0.5 140 19:38 10.04.2020
5100 Rain 25 1011 100 10000 0.5 140 19:38 10.04.2020
5101 Rain 26 1011 100 10000 1 170 19:19 10.04.2020
5102 Rain 26 1011 100 10000 1 170 18:56 10.04.2020
5103 Rain 26 1011 94 10000 1 210 18:38 10.04.2020
5104 Rain 26 1011 94 10000 1 210 18:38 10.04.2020
5105 Rain 26 1011 94 10000 1 210 18:20 10.04.2020
5106 Rain 26 1011 100 10000 3.1 290 17:57 10.04.2020
5107 Rain 26 1011 100 10000 3.6 280 17:39 10.04.2020
5108 Rain 26 1011 100 10000 3.6 280 17:19 10.04.2020
5109 Rain 26 1011 94 5000 3.1 260 16:45 10.04.2020
5110 Rain 26 1011 94 10000 4.1 250 16:24 10.04.2020
5111 Rain 26 1011 100 4100 4.1 290 15:59 10.04.2020
5112 Rain 26 1010 100 2000 5.1 290 15:39 10.04.2020
5113 Rain 26 1010 100 2000 5.1 290 15:21 10.04.2020
5114 Rain 27 1010 100 900 5.7 290 14:59 10.04.2020
5115 Rain 27 1010 94 6000 4.6 260 14:41 10.04.2020
5116 Rain 27 1010 94 6000 4.6 260 14:23 10.04.2020
5117 Rain 27 1010 94 4400 5.7 270 13:56 10.04.2020
5118 Rain 28 1010 94 7000 4.6 290 13:38 10.04.2020
5119 Rain 28 1010 94 7000 4.6 290 13:19 10.04.2020
5120 Rain 28 1011 94 6000 3.6 300 12:42 10.04.2020
5121 Clouds 28 1011 94 6000 3.6 300 12:21 10.04.2020
5122 Clouds 28 1011 94 6000 3.6 300 12:21 10.04.2020
5123 Clouds 28 1011 94 6000 4.1 290 11:44 10.04.2020
5124 Clouds 28 1011 94 6000 4.6 290 11:25 10.04.2020
5125 Haze 28 1011 94 4500 4.1 300 10:59 10.04.2020
5126 Haze 28 1011 94 4500 4.1 300 10:41 10.04.2020
5127 Clouds 28 1011 94 6000 4.6 290 10:22 10.04.2020
5128 Clouds 28 1011 94 7000 4.6 300 09:43 10.04.2020
5129 Rain 28 1011 94 10000 4.6 300 09:24 10.04.2020
5130 Rain 28 1010 94 8000 4.1 310 08:50 10.04.2020
5131 Rain 28 1010 94 8000 4.1 310 08:27 10.04.2020
5132 Rain 28 1010 94 8000 4.1 300 07:58 10.04.2020
5133 Rain 28 1010 94 10000 4.1 300 07:40 10.04.2020
5134 Rain 28 1010 94 10000 4.1 300 07:21 10.04.2020
5135 Rain 29 1009 89 10000 3.6 300 06:39 10.04.2020
5136 Rain 29 1009 89 10000 3.6 300 06:21 10.04.2020
5137 Rain 29 1009 89 10000 4.6 310 05:33 10.04.2020
5138 Rain 30 1009 84 9000 4.6 310 04:56 10.04.2020
5139 Rain 30 1009 89 10000 4.6 310 03:36 10.04.2020
5140 Rain 30 1009 89 10000 5.7 310 02:52 10.04.2020
5141 Rain 30 1009 89 10000 5.7 310 02:34 10.04.2020
5142 Rain 30 1009 89 10000 5.7 310 01:50 10.04.2020
5143 Rain 30 1010 89 10000 5.1 310 01:28 10.04.2020
5144 Rain 30 1010 89 10000 5.7 310 00:47 10.04.2020
5145 Clouds 30 1011 89 10000 4.6 310 00:21 10.04.2020
5146 Clouds 30 1011 89 10000 4.6 310 23:42 09.04.2020
5147 Clouds 31 1011 84 10000 7.2 310 23:24 09.04.2020
5148 Clouds 29 1011 89 10000 4.6 330 22:57 09.04.2020
5149 Clouds 30 1011 84 10000 7.7 320 22:39 09.04.2020
5150 Clouds 30 1011 84 10000 7.7 320 22:21 09.04.2020
5151 Clouds 29 1011 89 10000 7.2 330 21:38 09.04.2020
5152 Clouds 29 1011 89 10000 7.2 330 21:20 09.04.2020
5153 Clouds 28 1010 78 10000 6.2 330 20:47 09.04.2020
5154 Clouds 28 1010 78 10000 6.2 330 20:23 09.04.2020
5155 -273 0 0 0 0 0 19:59 09.04.2020
5156 Clouds 28 1009 94 10000 5.7 330 19:39 09.04.2020
5157 Clouds 28 1009 94 10000 5.7 330 19:21 09.04.2020
5158 Clouds 28 1009 94 10000 7.2 330 18:42 09.04.2020
5159 Clouds 28 1009 94 10000 7.2 330 18:21 09.04.2020
5160 Clouds 28 1009 88 10000 7.2 330 17:57 09.04.2020
5161 Clouds 28 1009 88 10000 7.2 330 17:38 09.04.2020
5162 Clouds 28 1009 88 10000 7.2 330 17:18 09.04.2020
5163 Clouds 28 1009 88 10000 6.7 330 16:39 09.04.2020
5164 Clouds 28 1009 88 10000 6.7 330 16:20 09.04.2020
5165 Clouds 27 1009 94 10000 6.2 330 15:56 09.04.2020
5166 Clouds 27 1009 94 10000 6.2 330 15:56 09.04.2020
5167 Clouds 27 1009 94 10000 6.2 330 15:37 09.04.2020
5168 Clouds 27 1009 94 10000 6.2 330 15:19 09.04.2020
5169 Clouds 27 1010 94 10000 5.7 330 14:42 09.04.2020
5170 Clouds 27 1010 94 10000 5.7 330 14:21 09.04.2020
5171 Clouds 27 1011 94 10000 7.7 330 13:57 09.04.2020
5172 Clouds 27 1011 94 10000 7.7 330 13:39 09.04.2020
5173 Clouds 27 1011 94 10000 7.7 330 13:21 09.04.2020
5174 Clouds 27 1011 94 10000 8.2 330 12:43 09.04.2020
5175 Clouds 27 1011 94 10000 8.2 330 12:24 09.04.2020
5176 Rain 27 1011 94 10000 7.7 340 11:59 09.04.2020
5177 Rain 27 1011 94 10000 7.7 340 11:59 09.04.2020
5178 Rain 27 1011 94 10000 7.7 340 11:41 09.04.2020
5179 Rain 27 1011 94 10000 7.7 340 11:20 09.04.2020
5180 Clouds 27 1011 88 10000 8.7 340 10:58 09.04.2020
5181 Clouds 27 1011 88 10000 8.7 340 10:39 09.04.2020
5182 Clouds 27 1011 88 10000 8.7 340 10:20 09.04.2020
5183 Clouds 27 1011 94 10000 9.8 350 09:55 09.04.2020
5184 Clouds 27 1011 94 10000 9.8 350 09:37 09.04.2020
5185 Clouds 27 1011 94 10000 9.8 350 09:19 09.04.2020
5186 Rain 27 1011 94 10000 4.6 340 08:43 09.04.2020
5187 Rain 27 1011 94 10000 4.6 340 08:23 09.04.2020
5188 Rain 27 1011 94 10000 4.6 340 08:23 09.04.2020
5189 Rain 28 1010 94 10000 7.7 360 07:52 09.04.2020
5190 Rain 28 1010 94 10000 7.7 360 07:24 09.04.2020
5191 Clouds 29 1010 89 10000 7.2 350 06:51 09.04.2020
5192 Clouds 31 1010 79 10000 6.7 360 05:56 09.04.2020
5193 Clouds 31 1010 79 10000 6.7 360 05:37 09.04.2020
5194 Clouds 30 1010 84 10000 8.2 360 03:20 09.04.2020
5195 Clouds 30 1011 84 10000 9.3 10 02:21 09.04.2020
5196 Clouds 30 1011 84 10000 8.2 10 01:39 09.04.2020
5197 Clouds 30 1011 84 10000 8.2 10 01:19 09.04.2020
5198 Clouds 30 1012 84 10000 7.7 10 00:38 09.04.2020
5199 Clouds 30 1012 84 10000 7.7 10 00:18 09.04.2020
5200 Clouds 29 1013 83 10000 7.7 20 23:44 08.04.2020
5201 Clouds 29 1013 83 10000 7.2 10 23:24 08.04.2020
5202 Clouds 29 1013 83 10000 7.2 10 22:57 08.04.2020
5203 Clouds 29 1013 83 10000 7.2 10 22:39 08.04.2020
5204 Clouds 27 1013 88 10000 7.2 20 22:21 08.04.2020
5205 Clouds 27 1013 88 10000 7.2 20 21:55 08.04.2020
5206 Clouds 27 1013 88 10000 7.2 20 21:37 08.04.2020
5207 Clouds 27 1013 88 10000 7.2 20 21:18 08.04.2020
5208 Clouds 27 1013 88 10000 7.7 20 20:41 08.04.2020
5209 Clouds 27 1012 88 10000 8.2 20 20:21 08.04.2020
5210 Clouds 27 1012 88 10000 8.2 20 20:21 08.04.2020
5211 Clouds 27 1012 88 10000 8.2 20 19:59 08.04.2020
5212 Clouds 27 1012 88 10000 8.2 20 19:40 08.04.2020
5213 Clouds 27 1012 88 10000 8.2 20 19:21 08.04.2020
5214 Clouds 27 1012 88 10000 6.7 30 18:45 08.04.2020
5215 Clouds 27 1012 88 10000 6.7 30 18:27 08.04.2020
5216 Clouds 27 1012 88 10000 9.3 10 17:57 08.04.2020
5217 Clouds 27 1012 88 10000 9.3 10 17:38 08.04.2020
5218 Clouds 27 1012 88 10000 9.3 10 17:19 08.04.2020
5219 Rain 28 1011 82 0 5.72 43 16:43 08.04.2020
5220 Rain 27 1012 88 10000 9.3 10 16:24 08.04.2020
5221 Rain 27 1012 88 10000 9.3 10 15:59 08.04.2020
5222 Rain 27 1012 88 10000 4.6 30 15:38 08.04.2020
5223 Rain 27 1012 88 10000 4.6 30 15:20 08.04.2020
5224 Rain 27 1012 88 10000 4.6 30 14:45 08.04.2020
5225 Rain 27 1012 88 10000 4.6 30 14:25 08.04.2020
5226 Rain 27 1013 88 10000 4.6 30 13:57 08.04.2020
5227 Rain 27 1013 88 10000 4.6 30 13:39 08.04.2020
5228 Rain 27 1013 88 10000 4.6 30 13:20 08.04.2020
5229 Clouds 28 1013 83 10000 3.1 50 12:42 08.04.2020
5230 Clouds 28 1013 83 10000 3.1 50 12:19 08.04.2020
5231 Clouds 28 1013 83 10000 4.6 50 11:58 08.04.2020
5232 Clouds 28 1013 83 10000 4.6 50 11:39 08.04.2020
5233 Clouds 28 1013 83 10000 4.6 50 11:21 08.04.2020
5234 Clouds 28 1013 83 10000 3.1 60 10:56 08.04.2020
5235 Clouds 28 1013 83 10000 3.1 60 10:56 08.04.2020
5236 Clouds 28 1013 83 10000 3.1 60 10:37 08.04.2020
5237 Clouds 28 1013 83 10000 3.1 60 10:18 08.04.2020
5238 Clouds 28 1013 83 10000 3.1 60 10:18 08.04.2020
5239 Clouds 28 1013 74 10000 3.1 60 09:42 08.04.2020
5240 Clouds 28 1013 74 10000 3.1 60 09:21 08.04.2020
5241 Clouds 28 1012 74 10000 3.1 60 08:59 08.04.2020
5242 Clouds 28 1012 74 10000 3.1 60 08:41 08.04.2020
5243 Clouds 28 1012 74 10000 3.1 60 08:22 08.04.2020
5244 Clouds 28 1012 83 10000 3.1 60 07:44 08.04.2020
5245 Clouds 28 1012 83 10000 3.1 60 07:23 08.04.2020
5246 Clouds 28 1011 83 10000 3.1 60 06:48 08.04.2020
5247 Clouds 28 1011 78 10000 2.6 50 05:49 08.04.2020
5248 Clouds 29 1011 83 10000 3.1 40 03:34 08.04.2020
5249 Clouds 29 1012 79 10000 3.1 40 02:41 08.04.2020
5250 Clouds 29 1012 79 10000 3.1 40 02:19 08.04.2020
5251 Clouds 29 1012 79 10000 4.1 40 01:30 08.04.2020
5252 Clouds 30 1013 79 10000 4.1 40 00:57 08.04.2020
5253 Clouds 30 1013 79 10000 4.1 40 00:39 08.04.2020
5254 Clouds 30 1013 79 10000 4.1 40 00:19 08.04.2020
5255 Clouds 29 1014 79 10000 3.1 50 23:39 07.04.2020
5256 Clouds 29 1014 79 10000 3.1 50 23:20 07.04.2020
5257 Clouds 28 1014 83 10000 4.1 40 22:56 07.04.2020
5258 Clouds 28 1014 83 10000 4.1 40 22:38 07.04.2020
5259 Clouds 28 1014 83 10000 4.1 40 22:19 07.04.2020
5260 Clouds 28 1013 83 10000 4.1 40 21:54 07.04.2020
5261 Clouds 28 1013 83 10000 4.1 40 21:36 07.04.2020
5262 Clouds 28 1013 83 10000 4.1 40 21:18 07.04.2020
5263 Clouds 27 1013 88 10000 3.6 50 20:41 07.04.2020
5264 Clouds 27 1013 88 10000 3.6 50 20:21 07.04.2020
5265 Clouds 27 1012 88 10000 3.6 60 19:58 07.04.2020
5266 Clouds 27 1012 88 10000 3.6 60 19:38 07.04.2020
5267 Clouds 27 1012 83 10000 3.1 60 19:20 07.04.2020
5268 Clouds 27 1012 83 10000 3.1 60 18:59 07.04.2020
5269 Clouds 27 1012 83 10000 3.1 60 18:40 07.04.2020
5270 Clouds 27 1012 83 10000 3.1 60 18:21 07.04.2020
5271 Clouds 27 1012 83 10000 2.6 50 17:48 07.04.2020
5272 Clouds 27 1012 83 10000 2.6 50 17:25 07.04.2020
5273 Clouds 26 1012 88 10000 2.1 70 16:59 07.04.2020
5274 Clouds 26 1012 88 10000 2.1 70 16:41 07.04.2020
5275 Clouds 26 1012 94 10000 3.1 60 16:22 07.04.2020
5276 Clouds 26 1012 94 10000 3.1 60 15:44 07.04.2020
5277 Clouds 26 1012 94 10000 2.1 80 15:26 07.04.2020
5278 Clouds 26 1012 94 10000 2.1 80 14:55 07.04.2020
5279 Clouds 26 1012 88 10000 2.6 80 14:36 07.04.2020
5280 Clouds 26 1012 88 10000 2.6 80 14:18 07.04.2020
5281 Clouds 26 1013 88 10000 2.6 90 13:41 07.04.2020
5282 Clouds 26 1013 88 10000 2.6 90 13:19 07.04.2020
5283 Clouds 26 1013 88 10000 2.6 90 12:56 07.04.2020
5284 Clouds 26 1013 83 10000 3.6 40 12:37 07.04.2020
5285 Clouds 26 1013 83 10000 3.6 40 12:19 07.04.2020
5286 Clouds 26 1013 83 10000 3.6 40 11:45 07.04.2020
5287 Clouds 26 1013 83 10000 3.6 40 11:27 07.04.2020
5288 Rain 27 1013 78 10000 3.6 40 10:59 07.04.2020
5289 Rain 27 1013 78 10000 3.6 40 10:39 07.04.2020
5290 Rain 27 1013 78 10000 3.6 40 10:19 07.04.2020
5291 Clouds 27 1012 78 10000 3.6 50 09:46 07.04.2020
5292 Clouds 27 1012 78 10000 3.6 50 09:20 07.04.2020
5293 Clouds 27 1012 78 10000 3.6 50 08:59 07.04.2020
5294 Clouds 27 1012 78 10000 3.6 50 08:39 07.04.2020
5295 Clouds 27 1012 78 10000 3.6 50 08:19 07.04.2020
5296 Clouds 27 1011 83 10000 2.1 90 07:44 07.04.2020
5297 Clouds 27 1011 83 10000 2.1 90 07:26 07.04.2020
5298 Clouds 28 1011 78 10000 2.6 70 06:51 07.04.2020
5299 Clouds 28 1011 78 10000 2.6 70 06:25 07.04.2020
5300 Clouds 29 1010 74 10000 2.6 60 05:46 07.04.2020
5301 Clouds 29 1010 74 10000 2.6 60 05:22 07.04.2020
5302 Clouds 29 1010 74 10000 3.1 40 03:32 07.04.2020
5303 Clouds 29 1010 79 10000 3.1 40 02:59 07.04.2020
5304 Clouds 29 1011 79 10000 2.6 40 01:59 07.04.2020
5305 Clouds 29 1011 79 10000 2.6 40 01:32 07.04.2020
5306 Clouds 29 1012 79 10000 3.1 30 00:29 07.04.2020
5307 Clouds 26 1012 88 10000 2.6 20 23:57 06.04.2020
5308 Clouds 26 1012 88 10000 2.6 20 23:38 06.04.2020
5309 Clouds 26 1012 88 10000 2.6 20 23:20 06.04.2020
5310 Clouds 26 1012 88 10000 2.1 140 22:41 06.04.2020
5311 Clouds 26 1012 88 10000 2.1 140 22:22 06.04.2020
5312 Clouds 25 1012 94 10000 2.1 100 21:58 06.04.2020
5313 Clouds 25 1012 94 10000 2.1 100 21:40 06.04.2020
5314 Clouds 25 1012 94 10000 2.1 100 21:19 06.04.2020
5315 Drizzle 24 1012 94 10000 2.1 100 20:55 06.04.2020
5316 Drizzle 24 1012 94 10000 2.1 100 20:55 06.04.2020
5317 Drizzle 24 1012 94 10000 2.1 100 20:37 06.04.2020
5318 Drizzle 24 1012 94 10000 2.1 100 20:19 06.04.2020
5319 Drizzle 24 1011 94 10000 1 140 19:41 06.04.2020
5320 Drizzle 24 1011 94 10000 1 140 19:23 06.04.2020
5321 Clouds 24 1010 94 10000 1.5 230 18:59 06.04.2020
5322 Clouds 24 1010 94 10000 1.5 230 18:39 06.04.2020
5323 Clouds 24 1010 94 10000 1.5 230 18:21 06.04.2020
5324 Clouds 24 1010 94 10000 1 110 17:42 06.04.2020
5325 Clouds 24 1010 94 10000 1 110 17:20 06.04.2020
5326 Clouds 24 1010 100 10000 1.5 120 16:50 06.04.2020
5327 Clouds 24 1010 100 10000 1.5 120 16:32 06.04.2020
5328 Rain 24 1010 94 10000 3.1 90 16:00 06.04.2020
5329 Rain 24 1010 94 10000 3.1 90 16:00 06.04.2020
5330 Drizzle 25 1010 94 10000 2.6 180 14:34 06.04.2020
5331 Drizzle 25 1010 94 10000 2.6 180 14:34 06.04.2020
5332 Drizzle 25 1010 94 10000 2.6 180 14:34 06.04.2020
5333 Drizzle 25 1010 94 10000 2.6 180 14:34 06.04.2020
5334 Drizzle 25 1010 94 10000 2.6 180 14:33 06.04.2020
5335 Rain 24 1010 94 10000 2.6 180 13:43 06.04.2020
5336 Rain 24 1010 94 10000 2.6 180 13:43 06.04.2020
5337 Rain 24 1010 94 10000 2.6 180 13:20 06.04.2020
5338 Rain 24 1010 94 10000 2.6 180 13:20 06.04.2020
5339 -273 0 0 0 0 0 13:20 06.04.2020
5340 Rain 24 1011 94 10000 1.5 150 12:25 06.04.2020
5341 Rain 24 1011 94 10000 1.5 150 12:25 06.04.2020
5342 Rain 24 1011 94 10000 1.5 150 12:23 06.04.2020
5343 Rain 24 1011 94 10000 1.5 150 12:23 06.04.2020
5344 Clouds 25 1010 88 10000 1.5 90 11:55 06.04.2020
5345 Clouds 25 1010 88 10000 1.5 90 11:55 06.04.2020
5346 Clouds 25 1010 88 10000 1.5 90 11:33 06.04.2020
5347 Clouds 25 1010 88 10000 1.5 90 11:33 06.04.2020
5348 Clouds 25 1010 88 10000 1.5 90 11:33 06.04.2020
5349 Clouds 25 1010 88 10000 1.5 90 11:33 06.04.2020
5350 Clouds 25 1010 88 10000 1.5 90 11:33 06.04.2020
5351 Clouds 25 1010 94 10000 0.5 140 10:52 06.04.2020
5352 Clouds 25 1010 94 10000 0.5 140 10:52 06.04.2020
5353 Clouds 25 1010 94 10000 0.5 140 10:52 06.04.2020
5354 Clouds 25 1010 94 10000 0.5 140 10:52 06.04.2020
5355 Clouds 25 1010 94 10000 0.5 140 10:52 06.04.2020
5356 Rain 25 1010 94 10000 0.5 160 10:22 06.04.2020
5357 Rain 25 1010 94 10000 0.5 160 09:47 06.04.2020
5358 Clouds 25 1009 88 10000 1 180 09:22 06.04.2020
5359 Clouds 25 1009 88 10000 1 180 08:55 06.04.2020
5360 Clouds 25 1009 88 10000 1 180 08:30 06.04.2020
5361 Clouds 26 1009 88 10000 1 180 07:39 06.04.2020
5362 Clouds 27 1008 83 10000 1.5 170 06:47 06.04.2020
5363 Clouds 27 1008 83 10000 1.5 170 06:24 06.04.2020
5364 Clouds 28 1008 78 10000 2.1 210 04:20 06.04.2020
5365 Rain 28 1009 83 10000 3.6 260 02:59 06.04.2020
5366 Rain 28 1009 83 10000 3.6 260 02:36 06.04.2020
5367 Rain 28 1009 83 10000 4.1 260 01:28 06.04.2020
5368 Rain 28 1009 83 10000 4.6 250 00:44 06.04.2020
5369 Clouds 28 1010 83 10000 4.1 300 00:23 06.04.2020
5370 Clouds 28 1010 83 10000 4.1 300 23:44 05.04.2020
5371 Clouds 28 1010 83 10000 4.1 300 23:25 05.04.2020
5372 Clouds 28 1010 83 10000 4.1 300 23:25 05.04.2020
5373 Clouds 27 1010 83 10000 5.7 290 22:55 05.04.2020
5374 Clouds 27 1010 83 10000 5.7 290 22:37 05.04.2020
5375 Clouds 27 1010 83 10000 5.7 290 22:18 05.04.2020
5376 Rain 27 1010 88 10000 5.7 290 21:45 05.04.2020
5377 Rain 27 1010 88 10000 5.7 290 21:24 05.04.2020
5378 Rain 27 1010 88 10000 5.7 290 21:24 05.04.2020
5379 Rain 27 1010 88 10000 5.7 290 21:24 05.04.2020
5380 Rain 28 1010 78 0 3 309 20:26 05.04.2020
5381 Rain 28 1010 78 0 3 309 20:00 05.04.2020
5382 Rain 28 1010 78 0 3 309 20:00 05.04.2020
5383 Rain 28 1010 78 0 3 309 19:37 05.04.2020
5384 Rain 28 1010 78 0 3 309 19:19 05.04.2020
5385 Rain 28 1010 78 0 3 309 18:44 05.04.2020
5386 Rain 28 1010 78 0 3 309 18:44 05.04.2020
5387 Rain 28 1010 78 0 3 309 18:44 05.04.2020
5388 Rain 28 1010 78 0 3 309 18:43 05.04.2020
5389 Rain 28 1010 78 0 3 309 18:42 05.04.2020
5390 Rain 27 1008 79 0 4.01 308 17:51 05.04.2020
5391 Rain 27 1008 79 0 4.01 308 17:51 05.04.2020
5392 Rain 27 1008 79 0 4.01 308 17:51 05.04.2020
5393 Rain 27 1008 79 0 4.01 308 17:51 05.04.2020
5394 Rain 27 1008 79 0 4.01 308 17:51 05.04.2020
5395 Clouds 26 1007 88 10000 5.7 300 17:23 05.04.2020
5396 Clouds 26 1007 88 10000 5.7 300 16:47 05.04.2020
5397 Clouds 26 1007 88 10000 5.7 300 16:20 05.04.2020
5398 Clouds 26 1007 88 10000 5.7 300 16:20 05.04.2020
5399 Rain 27 1008 79 0 4.01 308 15:49 05.04.2020
5400 Rain 27 1008 79 0 4.01 308 15:30 05.04.2020
5401 Clouds 27 1008 79 0 4 320 14:48 05.04.2020
5402 Clouds 27 1008 79 0 4 320 14:48 05.04.2020
5403 Clouds 27 1008 79 0 4 320 14:24 05.04.2020
5404 Clouds 27 1008 78 0 3.22 341 13:41 05.04.2020
5405 Clouds 27 1008 78 0 3.22 341 12:48 05.04.2020
5406 Clouds 27 1008 78 0 3.22 341 12:48 05.04.2020
5407 Clouds 27 1008 78 0 3.22 341 12:48 05.04.2020
5408 Clouds 27 1008 78 0 3.22 341 12:48 05.04.2020
5409 Clouds 27 1008 78 0 3.22 341 12:42 05.04.2020
5410 Drizzle 27 1009 83 10000 4.1 280 11:41 05.04.2020
5411 Drizzle 27 1009 83 10000 4.1 280 11:20 05.04.2020
5412 Drizzle 27 1009 83 10000 4.1 280 10:48 05.04.2020
5413 Rain 27 1009 88 10000 6.2 290 10:24 05.04.2020
5414 Rain 27 1009 88 10000 6.2 290 10:24 05.04.2020
5415 Rain 27 1009 88 10000 6.2 290 10:24 05.04.2020
5416 Rain 27 1009 88 10000 6.2 290 10:24 05.04.2020
5417 Rain 27 1009 88 10000 6.2 290 10:24 05.04.2020
5418 Rain 27 1009 88 10000 6.2 290 09:55 05.04.2020
5419 Rain 28 1008 88 10000 5.7 290 09:27 05.04.2020
5420 Rain 28 1008 88 10000 5.7 290 08:34 05.04.2020
5421 Rain 28 1008 88 10000 5.7 290 08:34 05.04.2020
5422 Rain 28 1007 88 10000 5.7 310 07:21 05.04.2020
5423 Rain 28 1007 83 10000 6.7 320 04:32 05.04.2020
5424 Rain 27 1008 88 10000 5.7 350 03:29 05.04.2020
5425 Rain 27 1008 88 10000 5.7 350 03:29 05.04.2020
5426 Rain 27 1009 88 10000 5.1 360 02:46 05.04.2020
5427 Rain 27 1009 88 10000 5.1 360 01:45 05.04.2020
5428 Rain 27 1009 83 10000 5.1 10 01:23 05.04.2020
5429 Rain 27 1009 83 10000 4.6 20 00:37 05.04.2020
5430 Rain 27 1010 88 0 3.47 43 00:19 05.04.2020
5431 Clouds 27 1010 88 10000 7.2 360 23:42 04.04.2020
5432 Clouds 27 1010 88 10000 7.2 360 23:22 04.04.2020
5433 Clouds 27 1010 88 10000 6.7 360 22:57 04.04.2020
5434 Clouds 27 1010 88 10000 6.7 360 22:39 04.04.2020
5435 Clouds 27 1010 88 10000 6.7 360 22:20 04.04.2020
5436 Clouds 26 1009 94 10000 6.7 20 21:57 04.04.2020
5437 Clouds 26 1009 94 10000 6.7 20 21:39 04.04.2020
5438 Clouds 26 1009 94 10000 6.7 20 21:19 04.04.2020
5439 Clouds 26 1010 88 10000 6.2 30 20:55 04.04.2020
5440 Clouds 26 1010 88 10000 6.2 30 20:36 04.04.2020
5441 Clouds 26 1010 88 10000 6.2 30 20:18 04.04.2020
5442 Clouds 25 1009 88 10000 4.1 40 19:41 04.04.2020
5443 Clouds 25 1009 88 10000 4.1 40 19:21 04.04.2020
5444 Rain 27 1011 78 0 3.6 91 18:59 04.04.2020
5445 Rain 27 1011 77 0 3.9 59 18:39 04.04.2020
5446 Rain 25 1009 94 10000 2.6 50 18:21 04.04.2020
5447 Rain 25 1009 94 10000 2.6 50 18:21 04.04.2020
5448 Rain 25 1009 94 10000 2.6 50 18:21 04.04.2020
5449 Rain 25 1009 94 10000 2.6 50 17:58 04.04.2020
5450 Rain 25 1009 94 10000 2.6 50 17:39 04.04.2020
5451 Rain 25 1009 94 10000 2.6 50 17:19 04.04.2020
5452 Rain 25 1009 94 10000 2.1 80 16:45 04.04.2020
5453 Rain 25 1009 94 10000 2.1 80 16:27 04.04.2020
5454 Clouds 24 1009 94 10000 2.1 90 15:58 04.04.2020
5455 Clouds 24 1009 94 10000 2.1 90 15:38 04.04.2020
5456 Clouds 24 1009 94 10000 2.1 90 15:19 04.04.2020
5457 Clouds 24 1009 94 10000 2.1 90 15:19 04.04.2020
5458 Clouds 24 1010 94 10000 1 150 14:46 04.04.2020
5459 Clouds 24 1010 94 10000 1 150 14:25 04.04.2020
5460 Clouds 24 1010 94 10000 2.1 80 14:00 04.04.2020
5461 Clouds 24 1010 94 10000 2.1 80 13:41 04.04.2020
5462 Clouds 24 1010 94 10000 2.1 80 13:41 04.04.2020
5463 Clouds 24 1010 94 10000 2.1 80 13:20 04.04.2020
5464 Rain 26 1010 79 0 2.18 170 12:57 04.04.2020
5465 Rain 26 1010 79 0 2.18 170 12:39 04.04.2020
5466 Rain 24 1011 94 10000 1 150 12:19 04.04.2020
5467 Rain 24 1011 94 10000 1 150 11:41 04.04.2020
5468 Rain 24 1011 94 10000 1 150 11:23 04.04.2020
5469 Drizzle 24 1011 100 10000 1 150 10:58 04.04.2020
5470 Drizzle 24 1011 100 10000 1 150 10:40 04.04.2020
5471 Drizzle 24 1011 100 10000 1 150 10:21 04.04.2020
5472 Rain 24 1010 94 10000 1 110 09:55 04.04.2020
5473 Rain 24 1010 94 10000 1 110 09:37 04.04.2020
5474 Rain 24 1010 94 10000 1 110 09:19 04.04.2020
5475 Drizzle 24 1009 88 10000 2.1 100 08:42 04.04.2020
5476 Rain 29 1010 83 10000 2.1 200 08:23 04.04.2020
5477 Rain 29 1010 83 10000 2.1 200 07:47 04.04.2020
5478 Rain 29 1010 83 10000 2.1 200 07:29 04.04.2020
5479 Rain 29 1010 83 10000 6.2 240 06:58 04.04.2020
5480 Rain 29 1010 83 10000 6.2 240 06:21 04.04.2020
5481 Rain 29 1008 83 10000 2.6 20 05:51 04.04.2020
5482 Rain 29 1008 83 10000 2.6 20 05:32 04.04.2020
5483 Clouds 30 1008 84 10000 4.1 350 04:33 04.04.2020
5484 Clouds 30 1008 84 10000 4.6 350 03:55 04.04.2020
5485 Clouds 30 1008 84 10000 4.6 350 03:27 04.04.2020
5486 Clouds 30 1008 84 10000 5.7 350 02:40 04.04.2020
5487 Clouds 30 1008 84 10000 5.7 350 02:22 04.04.2020
5488 Clouds 30 1009 84 10000 6.2 10 01:27 04.04.2020
5489 Clouds 30 1009 79 10000 6.2 350 00:55 04.04.2020
5490 Clouds 30 1009 79 10000 6.2 350 00:30 04.04.2020
5491 Clouds 29 1010 83 10000 5.7 360 23:55 03.04.2020
5492 Clouds 29 1010 83 10000 5.7 360 23:36 03.04.2020
5493 Clouds 29 1010 83 10000 5.7 360 23:18 03.04.2020
5494 Clouds 28 1010 83 10000 5.1 350 22:40 03.04.2020
5495 Clouds 28 1010 83 10000 5.1 350 22:19 03.04.2020
5496 Clouds 27 1010 94 10000 4.1 30 21:56 03.04.2020
5497 Clouds 27 1010 94 10000 4.1 30 21:37 03.04.2020
5498 Clouds 27 1010 94 10000 4.1 30 21:19 03.04.2020
5499 Clouds 26 1009 94 10000 2.1 50 20:54 03.04.2020
5500 Clouds 26 1009 94 10000 2.1 50 20:36 03.04.2020
5501 Clouds 26 1009 94 10000 2.1 50 20:18 03.04.2020
5502 Clouds 25 1009 94 10000 2.6 100 19:54 03.04.2020
5503 Clouds 25 1009 94 10000 2.6 100 19:36 03.04.2020
5504 Clouds 25 1009 94 10000 2.6 100 19:36 03.04.2020
5505 Clouds 25 1009 94 10000 2.6 100 19:18 03.04.2020
5506 Clouds 25 1008 88 10000 2.6 90 18:42 03.04.2020
5507 Clouds 25 1008 88 10000 2.6 90 18:23 03.04.2020
5508 Clouds 25 1008 88 10000 2.6 90 18:23 03.04.2020
5509 Clouds 24 1008 94 10000 2.6 90 17:58 03.04.2020
5510 Clouds 24 1008 94 10000 2.6 90 17:40 03.04.2020
5511 Clouds 24 1008 94 10000 2.6 90 17:19 03.04.2020
5512 Clouds 24 1008 94 10000 2.6 90 17:19 03.04.2020
5513 Rain 23 1008 100 10000 1.5 100 16:54 03.04.2020
5514 Rain 23 1008 100 10000 1.5 100 16:36 03.04.2020
5515 Rain 23 1008 100 10000 1.5 100 16:18 03.04.2020
5516 Drizzle 23 1008 94 10000 1 130 15:40 03.04.2020
5517 Drizzle 23 1008 94 10000 1 130 15:22 03.04.2020
5518 Drizzle 23 1008 94 10000 1.5 130 14:56 03.04.2020
5519 Rain 27 1009 76 0 3.5 315 14:38 03.04.2020
5520 Rain 27 1009 76 0 3.55 322 14:20 03.04.2020
5521 Rain 27 1009 76 0 3.55 322 13:45 03.04.2020
5522 Rain 24 1010 94 10000 2.1 70 13:26 03.04.2020
5523 Rain 24 1010 94 10000 2.1 70 12:56 03.04.2020
5524 Rain 24 1010 94 10000 2.1 70 12:37 03.04.2020
5525 Drizzle 24 1010 94 10000 2.1 180 12:18 03.04.2020
5526 Drizzle 24 1010 94 10000 2.1 180 12:18 03.04.2020
5527 Drizzle 24 1010 94 10000 2.1 180 11:54 03.04.2020
5528 Drizzle 24 1010 94 10000 2.1 180 11:36 03.04.2020
5529 Drizzle 24 1010 94 10000 2.1 180 11:18 03.04.2020
5530 Drizzle 24 1010 94 10000 2.6 90 10:54 03.04.2020
5531 Drizzle 24 1010 94 10000 2.6 90 10:36 03.04.2020
5532 Drizzle 24 1010 94 10000 2.6 90 10:18 03.04.2020
5533 Rain 24 1010 83 10000 0.5 180 09:40 03.04.2020
5534 Rain 24 1010 83 10000 0.5 180 09:22 03.04.2020
5535 Rain 24 1010 83 10000 0.5 180 08:57 03.04.2020
5536 Rain 24 1010 83 10000 0.5 180 08:38 03.04.2020
5537 Rain 24 1010 83 10000 0.5 180 08:20 03.04.2020
5538 Drizzle 25 1009 94 10000 2.1 80 07:48 03.04.2020
5539 Drizzle 25 1009 94 10000 2.1 80 07:29 03.04.2020
5540 Drizzle 25 1008 94 9000 2.1 50 06:42 03.04.2020
5541 Drizzle 25 1008 94 9000 2.1 50 06:23 03.04.2020
5542 Rain 25 1008 94 9000 1.5 170 05:39 03.04.2020
5543 Rain 25 1008 94 9000 3.6 270 03:42 03.04.2020
5544 Rain 30 1007 84 10000 4.6 320 02:56 03.04.2020
5545 Rain 30 1007 84 10000 4.6 320 02:27 03.04.2020
5546 Rain 28 1007 94 10000 2.6 300 01:22 03.04.2020
5547 Drizzle 31 1008 74 10000 3.1 320 00:36 03.04.2020
5548 Drizzle 31 1008 74 10000 3.1 320 00:18 03.04.2020
5549 Clouds 28 1009 83 10000 1 280 23:40 02.04.2020
5550 Clouds 28 1009 83 10000 1 280 23:21 02.04.2020
5551 Clouds 28 1009 88 10000 1 340 22:57 02.04.2020
5552 Clouds 28 1009 88 10000 1 340 22:37 02.04.2020
5553 Clouds 28 1009 88 10000 1 340 22:18 02.04.2020
5554 Clouds 27 1008 88 10000 4.6 300 21:39 02.04.2020
5555 Clouds 27 1008 88 10000 4.6 300 21:20 02.04.2020
5556 Clouds 27 1008 88 10000 1 150 20:58 02.04.2020
5557 Clouds 27 1008 88 10000 1 150 20:58 02.04.2020
5558 Clouds 27 1008 88 10000 1 150 20:58 02.04.2020
5559 Clouds 27 1008 88 10000 1 150 20:40 02.04.2020
5560 Clouds 27 1008 88 10000 1 150 20:21 02.04.2020
5561 Clouds 25 1008 94 10000 1 110 19:44 02.04.2020
5562 Clouds 25 1008 94 10000 1 110 19:21 02.04.2020
5563 Clouds 25 1007 94 10000 1.5 80 18:58 02.04.2020
5564 Clouds 25 1007 94 10000 1.5 80 18:39 02.04.2020
5565 Clouds 25 1007 94 10000 1.5 80 18:20 02.04.2020
5566 Clouds 25 1007 94 10000 1 120 17:56 02.04.2020
5567 Clouds 25 1007 94 10000 1 120 17:38 02.04.2020
5568 Clouds 25 1007 94 10000 1 120 17:18 02.04.2020
5569 Clouds 25 1007 94 10000 1.5 90 16:55 02.04.2020
5570 Clouds 25 1007 94 10000 1.5 90 16:36 02.04.2020
5571 Clouds 25 1007 94 10000 1.5 90 16:36 02.04.2020
5572 Clouds 25 1007 94 10000 1.5 90 16:18 02.04.2020
5573 -273 0 0 0 0 0 15:44 02.04.2020
5574 Clouds 25 1007 94 10000 1 150 15:43 02.04.2020
5575 Clouds 25 1007 94 10000 1 150 15:43 02.04.2020
5576 Clouds 25 1007 94 10000 1 150 15:21 02.04.2020
5577 Clouds 25 1007 94 10000 2.1 120 14:58 02.04.2020
5578 Clouds 25 1007 94 10000 2.1 120 14:58 02.04.2020
5579 Clouds 25 1007 94 10000 2.1 120 14:39 02.04.2020
5580 Clouds 25 1007 94 10000 2.1 120 14:19 02.04.2020
5581 Clouds 25 1008 94 10000 2.1 170 13:55 02.04.2020
5582 Clouds 25 1008 94 10000 2.1 170 13:37 02.04.2020
5583 Clouds 25 1008 94 10000 2.1 170 13:18 02.04.2020
5584 Clouds 25 1008 94 10000 1.5 160 12:46 02.04.2020
5585 Clouds 25 1008 94 10000 1.5 160 12:20 02.04.2020
5586 Clouds 26 1008 88 10000 1 120 11:58 02.04.2020
5587 Clouds 26 1008 88 10000 1 120 11:58 02.04.2020
5588 Clouds 26 1008 88 10000 1 120 11:39 02.04.2020
5589 Drizzle 26 1008 94 10000 1 120 11:20 02.04.2020
5590 Drizzle 26 1008 94 10000 1 120 10:56 02.04.2020
5591 Drizzle 26 1008 94 10000 1 120 10:38 02.04.2020
5592 Drizzle 26 1008 94 10000 1 170 10:20 02.04.2020
5593 Rain 28 1009 79 0 2.12 324 09:58 02.04.2020
5594 Rain 28 1009 79 0 2.12 324 09:58 02.04.2020
5595 Rain 28 1009 79 0 2.12 324 09:40 02.04.2020
5596 Clouds 26 1008 94 10000 1.5 190 09:20 02.04.2020
5597 Clouds 26 1008 94 10000 1.5 190 08:47 02.04.2020
5598 Clouds 26 1008 94 10000 1.5 190 08:47 02.04.2020
5599 Clouds 28 1008 83 10000 1.5 180 08:27 02.04.2020
5600 Clouds 28 1008 83 10000 1.5 180 07:47 02.04.2020
5601 Clouds 28 1008 83 10000 1.5 180 07:22 02.04.2020
5602 Clouds 29 1008 83 10000 2.1 250 06:59 02.04.2020
5603 Clouds 29 1008 83 10000 2.1 250 06:23 02.04.2020
5604 Clouds 29 1009 83 10000 2.6 260 05:45 02.04.2020
5605 Clouds 29 1007 83 10000 3.6 270 04:47 02.04.2020
5606 Rain 29 1008 83 10000 3.1 290 02:18 02.04.2020
5607 Clouds 29 1010 83 10000 5.1 300 00:54 02.04.2020
5608 Clouds 29 1010 83 10000 5.1 300 00:31 02.04.2020
5609 Clouds 29 1010 83 10000 5.1 300 23:59 01.04.2020
5610 Clouds 29 1010 83 10000 5.1 300 23:37 01.04.2020
5611 Clouds 29 1010 83 10000 5.1 300 23:18 01.04.2020
5612 Clouds 28 1010 78 10000 5.7 290 22:41 01.04.2020
5613 Clouds 28 1010 78 10000 5.7 290 22:22 01.04.2020
5614 Clouds 27 1010 88 10000 4.6 290 21:58 01.04.2020
5615 Clouds 27 1010 88 10000 4.6 290 21:58 01.04.2020
5616 Clouds 27 1010 88 10000 4.6 290 21:39 01.04.2020
5617 Clouds 27 1010 88 10000 4.6 290 21:19 01.04.2020
5618 Clouds 27 1010 88 10000 4.6 290 21:19 01.04.2020
5619 Rain 28 1011 78 0 4.26 333 20:55 01.04.2020
5620 Rain 28 1011 78 0 4.26 333 20:37 01.04.2020
5621 Drizzle 27 1009 88 10000 4.6 330 20:18 01.04.2020
5622 Drizzle 27 1009 88 10000 4.6 330 19:43 01.04.2020
5623 Drizzle 27 1009 88 10000 4.6 330 19:22 01.04.2020
5624 Clouds 27 1009 94 10000 4.6 330 18:59 01.04.2020
5625 Clouds 27 1009 94 10000 4.6 330 18:59 01.04.2020
5626 Clouds 27 1009 94 10000 4.6 330 18:59 01.04.2020
5627 Clouds 27 1009 94 10000 4.6 330 18:40 01.04.2020
5628 Clouds 27 1009 94 10000 4.6 330 18:21 01.04.2020
5629 Clouds 27 1008 94 10000 4.6 340 17:56 01.04.2020
5630 Clouds 27 1008 94 10000 4.6 340 17:56 01.04.2020
5631 Clouds 27 1008 94 10000 4.6 340 17:36 01.04.2020
5632 Clouds 27 1008 94 10000 4.6 340 17:36 01.04.2020
5633 Clouds 27 1008 94 10000 4.6 340 17:18 01.04.2020
5634 Clouds 27 1008 94 10000 4.6 340 16:43 01.04.2020
5635 Clouds 27 1008 94 10000 4.6 340 16:24 01.04.2020
5636 Clouds 28 1009 88 10000 5.7 340 15:59 01.04.2020
5637 Clouds 28 1009 88 10000 5.7 340 15:41 01.04.2020
5638 Clouds 28 1009 88 10000 5.7 340 15:21 01.04.2020
5639 Clouds 28 1009 88 10000 6.2 350 14:57 01.04.2020
5640 Clouds 28 1009 88 10000 6.2 350 14:38 01.04.2020
5641 Clouds 28 1009 88 10000 6.2 350 14:38 01.04.2020
5642 Clouds 28 1009 88 10000 6.2 350 14:19 01.04.2020
5643 Clouds 28 1009 88 10000 6.2 350 14:19 01.04.2020
5644 Clouds 28 1009 83 10000 7.7 360 13:58 01.04.2020
5645 Clouds 28 1009 83 10000 7.7 360 13:38 01.04.2020
5646 Clouds 28 1009 83 10000 7.7 360 13:19 01.04.2020
5647 Clouds 27 1010 88 10000 5.1 10 12:55 01.04.2020
5648 Clouds 27 1010 88 10000 5.1 10 12:36 01.04.2020
5649 Clouds 27 1010 88 10000 5.1 10 12:18 01.04.2020
5650 Rain 27 1011 94 10000 5.1 10 11:42 01.04.2020
5651 Clouds 26 1011 94 10000 3.6 10 11:23 01.04.2020
5652 Clouds 26 1011 94 10000 3.6 10 10:58 01.04.2020
5653 Clouds 26 1011 94 10000 3.6 10 10:37 01.04.2020
5654 Clouds 27 1011 88 10000 4.1 30 10:18 01.04.2020
5655 Clouds 27 1011 88 10000 4.1 30 09:55 01.04.2020
5656 Clouds 27 1011 88 10000 4.1 30 09:37 01.04.2020
5657 Clouds 27 1011 88 10000 3.1 30 09:18 01.04.2020
5658 Clouds 27 1011 88 10000 3.1 30 09:18 01.04.2020
5659 Clouds 27 1011 88 10000 3.1 30 08:40 01.04.2020
5660 Clouds 27 1010 88 10000 3.1 40 08:18 01.04.2020
5661 Clouds 27 1010 88 10000 3.1 40 07:42 01.04.2020
5662 Clouds 27 1010 88 10000 3.1 40 07:20 01.04.2020
5663 Clouds 28 1010 83 10000 2.1 40 06:47 01.04.2020
5664 Clouds 28 1010 83 10000 2.1 40 06:23 01.04.2020
5665 Clouds 28 1010 83 10000 2.1 40 05:55 01.04.2020
5666 Clouds 30 1010 79 10000 3.6 10 04:30 01.04.2020
5667 Clouds 31 1012 79 10000 4.1 80 03:28 01.04.2020
5668 Clouds 31 1012 79 10000 4.1 80 02:49 01.04.2020
5669 Clouds 31 1012 79 10000 4.1 80 01:54 01.04.2020
5670 Clouds 31 1012 79 10000 4.1 80 01:29 01.04.2020
5671 Clouds 30 1013 79 10000 4.54 19 00:58 01.04.2020
5672 Clouds 30 1013 79 10000 4.54 19 00:40 01.04.2020
5673 Clouds 30 1013 79 10000 4.36 46 00:18 01.04.2020
5674 Clouds 29 1013 83 10000 3.1 50 23:41 31.03.2020
5675 Clouds 29 1013 83 10000 3.1 50 23:22 31.03.2020
5676 Clear 27 1013 78 0 4.36 46 22:43 31.03.2020
5677 Clear 27 1013 78 0 4.36 46 22:23 31.03.2020
5678 Rain 28 1013 88 10000 5.7 40 21:59 31.03.2020
5679 Rain 28 1013 88 10000 5.7 40 21:59 31.03.2020
5680 Rain 28 1013 88 10000 5.7 40 21:40 31.03.2020
5681 Rain 28 1013 88 10000 5.7 40 21:22 31.03.2020
5682 Clouds 27 1013 88 10000 5.7 40 20:58 31.03.2020
5683 Clouds 27 1013 88 10000 5.7 40 20:38 31.03.2020
5684 Clouds 27 1013 88 10000 5.7 40 20:20 31.03.2020
5685 Clouds 28 1013 83 10000 1.5 80 19:58 31.03.2020
5686 Clouds 28 1013 83 10000 1.5 80 19:39 31.03.2020
5687 Clouds 28 1013 83 10000 1.5 80 19:21 31.03.2020
5688 Clouds 27 1012 83 10000 3.1 40 18:46 31.03.2020
5689 Clouds 27 1012 83 10000 3.1 40 18:21 31.03.2020
5690 Clouds 27 1012 83 10000 3.1 40 17:58 31.03.2020
5691 Clouds 27 1012 83 10000 3.1 40 17:40 31.03.2020
5692 Clouds 27 1012 83 10000 3.1 40 17:40 31.03.2020
5693 Clouds 27 1012 83 10000 3.1 40 17:21 31.03.2020
5694 Clouds 27 1012 83 10000 3.1 40 17:21 31.03.2020
5695 Clouds 27 1012 88 10000 2.6 40 16:57 31.03.2020
5696 Clouds 27 1012 88 10000 2.6 40 16:37 31.03.2020
5697 Clouds 27 1012 88 10000 2.6 40 16:18 31.03.2020
5698 Clouds 27 1012 88 10000 2.1 60 15:56 31.03.2020
5699 Clouds 27 1012 88 10000 2.1 60 15:37 31.03.2020
5700 Clouds 27 1012 88 10000 2.1 60 15:18 31.03.2020
5701 Clouds 27 1012 88 10000 2.6 60 14:43 31.03.2020
5702 Clouds 27 1012 88 10000 2.6 60 14:24 31.03.2020
5703 Clouds 27 1013 88 10000 2.6 80 13:59 31.03.2020
5704 Clouds 27 1013 88 10000 2.6 80 13:41 31.03.2020
5705 Clouds 27 1013 88 10000 2.6 80 13:19 31.03.2020
5706 Clouds 26 1014 88 10000 3.1 80 12:46 31.03.2020
5707 Clouds 26 1014 88 10000 3.1 80 12:21 31.03.2020
5708 Clouds 26 1014 88 10000 3.1 80 12:21 31.03.2020
5709 Clouds 26 1014 88 10000 4.1 90 11:59 31.03.2020
5710 Clouds 26 1014 88 10000 4.1 90 11:38 31.03.2020
5711 Clouds 26 1014 88 10000 4.1 90 11:19 31.03.2020
5712 Clouds 26 1014 94 10000 3.1 90 10:55 31.03.2020
5713 Clouds 26 1014 94 10000 3.1 90 10:37 31.03.2020
5714 Clouds 26 1014 94 10000 3.1 90 10:19 31.03.2020
5715 Clouds 27 1013 83 10000 3.1 90 09:44 31.03.2020
5716 Clouds 27 1013 83 10000 3.1 90 09:25 31.03.2020
5717 Drizzle 27 1013 83 10000 3.6 80 08:58 31.03.2020
5718 Drizzle 27 1013 83 10000 3.6 80 08:40 31.03.2020
5719 Drizzle 27 1013 83 10000 3.6 80 08:20 31.03.2020
5720 Clouds 27 1012 83 10000 6.2 80 07:57 31.03.2020
5721 Clouds 27 1012 83 10000 6.2 80 07:38 31.03.2020
5722 Clouds 27 1012 83 10000 6.2 80 07:38 31.03.2020
5723 Clouds 27 1012 83 10000 6.2 80 07:20 31.03.2020
5724 Clouds 27 1012 83 10000 6.2 80 07:20 31.03.2020
5725 Clouds 28 1012 78 10000 6.2 80 06:51 31.03.2020
5726 Clouds 28 1012 78 10000 6.2 80 06:31 31.03.2020
5727 Clouds 29 1012 74 10000 6.2 80 05:41 31.03.2020
5728 Clouds 29 1012 74 10000 6.2 80 03:57 31.03.2020
5729 Clouds 30 1012 70 10000 6.7 80 02:26 31.03.2020
5730 Clouds 30 1013 74 10000 5.1 80 01:46 31.03.2020
5731 Clouds 29 1014 74 10000 6.2 80 00:52 31.03.2020
5732 Clouds 29 1014 74 10000 6.2 80 00:25 31.03.2020
5733 Clouds 29 1015 74 10000 4.6 70 23:59 30.03.2020
5734 Clouds 29 1015 74 10000 4.6 70 23:38 30.03.2020
5735 Clouds 29 1015 74 10000 4.6 70 23:18 30.03.2020
5736 Clouds 29 1015 74 10000 4.1 110 22:56 30.03.2020
5737 Clouds 29 1015 74 10000 4.1 110 22:37 30.03.2020
5738 Clouds 29 1015 74 10000 4.1 110 22:18 30.03.2020
5739 Clouds 28 1015 74 10000 3.6 100 21:55 30.03.2020
5740 Clouds 28 1015 74 10000 3.6 100 21:36 30.03.2020
5741 Clouds 28 1015 74 10000 3.6 100 21:18 30.03.2020
5742 Clouds 27 1014 78 10000 3.6 90 20:42 30.03.2020
5743 Clouds 27 1014 78 10000 3.6 90 20:24 30.03.2020
5744 Clouds 27 1014 78 10000 3.6 90 20:24 30.03.2020
5745 Clouds 27 1014 78 10000 3.6 90 20:24 30.03.2020
5746 Clouds 26 1014 78 10000 3.1 100 19:59 30.03.2020
5747 Clouds 26 1014 78 10000 3.1 100 19:40 30.03.2020
5748 Clouds 26 1014 78 10000 3.1 100 19:21 30.03.2020
5749 Clouds 26 1013 83 10000 2.1 100 18:56 30.03.2020
5750 Clouds 26 1013 83 10000 2.1 100 18:37 30.03.2020
5751 Clouds 26 1013 83 10000 2.1 100 18:19 30.03.2020
5752 Clouds 26 1013 78 10000 3.1 90 17:55 30.03.2020
5753 Clouds 26 1013 78 10000 3.1 90 17:36 30.03.2020
5754 Clouds 26 1013 78 10000 3.1 90 17:18 30.03.2020
5755 Clouds 26 1013 78 10000 3.1 100 16:41 30.03.2020
5756 Clouds 26 1013 78 10000 3.1 100 16:22 30.03.2020
5757 Clouds 26 1013 78 10000 3.1 90 15:57 30.03.2020
5758 Clouds 26 1013 78 10000 3.1 90 15:57 30.03.2020
5759 Clouds 26 1013 78 10000 3.1 90 15:39 30.03.2020
5760 Clouds 26 1013 78 10000 3.1 90 15:21 30.03.2020
5761 Clouds 26 1013 78 10000 3.6 90 14:58 30.03.2020
5762 Clouds 26 1013 78 10000 3.6 90 14:38 30.03.2020
5763 Clouds 27 1013 78 10000 4.1 80 14:19 30.03.2020
5764 Clouds 27 1013 78 10000 4.1 80 13:58 30.03.2020
5765 Clouds 27 1013 78 10000 4.1 80 13:39 30.03.2020
5766 Clouds 27 1013 78 10000 4.1 80 13:19 30.03.2020
5767 Clouds 27 1013 78 10000 4.1 80 12:45 30.03.2020
5768 Clouds 27 1013 78 10000 4.1 80 12:21 30.03.2020
5769 Clouds 27 1013 78 10000 4.1 80 12:21 30.03.2020
5770 Clouds 26 1014 88 10000 3.6 80 11:58 30.03.2020
5771 Clouds 26 1014 88 10000 3.6 80 11:58 30.03.2020
5772 Clouds 26 1014 88 10000 3.6 80 11:40 30.03.2020
5773 Clouds 26 1014 88 10000 3.6 80 11:21 30.03.2020
5774 Clouds 27 1014 83 10000 3.6 80 10:55 30.03.2020
5775 Clouds 27 1014 83 10000 3.6 80 10:37 30.03.2020
5776 Clouds 27 1014 83 10000 3.6 80 10:18 30.03.2020
5777 Clouds 28 1014 74 10000 3.1 70 09:40 30.03.2020
5778 Clouds 28 1014 74 10000 3.1 70 09:19 30.03.2020
5779 Clouds 27 1013 78 10000 3.6 80 08:54 30.03.2020
5780 Clouds 27 1013 78 10000 3.6 80 08:36 30.03.2020
5781 Clouds 27 1013 78 10000 3.6 80 08:18 30.03.2020
5782 Clouds 28 1012 74 10000 4.1 60 07:41 30.03.2020
5783 Clouds 28 1012 74 10000 4.1 60 07:20 30.03.2020
5784 Clouds 28 1012 74 10000 4.1 60 06:39 30.03.2020
5785 Clouds 28 1012 74 10000 4.1 60 06:19 30.03.2020
5786 Clouds 30 1011 70 10000 4.1 60 05:39 30.03.2020
5787 Clouds 30 1012 70 10000 4.1 60 04:28 30.03.2020
5788 Clouds 30 1012 70 10000 3.6 60 03:52 30.03.2020
5789 Clouds 30 1012 70 10000 4.6 70 02:44 30.03.2020
5790 Clouds 30 1012 70 10000 4.1 60 01:54 30.03.2020
5791 Clouds 30 1013 70 10000 4.1 60 00:56 30.03.2020
5792 Clouds 30 1013 70 10000 4.1 60 00:25 30.03.2020
5793 Clouds 30 1013 70 10000 4.1 60 00:25 30.03.2020
5794 Clouds 29 1013 74 10000 5.1 70 23:55 29.03.2020
5795 Clouds 29 1013 74 10000 5.1 70 23:36 29.03.2020
5796 Clouds 29 1013 74 10000 5.1 70 23:18 29.03.2020
5797 Clouds 29 1013 74 10000 4.1 70 22:39 29.03.2020
5798 Clouds 29 1013 74 10000 4.1 70 22:39 29.03.2020
5799 Clouds 29 1013 74 10000 4.1 70 22:20 29.03.2020
5800 Clouds 29 1013 74 10000 4.6 80 21:58 29.03.2020
5801 Clouds 29 1013 74 10000 4.6 80 21:37 29.03.2020
5802 Clouds 29 1013 74 10000 4.6 80 21:18 29.03.2020
5803 Clouds 27 1012 83 10000 4.1 90 20:55 29.03.2020
5804 Clouds 27 1012 83 10000 4.1 90 20:55 29.03.2020
5805 Clouds 27 1012 83 10000 4.1 90 20:37 29.03.2020
5806 Clouds 27 1012 83 10000 4.1 90 20:37 29.03.2020
5807 Clouds 27 1012 83 10000 4.1 90 20:37 29.03.2020
5808 Clouds 27 1012 83 10000 4.1 90 20:18 29.03.2020
5809 Clouds 27 1012 83 10000 3.1 90 19:54 29.03.2020
5810 Clouds 27 1012 83 10000 3.1 90 19:36 29.03.2020
5811 Clouds 27 1012 83 10000 3.1 90 19:18 29.03.2020
5812 Clouds 27 1011 83 10000 3.1 80 18:54 29.03.2020
5813 Clouds 27 1011 83 10000 3.1 80 18:54 29.03.2020
5814 Clouds 27 1011 83 10000 3.1 80 18:36 29.03.2020
5815 Clouds 27 1011 83 10000 3.1 80 18:36 29.03.2020
5816 Clouds 27 1011 83 10000 3.1 80 18:18 29.03.2020
5817 Clouds 27 1011 83 10000 3.1 80 18:18 29.03.2020
5818 Clouds 27 1011 83 10000 4.1 80 17:42 29.03.2020
5819 Clouds 27 1011 83 10000 4.1 80 17:22 29.03.2020
5820 Clouds 27 1011 83 10000 3.6 80 16:58 29.03.2020
5821 Clouds 27 1011 83 10000 3.6 80 16:39 29.03.2020
5822 Clouds 27 1011 83 10000 3.6 80 16:21 29.03.2020
5823 Clouds 27 1011 83 10000 3.6 70 15:58 29.03.2020
5824 Clouds 27 1011 83 10000 3.6 70 15:39 29.03.2020
5825 Clouds 27 1011 83 10000 3.6 70 15:19 29.03.2020
5826 Clouds 27 1012 83 10000 4.1 70 14:55 29.03.2020
5827 Clouds 27 1012 83 10000 4.1 70 14:36 29.03.2020
5828 Clouds 27 1012 83 10000 4.1 70 14:36 29.03.2020
5829 Clouds 27 1012 83 10000 4.1 70 14:18 29.03.2020
5830 Clouds 27 1012 83 10000 5.1 60 13:42 29.03.2020
5831 Clouds 27 1012 83 10000 5.1 60 13:22 29.03.2020
5832 Clouds 28 1012 78 10000 5.1 60 12:58 29.03.2020
5833 Clouds 28 1012 78 10000 5.1 60 12:39 29.03.2020
5834 Clouds 28 1012 78 10000 5.1 60 12:19 29.03.2020
5835 Clouds 27 1013 88 10000 1.5 80 11:58 29.03.2020
5836 Clouds 27 1013 88 10000 1.5 80 11:37 29.03.2020
5837 Clouds 27 1013 88 10000 1.5 80 11:19 29.03.2020
5838 Clouds 27 1013 88 10000 3.1 80 10:39 29.03.2020
5839 Clouds 27 1013 88 10000 3.1 80 10:20 29.03.2020
5840 Clouds 27 1013 83 10000 3.6 90 09:56 29.03.2020
5841 Clouds 27 1013 83 10000 3.6 90 09:56 29.03.2020
5842 Clouds 27 1013 83 10000 3.6 90 09:37 29.03.2020
5843 Clouds 27 1013 83 10000 3.6 90 09:18 29.03.2020
5844 Clouds 27 1012 83 10000 2.6 80 08:43 29.03.2020
5845 Clouds 28 1011 78 10000 2.1 90 08:24 29.03.2020
5846 Clouds 28 1011 78 10000 2.1 90 07:47 29.03.2020
5847 Clouds 28 1011 78 10000 2.1 90 07:23 29.03.2020
5848 Clouds 29 1011 74 10000 4.6 90 05:59 29.03.2020
5849 Clouds 30 1010 70 10000 3.1 70 04:56 29.03.2020
5850 Clouds 30 1011 74 10000 3.6 50 03:41 29.03.2020
5851 Clouds 30 1011 74 10000 3.6 50 01:57 29.03.2020
5852 Clouds 30 1011 74 10000 3.6 50 01:39 29.03.2020
5853 Clouds 30 1011 74 10000 3.6 50 01:19 29.03.2020
5854 Clouds 30 1011 74 10000 3.6 50 00:39 29.03.2020
5855 Clouds 30 1013 74 10000 3.6 50 23:59 28.03.2020
5856 Clouds 30 1013 74 10000 3.6 50 23:40 28.03.2020
5857 Clouds 30 1013 74 10000 3.6 50 23:40 28.03.2020
5858 Clouds 30 1013 74 10000 3.6 50 23:22 28.03.2020
5859 Clouds 30 1013 74 10000 3.6 50 22:42 28.03.2020
5860 Clouds 30 1013 74 10000 3.6 50 22:22 28.03.2020
5861 Clouds 30 1013 74 10000 2.6 60 21:57 28.03.2020
5862 Clouds 30 1013 74 10000 2.6 60 21:39 28.03.2020
5863 Clouds 30 1013 74 10000 2.6 60 21:19 28.03.2020
5864 Clouds 29 1013 79 10000 2.6 70 20:54 28.03.2020
5865 Clouds 29 1013 79 10000 2.6 70 20:36 28.03.2020
5866 Clouds 29 1013 79 10000 2.6 70 20:36 28.03.2020
5867 Clouds 29 1013 79 10000 2.6 70 20:18 28.03.2020
5868 Clouds 27 1012 83 10000 2.6 70 19:54 28.03.2020
5869 Clouds 27 1012 83 10000 2.6 70 19:36 28.03.2020
5870 Clouds 27 1012 83 10000 2.6 70 19:18 28.03.2020
5871 Clouds 26 1011 88 10000 2.1 90 18:39 28.03.2020
5872 Clouds 26 1011 88 10000 2.1 90 18:20 28.03.2020
5873 Clouds 26 1011 88 10000 2.1 90 17:39 28.03.2020
5874 Clouds 26 1011 88 10000 2.1 90 17:39 28.03.2020
5875 Clouds 26 1011 88 10000 2.1 90 17:21 28.03.2020
5876 Clouds 26 1010 88 10000 2.6 80 16:57 28.03.2020
5877 Clouds 26 1010 88 10000 2.6 80 16:37 28.03.2020
5878 Clouds 26 1010 88 10000 2.6 80 16:37 28.03.2020
5879 Clouds 26 1010 88 10000 2.6 80 16:18 28.03.2020
5880 Clouds 26 1010 88 10000 2.6 80 15:39 28.03.2020
5881 Clouds 26 1010 88 10000 2.6 80 15:19 28.03.2020
5882 Clouds 26 1011 94 10000 3.1 80 14:56 28.03.2020
5883 Clouds 26 1011 94 10000 3.1 80 14:38 28.03.2020
5884 Clouds 26 1011 94 10000 3.1 80 14:20 28.03.2020
5885 Clouds 26 1011 94 10000 2.6 80 13:40 28.03.2020
5886 Clouds 26 1011 94 10000 2.6 80 13:21 28.03.2020
5887 Clouds 25 1012 94 10000 1 130 12:40 28.03.2020
5888 Clouds 25 1012 94 10000 1 130 12:22 28.03.2020
5889 Clouds 25 1012 88 10000 0.5 200 11:43 28.03.2020
5890 Clouds 25 1012 88 10000 0.5 200 11:23 28.03.2020
5891 Clouds 25 1012 94 10000 1 110 10:57 28.03.2020
5892 Clouds 25 1012 94 10000 1 110 10:38 28.03.2020
5893 Clouds 25 1012 94 10000 1 110 10:18 28.03.2020
5894 Clouds 25 1012 88 10000 1 180 09:42 28.03.2020
5895 Clouds 25 1012 88 10000 1 180 09:23 28.03.2020
5896 Clouds 25 1012 88 10000 0.5 170 08:47 28.03.2020
5897 Clouds 25 1012 88 10000 0.5 170 08:28 28.03.2020
5898 Clouds 26 1011 83 10000 0.5 140 07:59 28.03.2020
5899 Clouds 26 1011 83 10000 0.5 140 07:41 28.03.2020
5900 Clouds 27 1010 78 10000 2.1 90 06:56 28.03.2020
5901 Clouds 27 1010 78 10000 2.1 90 06:33 28.03.2020
5902 Clouds 28 1010 74 10000 3.6 70 05:41 28.03.2020
5903 Clouds 28 1010 74 10000 3.6 70 05:19 28.03.2020
5904 Clouds 28 1010 69 10000 3.1 90 04:40 28.03.2020
5905 Clouds 29 1010 70 10000 4.1 50 02:55 28.03.2020
5906 Clouds 29 1010 70 10000 3.1 50 01:48 28.03.2020
5907 Clouds 29 1010 70 10000 3.1 50 01:24 28.03.2020
5908 Clouds 29 1011 70 10000 3.6 50 00:54 28.03.2020
5909 Clouds 29 1011 70 10000 3.6 50 00:33 28.03.2020
5910 Clouds 27 1011 67 0 3.51 90 23:45 27.03.2020
5911 Clouds 27 1011 67 0 3.51 90 23:26 27.03.2020
5912 Clouds 27 1011 67 0 3.51 90 23:26 27.03.2020
5913 Clouds 29 1012 70 10000 3.1 50 22:58 27.03.2020
5914 Clouds 29 1012 70 10000 3.1 50 22:39 27.03.2020
5915 Clouds 29 1012 70 10000 3.1 50 22:21 27.03.2020
5916 Clouds 28 1012 74 10000 2.6 40 21:59 27.03.2020
5917 Clouds 28 1012 74 10000 2.6 40 21:40 27.03.2020
5918 Clouds 28 1012 74 10000 2.6 40 21:22 27.03.2020
5919 Clouds 28 1011 74 10000 2.1 60 20:57 27.03.2020
5920 Clouds 28 1011 74 10000 2.1 60 20:38 27.03.2020
5921 Clouds 28 1011 74 10000 2.1 60 20:19 27.03.2020
5922 Clouds 28 1011 74 10000 2.1 60 20:19 27.03.2020
5923 Clouds 28 1011 74 10000 2.1 60 20:19 27.03.2020
5924 Clouds 26 1011 83 10000 3.1 80 19:54 27.03.2020
5925 Clouds 26 1011 83 10000 3.1 80 19:36 27.03.2020
5926 Clouds 26 1011 83 10000 3.1 80 19:18 27.03.2020
5927 Clouds 24 1010 88 10000 3.1 90 18:42 27.03.2020
5928 Clouds 24 1010 88 10000 3.1 90 18:22 27.03.2020
5929 Clouds 24 1010 88 10000 2.6 120 17:41 27.03.2020
5930 Clouds 24 1010 88 10000 2.6 120 17:21 27.03.2020
5931 Clouds 24 1010 88 10000 2.1 110 16:57 27.03.2020
5932 Clouds 24 1010 88 10000 2.1 110 16:39 27.03.2020
5933 Clouds 24 1010 88 10000 2.1 110 16:20 27.03.2020
5934 Clouds 24 1010 88 10000 1.5 110 15:42 27.03.2020
5935 Clouds 24 1010 88 10000 1.5 110 15:24 27.03.2020
5936 Clouds 24 1010 88 10000 1.5 110 14:48 27.03.2020
5937 Clouds 24 1010 88 10000 1.5 110 14:27 27.03.2020
5938 Clouds 24 1010 88 10000 2.6 110 13:58 27.03.2020
5939 Clouds 24 1010 88 10000 2.6 110 13:40 27.03.2020
5940 Clouds 24 1010 88 10000 2.6 110 13:21 27.03.2020
5941 Clouds 24 1011 88 10000 1.5 120 12:57 27.03.2020
5942 Clouds 24 1011 88 10000 1.5 120 12:39 27.03.2020
5943 Clouds 24 1011 88 10000 0.5 50 12:18 27.03.2020
5944 Clouds 24 1011 88 10000 0.5 50 11:41 27.03.2020
5945 Clouds 24 1011 88 10000 0.5 50 11:23 27.03.2020
5946 Clouds 24 1011 88 10000 1.5 120 10:55 27.03.2020
5947 Clouds 24 1011 88 10000 1.5 120 10:37 27.03.2020
5948 Clouds 24 1011 88 10000 1.5 120 10:37 27.03.2020
5949 Clouds 24 1011 88 10000 1.5 120 10:18 27.03.2020
5950 Clouds 24 1011 88 10000 1.5 110 09:56 27.03.2020
5951 Clouds 24 1011 88 10000 1.5 110 09:37 27.03.2020
5952 Clouds 24 1011 88 10000 1.5 110 09:18 27.03.2020
5953 Clouds 25 1011 83 10000 1 130 08:55 27.03.2020
5954 Clouds 25 1011 83 10000 1 130 08:37 27.03.2020
5955 Clouds 25 1011 83 10000 1 130 08:18 27.03.2020
5956 Clouds 25 1010 83 10000 1 130 07:49 27.03.2020
5957 Clouds 25 1010 83 10000 1 130 07:23 27.03.2020
5958 Clouds 27 1010 78 10000 1.5 170 06:46 27.03.2020
5959 Clouds 27 1010 78 10000 1.5 170 06:27 27.03.2020
5960 Clouds 31 1009 66 10000 2.1 290 04:21 27.03.2020
5961 Clouds 31 1009 70 10000 2.1 280 02:25 27.03.2020
5962 Clouds 31 1010 70 10000 2.6 310 01:22 27.03.2020
5963 Clouds 31 1011 70 10000 3.1 320 00:47 27.03.2020
5964 Clouds 31 1011 70 10000 3.1 320 00:23 27.03.2020
5965 Clouds 31 1011 74 10000 2.6 320 23:42 26.03.2020
5966 Clouds 31 1011 74 10000 2.6 320 23:19 26.03.2020
5967 Clouds 29 1011 79 10000 2.1 340 22:58 26.03.2020
5968 Clouds 29 1011 79 10000 2.1 340 22:58 26.03.2020
5969 Clouds 29 1011 79 10000 2.1 340 22:37 26.03.2020
5970 Clouds 29 1011 79 10000 2.1 340 22:18 26.03.2020
5971 Clouds 28 1011 83 10000 1.5 20 21:40 26.03.2020
5972 Clouds 28 1011 83 10000 1.5 20 21:22 26.03.2020
5973 Clouds 28 1011 83 10000 1.5 20 20:59 26.03.2020
5974 Clouds 28 1011 83 10000 1.5 20 20:40 26.03.2020
5975 Clouds 28 1011 83 10000 1.5 20 20:22 26.03.2020
5976 Clouds 25 1011 94 10000 1 50 19:58 26.03.2020
5977 Clouds 25 1011 94 10000 1 50 19:40 26.03.2020
5978 Clouds 25 1011 94 10000 1 50 19:21 26.03.2020
5979 Clouds 23 1010 94 10000 1 130 18:58 26.03.2020
5980 Clouds 23 1010 94 10000 1 130 18:40 26.03.2020
5981 Clouds 23 1010 94 10000 1 130 18:21 26.03.2020
5982 Clouds 23 1010 94 10000 1 120 17:45 26.03.2020
5983 Clouds 23 1010 94 10000 1 120 17:20 26.03.2020
5984 Clouds 23 1009 94 10000 1 130 16:57 26.03.2020
5985 Clouds 23 1009 94 10000 1 130 16:38 26.03.2020
5986 Clouds 23 1009 94 10000 1 160 16:19 26.03.2020
5987 Clouds 23 1009 94 10000 1 160 15:56 26.03.2020
5988 Clouds 23 1009 94 10000 1 160 15:56 26.03.2020
5989 Clouds 23 1009 94 10000 1 160 15:37 26.03.2020
5990 Clouds 23 1009 94 10000 1 160 15:18 26.03.2020
5991 Clouds 27 1009 73 0 2.73 265 14:43 26.03.2020
5992 Clouds 27 1009 73 0 2.73 265 14:24 26.03.2020
5993 Clouds 25 1010 88 10000 2.1 180 13:55 26.03.2020
5994 Clouds 25 1010 88 10000 2.1 180 13:37 26.03.2020
5995 Clouds 25 1010 88 10000 2.1 180 13:19 26.03.2020
5996 Clouds 25 1010 88 10000 2.1 180 12:38 26.03.2020
5997 Clouds 25 1010 88 10000 2.1 180 12:20 26.03.2020
5998 Clouds 25 1010 88 10000 2.1 180 11:46 26.03.2020
5999 Clouds 25 1010 94 10000 2.1 190 11:23 26.03.2020
6000 Clouds 25 1010 94 10000 2.1 190 10:57 26.03.2020
6001 Clouds 25 1010 94 10000 2.1 190 10:39 26.03.2020
6002 Clouds 25 1010 94 10000 2.1 190 10:19 26.03.2020
6003 Clouds 26 1010 83 10000 2.1 180 09:44 26.03.2020
6004 Clouds 27 1009 78 10000 2.6 210 09:21 26.03.2020
6005 Clouds 27 1009 78 10000 2.6 210 08:56 26.03.2020
6006 Clouds 27 1009 78 10000 2.6 210 08:37 26.03.2020
6007 Clouds 27 1009 78 10000 2.6 210 08:19 26.03.2020
6008 Clouds 29 1009 74 10000 2.6 200 07:44 26.03.2020
6009 Clouds 29 1009 74 10000 2.6 200 07:22 26.03.2020
6010 Clouds 27 1009 78 10000 4.1 200 06:56 26.03.2020
6011 Clouds 28 1008 78 10000 5.1 220 05:59 26.03.2020
6012 Clouds 29 1008 74 10000 4.6 220 04:49 26.03.2020
6013 Clouds 29 1008 74 10000 4.6 220 03:44 26.03.2020
6014 Clouds 29 1008 74 10000 5.7 220 02:55 26.03.2020
6015 Rain 29 1008 83 10000 7.7 220 01:50 26.03.2020
6016 Rain 29 1008 79 10000 5.7 220 00:53 26.03.2020
6017 Rain 29 1008 79 10000 5.7 220 00:20 26.03.2020
6018 Rain 27 1009 94 10000 4.1 240 23:40 25.03.2020
6019 Rain 27 1009 94 10000 4.1 240 23:20 25.03.2020
6020 Rain 27 1009 94 10000 4.1 240 22:40 25.03.2020
6021 Rain 27 1009 94 10000 4.1 240 22:21 25.03.2020
6022 Drizzle 27 1009 88 10000 3.1 180 21:56 25.03.2020
6023 Drizzle 27 1009 88 10000 3.1 180 21:37 25.03.2020
6024 Drizzle 27 1009 88 10000 3.1 180 21:19 25.03.2020
6025 Clouds 28 1009 88 10000 3.6 300 20:55 25.03.2020
6026 Clouds 28 1009 88 10000 3.6 300 20:37 25.03.2020
6027 Clouds 28 1009 88 10000 3.6 300 20:18 25.03.2020
6028 Clouds 28 1009 88 10000 3.6 300 20:18 25.03.2020
6029 Clouds 27 1008 88 10000 4.1 280 19:42 25.03.2020
6030 Clouds 27 1008 88 10000 4.1 280 19:22 25.03.2020
6031 Rain 27 1008 88 10000 4.1 290 18:56 25.03.2020
6032 Rain 27 1008 88 10000 4.1 290 18:38 25.03.2020
6033 Rain 27 1008 88 10000 4.1 290 18:19 25.03.2020
6034 Clouds 27 1008 88 10000 4.6 290 17:54 25.03.2020
6035 Clouds 27 1008 88 10000 4.6 290 17:36 25.03.2020
6036 Clouds 27 1008 88 10000 4.6 290 17:18 25.03.2020
6037 Clouds 27 1008 88 10000 5.7 310 16:41 25.03.2020
6038 Clouds 27 1008 88 10000 5.7 310 16:22 25.03.2020
6039 Clouds 27 1008 88 10000 5.7 310 16:21 25.03.2020
6040 Rain 27 1008 88 10000 6.2 290 15:44 25.03.2020
6041 Rain 27 1008 88 10000 6.2 290 15:22 25.03.2020
6042 Clouds 26 1008 94 9998 6.7 310 14:59 25.03.2020
6043 Clouds 26 1008 94 9998 6.7 310 14:40 25.03.2020
6044 Clouds 26 1008 94 9998 6.7 310 14:20 25.03.2020
6045 Clouds 27 1009 88 9998 5.7 300 13:46 25.03.2020
6046 Clouds 27 1009 88 9998 5.7 300 13:25 25.03.2020
6047 Clouds 27 1009 88 9998 7.2 320 12:54 25.03.2020
6048 Clouds 27 1009 88 9998 7.2 320 12:36 25.03.2020
6049 Clouds 27 1009 88 9998 7.2 320 12:18 25.03.2020
6050 Clouds 27 1009 88 9998 6.2 300 11:41 25.03.2020
6051 Clouds 27 1009 88 9998 6.2 300 11:21 25.03.2020
6052 Clouds 27 1010 88 10000 6.2 310 10:58 25.03.2020
6053 Clouds 27 1010 88 10000 6.2 310 10:40 25.03.2020
6054 Clouds 27 1010 88 10000 6.2 310 10:40 25.03.2020
6055 Clouds 27 1010 88 10000 6.2 310 10:19 25.03.2020
6056 Clouds 27 1009 88 10000 6.2 310 09:56 25.03.2020
6057 Clouds 27 1009 88 10000 6.2 310 09:56 25.03.2020
6058 Clouds 27 1009 88 10000 6.2 310 09:38 25.03.2020
6059 Clouds 27 1009 88 10000 6.2 310 09:20 25.03.2020
6060 Clouds 27 1009 88 10000 5.1 310 08:42 25.03.2020
6061 Clouds 27 1009 88 10000 6.2 300 08:24 25.03.2020
6062 Clouds 27 1009 88 10000 6.2 300 07:56 25.03.2020
6063 Clouds 27 1009 88 10000 6.2 300 07:37 25.03.2020
6064 Clouds 27 1009 88 10000 6.2 300 07:18 25.03.2020
6065 Clouds 28 1009 88 10000 6.2 300 06:41 25.03.2020
6066 Clouds 28 1009 88 10000 6.2 300 06:23 25.03.2020
6067 Clouds 28 1008 88 10000 5.1 270 05:47 25.03.2020
6068 Clouds 30 1008 79 10000 6.2 300 04:42 25.03.2020
6069 Clouds 30 1009 79 10000 5.7 290 03:57 25.03.2020
6070 Clouds 30 1009 79 10000 5.7 290 03:32 25.03.2020
6071 Clouds 31 1009 74 10000 4.1 290 01:40 25.03.2020
6072 Clouds 30 1010 84 10000 3.1 290 00:50 25.03.2020
6073 Clouds 30 1010 84 10000 3.1 290 00:27 25.03.2020
6074 Rain 29 1010 83 10000 3.6 300 23:55 24.03.2020
6075 Rain 29 1010 83 10000 3.6 300 23:28 24.03.2020
6076 Rain 27 1011 88 10000 5.1 300 22:58 24.03.2020
6077 Rain 27 1011 88 10000 5.1 300 22:38 24.03.2020
6078 Rain 27 1011 88 10000 5.1 300 22:38 24.03.2020
6079 Rain 27 1011 88 10000 5.1 300 22:20 24.03.2020
6080 Rain 26 1011 94 10000 1.5 190 21:58 24.03.2020
6081 Rain 26 1011 94 10000 1.5 190 21:40 24.03.2020
6082 Rain 26 1011 94 10000 1.5 190 21:40 24.03.2020
6083 Rain 26 1011 94 10000 1.5 190 21:18 24.03.2020
6084 Rain 27 1011 88 10000 3.6 310 20:58 24.03.2020
6085 Rain 27 1011 88 10000 3.6 310 20:39 24.03.2020
6086 Rain 27 1011 88 10000 3.6 310 20:21 24.03.2020
6087 Rain 26 1010 94 10000 4.6 310 19:46 24.03.2020
6088 Rain 26 1010 94 10000 4.6 310 19:20 24.03.2020
6089 Rain 28 1010 80 0 6.6 311 18:56 24.03.2020
6090 Rain 28 1010 80 0 6.6 311 18:37 24.03.2020
6091 Rain 28 1010 80 0 6.6 311 18:19 24.03.2020
6092 Rain 28 1010 80 0 6.6 311 17:56 24.03.2020
6093 Rain 28 1010 80 0 6.6 311 17:37 24.03.2020
6094 Rain 28 1009 81 0 6.93 317 17:19 24.03.2020
6095 Rain 25 1009 94 10000 1.5 170 16:42 24.03.2020
6096 Rain 25 1009 94 10000 1.5 170 16:24 24.03.2020
6097 Rain 25 1009 94 10000 1.5 170 15:59 24.03.2020
6098 Rain 25 1009 94 10000 1.5 170 15:40 24.03.2020
6099 Rain 25 1009 94 10000 2.1 360 15:22 24.03.2020
6100 Rain 25 1009 94 7000 1.5 200 14:43 24.03.2020
6101 Rain 25 1009 94 7000 1.5 200 14:43 24.03.2020
6102 Rain 25 1009 94 7000 1.5 200 14:43 24.03.2020
6103 Rain 25 1009 94 7000 1.5 200 14:43 24.03.2020
6104 Rain 25 1010 94 5000 4.6 280 14:22 24.03.2020
6105 Rain 25 1010 94 10000 6.7 300 13:55 24.03.2020
6106 Rain 25 1010 94 10000 6.7 300 13:36 24.03.2020
6107 Rain 27 1010 88 10000 4.6 300 13:18 24.03.2020
6108 Rain 27 1010 88 10000 4.1 310 12:41 24.03.2020
6109 Rain 27 1010 88 10000 4.1 310 12:23 24.03.2020
6110 Rain 27 1010 83 10000 4.1 300 11:41 24.03.2020
6111 Rain 26 1010 94 10000 4.1 300 11:20 24.03.2020
6112 Rain 27 1011 88 10000 4.6 310 10:55 24.03.2020
6113 Rain 27 1011 88 10000 4.6 310 10:36 24.03.2020
6114 Rain 27 1011 83 10000 4.6 320 10:18 24.03.2020
6115 Rain 26 1011 94 10000 3.1 330 09:43 24.03.2020
6116 Rain 26 1011 94 10000 3.1 330 09:43 24.03.2020
6117 Rain 27 1011 88 10000 2.6 340 09:24 24.03.2020
6118 Rain 28 1011 83 10000 3.6 340 08:40 24.03.2020
6119 Rain 27 1010 94 10000 2.6 360 08:21 24.03.2020
6120 Rain 28 1010 83 10000 4.1 350 07:52 24.03.2020
6121 Rain 28 1010 83 10000 4.1 350 07:26 24.03.2020
6122 Rain 28 1010 83 10000 4.1 340 06:59 24.03.2020
6123 Rain 28 1009 83 10000 3.6 350 06:34 24.03.2020
6124 Rain 28 1009 83 10000 3.6 350 05:30 24.03.2020
6125 Rain 28 1009 83 10000 3.6 340 04:49 24.03.2020
6126 Rain 29 1009 79 10000 4.1 330 03:19 24.03.2020
6127 Clouds 29 1009 83 10000 2.6 340 01:59 24.03.2020
6128 Rain 29 1009 83 10000 1.5 30 00:52 24.03.2020
6129 Rain 29 1009 83 10000 2.1 40 00:26 24.03.2020
6130 Rain 29 1010 83 10000 2.6 30 23:50 23.03.2020
6131 Rain 28 1010 88 10000 3.1 60 23:30 23.03.2020
6132 Rain 28 1010 88 10000 3.1 50 22:59 23.03.2020
6133 Rain 28 1010 88 10000 3.1 50 22:40 23.03.2020
6134 Rain 28 1010 88 10000 3.6 50 22:22 23.03.2020
6135 Rain 28 1010 88 10000 3.6 80 21:44 23.03.2020
6136 Rain 27 1011 94 10000 5.1 80 21:21 23.03.2020
6137 Rain 28 1011 88 10000 4.1 90 21:00 23.03.2020
6138 Rain 28 1011 88 10000 4.1 90 20:41 23.03.2020
6139 Rain 27 1011 94 10000 3.1 90 20:23 23.03.2020
6140 Drizzle 26 1011 94 3700 4.6 90 19:55 23.03.2020
6141 Drizzle 26 1011 94 3700 4.6 90 19:37 23.03.2020
6142 Rain 26 1010 94 10000 2.6 110 19:18 23.03.2020
6143 Rain 26 1009 88 10000 2.6 100 18:43 23.03.2020
6144 Rain 26 1009 88 10000 2.6 100 18:24 23.03.2020
6145 Rain 26 1008 88 10000 3.6 90 17:57 23.03.2020
6146 Rain 26 1008 88 10000 3.6 90 17:57 23.03.2020
6147 Rain 25 1008 94 10000 1.5 70 17:38 23.03.2020
6148 Rain 25 1008 94 10000 1.5 70 17:19 23.03.2020
6149 Rain 26 1009 88 10000 2.1 90 16:43 23.03.2020
6150 Rain 26 1008 88 10000 1.5 70 16:25 23.03.2020
6151 Rain 25 1009 94 10000 2.1 110 15:44 23.03.2020
6152 Rain 25 1009 100 10000 1.5 90 15:21 23.03.2020
6153 Rain 25 1010 94 10000 0.5 170 14:57 23.03.2020
6154 Rain 25 1010 94 10000 0.5 170 14:37 23.03.2020
6155 Rain 25 1010 94 10000 1 190 14:18 23.03.2020
6156 Rain 26 1010 88 10000 1.5 110 13:41 23.03.2020
6157 Rain 26 1010 88 10000 3.1 110 13:22 23.03.2020
6158 Rain 26 1010 88 10000 2.6 110 12:58 23.03.2020
6159 Rain 26 1010 88 10000 2.6 110 12:58 23.03.2020
6160 Rain 26 1010 88 10000 2.6 110 12:40 23.03.2020
6161 Rain 26 1010 88 10000 2.6 110 12:21 23.03.2020
6162 Rain 26 1010 88 10000 2.1 110 11:42 23.03.2020
6163 Rain 26 1010 88 10000 2.1 110 11:21 23.03.2020
6164 Rain 26 1011 88 10000 2.1 100 10:58 23.03.2020
6165 Rain 26 1011 88 10000 2.1 100 10:39 23.03.2020
6166 Rain 26 1011 88 0 2.6 110 10:21 23.03.2020
6167 Clouds 26 1011 88 10000 2.1 100 09:57 23.03.2020
6168 Clouds 26 1011 88 10000 2.1 100 09:37 23.03.2020
6169 Rain 26 1011 88 10000 1 150 09:18 23.03.2020
6170 Rain 26 1011 88 10000 1 220 08:37 23.03.2020
6171 Rain 26 1011 88 10000 1 160 08:19 23.03.2020
6172 Drizzle 25 1011 94 10000 1.5 90 07:48 23.03.2020
6173 Rain 25 1010 94 10000 1.5 130 07:29 23.03.2020
6174 Rain 26 1010 88 10000 1.5 90 06:52 23.03.2020
6175 Rain 26 1010 88 10000 2.6 80 06:20 23.03.2020
6176 Rain 27 1010 83 10000 3.6 90 05:29 23.03.2020
6177 Rain 28 1009 74 10000 3.6 100 03:41 23.03.2020
6178 Rain 29 1010 70 10000 5.1 90 02:29 23.03.2020
6179 Clouds 28 1010 74 10000 4.6 90 01:34 23.03.2020
6180 Clouds 29 1010 66 10000 4.6 90 00:40 23.03.2020
6181 Clouds 29 1011 70 10000 4.6 90 23:53 22.03.2020
6182 Clouds 29 1012 70 10000 5.1 100 23:26 22.03.2020
6183 Clouds 29 1012 70 10000 5.1 100 23:26 22.03.2020
6184 Clouds 29 1012 70 10000 5.1 80 22:47 22.03.2020
6185 Clouds 29 1012 70 10000 3.6 90 22:26 22.03.2020
6186 Clouds 28 1012 69 10000 5.1 90 21:57 22.03.2020
6187 Clouds 28 1012 69 10000 5.1 90 21:57 22.03.2020
6188 Clouds 28 1012 69 10000 5.1 90 21:39 22.03.2020
6189 Clouds 28 1012 74 10000 3.6 90 21:20 22.03.2020
6190 Clouds 28 1012 74 10000 2.1 120 20:54 22.03.2020
6191 Clouds 28 1012 74 10000 2.1 120 20:36 22.03.2020
6192 Clouds 28 1012 69 10000 1.5 120 20:18 22.03.2020
6193 Clouds 27 1012 74 10000 2.1 100 19:54 22.03.2020
6194 Clouds 27 1012 74 10000 2.1 100 19:36 22.03.2020
6195 Clouds 26 1012 78 10000 2.6 100 19:18 22.03.2020
6196 Clouds 25 1012 83 10000 2.1 120 18:41 22.03.2020
6197 Clouds 25 1011 83 10000 1.5 120 18:22 22.03.2020
6198 Clouds 25 1011 83 10000 1.5 120 18:22 22.03.2020
6199 Clouds 26 1011 78 10000 4.1 150 17:59 22.03.2020
6200 Clouds 26 1011 78 10000 4.1 150 17:39 22.03.2020
6201 Clouds 26 1011 78 10000 4.1 150 17:39 22.03.2020
6202 Clouds 25 1011 78 10000 3.1 130 17:21 22.03.2020
6203 Clouds 25 1011 78 10000 2.1 160 16:59 22.03.2020
6204 Clouds 25 1011 78 10000 2.1 160 16:41 22.03.2020
6205 Clouds 25 1011 78 10000 1 210 16:21 22.03.2020
6206 Clouds 24 1011 88 10000 1 250 15:57 22.03.2020
6207 Clouds 24 1011 88 10000 1 250 15:39 22.03.2020
6208 Clouds 23 1012 88 10000 1 220 14:47 22.03.2020
6209 Clouds 24 1012 83 10000 1 180 14:19 22.03.2020
6210 Clouds 24 1012 83 10000 1 150 13:56 22.03.2020
6211 Clouds 24 1012 83 10000 1 150 13:37 22.03.2020
6212 Clouds 25 1013 78 10000 1.5 110 13:19 22.03.2020
6213 Clouds 25 1013 78 10000 1 180 12:43 22.03.2020
6214 Clouds 25 1013 78 10000 1.5 110 12:20 22.03.2020
6215 Clouds 25 1013 73 10000 1.5 120 11:56 22.03.2020
6216 Clouds 25 1013 73 10000 2.6 140 11:37 22.03.2020
6217 Clouds 25 1013 73 10000 2.6 140 11:19 22.03.2020
6218 Clouds 25 1013 78 10000 2.1 130 10:43 22.03.2020
6219 Clouds 25 1014 78 10000 2.1 120 10:24 22.03.2020
6220 Clouds 25 1014 78 10000 2.1 120 10:24 22.03.2020
6221 Clouds 25 1014 78 10000 2.1 110 09:48 22.03.2020
6222 Clouds 26 1014 74 10000 2.6 120 09:29 22.03.2020
6223 Clouds 26 1013 74 10000 1.5 120 08:54 22.03.2020
6224 Clouds 26 1013 74 10000 1.5 120 08:54 22.03.2020
6225 Clouds 26 1013 74 10000 1.5 120 08:36 22.03.2020
6226 Clouds 26 1013 74 10000 3.1 120 08:18 22.03.2020
6227 Clouds 26 1013 74 10000 3.1 120 07:41 22.03.2020
6228 Clouds 26 1013 78 10000 3.1 140 07:18 22.03.2020
6229 Clouds 27 1012 74 10000 3.1 100 05:54 22.03.2020
6230 Clouds 27 1012 78 10000 3.1 120 04:50 22.03.2020
6231 Clouds 29 1012 70 10000 2.6 120 02:43 22.03.2020
6232 Rain 28 1013 74 10000 3.6 90 01:19 22.03.2020
6233 Rain 28 1014 74 10000 3.6 100 00:34 22.03.2020
6234 Rain 28 1014 74 10000 4.1 90 23:47 21.03.2020
6235 Rain 28 1014 74 10000 4.6 90 23:23 21.03.2020
6236 Rain 28 1014 78 10000 2.6 90 22:59 21.03.2020
6237 Rain 28 1014 78 10000 2.6 90 22:59 21.03.2020
6238 Rain 28 1014 78 10000 2.6 90 22:38 21.03.2020
6239 Rain 28 1014 78 10000 1.5 110 22:20 21.03.2020
6240 Rain 28 1015 74 10000 3.6 90 21:58 21.03.2020
6241 Rain 28 1015 74 10000 3.6 90 21:38 21.03.2020
6242 Rain 28 1015 74 10000 3.1 90 21:20 21.03.2020
6243 Rain 28 1015 74 10000 3.1 90 20:43 21.03.2020
6244 Rain 27 1015 78 10000 1.5 110 20:22 21.03.2020
6245 Rain 26 1015 83 10000 6.8 122 19:55 21.03.2020
6246 Rain 26 1015 83 10000 6.8 122 19:37 21.03.2020
6247 Rain 25 1014 94 10000 1 150 19:18 21.03.2020
6248 Rain 24 1014 94 10000 1 140 18:41 21.03.2020
6249 Rain 23 1014 100 10000 1 170 18:21 21.03.2020
6250 Rain 23 1014 100 10000 0.5 230 17:59 21.03.2020
6251 Rain 23 1013 100 10000 0.5 100 17:41 21.03.2020
6252 Rain 23 1013 100 10000 0.5 100 17:22 21.03.2020
6253 Rain 24 1013 94 10000 1 270 16:42 21.03.2020
6254 Rain 24 1014 94 10000 1 160 16:24 21.03.2020
6255 Rain 24 1014 94 10000 1 160 15:59 21.03.2020
6256 Rain 24 1014 94 10000 1 160 15:40 21.03.2020
6257 Rain 25 1014 88 10000 1 70 15:22 21.03.2020
6258 Rain 25 1014 88 10000 1 140 14:57 21.03.2020
6259 Rain 25 1014 88 10000 1 140 14:38 21.03.2020
6260 Rain 25 1014 88 10000 1 140 14:38 21.03.2020
6261 Rain 26 1014 83 10000 1.5 120 14:19 21.03.2020
6262 Rain 26 1014 83 10000 2.6 120 13:57 21.03.2020
6263 Rain 26 1014 83 10000 2.6 120 13:39 21.03.2020
6264 Rain 26 1014 83 10000 3.6 110 13:20 21.03.2020
6265 Rain 26 1015 83 10000 4.1 100 12:54 21.03.2020
6266 Rain 26 1015 83 10000 3.1 100 12:36 21.03.2020
6267 Rain 26 1015 83 10000 3.1 100 12:18 21.03.2020
6268 Rain 25 1015 88 10000 3.1 100 11:54 21.03.2020
6269 Rain 25 1015 88 10000 3.1 100 11:54 21.03.2020
6270 Rain 25 1015 88 10000 3.1 120 11:36 21.03.2020
6271 Rain 25 1015 88 10000 3.1 120 11:18 21.03.2020
6272 Rain 26 1016 83 10000 2.1 110 10:55 21.03.2020
6273 Rain 26 1016 83 10000 2.1 110 10:37 21.03.2020
6274 Rain 25 1016 88 10000 2.1 110 10:18 21.03.2020
6275 Rain 25 1016 88 10000 0.5 120 09:39 21.03.2020
6276 Rain 26 1016 83 10000 2.1 110 09:21 21.03.2020
6277 Rain 25 1015 88 10000 0.5 90 08:55 21.03.2020
6278 Rain 25 1015 88 10000 0.5 90 08:37 21.03.2020
6279 Rain 25 1015 88 10000 1 150 08:19 21.03.2020
6280 Clouds 25 1015 83 10000 0.5 60 07:37 21.03.2020
6281 Clouds 25 1015 83 10000 1 120 07:19 21.03.2020
6282 Clouds 26 1014 83 10000 2.1 120 06:44 21.03.2020
6283 Clouds 26 1014 83 10000 2.6 110 06:24 21.03.2020
6284 Clouds 26 1014 88 10000 1 120 05:40 21.03.2020
6285 Rain 26 1013 88 10000 4.6 60 03:49 21.03.2020
6286 Rain 27 1013 78 10000 4.6 90 02:37 21.03.2020
6287 Rain 27 1014 78 10000 4.1 100 01:44 21.03.2020
6288 Rain 28 1014 74 10000 4.1 110 01:23 21.03.2020
6289 Rain 28 1014 74 10000 5.1 100 00:39 21.03.2020
6290 Rain 28 1014 78 10000 4.1 90 00:21 21.03.2020
6291 Rain 27 1015 78 10000 3.1 110 23:42 20.03.2020
6292 Rain 28 1015 74 10000 1.5 110 23:22 20.03.2020
6293 Rain 27 1016 78 10000 2.6 130 22:44 20.03.2020
6294 Rain 28 1016 74 10000 3.6 80 22:25 20.03.2020
6295 Rain 28 1016 74 10000 1 80 21:58 20.03.2020
6296 Rain 28 1016 74 10000 1 80 21:40 20.03.2020
6297 Rain 28 1016 74 10000 1 120 21:20 20.03.2020
6298 Rain 27 1016 78 10000 1 80 20:57 20.03.2020
6299 Rain 27 1016 78 10000 1 80 20:39 20.03.2020
6300 Rain 27 1016 78 10000 1 110 20:19 20.03.2020
6301 Rain 25 1016 88 10000 0.5 160 19:46 20.03.2020
6302 Rain 25 1015 88 10000 1 200 19:19 20.03.2020
6303 Drizzle 25 1015 88 10000 2.1 100 18:57 20.03.2020
6304 Drizzle 25 1015 88 10000 2.1 100 18:37 20.03.2020
6305 Rain 24 1015 88 10000 1 110 18:19 20.03.2020
6306 Rain 25 1014 83 10000 0.5 260 17:40 20.03.2020
6307 Rain 25 1014 83 10000 0.5 260 17:22 20.03.2020
6308 Rain 25 1014 83 10000 1 150 16:59 20.03.2020
6309 Rain 25 1014 83 10000 1 150 16:41 20.03.2020
6310 Rain 25 1014 83 10000 1 150 16:41 20.03.2020
6311 Rain 25 1014 83 10000 1 150 16:20 20.03.2020
6312 Rain 25 1014 83 10000 1 150 16:20 20.03.2020
6313 Rain 25 1014 88 10000 0.5 180 15:43 20.03.2020
6314 Rain 25 1014 83 10000 2.1 80 15:22 20.03.2020
6315 Rain 25 1014 83 10000 0.5 150 14:57 20.03.2020
6316 Rain 25 1014 83 10000 0.5 150 14:38 20.03.2020
6317 Rain 25 1014 83 10000 2.1 100 14:19 20.03.2020
6318 Rain 25 1014 83 10000 2.1 110 13:46 20.03.2020
6319 Rain 25 1015 88 10000 2.6 110 13:20 20.03.2020
6320 Rain 25 1014 83 0 2.1 130 12:54 20.03.2020
6321 Rain 25 1015 83 10000 2.6 120 12:36 20.03.2020
6322 Rain 25 1015 83 10000 2.6 120 12:18 20.03.2020
6323 Rain 25 1015 83 10000 2.1 130 11:39 20.03.2020
6324 Clouds 25 1015 83 10000 2.1 130 11:20 20.03.2020
6325 Clouds 25 1015 83 10000 1 130 10:43 20.03.2020
6326 Clouds 25 1015 88 10000 1.5 90 10:21 20.03.2020
6327 Clouds 25 1015 88 10000 1.5 90 10:21 20.03.2020
6328 Clouds 25 1015 88 10000 1.5 100 10:00 20.03.2020
6329 Clouds 25 1015 88 10000 1.5 100 09:41 20.03.2020
6330 Clouds 25 1015 88 10000 2.1 100 09:19 20.03.2020
6331 Clouds 25 1015 88 10000 2.1 110 08:43 20.03.2020
6332 Clouds 25 1015 88 10000 3.1 120 08:22 20.03.2020
6333 Rain 25 1014 88 10000 2.1 110 07:57 20.03.2020
6334 Rain 25 1014 88 10000 2.1 110 07:38 20.03.2020
6335 Rain 25 1014 88 6000 2.6 120 07:19 20.03.2020
6336 Rain 25 1014 83 10000 2.1 130 06:42 20.03.2020
6337 Clouds 26 1013 83 10000 2.1 130 04:54 20.03.2020
6338 Clouds 26 1012 83 10000 1.5 120 03:50 20.03.2020
6339 Clouds 26 1012 88 10000 2.1 100 02:21 20.03.2020
6340 Rain 25 1013 94 10000 3.6 120 01:33 20.03.2020
6341 Rain 26 1013 88 10000 1.5 120 00:33 20.03.2020
6342 Rain 25 1013 94 10000 1.5 90 23:49 19.03.2020
6343 Rain 25 1014 94 10000 1.5 270 23:30 19.03.2020
6344 Rain 25 1013 94 10000 2.1 120 22:58 19.03.2020
6345 Rain 25 1013 94 10000 2.1 120 22:38 19.03.2020
6346 Rain 25 1014 100 10000 1.5 100 22:20 19.03.2020
6347 Rain 25 1014 94 10000 2.1 180 21:55 19.03.2020
6348 Rain 25 1014 94 10000 2.1 180 21:37 19.03.2020
6349 Rain 24 1014 100 4800 2.1 210 21:18 19.03.2020
6350 Rain 25 1014 100 10000 1 170 20:42 19.03.2020
6351 Rain 24 1014 100 7000 1 170 20:23 19.03.2020
6352 Rain 24 1013 100 4400 1 200 19:56 19.03.2020
6353 Rain 24 1013 100 4400 1 200 19:37 19.03.2020
6354 Rain 24 1013 100 4800 2.1 240 19:19 19.03.2020
6355 Rain 24 1013 100 1000 4.1 250 18:55 19.03.2020
6356 Rain 24 1013 100 1200 2.6 240 18:37 19.03.2020
6357 Rain 24 1013 100 1200 2.6 240 18:37 19.03.2020
6358 Rain 24 1013 100 1200 2.6 240 18:19 19.03.2020
6359 Rain 25 1012 100 5000 8.2 280 17:41 19.03.2020
6360 Rain 25 1012 100 5000 8.2 280 17:19 19.03.2020
6361 Drizzle 25 1012 100 10000 8.7 290 16:44 19.03.2020
6362 Rain 26 1011 94 10000 2.1 230 16:24 19.03.2020
6363 Rain 25 1011 100 10000 2.1 240 15:46 19.03.2020
6364 Rain 25 1011 100 10000 1.5 200 15:28 19.03.2020
6365 Rain 25 1011 100 10000 1.5 200 14:58 19.03.2020
6366 Rain 25 1011 100 10000 1.5 200 14:40 19.03.2020
6367 Rain 25 1011 100 10000 1.5 200 14:19 19.03.2020
6368 Rain 25 1012 94 10000 1.5 200 13:40 19.03.2020
6369 Rain 25 1012 94 10000 1.5 200 13:40 19.03.2020
6370 Rain 25 1012 94 10000 1.5 210 13:19 19.03.2020
6371 Rain 25 1012 94 6000 3.1 240 12:56 19.03.2020
6372 Rain 26 1012 94 10000 1.5 220 12:37 19.03.2020
6373 Rain 26 1012 94 10000 1.5 220 12:19 19.03.2020
6374 Rain 26 1012 88 10000 3.6 250 11:41 19.03.2020
6375 Rain 26 1012 88 10000 3.6 250 11:23 19.03.2020
6376 Rain 26 1012 88 10000 3.6 250 11:23 19.03.2020
6377 Rain 25 1012 94 10000 2.1 220 10:56 19.03.2020
6378 Rain 25 1012 94 10000 2.1 220 10:36 19.03.2020
6379 Rain 25 1012 94 10000 2.1 220 10:18 19.03.2020
6380 Rain 25 1012 94 10000 2.1 230 09:44 19.03.2020
6381 Rain 25 1012 94 10000 2.6 220 09:25 19.03.2020
6382 Rain 24 1012 94 10000 2.6 210 08:48 19.03.2020
6383 Rain 24 1012 100 3300 2.6 220 08:23 19.03.2020
6384 Rain 24 1012 100 3300 2.6 220 08:23 19.03.2020
6385 Rain 25 1012 94 6000 6.2 250 07:59 19.03.2020
6386 Rain 25 1012 94 6000 6.2 250 07:38 19.03.2020
6387 Rain 25 1012 100 3100 7.2 250 07:19 19.03.2020
6388 Rain 26 1011 88 4600 4.6 230 06:27 19.03.2020
6389 Rain 29 1011 83 10000 6.7 270 05:25 19.03.2020
6390 Clouds 29 1010 79 10000 7.2 280 04:47 19.03.2020
6391 Clouds 29 1010 79 10000 8.2 280 03:55 19.03.2020
6392 Clouds 29 1011 83 10000 7.7 280 01:46 19.03.2020
6393 Clouds 30 1011 79 10000 7.2 280 00:42 19.03.2020
6394 Clouds 30 1011 79 10000 7.7 280 00:19 19.03.2020
6395 Clouds 30 1011 79 10000 8.2 280 23:42 18.03.2020
6396 Clouds 30 1011 79 10000 8.2 280 23:22 18.03.2020
6397 Clouds 29 1012 83 10000 7.2 280 22:43 18.03.2020
6398 Clouds 29 1012 83 10000 6.7 280 22:23 18.03.2020
6399 Clouds 29 1012 83 10000 6.2 290 21:55 18.03.2020
6400 Clouds 29 1012 83 10000 6.2 290 21:37 18.03.2020
6401 Clouds 29 1012 83 10000 6.7 290 21:19 18.03.2020
6402 Clouds 29 1012 83 8000 6.7 290 20:55 18.03.2020
6403 Clouds 29 1012 83 8000 6.7 290 20:37 18.03.2020
6404 Clouds 28 1011 83 10000 6.7 280 20:18 18.03.2020
6405 Clouds 28 1011 83 10000 7.2 280 19:40 18.03.2020
6406 Clouds 28 1011 83 10000 6.2 280 19:21 18.03.2020
6407 Clouds 28 1011 83 10000 7.2 280 18:56 18.03.2020
6408 Rain 28 1011 78 10000 6.2 270 18:38 18.03.2020
6409 Rain 28 1011 78 10000 6.2 270 18:19 18.03.2020
6410 Clouds 27 1011 88 10000 6.7 270 17:54 18.03.2020
6411 Clouds 27 1011 88 10000 6.7 280 17:36 18.03.2020
6412 Clouds 27 1011 88 10000 6.7 280 17:18 18.03.2020
6413 Clouds 27 1010 88 10000 6.2 290 16:42 18.03.2020
6414 Clouds 27 1010 88 10000 6.2 290 16:20 18.03.2020
6415 Clouds 27 1010 88 10000 6.2 290 16:20 18.03.2020
6416 Clouds 27 1010 88 10000 6.2 300 15:56 18.03.2020
6417 Clouds 27 1010 88 10000 6.2 300 15:37 18.03.2020
6418 Clouds 27 1010 88 10000 5.7 310 15:19 18.03.2020
6419 Clouds 27 1010 94 10000 4.1 330 14:42 18.03.2020
6420 Clouds 26 1011 83 10000 3.6 330 14:21 18.03.2020
6421 Rain 25 1011 94 10000 4.1 320 13:41 18.03.2020
6422 Rain 25 1012 94 10000 5.7 310 13:19 18.03.2020
6423 Rain 24 1012 94 10000 1.5 290 12:43 18.03.2020
6424 Rain 23 1012 94 10000 1 210 12:21 18.03.2020
6425 Rain 24 1012 94 1400 5.1 250 11:58 18.03.2020
6426 Rain 27 1011 94 8000 6.2 290 11:37 18.03.2020
6427 Rain 27 1011 94 8000 6.2 290 11:18 18.03.2020
6428 Rain 27 1012 88 8000 6.7 290 10:55 18.03.2020
6429 Rain 27 1012 88 8000 6.7 290 10:36 18.03.2020
6430 Rain 28 1012 88 10000 7.2 290 10:18 18.03.2020
6431 Rain 27 1012 94 10000 7.2 290 09:41 18.03.2020
6432 Rain 28 1012 83 10000 7.2 290 09:22 18.03.2020
6433 Rain 28 1011 83 10000 6.7 290 08:40 18.03.2020
6434 Rain 28 1011 83 10000 6.7 290 08:40 18.03.2020
6435 Rain 28 1011 83 10000 5.7 300 08:22 18.03.2020
6436 Rain 27 1011 88 10000 6.7 300 07:59 18.03.2020
6437 Rain 27 1011 88 10000 7.2 290 07:37 18.03.2020
6438 Rain 27 1011 88 10000 7.2 290 07:19 18.03.2020
6439 Rain 27 1010 88 6000 6.7 290 06:39 18.03.2020
6440 Rain 27 1010 88 10000 6.7 290 05:37 18.03.2020
6441 Rain 27 1009 88 10000 6.7 290 04:38 18.03.2020
6442 Rain 27 1010 88 8000 5.7 280 03:21 18.03.2020
6443 Rain 27 1009 88 10000 7.2 280 02:36 18.03.2020
6444 Rain 27 1010 88 10000 7.7 280 01:42 18.03.2020
6445 Rain 27 1010 88 10000 8.2 280 00:42 18.03.2020
6446 Rain 27 1010 88 10000 8.2 280 00:21 18.03.2020
6447 Rain 27 1011 88 10000 8.2 280 23:41 17.03.2020
6448 Rain 27 1011 88 10000 7.2 270 23:20 17.03.2020
6449 Rain 27 1011 88 10000 7.7 260 22:42 17.03.2020
6450 Rain 27 1011 88 10000 7.7 260 22:24 17.03.2020
6451 Rain 27 1011 94 10000 8.2 270 21:43 17.03.2020
6452 Rain 27 1011 88 10000 7.7 270 21:23 17.03.2020
6453 Rain 27 1011 83 10000 8.2 280 20:56 17.03.2020
6454 Rain 27 1011 83 10000 8.2 280 20:37 17.03.2020
6455 Rain 27 1011 88 10000 7.7 270 20:19 17.03.2020
6456 Rain 27 1010 88 10000 7.7 270 19:41 17.03.2020
6457 Rain 27 1010 83 10000 7.7 270 19:18 17.03.2020
6458 Rain 27 1010 88 10000 7.7 270 18:56 17.03.2020
6459 Rain 27 1010 88 10000 7.7 260 18:38 17.03.2020
6460 Rain 27 1010 88 10000 7.7 260 18:20 17.03.2020
6461 Rain 26 1009 94 10000 6.7 260 17:41 17.03.2020
6462 Rain 26 1009 94 10000 6.7 260 17:23 17.03.2020
6463 Rain 26 1009 94 10000 7.2 260 16:57 17.03.2020
6464 Rain 26 1009 94 10000 7.2 260 16:39 17.03.2020
6465 Rain 26 1009 94 7000 7.7 260 16:18 17.03.2020
6466 Rain 25 1009 94 3500 7.7 270 15:44 17.03.2020
6467 Rain 25 1009 100 2300 6.7 260 15:22 17.03.2020
6468 Rain 26 1009 94 5000 8.2 260 14:44 17.03.2020
6469 Rain 26 1010 94 10000 7.7 260 14:23 17.03.2020
6470 Rain 26 1010 94 10000 7.2 260 13:46 17.03.2020
6471 Rain 25 1010 94 10000 6.7 250 13:28 17.03.2020
6472 Rain 25 1010 100 7000 4.6 240 12:59 17.03.2020
6473 Rain 25 1010 100 8000 5.1 230 12:40 17.03.2020
6474 Rain 25 1010 100 8000 5.1 230 12:22 17.03.2020
6475 Rain 24 1010 100 7000 4.6 220 11:47 17.03.2020
6476 Rain 24 1011 100 1800 4.6 230 11:28 17.03.2020
6477 Rain 24 1011 100 1100 3.6 240 10:58 17.03.2020
6478 Rain 24 1011 100 1100 3.6 240 10:38 17.03.2020
6479 Rain 28 1010 88 10000 7.2 270 10:20 17.03.2020
6480 Rain 27 1010 88 10000 5.7 270 09:57 17.03.2020
6481 Rain 27 1010 88 10000 5.7 270 09:39 17.03.2020
6482 Rain 27 1010 88 10000 5.7 270 09:18 17.03.2020
6483 Rain 27 1011 88 10000 6.2 260 08:43 17.03.2020
6484 Rain 28 1010 83 10000 6.2 260 08:21 17.03.2020
6485 Rain 27 1010 88 10000 5.7 270 07:50 17.03.2020
6486 Rain 27 1010 83 10000 6.7 270 07:26 17.03.2020
6487 Drizzle 27 1009 88 10000 6.7 270 06:58 17.03.2020
6488 Rain 27 1009 88 10000 6.2 270 06:33 17.03.2020
6489 Rain 28 1009 83 10000 5.1 270 05:46 17.03.2020
6490 Rain 27 1009 94 10000 5.7 260 03:36 17.03.2020
6491 Rain 27 1010 88 9000 6.2 260 02:45 17.03.2020
6492 Rain 29 1010 79 10000 7.2 270 01:41 17.03.2020
6493 Rain 28 1010 83 10000 7.2 280 01:19 17.03.2020
6494 Clouds 29 1011 74 10000 6.7 280 00:19 17.03.2020
6495 Clouds 29 1011 74 10000 6.7 270 23:44 16.03.2020
6496 Clouds 29 1012 79 0 8.01 298 23:23 16.03.2020
6497 Clouds 29 1012 74 10000 7.2 280 22:39 16.03.2020
6498 Clouds 29 1012 79 10000 6.2 280 22:20 16.03.2020
6499 Clouds 29 1012 79 10000 6.2 280 21:45 16.03.2020
6500 Clouds 29 1013 79 10000 5.7 280 21:27 16.03.2020
6501 Clouds 29 1013 79 10000 5.7 280 20:59 16.03.2020
6502 Clouds 29 1013 79 10000 5.7 280 20:40 16.03.2020
6503 Clouds 28 1013 83 10000 5.7 280 20:21 16.03.2020
6504 Clouds 28 1013 83 10000 5.7 270 19:46 16.03.2020
6505 Clouds 28 1012 83 10000 5.7 280 19:25 16.03.2020
6506 Clouds 28 1012 83 10000 5.7 280 19:25 16.03.2020
6507 Clouds 28 1012 83 10000 5.1 260 18:59 16.03.2020
6508 Clouds 28 1012 78 10000 5.7 260 18:39 16.03.2020
6509 Clouds 28 1012 78 10000 5.7 260 18:20 16.03.2020
6510 Clouds 28 1012 83 10000 6.2 280 17:46 16.03.2020
6511 Clouds 28 1011 83 10000 6.2 280 17:25 16.03.2020
6512 Clouds 28 1011 83 10000 6.2 280 16:57 16.03.2020
6513 Clouds 28 1011 83 10000 6.2 280 16:39 16.03.2020
6514 Clouds 28 1011 83 10000 6.2 280 16:39 16.03.2020
6515 Clouds 28 1011 83 10000 5.7 280 16:20 16.03.2020
6516 Clouds 27 1011 88 10000 5.1 280 15:43 16.03.2020
6517 Clouds 28 1011 83 10000 5.1 270 15:23 16.03.2020
6518 Clouds 27 1011 88 10000 5.7 270 14:47 16.03.2020
6519 Rain 28 1012 83 10000 5.1 280 14:20 16.03.2020
6520 Rain 28 1012 83 10000 4.6 290 13:47 16.03.2020
6521 Rain 28 1012 83 10000 4.1 290 13:27 16.03.2020
6522 Rain 28 1013 83 10000 4.1 290 12:57 16.03.2020
6523 Rain 28 1013 83 10000 3.6 300 12:38 16.03.2020
6524 Rain 28 1013 83 10000 3.6 300 12:20 16.03.2020
6525 Rain 28 1013 83 10000 3.6 310 11:42 16.03.2020
6526 Rain 28 1014 83 10000 3.1 310 11:23 16.03.2020
6527 Rain 28 1014 83 10000 3.6 290 10:43 16.03.2020
6528 Rain 27 1014 88 10000 3.1 280 10:24 16.03.2020
6529 Rain 28 1014 83 10000 3.1 290 09:49 16.03.2020
6530 Rain 28 1014 83 10000 3.6 290 09:30 16.03.2020
6531 Rain 28 1014 83 10000 3.6 290 08:59 16.03.2020
6532 Rain 28 1014 83 10000 3.6 290 08:36 16.03.2020
6533 Rain 28 1014 83 10000 3.1 280 08:18 16.03.2020
6534 Rain 28 1014 83 10000 3.6 280 07:40 16.03.2020
6535 Rain 28 1014 83 10000 4.1 270 07:18 16.03.2020
6536 Rain 28 1013 83 10000 3.1 280 06:28 16.03.2020
6537 Rain 28 1013 83 10000 3.1 290 05:54 16.03.2020
6538 Clouds 29 1013 79 10000 3.1 300 03:36 16.03.2020
6539 Clouds 29 1013 79 10000 3.1 310 01:44 16.03.2020
6540 Clouds 29 1013 79 10000 3.1 340 00:43 16.03.2020
6541 Clouds 30 1014 74 10000 3.1 350 23:49 15.03.2020
6542 Clouds 29 1014 79 10000 2.6 350 23:23 15.03.2020
6543 Clouds 29 1014 79 10000 2.6 330 22:58 15.03.2020
6544 Clouds 29 1014 79 10000 2.6 330 22:38 15.03.2020
6545 Clouds 29 1015 79 10000 1 10 22:19 15.03.2020
6546 Clouds 29 1015 79 10000 1.5 360 21:39 15.03.2020
6547 Clouds 28 1015 83 10000 2.1 110 21:19 15.03.2020
6548 Clouds 28 1015 83 10000 1 30 20:43 15.03.2020
6549 Clouds 28 1014 83 10000 1.5 50 20:22 15.03.2020
6550 Clouds 28 1015 83 10000 1 40 19:59 15.03.2020
6551 Clouds 28 1015 83 10000 1 40 19:40 15.03.2020
6552 Clouds 27 1014 94 10000 0.5 110 19:22 15.03.2020
6553 Clouds 25 1014 100 10000 0.5 130 18:57 15.03.2020
6554 Clouds 25 1014 100 10000 0.5 130 18:38 15.03.2020
6555 Clouds 24 1014 100 10000 0.5 150 18:20 15.03.2020
6556 Clouds 24 1014 100 9000 1 70 17:42 15.03.2020
6557 Clouds 24 1014 100 10000 1 180 17:22 15.03.2020
6558 Rain 24 1013 94 10000 0.5 180 16:59 15.03.2020
6559 Rain 24 1013 94 10000 0.5 180 16:41 15.03.2020
6560 Rain 24 1013 94 10000 0.5 110 16:22 15.03.2020
6561 Rain 24 1013 100 10000 0.5 50 15:56 15.03.2020
6562 Rain 24 1013 100 10000 0.5 50 15:38 15.03.2020
6563 Rain 24 1013 100 10000 1 80 15:19 15.03.2020
6564 Rain 24 1013 100 10000 0.5 80 14:41 15.03.2020
6565 Rain 24 1013 100 10000 0.5 80 14:40 15.03.2020
6566 Rain 24 1014 100 10000 1 100 14:22 15.03.2020
6567 Clouds 24 1014 100 10000 1 70 13:56 15.03.2020
6568 Clouds 24 1014 100 10000 1 70 13:38 15.03.2020
6569 Clouds 24 1014 100 10000 0.5 130 13:18 15.03.2020
6570 Clouds 24 1014 100 10000 1 70 12:40 15.03.2020
6571 Clouds 24 1014 100 10000 0.5 80 12:22 15.03.2020
6572 Clouds 24 1015 100 10000 0.5 180 11:45 15.03.2020
6573 Clouds 25 1015 94 10000 1 120 11:26 15.03.2020
6574 Clouds 25 1015 88 10000 1.5 110 10:59 15.03.2020
6575 Clouds 25 1015 88 10000 1.5 110 10:40 15.03.2020
6576 Clouds 25 1015 88 10000 1 100 10:22 15.03.2020
6577 Clouds 25 1016 88 10000 1 90 09:59 15.03.2020
6578 Clouds 25 1016 88 10000 1 90 09:38 15.03.2020
6579 Clouds 25 1016 94 10000 0.5 90 09:20 15.03.2020
6580 Clouds 25 1015 88 10000 1 90 08:41 15.03.2020
6581 Clouds 25 1015 94 10000 1 80 08:19 15.03.2020
6582 Clouds 26 1015 88 10000 1 130 07:48 15.03.2020
6583 Clouds 26 1015 88 10000 1.5 100 07:22 15.03.2020
6584 Clouds 26 1014 88 10000 1.5 110 06:43 15.03.2020
6585 Clouds 28 1014 74 10000 3.6 60 05:48 15.03.2020
6586 Clear 28 1014 78 10000 3.6 60 04:56 15.03.2020
6587 Clear 28 1014 78 10000 3.6 60 04:37 15.03.2020
6588 Clear 29 1014 74 10000 3.6 60 04:18 15.03.2020
6589 Clear 29 1014 74 10000 3.6 50 02:54 15.03.2020
6590 Clouds 29 1014 70 10000 3.1 40 02:21 15.03.2020
6591 Clouds 29 1014 74 10000 3.1 40 00:57 15.03.2020
6592 Clouds 29 1014 74 10000 3.1 40 00:39 15.03.2020
6593 Clouds 29 1015 74 10000 3.1 50 00:18 15.03.2020
6594 Clouds 29 1015 74 10000 3.1 40 23:38 14.03.2020
6595 Clouds 29 1015 74 10000 3.1 40 23:19 14.03.2020
6596 Clouds 29 1015 74 10000 3.6 50 22:55 14.03.2020
6597 Clouds 29 1015 74 10000 3.6 50 22:55 14.03.2020
6598 Clouds 29 1015 74 10000 3.6 50 22:37 14.03.2020
6599 Clouds 29 1016 74 10000 3.1 50 22:19 14.03.2020
6600 Clouds 29 1016 74 10000 2.6 50 21:54 14.03.2020
6601 Clouds 29 1016 74 10000 2.6 50 21:36 14.03.2020
6602 Clouds 29 1016 74 10000 3.1 50 21:18 14.03.2020
6603 Clouds 29 1016 74 10000 2.6 50 20:55 14.03.2020
6604 Clouds 29 1016 74 10000 2.6 50 20:36 14.03.2020
6605 Clouds 28 1016 78 10000 2.6 60 20:18 14.03.2020
6606 Clouds 27 1015 83 10000 2.1 80 19:40 14.03.2020
6607 Clouds 26 1015 88 10000 1.5 90 19:20 14.03.2020
6608 Clouds 23 1015 100 10000 1 80 18:39 14.03.2020
6609 Clouds 23 1015 100 10000 1 80 18:20 14.03.2020
6610 Clouds 23 1014 100 10000 0.5 90 17:41 14.03.2020
6611 Clouds 23 1014 100 10000 0.5 90 17:21 14.03.2020
6612 Clouds 23 1014 100 10000 0.5 120 16:57 14.03.2020
6613 Clouds 23 1014 100 10000 0.5 120 16:38 14.03.2020
6614 Clouds 23 1013 100 10000 0.5 110 16:18 14.03.2020
6615 Clouds 23 1013 100 10000 0.5 120 15:28 14.03.2020
6616 Clouds 23 1013 100 10000 0.5 180 14:59 14.03.2020
6617 Clouds 23 1013 100 10000 0.5 180 14:38 14.03.2020
6618 Clouds 23 1014 100 10000 0.5 140 14:20 14.03.2020
6619 Clouds 23 1014 100 10000 1 190 13:56 14.03.2020
6620 Clouds 23 1014 100 10000 1 190 13:38 14.03.2020
6621 Clear 23 1014 100 10000 0.5 160 13:18 14.03.2020
6622 Clear 24 1014 94 10000 1 180 12:43 14.03.2020
6623 Clear 24 1014 94 10000 1 180 12:43 14.03.2020
6624 Clear 24 1014 100 10000 1 90 12:24 14.03.2020
6625 Clear 24 1015 100 10000 0.5 180 11:43 14.03.2020
6626 Clear 24 1015 100 10000 0.5 180 11:43 14.03.2020
6627 Clear 24 1015 100 10000 0.5 180 11:25 14.03.2020
6628 Clear 24 1015 100 10000 0.5 170 10:47 14.03.2020
6629 Clear 24 1015 100 10000 0.5 170 10:47 14.03.2020
6630 Clear 24 1015 100 10000 0.5 170 10:28 14.03.2020
6631 Clear 24 1015 100 10000 1 180 09:59 14.03.2020
6632 Clear 24 1015 100 10000 1 180 09:40 14.03.2020
6633 Clear 25 1015 94 10000 0.5 170 09:21 14.03.2020
6634 Clear 25 1015 94 10000 1 180 08:46 14.03.2020
6635 Clear 25 1015 94 10000 1 180 08:26 14.03.2020
6636 Clear 25 1015 94 10000 0.5 180 07:40 14.03.2020
6637 Clear 26 1014 88 10000 1 170 07:21 14.03.2020
6638 Clear 26 1014 88 10000 1 190 06:45 14.03.2020
6639 Clear 28 1013 74 10000 1 310 06:26 14.03.2020
6640 Clear 29 1013 70 10000 1.5 310 04:53 14.03.2020
6641 Clear 30 1013 70 10000 2.1 330 03:34 14.03.2020
6642 Clear 30 1013 66 10000 2.1 330 02:43 14.03.2020
6643 Clouds 30 1013 70 10000 2.6 360 01:39 14.03.2020
6644 Clouds 29 1014 74 10000 2.1 350 00:22 14.03.2020
6645 Clouds 29 1014 74 10000 2.1 350 23:38 13.03.2020
6646 Clouds 29 1014 74 10000 2.1 350 23:38 13.03.2020
6647 Clouds 29 1014 74 10000 2.1 350 23:18 13.03.2020
6648 Clouds 29 1014 70 10000 2.6 350 22:41 13.03.2020
6649 Clouds 29 1014 70 10000 2.6 10 22:20 13.03.2020
6650 Clouds 29 1015 74 10000 2.6 360 21:40 13.03.2020
6651 Clouds 29 1015 70 10000 2.6 10 21:18 13.03.2020
6652 Clouds 29 1015 74 10000 2.6 360 20:41 13.03.2020
6653 Clouds 28 1015 78 10000 2.1 340 20:22 13.03.2020
6654 Clouds 28 1014 78 10000 2.1 340 19:51 13.03.2020
6655 Clouds 28 1014 74 10000 2.1 350 19:31 13.03.2020
6656 Clouds 26 1014 88 10000 1 70 18:59 13.03.2020
6657 Clouds 26 1014 88 10000 1 70 18:39 13.03.2020
6658 Clouds 25 1013 94 10000 0.5 100 18:21 13.03.2020
6659 Clouds 27 1013 78 10000 2.1 330 17:42 13.03.2020
6660 Clouds 27 1013 78 10000 2.1 330 17:21 13.03.2020
6661 Clouds 27 1012 78 10000 1.5 340 16:56 13.03.2020
6662 Clouds 26 1012 83 10000 1.5 60 16:37 13.03.2020
6663 Clouds 26 1012 83 10000 1.5 60 16:19 13.03.2020
6664 Clouds 27 1012 83 10000 1.5 20 15:41 13.03.2020
6665 Clouds 27 1012 83 10000 2.1 340 15:21 13.03.2020
6666 Clouds 27 1013 83 10000 2.6 310 14:44 13.03.2020
6667 Clouds 27 1013 83 10000 2.6 320 14:23 13.03.2020
6668 Rain 27 1013 83 10000 2.1 300 13:58 13.03.2020
6669 Rain 27 1013 83 10000 2.1 300 13:40 13.03.2020
6670 Rain 26 1013 88 10000 2.1 290 13:20 13.03.2020
6671 Rain 27 1013 88 10000 2.6 290 12:55 13.03.2020
6672 Rain 27 1013 83 10000 3.1 290 12:37 13.03.2020
6673 Rain 27 1013 83 10000 3.1 290 12:18 13.03.2020
6674 Rain 27 1014 83 10000 3.1 310 11:43 13.03.2020
6675 Rain 27 1014 83 10000 3.1 310 11:25 13.03.2020
6676 Rain 27 1014 83 10000 3.1 310 10:57 13.03.2020
6677 Rain 27 1014 83 10000 3.1 310 10:39 13.03.2020
6678 Rain 27 1014 83 10000 3.6 310 10:21 13.03.2020
6679 Rain 27 1014 83 10000 3.6 320 09:44 13.03.2020
6680 Rain 26 1014 94 10000 1.5 290 09:25 13.03.2020
6681 Rain 25 1014 94 10000 0.5 210 08:48 13.03.2020
6682 Rain 25 1014 94 10000 1 90 08:23 13.03.2020
6683 Rain 27 1013 83 10000 2.1 30 07:58 13.03.2020
6684 Rain 27 1013 83 10000 2.1 30 07:38 13.03.2020
6685 Rain 25 1013 94 10000 1 210 07:18 13.03.2020